<?xml version="1.0" encoding="UTF-8" standalone="no" ?>
<gpx xmlns="http://www.topografix.com/GPX/1/1" xmlns:xsi="http://www.w3.org/2001/XMLSchema-instance" xsi:schemaLocation="http://www.topografix.com/GPX/1/1 http://www.topografix.com/GPX/1/1/gpx.xsd" version="1.1" creator="VisuGPX - https://www.visugpx.com">
  <metadata>
    <name>83-D-Draguignan</name>
    <desc><![CDATA[83-D-Draguignan : le Malmont
2024-02-18]]></desc>
  </metadata>
  <trk>
    <name><![CDATA[2024-02-18-D-Malmont]]></name>
    <extensions>
      <line xmlns="http://www.topografix.com/GPX/gpx_style/0/2">
        <width>4</width>
      </line>
    </extensions>
    <trkseg>
      <trkpt lat="43.5578" lon="6.43258">
        <ele>235.1</ele>
        <time>2024-02-18T08:23:13.000Z</time>
      </trkpt>
      <trkpt lat="43.5578" lon="6.43258">
        <ele>235.1</ele>
        <time>2024-02-18T08:23:14.000Z</time>
      </trkpt>
      <trkpt lat="43.5578" lon="6.43258">
        <ele>235.2</ele>
        <time>2024-02-18T08:23:15.000Z</time>
      </trkpt>
      <trkpt lat="43.5578" lon="6.43258">
        <ele>235.2</ele>
        <time>2024-02-18T08:23:16.000Z</time>
      </trkpt>
      <trkpt lat="43.5578" lon="6.43258">
        <ele>235.2</ele>
        <time>2024-02-18T08:23:20.000Z</time>
      </trkpt>
      <trkpt lat="43.55781" lon="6.43258">
        <ele>235.2</ele>
        <time>2024-02-18T08:23:21.000Z</time>
      </trkpt>
      <trkpt lat="43.5578" lon="6.43259">
        <ele>235.1</ele>
        <time>2024-02-18T08:23:26.000Z</time>
      </trkpt>
      <trkpt lat="43.5578" lon="6.43259">
        <ele>235.1</ele>
        <time>2024-02-18T08:23:27.000Z</time>
      </trkpt>
      <trkpt lat="43.5578" lon="6.43259">
        <ele>235.1</ele>
        <time>2024-02-18T08:23:28.000Z</time>
      </trkpt>
      <trkpt lat="43.5578" lon="6.43259">
        <ele>235.1</ele>
        <time>2024-02-18T08:23:37.000Z</time>
      </trkpt>
      <trkpt lat="43.5578" lon="6.43259">
        <ele>235.1</ele>
        <time>2024-02-18T08:23:37.000Z</time>
      </trkpt>
      <trkpt lat="43.5578" lon="6.43259">
        <ele>235.1</ele>
        <time>2024-02-18T08:23:38.000Z</time>
      </trkpt>
      <trkpt lat="43.5578" lon="6.43259">
        <ele>235</ele>
        <time>2024-02-18T08:23:39.000Z</time>
      </trkpt>
      <trkpt lat="43.5578" lon="6.43259">
        <ele>235</ele>
        <time>2024-02-18T08:23:40.000Z</time>
      </trkpt>
      <trkpt lat="43.5578" lon="6.43259">
        <ele>235</ele>
        <time>2024-02-18T08:23:41.000Z</time>
      </trkpt>
      <trkpt lat="43.55781" lon="6.43259">
        <ele>235</ele>
        <time>2024-02-18T08:23:42.000Z</time>
      </trkpt>
      <trkpt lat="43.55781" lon="6.43259">
        <ele>235</ele>
        <time>2024-02-18T08:23:43.000Z</time>
      </trkpt>
      <trkpt lat="43.55781" lon="6.43259">
        <ele>235</ele>
        <time>2024-02-18T08:23:44.000Z</time>
      </trkpt>
      <trkpt lat="43.55781" lon="6.43261">
        <ele>234.9</ele>
        <time>2024-02-18T08:23:49.000Z</time>
      </trkpt>
      <trkpt lat="43.55781" lon="6.43261">
        <ele>234.9</ele>
        <time>2024-02-18T08:23:50.000Z</time>
      </trkpt>
      <trkpt lat="43.55781" lon="6.43261">
        <ele>234.9</ele>
        <time>2024-02-18T08:23:51.000Z</time>
      </trkpt>
      <trkpt lat="43.55781" lon="6.43261">
        <ele>234.9</ele>
        <time>2024-02-18T08:23:52.000Z</time>
      </trkpt>
      <trkpt lat="43.55781" lon="6.43261">
        <ele>234.9</ele>
        <time>2024-02-18T08:23:53.000Z</time>
      </trkpt>
      <trkpt lat="43.55781" lon="6.43261">
        <ele>234.9</ele>
        <time>2024-02-18T08:23:54.000Z</time>
      </trkpt>
      <trkpt lat="43.5578" lon="6.43261">
        <ele>234.9</ele>
        <time>2024-02-18T08:23:55.000Z</time>
      </trkpt>
      <trkpt lat="43.55781" lon="6.43261">
        <ele>234.9</ele>
        <time>2024-02-18T08:23:56.000Z</time>
      </trkpt>
      <trkpt lat="43.55781" lon="6.43261">
        <ele>234.9</ele>
        <time>2024-02-18T08:23:57.000Z</time>
      </trkpt>
      <trkpt lat="43.5578" lon="6.43261">
        <ele>234.9</ele>
        <time>2024-02-18T08:23:58.000Z</time>
      </trkpt>
      <trkpt lat="43.55781" lon="6.43262">
        <ele>234.9</ele>
        <time>2024-02-18T08:23:59.000Z</time>
      </trkpt>
      <trkpt lat="43.55781" lon="6.43262">
        <ele>234.9</ele>
        <time>2024-02-18T08:24:04.000Z</time>
      </trkpt>
      <trkpt lat="43.55781" lon="6.43262">
        <ele>235</ele>
        <time>2024-02-18T08:24:05.000Z</time>
      </trkpt>
      <trkpt lat="43.55781" lon="6.43262">
        <ele>235</ele>
        <time>2024-02-18T08:24:06.000Z</time>
      </trkpt>
      <trkpt lat="43.55781" lon="6.43262">
        <ele>234.9</ele>
        <time>2024-02-18T08:24:07.000Z</time>
      </trkpt>
      <trkpt lat="43.55781" lon="6.43262">
        <ele>234.9</ele>
        <time>2024-02-18T08:24:08.000Z</time>
      </trkpt>
      <trkpt lat="43.55781" lon="6.43262">
        <ele>234.9</ele>
        <time>2024-02-18T08:24:09.000Z</time>
      </trkpt>
      <trkpt lat="43.55781" lon="6.43262">
        <ele>234.9</ele>
        <time>2024-02-18T08:24:10.000Z</time>
      </trkpt>
      <trkpt lat="43.55781" lon="6.43262">
        <ele>234.9</ele>
        <time>2024-02-18T08:24:14.000Z</time>
      </trkpt>
      <trkpt lat="43.55781" lon="6.43262">
        <ele>235</ele>
        <time>2024-02-18T08:24:15.000Z</time>
      </trkpt>
      <trkpt lat="43.55781" lon="6.43262">
        <ele>234.9</ele>
        <time>2024-02-18T08:24:19.000Z</time>
      </trkpt>
      <trkpt lat="43.55781" lon="6.43262">
        <ele>234.9</ele>
        <time>2024-02-18T08:24:20.000Z</time>
      </trkpt>
      <trkpt lat="43.55781" lon="6.43262">
        <ele>234.9</ele>
        <time>2024-02-18T08:24:21.000Z</time>
      </trkpt>
      <trkpt lat="43.55781" lon="6.43262">
        <ele>234.9</ele>
        <time>2024-02-18T08:24:22.000Z</time>
      </trkpt>
      <trkpt lat="43.55781" lon="6.43262">
        <ele>234.9</ele>
        <time>2024-02-18T08:24:23.000Z</time>
      </trkpt>
      <trkpt lat="43.55781" lon="6.43262">
        <ele>235</ele>
        <time>2024-02-18T08:24:26.000Z</time>
      </trkpt>
      <trkpt lat="43.55781" lon="6.43262">
        <ele>235</ele>
        <time>2024-02-18T08:24:27.000Z</time>
      </trkpt>
      <trkpt lat="43.55781" lon="6.43262">
        <ele>234.9</ele>
        <time>2024-02-18T08:24:28.000Z</time>
      </trkpt>
      <trkpt lat="43.55781" lon="6.43262">
        <ele>234.9</ele>
        <time>2024-02-18T08:24:29.000Z</time>
      </trkpt>
      <trkpt lat="43.55782" lon="6.43262">
        <ele>234.8</ele>
        <time>2024-02-18T08:24:30.000Z</time>
      </trkpt>
      <trkpt lat="43.55782" lon="6.43262">
        <ele>234.7</ele>
        <time>2024-02-18T08:24:31.000Z</time>
      </trkpt>
      <trkpt lat="43.55782" lon="6.43262">
        <ele>234.7</ele>
        <time>2024-02-18T08:24:32.000Z</time>
      </trkpt>
      <trkpt lat="43.55782" lon="6.43262">
        <ele>234.7</ele>
        <time>2024-02-18T08:24:33.000Z</time>
      </trkpt>
      <trkpt lat="43.55782" lon="6.43262">
        <ele>234.9</ele>
        <time>2024-02-18T08:24:36.000Z</time>
      </trkpt>
      <trkpt lat="43.55782" lon="6.43262">
        <ele>235</ele>
        <time>2024-02-18T08:24:37.000Z</time>
      </trkpt>
      <trkpt lat="43.55782" lon="6.43262">
        <ele>235</ele>
        <time>2024-02-18T08:24:38.000Z</time>
      </trkpt>
      <trkpt lat="43.55772" lon="6.43266">
        <ele>234.9</ele>
        <time>2024-02-18T08:24:48.000Z</time>
      </trkpt>
      <trkpt lat="43.55778" lon="6.43264">
        <ele>234.8</ele>
        <time>2024-02-18T08:25:02.000Z</time>
      </trkpt>
      <trkpt lat="43.55778" lon="6.43264">
        <ele>234.8</ele>
        <time>2024-02-18T08:25:03.000Z</time>
      </trkpt>
      <trkpt lat="43.55779" lon="6.43263">
        <ele>234.8</ele>
        <time>2024-02-18T08:25:06.000Z</time>
      </trkpt>
      <trkpt lat="43.55779" lon="6.43263">
        <ele>234.8</ele>
        <time>2024-02-18T08:25:07.000Z</time>
      </trkpt>
      <trkpt lat="43.55779" lon="6.43263">
        <ele>234.8</ele>
        <time>2024-02-18T08:25:08.000Z</time>
      </trkpt>
      <trkpt lat="43.55779" lon="6.43263">
        <ele>234.8</ele>
        <time>2024-02-18T08:25:12.000Z</time>
      </trkpt>
      <trkpt lat="43.55779" lon="6.43263">
        <ele>234.8</ele>
        <time>2024-02-18T08:25:13.000Z</time>
      </trkpt>
      <trkpt lat="43.55779" lon="6.43263">
        <ele>234.8</ele>
        <time>2024-02-18T08:25:14.000Z</time>
      </trkpt>
      <trkpt lat="43.55779" lon="6.43263">
        <ele>234.8</ele>
        <time>2024-02-18T08:25:15.000Z</time>
      </trkpt>
      <trkpt lat="43.55779" lon="6.43263">
        <ele>234.8</ele>
        <time>2024-02-18T08:25:16.000Z</time>
      </trkpt>
      <trkpt lat="43.55783" lon="6.43264">
        <ele>234.7</ele>
        <time>2024-02-18T08:25:41.000Z</time>
      </trkpt>
      <trkpt lat="43.55783" lon="6.43264">
        <ele>234.8</ele>
        <time>2024-02-18T08:25:42.000Z</time>
      </trkpt>
      <trkpt lat="43.55783" lon="6.43264">
        <ele>234.8</ele>
        <time>2024-02-18T08:25:43.000Z</time>
      </trkpt>
      <trkpt lat="43.55784" lon="6.43263">
        <ele>234.9</ele>
        <time>2024-02-18T08:25:46.000Z</time>
      </trkpt>
      <trkpt lat="43.55784" lon="6.43262">
        <ele>234.9</ele>
        <time>2024-02-18T08:25:47.000Z</time>
      </trkpt>
      <trkpt lat="43.55784" lon="6.43261">
        <ele>234.9</ele>
        <time>2024-02-18T08:25:48.000Z</time>
      </trkpt>
      <trkpt lat="43.55784" lon="6.43261">
        <ele>235</ele>
        <time>2024-02-18T08:25:57.000Z</time>
      </trkpt>
      <trkpt lat="43.55784" lon="6.43261">
        <ele>234.9</ele>
        <time>2024-02-18T08:25:58.000Z</time>
      </trkpt>
      <trkpt lat="43.55784" lon="6.43261">
        <ele>234.9</ele>
        <time>2024-02-18T08:25:59.000Z</time>
      </trkpt>
      <trkpt lat="43.55784" lon="6.43261">
        <ele>235</ele>
        <time>2024-02-18T08:26:00.000Z</time>
      </trkpt>
      <trkpt lat="43.5578" lon="6.4326">
        <ele>234.9</ele>
        <time>2024-02-18T08:26:10.000Z</time>
      </trkpt>
      <trkpt lat="43.5578" lon="6.4326">
        <ele>234.9</ele>
        <time>2024-02-18T08:26:11.000Z</time>
      </trkpt>
      <trkpt lat="43.5578" lon="6.4326">
        <ele>235</ele>
        <time>2024-02-18T08:26:29.000Z</time>
      </trkpt>
      <trkpt lat="43.5578" lon="6.4326">
        <ele>235</ele>
        <time>2024-02-18T08:26:30.000Z</time>
      </trkpt>
      <trkpt lat="43.55779" lon="6.4326">
        <ele>235</ele>
        <time>2024-02-18T08:26:34.000Z</time>
      </trkpt>
      <trkpt lat="43.55779" lon="6.4326">
        <ele>235</ele>
        <time>2024-02-18T08:26:35.000Z</time>
      </trkpt>
      <trkpt lat="43.55779" lon="6.4326">
        <ele>235</ele>
        <time>2024-02-18T08:26:36.000Z</time>
      </trkpt>
      <trkpt lat="43.55779" lon="6.4326">
        <ele>235</ele>
        <time>2024-02-18T08:26:40.000Z</time>
      </trkpt>
      <trkpt lat="43.55779" lon="6.43261">
        <ele>235</ele>
        <time>2024-02-18T08:26:41.000Z</time>
      </trkpt>
      <trkpt lat="43.5578" lon="6.4326">
        <ele>235</ele>
        <time>2024-02-18T08:26:44.000Z</time>
      </trkpt>
      <trkpt lat="43.5578" lon="6.4326">
        <ele>235</ele>
        <time>2024-02-18T08:26:45.000Z</time>
      </trkpt>
      <trkpt lat="43.5578" lon="6.4326">
        <ele>235</ele>
        <time>2024-02-18T08:27:02.000Z</time>
      </trkpt>
      <trkpt lat="43.5578" lon="6.4326">
        <ele>235</ele>
        <time>2024-02-18T08:27:03.000Z</time>
      </trkpt>
      <trkpt lat="43.5578" lon="6.4326">
        <ele>235</ele>
        <time>2024-02-18T08:27:04.000Z</time>
      </trkpt>
      <trkpt lat="43.5578" lon="6.4326">
        <ele>235</ele>
        <time>2024-02-18T08:27:05.000Z</time>
      </trkpt>
      <trkpt lat="43.5578" lon="6.4326">
        <ele>235</ele>
        <time>2024-02-18T08:27:06.000Z</time>
      </trkpt>
      <trkpt lat="43.5578" lon="6.4326">
        <ele>235.1</ele>
        <time>2024-02-18T08:27:26.000Z</time>
      </trkpt>
      <trkpt lat="43.5578" lon="6.43261">
        <ele>235.1</ele>
        <time>2024-02-18T08:27:27.000Z</time>
      </trkpt>
      <trkpt lat="43.5578" lon="6.43261">
        <ele>235.1</ele>
        <time>2024-02-18T08:27:28.000Z</time>
      </trkpt>
      <trkpt lat="43.5578" lon="6.43262">
        <ele>235.1</ele>
        <time>2024-02-18T08:27:34.000Z</time>
      </trkpt>
      <trkpt lat="43.5578" lon="6.43262">
        <ele>235.1</ele>
        <time>2024-02-18T08:27:35.000Z</time>
      </trkpt>
      <trkpt lat="43.5578" lon="6.43261">
        <ele>235.1</ele>
        <time>2024-02-18T08:27:42.000Z</time>
      </trkpt>
      <trkpt lat="43.5578" lon="6.43261">
        <ele>235.1</ele>
        <time>2024-02-18T08:27:43.000Z</time>
      </trkpt>
      <trkpt lat="43.5578" lon="6.43261">
        <ele>235.1</ele>
        <time>2024-02-18T08:27:44.000Z</time>
      </trkpt>
      <trkpt lat="43.5578" lon="6.43261">
        <ele>235.1</ele>
        <time>2024-02-18T08:27:45.000Z</time>
      </trkpt>
      <trkpt lat="43.5578" lon="6.43261">
        <ele>235.1</ele>
        <time>2024-02-18T08:27:46.000Z</time>
      </trkpt>
      <trkpt lat="43.5578" lon="6.43261">
        <ele>235.1</ele>
        <time>2024-02-18T08:27:56.000Z</time>
      </trkpt>
      <trkpt lat="43.5578" lon="6.43261">
        <ele>235.1</ele>
        <time>2024-02-18T08:27:57.000Z</time>
      </trkpt>
      <trkpt lat="43.5578" lon="6.43261">
        <ele>235.1</ele>
        <time>2024-02-18T08:27:58.000Z</time>
      </trkpt>
      <trkpt lat="43.5578" lon="6.43261">
        <ele>235.1</ele>
        <time>2024-02-18T08:27:59.000Z</time>
      </trkpt>
      <trkpt lat="43.5578" lon="6.43261">
        <ele>235.1</ele>
        <time>2024-02-18T08:28:00.000Z</time>
      </trkpt>
      <trkpt lat="43.5578" lon="6.43261">
        <ele>235.1</ele>
        <time>2024-02-18T08:28:04.000Z</time>
      </trkpt>
      <trkpt lat="43.55781" lon="6.43261">
        <ele>235.1</ele>
        <time>2024-02-18T08:28:05.000Z</time>
      </trkpt>
      <trkpt lat="43.55789" lon="6.43253">
        <ele>235</ele>
        <time>2024-02-18T08:28:15.000Z</time>
      </trkpt>
      <trkpt lat="43.55795" lon="6.43244">
        <ele>235.1</ele>
        <time>2024-02-18T08:28:23.000Z</time>
      </trkpt>
      <trkpt lat="43.558" lon="6.43248">
        <ele>235.4</ele>
        <time>2024-02-18T08:28:37.000Z</time>
      </trkpt>
      <trkpt lat="43.558" lon="6.43248">
        <ele>235.5</ele>
        <time>2024-02-18T08:28:38.000Z</time>
      </trkpt>
      <trkpt lat="43.558" lon="6.4325">
        <ele>235.5</ele>
        <time>2024-02-18T08:28:39.000Z</time>
      </trkpt>
      <trkpt lat="43.558" lon="6.43251">
        <ele>235.5</ele>
        <time>2024-02-18T08:28:40.000Z</time>
      </trkpt>
      <trkpt lat="43.558" lon="6.43252">
        <ele>235.6</ele>
        <time>2024-02-18T08:28:41.000Z</time>
      </trkpt>
      <trkpt lat="43.558" lon="6.43265">
        <ele>236.2</ele>
        <time>2024-02-18T08:28:51.000Z</time>
      </trkpt>
      <trkpt lat="43.55803" lon="6.43276">
        <ele>237.9</ele>
        <time>2024-02-18T08:29:04.000Z</time>
      </trkpt>
      <trkpt lat="43.55809" lon="6.43287">
        <ele>239.4</ele>
        <time>2024-02-18T08:29:16.000Z</time>
      </trkpt>
      <trkpt lat="43.55815" lon="6.43298">
        <ele>241.1</ele>
        <time>2024-02-18T08:29:29.000Z</time>
      </trkpt>
      <trkpt lat="43.55822" lon="6.43305">
        <ele>242.2</ele>
        <time>2024-02-18T08:29:40.000Z</time>
      </trkpt>
      <trkpt lat="43.55831" lon="6.4331">
        <ele>243.3</ele>
        <time>2024-02-18T08:29:50.000Z</time>
      </trkpt>
      <trkpt lat="43.55839" lon="6.43302">
        <ele>244.3</ele>
        <time>2024-02-18T08:30:03.000Z</time>
      </trkpt>
      <trkpt lat="43.55839" lon="6.4329">
        <ele>245.2</ele>
        <time>2024-02-18T08:30:14.000Z</time>
      </trkpt>
      <trkpt lat="43.55844" lon="6.43279">
        <ele>247</ele>
        <time>2024-02-18T08:30:27.000Z</time>
      </trkpt>
      <trkpt lat="43.55854" lon="6.43279">
        <ele>249.1</ele>
        <time>2024-02-18T08:30:41.000Z</time>
      </trkpt>
      <trkpt lat="43.55861" lon="6.43288">
        <ele>251.1</ele>
        <time>2024-02-18T08:30:53.000Z</time>
      </trkpt>
      <trkpt lat="43.55865" lon="6.4329">
        <ele>253.3</ele>
        <time>2024-02-18T08:31:17.000Z</time>
      </trkpt>
      <trkpt lat="43.55865" lon="6.4329">
        <ele>253.4</ele>
        <time>2024-02-18T08:31:18.000Z</time>
      </trkpt>
      <trkpt lat="43.55864" lon="6.43292">
        <ele>253.4</ele>
        <time>2024-02-18T08:31:21.000Z</time>
      </trkpt>
      <trkpt lat="43.55864" lon="6.43293">
        <ele>253.5</ele>
        <time>2024-02-18T08:31:22.000Z</time>
      </trkpt>
      <trkpt lat="43.55863" lon="6.43294">
        <ele>253.5</ele>
        <time>2024-02-18T08:31:23.000Z</time>
      </trkpt>
      <trkpt lat="43.55864" lon="6.43295">
        <ele>253.5</ele>
        <time>2024-02-18T08:31:29.000Z</time>
      </trkpt>
      <trkpt lat="43.55864" lon="6.43295">
        <ele>253.5</ele>
        <time>2024-02-18T08:31:30.000Z</time>
      </trkpt>
      <trkpt lat="43.55865" lon="6.43294">
        <ele>253.6</ele>
        <time>2024-02-18T08:31:37.000Z</time>
      </trkpt>
      <trkpt lat="43.55865" lon="6.43294">
        <ele>253.6</ele>
        <time>2024-02-18T08:31:38.000Z</time>
      </trkpt>
      <trkpt lat="43.55865" lon="6.43293">
        <ele>253.7</ele>
        <time>2024-02-18T08:31:39.000Z</time>
      </trkpt>
      <trkpt lat="43.55865" lon="6.43292">
        <ele>253.7</ele>
        <time>2024-02-18T08:31:44.000Z</time>
      </trkpt>
      <trkpt lat="43.55865" lon="6.43292">
        <ele>253.7</ele>
        <time>2024-02-18T08:31:45.000Z</time>
      </trkpt>
      <trkpt lat="43.55866" lon="6.43292">
        <ele>253.7</ele>
        <time>2024-02-18T08:31:46.000Z</time>
      </trkpt>
      <trkpt lat="43.55866" lon="6.43292">
        <ele>253.6</ele>
        <time>2024-02-18T08:31:47.000Z</time>
      </trkpt>
      <trkpt lat="43.55867" lon="6.43292">
        <ele>253.6</ele>
        <time>2024-02-18T08:31:48.000Z</time>
      </trkpt>
      <trkpt lat="43.55867" lon="6.43299">
        <ele>253.8</ele>
        <time>2024-02-18T08:31:59.000Z</time>
      </trkpt>
      <trkpt lat="43.55867" lon="6.43299">
        <ele>253.8</ele>
        <time>2024-02-18T08:32:00.000Z</time>
      </trkpt>
      <trkpt lat="43.5587" lon="6.43302">
        <ele>253.8</ele>
        <time>2024-02-18T08:32:09.000Z</time>
      </trkpt>
      <trkpt lat="43.55871" lon="6.43303">
        <ele>253.8</ele>
        <time>2024-02-18T08:32:10.000Z</time>
      </trkpt>
      <trkpt lat="43.55874" lon="6.43303">
        <ele>254.1</ele>
        <time>2024-02-18T08:32:29.000Z</time>
      </trkpt>
      <trkpt lat="43.55874" lon="6.43303">
        <ele>254.1</ele>
        <time>2024-02-18T08:32:30.000Z</time>
      </trkpt>
      <trkpt lat="43.55874" lon="6.43302">
        <ele>254.1</ele>
        <time>2024-02-18T08:32:31.000Z</time>
      </trkpt>
      <trkpt lat="43.55874" lon="6.43302">
        <ele>254.2</ele>
        <time>2024-02-18T08:32:32.000Z</time>
      </trkpt>
      <trkpt lat="43.55873" lon="6.43302">
        <ele>254.2</ele>
        <time>2024-02-18T08:32:33.000Z</time>
      </trkpt>
      <trkpt lat="43.55873" lon="6.43302">
        <ele>254.2</ele>
        <time>2024-02-18T08:32:34.000Z</time>
      </trkpt>
      <trkpt lat="43.55873" lon="6.43302">
        <ele>254.2</ele>
        <time>2024-02-18T08:32:35.000Z</time>
      </trkpt>
      <trkpt lat="43.55873" lon="6.43302">
        <ele>254.3</ele>
        <time>2024-02-18T08:32:36.000Z</time>
      </trkpt>
      <trkpt lat="43.55873" lon="6.43302">
        <ele>254.3</ele>
        <time>2024-02-18T08:32:37.000Z</time>
      </trkpt>
      <trkpt lat="43.55873" lon="6.43303">
        <ele>254.3</ele>
        <time>2024-02-18T08:32:38.000Z</time>
      </trkpt>
      <trkpt lat="43.55873" lon="6.43304">
        <ele>254.3</ele>
        <time>2024-02-18T08:32:39.000Z</time>
      </trkpt>
      <trkpt lat="43.55878" lon="6.43315">
        <ele>254.7</ele>
        <time>2024-02-18T08:32:54.000Z</time>
      </trkpt>
      <trkpt lat="43.55881" lon="6.43326">
        <ele>255.4</ele>
        <time>2024-02-18T08:33:07.000Z</time>
      </trkpt>
      <trkpt lat="43.55884" lon="6.43339">
        <ele>256.2</ele>
        <time>2024-02-18T08:33:18.000Z</time>
      </trkpt>
      <trkpt lat="43.55887" lon="6.43352">
        <ele>257.9</ele>
        <time>2024-02-18T08:33:30.000Z</time>
      </trkpt>
      <trkpt lat="43.55888" lon="6.43364">
        <ele>259.9</ele>
        <time>2024-02-18T08:33:42.000Z</time>
      </trkpt>
      <trkpt lat="43.5589" lon="6.43377">
        <ele>261.8</ele>
        <time>2024-02-18T08:33:56.000Z</time>
      </trkpt>
      <trkpt lat="43.55889" lon="6.4339">
        <ele>263.2</ele>
        <time>2024-02-18T08:34:10.000Z</time>
      </trkpt>
      <trkpt lat="43.55893" lon="6.43402">
        <ele>264.2</ele>
        <time>2024-02-18T08:34:20.000Z</time>
      </trkpt>
      <trkpt lat="43.55903" lon="6.43401">
        <ele>265</ele>
        <time>2024-02-18T08:34:29.000Z</time>
      </trkpt>
      <trkpt lat="43.55912" lon="6.43398">
        <ele>265.8</ele>
        <time>2024-02-18T08:34:37.000Z</time>
      </trkpt>
      <trkpt lat="43.55921" lon="6.43399">
        <ele>266.9</ele>
        <time>2024-02-18T08:34:49.000Z</time>
      </trkpt>
      <trkpt lat="43.55929" lon="6.43405">
        <ele>268.6</ele>
        <time>2024-02-18T08:35:00.000Z</time>
      </trkpt>
      <trkpt lat="43.55933" lon="6.43417">
        <ele>270.7</ele>
        <time>2024-02-18T08:35:15.000Z</time>
      </trkpt>
      <trkpt lat="43.55933" lon="6.4343">
        <ele>272.1</ele>
        <time>2024-02-18T08:35:25.000Z</time>
      </trkpt>
      <trkpt lat="43.55935" lon="6.43442">
        <ele>273.4</ele>
        <time>2024-02-18T08:35:34.000Z</time>
      </trkpt>
      <trkpt lat="43.55935" lon="6.43455">
        <ele>274.4</ele>
        <time>2024-02-18T08:35:44.000Z</time>
      </trkpt>
      <trkpt lat="43.5594" lon="6.43466">
        <ele>274.8</ele>
        <time>2024-02-18T08:35:52.000Z</time>
      </trkpt>
      <trkpt lat="43.55947" lon="6.43476">
        <ele>275.2</ele>
        <time>2024-02-18T08:36:02.000Z</time>
      </trkpt>
      <trkpt lat="43.55954" lon="6.43476">
        <ele>275.6</ele>
        <time>2024-02-18T08:36:12.000Z</time>
      </trkpt>
      <trkpt lat="43.55954" lon="6.43475">
        <ele>275.6</ele>
        <time>2024-02-18T08:36:13.000Z</time>
      </trkpt>
      <trkpt lat="43.55955" lon="6.43475">
        <ele>275.6</ele>
        <time>2024-02-18T08:36:14.000Z</time>
      </trkpt>
      <trkpt lat="43.55956" lon="6.43475">
        <ele>275.6</ele>
        <time>2024-02-18T08:36:15.000Z</time>
      </trkpt>
      <trkpt lat="43.55957" lon="6.43476">
        <ele>275.7</ele>
        <time>2024-02-18T08:36:16.000Z</time>
      </trkpt>
      <trkpt lat="43.55961" lon="6.43465">
        <ele>275.9</ele>
        <time>2024-02-18T08:36:26.000Z</time>
      </trkpt>
      <trkpt lat="43.55962" lon="6.43452">
        <ele>276.6</ele>
        <time>2024-02-18T08:36:38.000Z</time>
      </trkpt>
      <trkpt lat="43.55966" lon="6.43441">
        <ele>278.8</ele>
        <time>2024-02-18T08:36:54.000Z</time>
      </trkpt>
      <trkpt lat="43.55974" lon="6.43434">
        <ele>280.6</ele>
        <time>2024-02-18T08:37:05.000Z</time>
      </trkpt>
      <trkpt lat="43.55976" lon="6.43421">
        <ele>281.7</ele>
        <time>2024-02-18T08:37:14.000Z</time>
      </trkpt>
      <trkpt lat="43.55976" lon="6.43408">
        <ele>283.2</ele>
        <time>2024-02-18T08:37:24.000Z</time>
      </trkpt>
      <trkpt lat="43.5597" lon="6.43397">
        <ele>286.3</ele>
        <time>2024-02-18T08:37:34.000Z</time>
      </trkpt>
      <trkpt lat="43.55962" lon="6.43389">
        <ele>286.8</ele>
        <time>2024-02-18T08:37:43.000Z</time>
      </trkpt>
      <trkpt lat="43.55956" lon="6.43379">
        <ele>286.8</ele>
        <time>2024-02-18T08:37:52.000Z</time>
      </trkpt>
      <trkpt lat="43.5595" lon="6.43368">
        <ele>287.5</ele>
        <time>2024-02-18T08:38:03.000Z</time>
      </trkpt>
      <trkpt lat="43.55958" lon="6.43362">
        <ele>289.9</ele>
        <time>2024-02-18T08:38:22.000Z</time>
      </trkpt>
      <trkpt lat="43.55966" lon="6.43369">
        <ele>292.6</ele>
        <time>2024-02-18T08:38:37.000Z</time>
      </trkpt>
      <trkpt lat="43.55976" lon="6.43372">
        <ele>294.7</ele>
        <time>2024-02-18T08:38:50.000Z</time>
      </trkpt>
      <trkpt lat="43.55984" lon="6.43376">
        <ele>296.6</ele>
        <time>2024-02-18T08:39:01.000Z</time>
      </trkpt>
      <trkpt lat="43.55992" lon="6.43382">
        <ele>298.6</ele>
        <time>2024-02-18T08:39:14.000Z</time>
      </trkpt>
      <trkpt lat="43.56002" lon="6.43382">
        <ele>300.6</ele>
        <time>2024-02-18T08:39:25.000Z</time>
      </trkpt>
      <trkpt lat="43.5601" lon="6.43389">
        <ele>301.6</ele>
        <time>2024-02-18T08:39:41.000Z</time>
      </trkpt>
      <trkpt lat="43.56019" lon="6.43392">
        <ele>302.8</ele>
        <time>2024-02-18T08:39:53.000Z</time>
      </trkpt>
      <trkpt lat="43.56029" lon="6.43393">
        <ele>304.7</ele>
        <time>2024-02-18T08:40:05.000Z</time>
      </trkpt>
      <trkpt lat="43.56032" lon="6.4339">
        <ele>305.8</ele>
        <time>2024-02-18T08:40:24.000Z</time>
      </trkpt>
      <trkpt lat="43.56032" lon="6.4339">
        <ele>305.8</ele>
        <time>2024-02-18T08:40:25.000Z</time>
      </trkpt>
      <trkpt lat="43.56031" lon="6.43389">
        <ele>305.8</ele>
        <time>2024-02-18T08:40:39.000Z</time>
      </trkpt>
      <trkpt lat="43.56031" lon="6.43389">
        <ele>305.8</ele>
        <time>2024-02-18T08:40:40.000Z</time>
      </trkpt>
      <trkpt lat="43.56023" lon="6.43382">
        <ele>306</ele>
        <time>2024-02-18T08:40:51.000Z</time>
      </trkpt>
      <trkpt lat="43.56017" lon="6.43372">
        <ele>306.3</ele>
        <time>2024-02-18T08:41:00.000Z</time>
      </trkpt>
      <trkpt lat="43.56019" lon="6.43358">
        <ele>306.5</ele>
        <time>2024-02-18T08:41:08.000Z</time>
      </trkpt>
      <trkpt lat="43.56017" lon="6.43344">
        <ele>306.5</ele>
        <time>2024-02-18T08:41:18.000Z</time>
      </trkpt>
      <trkpt lat="43.56016" lon="6.43341">
        <ele>306.6</ele>
        <time>2024-02-18T08:41:27.000Z</time>
      </trkpt>
      <trkpt lat="43.56016" lon="6.4334">
        <ele>306.6</ele>
        <time>2024-02-18T08:41:28.000Z</time>
      </trkpt>
      <trkpt lat="43.56016" lon="6.4334">
        <ele>306.6</ele>
        <time>2024-02-18T08:41:29.000Z</time>
      </trkpt>
      <trkpt lat="43.56016" lon="6.4334">
        <ele>306.6</ele>
        <time>2024-02-18T08:41:30.000Z</time>
      </trkpt>
      <trkpt lat="43.56008" lon="6.43332">
        <ele>306.7</ele>
        <time>2024-02-18T08:41:40.000Z</time>
      </trkpt>
      <trkpt lat="43.56002" lon="6.43322">
        <ele>309.7</ele>
        <time>2024-02-18T08:41:59.000Z</time>
      </trkpt>
      <trkpt lat="43.55997" lon="6.4331">
        <ele>311.4</ele>
        <time>2024-02-18T08:42:13.000Z</time>
      </trkpt>
      <trkpt lat="43.55989" lon="6.43305">
        <ele>311.5</ele>
        <time>2024-02-18T08:42:22.000Z</time>
      </trkpt>
      <trkpt lat="43.55995" lon="6.43311">
        <ele>312.6</ele>
        <time>2024-02-18T08:42:47.000Z</time>
      </trkpt>
      <trkpt lat="43.55995" lon="6.43311">
        <ele>312.6</ele>
        <time>2024-02-18T08:42:48.000Z</time>
      </trkpt>
      <trkpt lat="43.55995" lon="6.43311">
        <ele>312.6</ele>
        <time>2024-02-18T08:42:51.000Z</time>
      </trkpt>
      <trkpt lat="43.55995" lon="6.43311">
        <ele>312.6</ele>
        <time>2024-02-18T08:42:52.000Z</time>
      </trkpt>
      <trkpt lat="43.55995" lon="6.43311">
        <ele>312.6</ele>
        <time>2024-02-18T08:42:53.000Z</time>
      </trkpt>
      <trkpt lat="43.55994" lon="6.43311">
        <ele>312.2</ele>
        <time>2024-02-18T08:42:59.000Z</time>
      </trkpt>
      <trkpt lat="43.55994" lon="6.4331">
        <ele>312.2</ele>
        <time>2024-02-18T08:43:00.000Z</time>
      </trkpt>
      <trkpt lat="43.55993" lon="6.4331">
        <ele>312.3</ele>
        <time>2024-02-18T08:43:01.000Z</time>
      </trkpt>
      <trkpt lat="43.55992" lon="6.43312">
        <ele>313</ele>
        <time>2024-02-18T08:44:52.000Z</time>
      </trkpt>
      <trkpt lat="43.55992" lon="6.43312">
        <ele>313</ele>
        <time>2024-02-18T08:44:53.000Z</time>
      </trkpt>
      <trkpt lat="43.5599" lon="6.43314">
        <ele>313</ele>
        <time>2024-02-18T08:45:00.000Z</time>
      </trkpt>
      <trkpt lat="43.5599" lon="6.43314">
        <ele>313</ele>
        <time>2024-02-18T08:45:01.000Z</time>
      </trkpt>
      <trkpt lat="43.5599" lon="6.43314">
        <ele>313</ele>
        <time>2024-02-18T08:45:02.000Z</time>
      </trkpt>
      <trkpt lat="43.5599" lon="6.43314">
        <ele>313</ele>
        <time>2024-02-18T08:45:03.000Z</time>
      </trkpt>
      <trkpt lat="43.5599" lon="6.43314">
        <ele>313</ele>
        <time>2024-02-18T08:45:04.000Z</time>
      </trkpt>
      <trkpt lat="43.5599" lon="6.43314">
        <ele>313</ele>
        <time>2024-02-18T08:45:05.000Z</time>
      </trkpt>
      <trkpt lat="43.5599" lon="6.43314">
        <ele>313</ele>
        <time>2024-02-18T08:45:06.000Z</time>
      </trkpt>
      <trkpt lat="43.5599" lon="6.43314">
        <ele>313</ele>
        <time>2024-02-18T08:45:17.000Z</time>
      </trkpt>
      <trkpt lat="43.5599" lon="6.43314">
        <ele>313</ele>
        <time>2024-02-18T08:45:18.000Z</time>
      </trkpt>
      <trkpt lat="43.5599" lon="6.43314">
        <ele>313</ele>
        <time>2024-02-18T08:45:19.000Z</time>
      </trkpt>
      <trkpt lat="43.5599" lon="6.43314">
        <ele>313</ele>
        <time>2024-02-18T08:45:22.000Z</time>
      </trkpt>
      <trkpt lat="43.5599" lon="6.43314">
        <ele>313</ele>
        <time>2024-02-18T08:45:23.000Z</time>
      </trkpt>
      <trkpt lat="43.5599" lon="6.43313">
        <ele>313</ele>
        <time>2024-02-18T08:45:34.000Z</time>
      </trkpt>
      <trkpt lat="43.5599" lon="6.43313">
        <ele>313.1</ele>
        <time>2024-02-18T08:45:35.000Z</time>
      </trkpt>
      <trkpt lat="43.5599" lon="6.43313">
        <ele>313.1</ele>
        <time>2024-02-18T08:45:36.000Z</time>
      </trkpt>
      <trkpt lat="43.5599" lon="6.43313">
        <ele>313.1</ele>
        <time>2024-02-18T08:45:37.000Z</time>
      </trkpt>
      <trkpt lat="43.5599" lon="6.43313">
        <ele>313.1</ele>
        <time>2024-02-18T08:45:38.000Z</time>
      </trkpt>
      <trkpt lat="43.5599" lon="6.43314">
        <ele>313.1</ele>
        <time>2024-02-18T08:46:49.000Z</time>
      </trkpt>
      <trkpt lat="43.5599" lon="6.43314">
        <ele>313.1</ele>
        <time>2024-02-18T08:46:50.000Z</time>
      </trkpt>
      <trkpt lat="43.5599" lon="6.43314">
        <ele>313.1</ele>
        <time>2024-02-18T08:46:51.000Z</time>
      </trkpt>
      <trkpt lat="43.5599" lon="6.43314">
        <ele>313.1</ele>
        <time>2024-02-18T08:46:52.000Z</time>
      </trkpt>
      <trkpt lat="43.5599" lon="6.43314">
        <ele>313.1</ele>
        <time>2024-02-18T08:46:53.000Z</time>
      </trkpt>
      <trkpt lat="43.5599" lon="6.43314">
        <ele>313.1</ele>
        <time>2024-02-18T08:46:56.000Z</time>
      </trkpt>
      <trkpt lat="43.5599" lon="6.43314">
        <ele>313.1</ele>
        <time>2024-02-18T08:46:57.000Z</time>
      </trkpt>
      <trkpt lat="43.5599" lon="6.43314">
        <ele>313.1</ele>
        <time>2024-02-18T08:46:58.000Z</time>
      </trkpt>
      <trkpt lat="43.55991" lon="6.43314">
        <ele>313.1</ele>
        <time>2024-02-18T08:47:09.000Z</time>
      </trkpt>
      <trkpt lat="43.55991" lon="6.43314">
        <ele>313.1</ele>
        <time>2024-02-18T08:47:10.000Z</time>
      </trkpt>
      <trkpt lat="43.55991" lon="6.43314">
        <ele>313.1</ele>
        <time>2024-02-18T08:47:34.000Z</time>
      </trkpt>
      <trkpt lat="43.55991" lon="6.43315">
        <ele>313.1</ele>
        <time>2024-02-18T08:47:35.000Z</time>
      </trkpt>
      <trkpt lat="43.55991" lon="6.43314">
        <ele>313.2</ele>
        <time>2024-02-18T08:47:36.000Z</time>
      </trkpt>
      <trkpt lat="43.55991" lon="6.43315">
        <ele>313.2</ele>
        <time>2024-02-18T08:47:37.000Z</time>
      </trkpt>
      <trkpt lat="43.55991" lon="6.43315">
        <ele>313.1</ele>
        <time>2024-02-18T08:47:38.000Z</time>
      </trkpt>
      <trkpt lat="43.5599" lon="6.43315">
        <ele>313.1</ele>
        <time>2024-02-18T08:47:44.000Z</time>
      </trkpt>
      <trkpt lat="43.5599" lon="6.43316">
        <ele>313.1</ele>
        <time>2024-02-18T08:47:45.000Z</time>
      </trkpt>
      <trkpt lat="43.55989" lon="6.43317">
        <ele>313.1</ele>
        <time>2024-02-18T08:47:51.000Z</time>
      </trkpt>
      <trkpt lat="43.55989" lon="6.43316">
        <ele>313.1</ele>
        <time>2024-02-18T08:47:52.000Z</time>
      </trkpt>
      <trkpt lat="43.55989" lon="6.43317">
        <ele>313.1</ele>
        <time>2024-02-18T08:47:53.000Z</time>
      </trkpt>
      <trkpt lat="43.5599" lon="6.43317">
        <ele>313.1</ele>
        <time>2024-02-18T08:47:54.000Z</time>
      </trkpt>
      <trkpt lat="43.5599" lon="6.43316">
        <ele>313.1</ele>
        <time>2024-02-18T08:47:55.000Z</time>
      </trkpt>
      <trkpt lat="43.55988" lon="6.43316">
        <ele>313.1</ele>
        <time>2024-02-18T08:48:06.000Z</time>
      </trkpt>
      <trkpt lat="43.55988" lon="6.43317">
        <ele>313.1</ele>
        <time>2024-02-18T08:48:07.000Z</time>
      </trkpt>
      <trkpt lat="43.55988" lon="6.43317">
        <ele>313.1</ele>
        <time>2024-02-18T08:48:08.000Z</time>
      </trkpt>
      <trkpt lat="43.55988" lon="6.43316">
        <ele>313.1</ele>
        <time>2024-02-18T08:48:09.000Z</time>
      </trkpt>
      <trkpt lat="43.55988" lon="6.43316">
        <ele>313.1</ele>
        <time>2024-02-18T08:48:10.000Z</time>
      </trkpt>
      <trkpt lat="43.55988" lon="6.43315">
        <ele>313.1</ele>
        <time>2024-02-18T08:48:11.000Z</time>
      </trkpt>
      <trkpt lat="43.55987" lon="6.43315">
        <ele>312.6</ele>
        <time>2024-02-18T08:48:41.000Z</time>
      </trkpt>
      <trkpt lat="43.55987" lon="6.43315">
        <ele>312.6</ele>
        <time>2024-02-18T08:48:42.000Z</time>
      </trkpt>
      <trkpt lat="43.55989" lon="6.43311">
        <ele>312.6</ele>
        <time>2024-02-18T08:48:43.000Z</time>
      </trkpt>
      <trkpt lat="43.55989" lon="6.43311">
        <ele>312.6</ele>
        <time>2024-02-18T08:48:44.000Z</time>
      </trkpt>
      <trkpt lat="43.55989" lon="6.4331">
        <ele>312.6</ele>
        <time>2024-02-18T08:48:45.000Z</time>
      </trkpt>
      <trkpt lat="43.55985" lon="6.43311">
        <ele>312.6</ele>
        <time>2024-02-18T08:48:54.000Z</time>
      </trkpt>
      <trkpt lat="43.55985" lon="6.43311">
        <ele>312.6</ele>
        <time>2024-02-18T08:48:55.000Z</time>
      </trkpt>
      <trkpt lat="43.55986" lon="6.43312">
        <ele>312.5</ele>
        <time>2024-02-18T08:49:01.000Z</time>
      </trkpt>
      <trkpt lat="43.55986" lon="6.43312">
        <ele>312.5</ele>
        <time>2024-02-18T08:49:02.000Z</time>
      </trkpt>
      <trkpt lat="43.55986" lon="6.43313">
        <ele>312.5</ele>
        <time>2024-02-18T08:49:03.000Z</time>
      </trkpt>
      <trkpt lat="43.55995" lon="6.43312">
        <ele>312</ele>
        <time>2024-02-18T08:49:35.000Z</time>
      </trkpt>
      <trkpt lat="43.55996" lon="6.43325">
        <ele>311.8</ele>
        <time>2024-02-18T08:49:52.000Z</time>
      </trkpt>
      <trkpt lat="43.56" lon="6.43337">
        <ele>309.2</ele>
        <time>2024-02-18T08:50:12.000Z</time>
      </trkpt>
      <trkpt lat="43.56006" lon="6.43347">
        <ele>306.7</ele>
        <time>2024-02-18T08:50:21.000Z</time>
      </trkpt>
      <trkpt lat="43.56013" lon="6.43356">
        <ele>306.6</ele>
        <time>2024-02-18T08:50:34.000Z</time>
      </trkpt>
      <trkpt lat="43.56013" lon="6.43369">
        <ele>306.5</ele>
        <time>2024-02-18T08:50:51.000Z</time>
      </trkpt>
      <trkpt lat="43.56021" lon="6.43377">
        <ele>306.5</ele>
        <time>2024-02-18T08:51:07.000Z</time>
      </trkpt>
      <trkpt lat="43.56026" lon="6.43388">
        <ele>306.5</ele>
        <time>2024-02-18T08:51:15.000Z</time>
      </trkpt>
      <trkpt lat="43.56031" lon="6.43395">
        <ele>306.2</ele>
        <time>2024-02-18T08:51:26.000Z</time>
      </trkpt>
      <trkpt lat="43.56031" lon="6.43395">
        <ele>306.1</ele>
        <time>2024-02-18T08:51:27.000Z</time>
      </trkpt>
      <trkpt lat="43.56031" lon="6.43395">
        <ele>306.1</ele>
        <time>2024-02-18T08:51:28.000Z</time>
      </trkpt>
      <trkpt lat="43.56032" lon="6.43395">
        <ele>306</ele>
        <time>2024-02-18T08:51:31.000Z</time>
      </trkpt>
      <trkpt lat="43.56032" lon="6.43396">
        <ele>305.9</ele>
        <time>2024-02-18T08:51:32.000Z</time>
      </trkpt>
      <trkpt lat="43.56032" lon="6.43397">
        <ele>305.9</ele>
        <time>2024-02-18T08:51:33.000Z</time>
      </trkpt>
      <trkpt lat="43.56042" lon="6.43397">
        <ele>305.3</ele>
        <time>2024-02-18T08:51:44.000Z</time>
      </trkpt>
      <trkpt lat="43.56051" lon="6.43398">
        <ele>304.7</ele>
        <time>2024-02-18T08:51:58.000Z</time>
      </trkpt>
      <trkpt lat="43.56056" lon="6.43385">
        <ele>304.6</ele>
        <time>2024-02-18T08:52:05.000Z</time>
      </trkpt>
      <trkpt lat="43.56061" lon="6.43373">
        <ele>305</ele>
        <time>2024-02-18T08:52:13.000Z</time>
      </trkpt>
      <trkpt lat="43.56066" lon="6.4336">
        <ele>305.4</ele>
        <time>2024-02-18T08:52:21.000Z</time>
      </trkpt>
      <trkpt lat="43.56069" lon="6.43348">
        <ele>306.2</ele>
        <time>2024-02-18T08:52:30.000Z</time>
      </trkpt>
      <trkpt lat="43.5607" lon="6.43335">
        <ele>307.3</ele>
        <time>2024-02-18T08:52:41.000Z</time>
      </trkpt>
      <trkpt lat="43.5607" lon="6.43322">
        <ele>309</ele>
        <time>2024-02-18T08:52:54.000Z</time>
      </trkpt>
      <trkpt lat="43.56069" lon="6.43309">
        <ele>310.4</ele>
        <time>2024-02-18T08:53:04.000Z</time>
      </trkpt>
      <trkpt lat="43.56074" lon="6.43299">
        <ele>311.5</ele>
        <time>2024-02-18T08:53:24.000Z</time>
      </trkpt>
      <trkpt lat="43.56074" lon="6.43299">
        <ele>312.1</ele>
        <time>2024-02-18T08:53:46.000Z</time>
      </trkpt>
      <trkpt lat="43.56074" lon="6.43299">
        <ele>312.1</ele>
        <time>2024-02-18T08:53:47.000Z</time>
      </trkpt>
      <trkpt lat="43.56074" lon="6.43299">
        <ele>312.1</ele>
        <time>2024-02-18T08:53:48.000Z</time>
      </trkpt>
      <trkpt lat="43.56074" lon="6.43296">
        <ele>312</ele>
        <time>2024-02-18T08:54:01.000Z</time>
      </trkpt>
      <trkpt lat="43.56075" lon="6.43294">
        <ele>312</ele>
        <time>2024-02-18T08:54:02.000Z</time>
      </trkpt>
      <trkpt lat="43.56075" lon="6.43293">
        <ele>312</ele>
        <time>2024-02-18T08:54:03.000Z</time>
      </trkpt>
      <trkpt lat="43.56076" lon="6.4328">
        <ele>312.2</ele>
        <time>2024-02-18T08:54:13.000Z</time>
      </trkpt>
      <trkpt lat="43.5608" lon="6.43268">
        <ele>312.3</ele>
        <time>2024-02-18T08:54:22.000Z</time>
      </trkpt>
      <trkpt lat="43.56085" lon="6.43256">
        <ele>312.2</ele>
        <time>2024-02-18T08:54:30.000Z</time>
      </trkpt>
      <trkpt lat="43.56089" lon="6.43246">
        <ele>312.2</ele>
        <time>2024-02-18T08:54:39.000Z</time>
      </trkpt>
      <trkpt lat="43.56091" lon="6.43233">
        <ele>312.1</ele>
        <time>2024-02-18T08:54:48.000Z</time>
      </trkpt>
      <trkpt lat="43.56093" lon="6.43221">
        <ele>312</ele>
        <time>2024-02-18T08:54:56.000Z</time>
      </trkpt>
      <trkpt lat="43.56099" lon="6.43209">
        <ele>311.8</ele>
        <time>2024-02-18T08:55:04.000Z</time>
      </trkpt>
      <trkpt lat="43.56104" lon="6.43199">
        <ele>311.4</ele>
        <time>2024-02-18T08:55:13.000Z</time>
      </trkpt>
      <trkpt lat="43.56111" lon="6.43188">
        <ele>311.2</ele>
        <time>2024-02-18T08:55:22.000Z</time>
      </trkpt>
      <trkpt lat="43.56119" lon="6.4318">
        <ele>311.1</ele>
        <time>2024-02-18T08:55:31.000Z</time>
      </trkpt>
      <trkpt lat="43.56126" lon="6.43171">
        <ele>311.1</ele>
        <time>2024-02-18T08:55:39.000Z</time>
      </trkpt>
      <trkpt lat="43.56132" lon="6.43162">
        <ele>311.2</ele>
        <time>2024-02-18T08:55:50.000Z</time>
      </trkpt>
      <trkpt lat="43.5614" lon="6.43156">
        <ele>311.5</ele>
        <time>2024-02-18T08:55:59.000Z</time>
      </trkpt>
      <trkpt lat="43.56149" lon="6.43156">
        <ele>313.1</ele>
        <time>2024-02-18T08:56:13.000Z</time>
      </trkpt>
      <trkpt lat="43.56159" lon="6.43157">
        <ele>316.3</ele>
        <time>2024-02-18T08:56:38.000Z</time>
      </trkpt>
      <trkpt lat="43.56168" lon="6.43156">
        <ele>317.2</ele>
        <time>2024-02-18T08:56:49.000Z</time>
      </trkpt>
      <trkpt lat="43.56178" lon="6.43157">
        <ele>318.5</ele>
        <time>2024-02-18T08:57:01.000Z</time>
      </trkpt>
      <trkpt lat="43.56184" lon="6.43149">
        <ele>319.7</ele>
        <time>2024-02-18T08:57:17.000Z</time>
      </trkpt>
      <trkpt lat="43.56184" lon="6.43149">
        <ele>319.7</ele>
        <time>2024-02-18T08:57:18.000Z</time>
      </trkpt>
      <trkpt lat="43.56184" lon="6.43149">
        <ele>319.7</ele>
        <time>2024-02-18T08:57:19.000Z</time>
      </trkpt>
      <trkpt lat="43.56183" lon="6.43151">
        <ele>319.7</ele>
        <time>2024-02-18T08:57:24.000Z</time>
      </trkpt>
      <trkpt lat="43.56183" lon="6.43151">
        <ele>319.7</ele>
        <time>2024-02-18T08:57:25.000Z</time>
      </trkpt>
      <trkpt lat="43.56182" lon="6.43155">
        <ele>320</ele>
        <time>2024-02-18T08:57:41.000Z</time>
      </trkpt>
      <trkpt lat="43.56182" lon="6.43155">
        <ele>320</ele>
        <time>2024-02-18T08:57:42.000Z</time>
      </trkpt>
      <trkpt lat="43.56182" lon="6.43155">
        <ele>320</ele>
        <time>2024-02-18T08:57:43.000Z</time>
      </trkpt>
      <trkpt lat="43.56182" lon="6.43155">
        <ele>320.1</ele>
        <time>2024-02-18T08:57:44.000Z</time>
      </trkpt>
      <trkpt lat="43.56182" lon="6.43155">
        <ele>320.1</ele>
        <time>2024-02-18T08:57:45.000Z</time>
      </trkpt>
      <trkpt lat="43.56182" lon="6.43155">
        <ele>320.1</ele>
        <time>2024-02-18T08:57:46.000Z</time>
      </trkpt>
      <trkpt lat="43.56182" lon="6.43155">
        <ele>320.2</ele>
        <time>2024-02-18T08:57:47.000Z</time>
      </trkpt>
      <trkpt lat="43.56182" lon="6.43155">
        <ele>320.2</ele>
        <time>2024-02-18T08:57:48.000Z</time>
      </trkpt>
      <trkpt lat="43.56182" lon="6.43155">
        <ele>320.3</ele>
        <time>2024-02-18T08:57:49.000Z</time>
      </trkpt>
      <trkpt lat="43.56182" lon="6.43155">
        <ele>320.4</ele>
        <time>2024-02-18T08:57:56.000Z</time>
      </trkpt>
      <trkpt lat="43.56182" lon="6.43155">
        <ele>320.4</ele>
        <time>2024-02-18T08:57:57.000Z</time>
      </trkpt>
      <trkpt lat="43.56182" lon="6.43155">
        <ele>320.4</ele>
        <time>2024-02-18T08:57:58.000Z</time>
      </trkpt>
      <trkpt lat="43.56182" lon="6.43155">
        <ele>320.5</ele>
        <time>2024-02-18T08:57:59.000Z</time>
      </trkpt>
      <trkpt lat="43.56182" lon="6.43155">
        <ele>320.5</ele>
        <time>2024-02-18T08:58:00.000Z</time>
      </trkpt>
      <trkpt lat="43.56181" lon="6.43155">
        <ele>320.5</ele>
        <time>2024-02-18T08:58:04.000Z</time>
      </trkpt>
      <trkpt lat="43.56182" lon="6.43155">
        <ele>320.5</ele>
        <time>2024-02-18T08:58:05.000Z</time>
      </trkpt>
      <trkpt lat="43.56181" lon="6.43155">
        <ele>320.5</ele>
        <time>2024-02-18T08:58:06.000Z</time>
      </trkpt>
      <trkpt lat="43.56181" lon="6.43155">
        <ele>320.5</ele>
        <time>2024-02-18T08:58:10.000Z</time>
      </trkpt>
      <trkpt lat="43.56181" lon="6.43155">
        <ele>320.5</ele>
        <time>2024-02-18T08:58:11.000Z</time>
      </trkpt>
      <trkpt lat="43.56182" lon="6.43156">
        <ele>320.5</ele>
        <time>2024-02-18T08:58:17.000Z</time>
      </trkpt>
      <trkpt lat="43.56182" lon="6.43156">
        <ele>320.5</ele>
        <time>2024-02-18T08:58:18.000Z</time>
      </trkpt>
      <trkpt lat="43.56182" lon="6.43156">
        <ele>320.5</ele>
        <time>2024-02-18T08:58:19.000Z</time>
      </trkpt>
      <trkpt lat="43.56182" lon="6.43156">
        <ele>320.5</ele>
        <time>2024-02-18T08:58:22.000Z</time>
      </trkpt>
      <trkpt lat="43.56182" lon="6.43156">
        <ele>320.5</ele>
        <time>2024-02-18T08:58:23.000Z</time>
      </trkpt>
      <trkpt lat="43.56182" lon="6.43156">
        <ele>320.5</ele>
        <time>2024-02-18T08:58:26.000Z</time>
      </trkpt>
      <trkpt lat="43.56182" lon="6.43156">
        <ele>320.6</ele>
        <time>2024-02-18T08:58:27.000Z</time>
      </trkpt>
      <trkpt lat="43.56182" lon="6.43156">
        <ele>320.6</ele>
        <time>2024-02-18T08:58:28.000Z</time>
      </trkpt>
      <trkpt lat="43.56182" lon="6.43156">
        <ele>320.6</ele>
        <time>2024-02-18T08:58:29.000Z</time>
      </trkpt>
      <trkpt lat="43.56182" lon="6.43156">
        <ele>320.6</ele>
        <time>2024-02-18T08:58:30.000Z</time>
      </trkpt>
      <trkpt lat="43.56182" lon="6.43156">
        <ele>320.6</ele>
        <time>2024-02-18T08:58:31.000Z</time>
      </trkpt>
      <trkpt lat="43.56182" lon="6.43156">
        <ele>320.6</ele>
        <time>2024-02-18T08:58:32.000Z</time>
      </trkpt>
      <trkpt lat="43.56182" lon="6.43156">
        <ele>320.6</ele>
        <time>2024-02-18T08:58:33.000Z</time>
      </trkpt>
      <trkpt lat="43.56182" lon="6.43156">
        <ele>320.6</ele>
        <time>2024-02-18T08:58:34.000Z</time>
      </trkpt>
      <trkpt lat="43.56182" lon="6.43156">
        <ele>320.6</ele>
        <time>2024-02-18T08:58:35.000Z</time>
      </trkpt>
      <trkpt lat="43.56182" lon="6.43156">
        <ele>320.6</ele>
        <time>2024-02-18T08:58:36.000Z</time>
      </trkpt>
      <trkpt lat="43.56182" lon="6.43156">
        <ele>320.5</ele>
        <time>2024-02-18T08:58:44.000Z</time>
      </trkpt>
      <trkpt lat="43.56182" lon="6.43156">
        <ele>320.6</ele>
        <time>2024-02-18T08:58:45.000Z</time>
      </trkpt>
      <trkpt lat="43.56182" lon="6.43156">
        <ele>320.6</ele>
        <time>2024-02-18T08:58:46.000Z</time>
      </trkpt>
      <trkpt lat="43.56182" lon="6.43156">
        <ele>320.6</ele>
        <time>2024-02-18T08:58:47.000Z</time>
      </trkpt>
      <trkpt lat="43.56182" lon="6.43156">
        <ele>320.6</ele>
        <time>2024-02-18T08:58:48.000Z</time>
      </trkpt>
      <trkpt lat="43.56182" lon="6.43156">
        <ele>320.4</ele>
        <time>2024-02-18T08:58:49.000Z</time>
      </trkpt>
      <trkpt lat="43.56182" lon="6.43156">
        <ele>320.3</ele>
        <time>2024-02-18T08:58:50.000Z</time>
      </trkpt>
      <trkpt lat="43.56182" lon="6.43156">
        <ele>320.3</ele>
        <time>2024-02-18T08:58:51.000Z</time>
      </trkpt>
      <trkpt lat="43.56182" lon="6.43156">
        <ele>320.5</ele>
        <time>2024-02-18T08:58:52.000Z</time>
      </trkpt>
      <trkpt lat="43.56182" lon="6.43156">
        <ele>320.5</ele>
        <time>2024-02-18T08:58:53.000Z</time>
      </trkpt>
      <trkpt lat="43.56182" lon="6.43156">
        <ele>320.4</ele>
        <time>2024-02-18T08:58:54.000Z</time>
      </trkpt>
      <trkpt lat="43.56182" lon="6.43156">
        <ele>320.4</ele>
        <time>2024-02-18T08:58:55.000Z</time>
      </trkpt>
      <trkpt lat="43.56182" lon="6.43156">
        <ele>320.5</ele>
        <time>2024-02-18T08:58:56.000Z</time>
      </trkpt>
      <trkpt lat="43.56182" lon="6.43156">
        <ele>320.6</ele>
        <time>2024-02-18T08:58:57.000Z</time>
      </trkpt>
      <trkpt lat="43.56182" lon="6.43156">
        <ele>320.7</ele>
        <time>2024-02-18T08:58:58.000Z</time>
      </trkpt>
      <trkpt lat="43.56182" lon="6.43156">
        <ele>320.7</ele>
        <time>2024-02-18T08:59:04.000Z</time>
      </trkpt>
      <trkpt lat="43.56182" lon="6.43156">
        <ele>320.8</ele>
        <time>2024-02-18T08:59:05.000Z</time>
      </trkpt>
      <trkpt lat="43.56181" lon="6.43155">
        <ele>320.8</ele>
        <time>2024-02-18T08:59:06.000Z</time>
      </trkpt>
      <trkpt lat="43.56182" lon="6.43155">
        <ele>320.6</ele>
        <time>2024-02-18T08:59:26.000Z</time>
      </trkpt>
      <trkpt lat="43.56182" lon="6.43155">
        <ele>320.6</ele>
        <time>2024-02-18T08:59:27.000Z</time>
      </trkpt>
      <trkpt lat="43.56181" lon="6.43156">
        <ele>320.6</ele>
        <time>2024-02-18T08:59:28.000Z</time>
      </trkpt>
      <trkpt lat="43.56181" lon="6.43156">
        <ele>320.6</ele>
        <time>2024-02-18T08:59:29.000Z</time>
      </trkpt>
      <trkpt lat="43.56181" lon="6.43156">
        <ele>320.7</ele>
        <time>2024-02-18T08:59:30.000Z</time>
      </trkpt>
      <trkpt lat="43.56181" lon="6.43156">
        <ele>320.7</ele>
        <time>2024-02-18T08:59:31.000Z</time>
      </trkpt>
      <trkpt lat="43.56181" lon="6.43156">
        <ele>320.7</ele>
        <time>2024-02-18T08:59:32.000Z</time>
      </trkpt>
      <trkpt lat="43.56181" lon="6.43156">
        <ele>320.7</ele>
        <time>2024-02-18T08:59:33.000Z</time>
      </trkpt>
      <trkpt lat="43.56181" lon="6.43156">
        <ele>320.7</ele>
        <time>2024-02-18T08:59:39.000Z</time>
      </trkpt>
      <trkpt lat="43.56181" lon="6.43156">
        <ele>320.7</ele>
        <time>2024-02-18T08:59:40.000Z</time>
      </trkpt>
      <trkpt lat="43.56181" lon="6.43156">
        <ele>320.7</ele>
        <time>2024-02-18T08:59:41.000Z</time>
      </trkpt>
      <trkpt lat="43.56181" lon="6.43156">
        <ele>320.7</ele>
        <time>2024-02-18T08:59:42.000Z</time>
      </trkpt>
      <trkpt lat="43.56181" lon="6.43156">
        <ele>320.7</ele>
        <time>2024-02-18T08:59:43.000Z</time>
      </trkpt>
      <trkpt lat="43.56181" lon="6.43156">
        <ele>320.7</ele>
        <time>2024-02-18T08:59:44.000Z</time>
      </trkpt>
      <trkpt lat="43.56181" lon="6.43156">
        <ele>320.7</ele>
        <time>2024-02-18T08:59:49.000Z</time>
      </trkpt>
      <trkpt lat="43.56181" lon="6.43156">
        <ele>320.7</ele>
        <time>2024-02-18T08:59:50.000Z</time>
      </trkpt>
      <trkpt lat="43.56181" lon="6.43156">
        <ele>320.7</ele>
        <time>2024-02-18T08:59:51.000Z</time>
      </trkpt>
      <trkpt lat="43.56181" lon="6.43156">
        <ele>320.7</ele>
        <time>2024-02-18T08:59:52.000Z</time>
      </trkpt>
      <trkpt lat="43.56181" lon="6.43156">
        <ele>320.7</ele>
        <time>2024-02-18T08:59:53.000Z</time>
      </trkpt>
      <trkpt lat="43.56183" lon="6.43153">
        <ele>320.7</ele>
        <time>2024-02-18T08:59:57.000Z</time>
      </trkpt>
      <trkpt lat="43.56183" lon="6.43152">
        <ele>320.7</ele>
        <time>2024-02-18T08:59:58.000Z</time>
      </trkpt>
      <trkpt lat="43.56183" lon="6.43151">
        <ele>320.7</ele>
        <time>2024-02-18T08:59:59.000Z</time>
      </trkpt>
      <trkpt lat="43.56184" lon="6.43138">
        <ele>320.3</ele>
        <time>2024-02-18T09:00:09.000Z</time>
      </trkpt>
      <trkpt lat="43.56185" lon="6.43124">
        <ele>320.2</ele>
        <time>2024-02-18T09:00:19.000Z</time>
      </trkpt>
      <trkpt lat="43.56185" lon="6.43111">
        <ele>320.2</ele>
        <time>2024-02-18T09:00:28.000Z</time>
      </trkpt>
      <trkpt lat="43.56184" lon="6.43098">
        <ele>320.2</ele>
        <time>2024-02-18T09:00:38.000Z</time>
      </trkpt>
      <trkpt lat="43.56184" lon="6.43086">
        <ele>320.3</ele>
        <time>2024-02-18T09:00:47.000Z</time>
      </trkpt>
      <trkpt lat="43.56184" lon="6.43073">
        <ele>320.5</ele>
        <time>2024-02-18T09:00:57.000Z</time>
      </trkpt>
      <trkpt lat="43.56181" lon="6.43061">
        <ele>320.5</ele>
        <time>2024-02-18T09:01:06.000Z</time>
      </trkpt>
      <trkpt lat="43.56187" lon="6.4305">
        <ele>321.7</ele>
        <time>2024-02-18T09:01:27.000Z</time>
      </trkpt>
      <trkpt lat="43.5619" lon="6.43046">
        <ele>323.2</ele>
        <time>2024-02-18T09:01:36.000Z</time>
      </trkpt>
      <trkpt lat="43.5619" lon="6.43046">
        <ele>323.3</ele>
        <time>2024-02-18T09:01:37.000Z</time>
      </trkpt>
      <trkpt lat="43.5619" lon="6.43046">
        <ele>323.4</ele>
        <time>2024-02-18T09:01:38.000Z</time>
      </trkpt>
      <trkpt lat="43.5619" lon="6.43046">
        <ele>323.8</ele>
        <time>2024-02-18T09:01:47.000Z</time>
      </trkpt>
      <trkpt lat="43.5619" lon="6.43046">
        <ele>323.8</ele>
        <time>2024-02-18T09:01:48.000Z</time>
      </trkpt>
      <trkpt lat="43.5619" lon="6.43046">
        <ele>323.8</ele>
        <time>2024-02-18T09:01:49.000Z</time>
      </trkpt>
      <trkpt lat="43.5619" lon="6.43046">
        <ele>323.8</ele>
        <time>2024-02-18T09:01:50.000Z</time>
      </trkpt>
      <trkpt lat="43.5619" lon="6.43046">
        <ele>323.8</ele>
        <time>2024-02-18T09:01:51.000Z</time>
      </trkpt>
      <trkpt lat="43.56188" lon="6.43047">
        <ele>323.9</ele>
        <time>2024-02-18T09:01:55.000Z</time>
      </trkpt>
      <trkpt lat="43.56188" lon="6.43047">
        <ele>323.9</ele>
        <time>2024-02-18T09:01:56.000Z</time>
      </trkpt>
      <trkpt lat="43.56188" lon="6.43049">
        <ele>324</ele>
        <time>2024-02-18T09:02:02.000Z</time>
      </trkpt>
      <trkpt lat="43.56188" lon="6.43049">
        <ele>324</ele>
        <time>2024-02-18T09:02:03.000Z</time>
      </trkpt>
      <trkpt lat="43.56188" lon="6.43049">
        <ele>324</ele>
        <time>2024-02-18T09:02:06.000Z</time>
      </trkpt>
      <trkpt lat="43.56187" lon="6.43049">
        <ele>324.1</ele>
        <time>2024-02-18T09:02:07.000Z</time>
      </trkpt>
      <trkpt lat="43.56187" lon="6.43049">
        <ele>324</ele>
        <time>2024-02-18T09:02:08.000Z</time>
      </trkpt>
      <trkpt lat="43.56189" lon="6.43049">
        <ele>324.2</ele>
        <time>2024-02-18T09:02:14.000Z</time>
      </trkpt>
      <trkpt lat="43.56189" lon="6.43049">
        <ele>324.2</ele>
        <time>2024-02-18T09:02:15.000Z</time>
      </trkpt>
      <trkpt lat="43.5619" lon="6.43049">
        <ele>324.2</ele>
        <time>2024-02-18T09:02:19.000Z</time>
      </trkpt>
      <trkpt lat="43.5619" lon="6.43049">
        <ele>324.2</ele>
        <time>2024-02-18T09:02:20.000Z</time>
      </trkpt>
      <trkpt lat="43.56195" lon="6.43059">
        <ele>324.3</ele>
        <time>2024-02-18T09:02:35.000Z</time>
      </trkpt>
      <trkpt lat="43.562" lon="6.4307">
        <ele>324.5</ele>
        <time>2024-02-18T09:02:46.000Z</time>
      </trkpt>
      <trkpt lat="43.56204" lon="6.43082">
        <ele>324.7</ele>
        <time>2024-02-18T09:02:55.000Z</time>
      </trkpt>
      <trkpt lat="43.56206" lon="6.43095">
        <ele>324.8</ele>
        <time>2024-02-18T09:03:04.000Z</time>
      </trkpt>
      <trkpt lat="43.5621" lon="6.43106">
        <ele>325</ele>
        <time>2024-02-18T09:03:14.000Z</time>
      </trkpt>
      <trkpt lat="43.56209" lon="6.43119">
        <ele>325.1</ele>
        <time>2024-02-18T09:03:23.000Z</time>
      </trkpt>
      <trkpt lat="43.5621" lon="6.43133">
        <ele>325</ele>
        <time>2024-02-18T09:03:33.000Z</time>
      </trkpt>
      <trkpt lat="43.5621" lon="6.43146">
        <ele>324.8</ele>
        <time>2024-02-18T09:03:43.000Z</time>
      </trkpt>
      <trkpt lat="43.56219" lon="6.43143">
        <ele>324.7</ele>
        <time>2024-02-18T09:03:56.000Z</time>
      </trkpt>
      <trkpt lat="43.56228" lon="6.43145">
        <ele>326.1</ele>
        <time>2024-02-18T09:04:08.000Z</time>
      </trkpt>
      <trkpt lat="43.56236" lon="6.43152">
        <ele>328.1</ele>
        <time>2024-02-18T09:04:20.000Z</time>
      </trkpt>
      <trkpt lat="43.56239" lon="6.43161">
        <ele>329</ele>
        <time>2024-02-18T09:04:31.000Z</time>
      </trkpt>
      <trkpt lat="43.56239" lon="6.4316">
        <ele>329</ele>
        <time>2024-02-18T09:04:32.000Z</time>
      </trkpt>
      <trkpt lat="43.56239" lon="6.4316">
        <ele>329</ele>
        <time>2024-02-18T09:04:33.000Z</time>
      </trkpt>
      <trkpt lat="43.56239" lon="6.43159">
        <ele>329.1</ele>
        <time>2024-02-18T09:04:36.000Z</time>
      </trkpt>
      <trkpt lat="43.56239" lon="6.43159">
        <ele>329.1</ele>
        <time>2024-02-18T09:04:37.000Z</time>
      </trkpt>
      <trkpt lat="43.56238" lon="6.43158">
        <ele>329.1</ele>
        <time>2024-02-18T09:04:38.000Z</time>
      </trkpt>
      <trkpt lat="43.56236" lon="6.43146">
        <ele>329.1</ele>
        <time>2024-02-18T09:04:47.000Z</time>
      </trkpt>
      <trkpt lat="43.5623" lon="6.43144">
        <ele>327.9</ele>
        <time>2024-02-18T09:05:29.000Z</time>
      </trkpt>
      <trkpt lat="43.5623" lon="6.43145">
        <ele>327.9</ele>
        <time>2024-02-18T09:05:30.000Z</time>
      </trkpt>
      <trkpt lat="43.56238" lon="6.43152">
        <ele>328.5</ele>
        <time>2024-02-18T09:05:44.000Z</time>
      </trkpt>
      <trkpt lat="43.56244" lon="6.43161">
        <ele>329.1</ele>
        <time>2024-02-18T09:05:58.000Z</time>
      </trkpt>
      <trkpt lat="43.56248" lon="6.43172">
        <ele>329.4</ele>
        <time>2024-02-18T09:06:09.000Z</time>
      </trkpt>
      <trkpt lat="43.5625" lon="6.43185">
        <ele>329.6</ele>
        <time>2024-02-18T09:06:21.000Z</time>
      </trkpt>
      <trkpt lat="43.56248" lon="6.43197">
        <ele>329.7</ele>
        <time>2024-02-18T09:06:28.000Z</time>
      </trkpt>
      <trkpt lat="43.56247" lon="6.43211">
        <ele>329.8</ele>
        <time>2024-02-18T09:06:38.000Z</time>
      </trkpt>
      <trkpt lat="43.56247" lon="6.43216">
        <ele>329.9</ele>
        <time>2024-02-18T09:06:47.000Z</time>
      </trkpt>
      <trkpt lat="43.56247" lon="6.43216">
        <ele>329.9</ele>
        <time>2024-02-18T09:06:48.000Z</time>
      </trkpt>
      <trkpt lat="43.56247" lon="6.43216">
        <ele>329.9</ele>
        <time>2024-02-18T09:06:49.000Z</time>
      </trkpt>
      <trkpt lat="43.56248" lon="6.43216">
        <ele>329.9</ele>
        <time>2024-02-18T09:06:50.000Z</time>
      </trkpt>
      <trkpt lat="43.56248" lon="6.43217">
        <ele>329.9</ele>
        <time>2024-02-18T09:06:51.000Z</time>
      </trkpt>
      <trkpt lat="43.56248" lon="6.43223">
        <ele>329.9</ele>
        <time>2024-02-18T09:06:59.000Z</time>
      </trkpt>
      <trkpt lat="43.56248" lon="6.43222">
        <ele>329.9</ele>
        <time>2024-02-18T09:07:00.000Z</time>
      </trkpt>
      <trkpt lat="43.56248" lon="6.43222">
        <ele>329.9</ele>
        <time>2024-02-18T09:07:01.000Z</time>
      </trkpt>
      <trkpt lat="43.56249" lon="6.43222">
        <ele>329.9</ele>
        <time>2024-02-18T09:07:17.000Z</time>
      </trkpt>
      <trkpt lat="43.56249" lon="6.43222">
        <ele>329.9</ele>
        <time>2024-02-18T09:07:18.000Z</time>
      </trkpt>
      <trkpt lat="43.5625" lon="6.43221">
        <ele>329.9</ele>
        <time>2024-02-18T09:07:19.000Z</time>
      </trkpt>
      <trkpt lat="43.56254" lon="6.43233">
        <ele>330.2</ele>
        <time>2024-02-18T09:07:29.000Z</time>
      </trkpt>
      <trkpt lat="43.56262" lon="6.4324">
        <ele>331.6</ele>
        <time>2024-02-18T09:07:42.000Z</time>
      </trkpt>
      <trkpt lat="43.56271" lon="6.43247">
        <ele>334.1</ele>
        <time>2024-02-18T09:07:57.000Z</time>
      </trkpt>
      <trkpt lat="43.56277" lon="6.43256">
        <ele>336.6</ele>
        <time>2024-02-18T09:08:12.000Z</time>
      </trkpt>
      <trkpt lat="43.56285" lon="6.43261">
        <ele>338.8</ele>
        <time>2024-02-18T09:08:30.000Z</time>
      </trkpt>
      <trkpt lat="43.56285" lon="6.43261">
        <ele>338.8</ele>
        <time>2024-02-18T09:08:31.000Z</time>
      </trkpt>
      <trkpt lat="43.56285" lon="6.43261">
        <ele>338.8</ele>
        <time>2024-02-18T09:08:32.000Z</time>
      </trkpt>
      <trkpt lat="43.56285" lon="6.43261">
        <ele>338.8</ele>
        <time>2024-02-18T09:08:33.000Z</time>
      </trkpt>
      <trkpt lat="43.56285" lon="6.43261">
        <ele>338.9</ele>
        <time>2024-02-18T09:08:34.000Z</time>
      </trkpt>
      <trkpt lat="43.56285" lon="6.43261">
        <ele>338.9</ele>
        <time>2024-02-18T09:08:35.000Z</time>
      </trkpt>
      <trkpt lat="43.56285" lon="6.43261">
        <ele>339</ele>
        <time>2024-02-18T09:08:39.000Z</time>
      </trkpt>
      <trkpt lat="43.56284" lon="6.43261">
        <ele>339</ele>
        <time>2024-02-18T09:08:40.000Z</time>
      </trkpt>
      <trkpt lat="43.56284" lon="6.43259">
        <ele>339</ele>
        <time>2024-02-18T09:08:41.000Z</time>
      </trkpt>
      <trkpt lat="43.56284" lon="6.43256">
        <ele>339.1</ele>
        <time>2024-02-18T09:08:44.000Z</time>
      </trkpt>
      <trkpt lat="43.56285" lon="6.43257">
        <ele>339</ele>
        <time>2024-02-18T09:08:45.000Z</time>
      </trkpt>
      <trkpt lat="43.56286" lon="6.43264">
        <ele>339</ele>
        <time>2024-02-18T09:08:51.000Z</time>
      </trkpt>
      <trkpt lat="43.56286" lon="6.43264">
        <ele>339.1</ele>
        <time>2024-02-18T09:08:52.000Z</time>
      </trkpt>
      <trkpt lat="43.56286" lon="6.43264">
        <ele>339.1</ele>
        <time>2024-02-18T09:08:53.000Z</time>
      </trkpt>
      <trkpt lat="43.56286" lon="6.43264">
        <ele>339.1</ele>
        <time>2024-02-18T09:08:54.000Z</time>
      </trkpt>
      <trkpt lat="43.56286" lon="6.43264">
        <ele>339.1</ele>
        <time>2024-02-18T09:08:55.000Z</time>
      </trkpt>
      <trkpt lat="43.56286" lon="6.43262">
        <ele>339.1</ele>
        <time>2024-02-18T09:09:01.000Z</time>
      </trkpt>
      <trkpt lat="43.56285" lon="6.43262">
        <ele>339.1</ele>
        <time>2024-02-18T09:09:02.000Z</time>
      </trkpt>
      <trkpt lat="43.56285" lon="6.43262">
        <ele>339.1</ele>
        <time>2024-02-18T09:09:03.000Z</time>
      </trkpt>
      <trkpt lat="43.56285" lon="6.43262">
        <ele>339.1</ele>
        <time>2024-02-18T09:09:06.000Z</time>
      </trkpt>
      <trkpt lat="43.56285" lon="6.43262">
        <ele>339.1</ele>
        <time>2024-02-18T09:09:07.000Z</time>
      </trkpt>
      <trkpt lat="43.56285" lon="6.43262">
        <ele>339.1</ele>
        <time>2024-02-18T09:09:08.000Z</time>
      </trkpt>
      <trkpt lat="43.56285" lon="6.43263">
        <ele>339.1</ele>
        <time>2024-02-18T09:09:16.000Z</time>
      </trkpt>
      <trkpt lat="43.56285" lon="6.43263">
        <ele>339.1</ele>
        <time>2024-02-18T09:09:17.000Z</time>
      </trkpt>
      <trkpt lat="43.56285" lon="6.43263">
        <ele>339.1</ele>
        <time>2024-02-18T09:09:18.000Z</time>
      </trkpt>
      <trkpt lat="43.56285" lon="6.43263">
        <ele>339.2</ele>
        <time>2024-02-18T09:09:22.000Z</time>
      </trkpt>
      <trkpt lat="43.56285" lon="6.43263">
        <ele>339.2</ele>
        <time>2024-02-18T09:09:23.000Z</time>
      </trkpt>
      <trkpt lat="43.56285" lon="6.43263">
        <ele>339.2</ele>
        <time>2024-02-18T09:10:05.000Z</time>
      </trkpt>
      <trkpt lat="43.56286" lon="6.43263">
        <ele>339.2</ele>
        <time>2024-02-18T09:10:06.000Z</time>
      </trkpt>
      <trkpt lat="43.56286" lon="6.43264">
        <ele>339.2</ele>
        <time>2024-02-18T09:10:11.000Z</time>
      </trkpt>
      <trkpt lat="43.56286" lon="6.43264">
        <ele>339.2</ele>
        <time>2024-02-18T09:10:12.000Z</time>
      </trkpt>
      <trkpt lat="43.56286" lon="6.43264">
        <ele>339.2</ele>
        <time>2024-02-18T09:10:13.000Z</time>
      </trkpt>
      <trkpt lat="43.56286" lon="6.43264">
        <ele>339.2</ele>
        <time>2024-02-18T09:10:14.000Z</time>
      </trkpt>
      <trkpt lat="43.56286" lon="6.43264">
        <ele>339.2</ele>
        <time>2024-02-18T09:10:15.000Z</time>
      </trkpt>
      <trkpt lat="43.56287" lon="6.43265">
        <ele>339.2</ele>
        <time>2024-02-18T09:10:16.000Z</time>
      </trkpt>
      <trkpt lat="43.56294" lon="6.43273">
        <ele>339.4</ele>
        <time>2024-02-18T09:10:28.000Z</time>
      </trkpt>
      <trkpt lat="43.56298" lon="6.43283">
        <ele>339.9</ele>
        <time>2024-02-18T09:10:38.000Z</time>
      </trkpt>
      <trkpt lat="43.56302" lon="6.43296">
        <ele>340.2</ele>
        <time>2024-02-18T09:10:48.000Z</time>
      </trkpt>
      <trkpt lat="43.56301" lon="6.4331">
        <ele>340.5</ele>
        <time>2024-02-18T09:10:59.000Z</time>
      </trkpt>
      <trkpt lat="43.56304" lon="6.43321">
        <ele>340.7</ele>
        <time>2024-02-18T09:11:09.000Z</time>
      </trkpt>
      <trkpt lat="43.56311" lon="6.43325">
        <ele>342.4</ele>
        <time>2024-02-18T09:11:26.000Z</time>
      </trkpt>
      <trkpt lat="43.56311" lon="6.43325">
        <ele>342.4</ele>
        <time>2024-02-18T09:11:27.000Z</time>
      </trkpt>
      <trkpt lat="43.56311" lon="6.43325">
        <ele>342.5</ele>
        <time>2024-02-18T09:11:28.000Z</time>
      </trkpt>
      <trkpt lat="43.56311" lon="6.43325">
        <ele>342.6</ele>
        <time>2024-02-18T09:11:31.000Z</time>
      </trkpt>
      <trkpt lat="43.56312" lon="6.43324">
        <ele>342.6</ele>
        <time>2024-02-18T09:11:32.000Z</time>
      </trkpt>
      <trkpt lat="43.56312" lon="6.43323">
        <ele>342.6</ele>
        <time>2024-02-18T09:11:33.000Z</time>
      </trkpt>
      <trkpt lat="43.56314" lon="6.43311">
        <ele>342.9</ele>
        <time>2024-02-18T09:11:44.000Z</time>
      </trkpt>
      <trkpt lat="43.56313" lon="6.43298">
        <ele>343.3</ele>
        <time>2024-02-18T09:11:55.000Z</time>
      </trkpt>
      <trkpt lat="43.56309" lon="6.43286">
        <ele>343.8</ele>
        <time>2024-02-18T09:12:03.000Z</time>
      </trkpt>
      <trkpt lat="43.56306" lon="6.43274">
        <ele>344.4</ele>
        <time>2024-02-18T09:12:12.000Z</time>
      </trkpt>
      <trkpt lat="43.56309" lon="6.43261">
        <ele>345.1</ele>
        <time>2024-02-18T09:12:22.000Z</time>
      </trkpt>
      <trkpt lat="43.56318" lon="6.43266">
        <ele>346.7</ele>
        <time>2024-02-18T09:12:35.000Z</time>
      </trkpt>
      <trkpt lat="43.56324" lon="6.43276">
        <ele>348</ele>
        <time>2024-02-18T09:12:45.000Z</time>
      </trkpt>
      <trkpt lat="43.56333" lon="6.43282">
        <ele>349.4</ele>
        <time>2024-02-18T09:12:59.000Z</time>
      </trkpt>
      <trkpt lat="43.56338" lon="6.43293">
        <ele>350.6</ele>
        <time>2024-02-18T09:13:10.000Z</time>
      </trkpt>
      <trkpt lat="43.56345" lon="6.43303">
        <ele>352.3</ele>
        <time>2024-02-18T09:13:22.000Z</time>
      </trkpt>
      <trkpt lat="43.56347" lon="6.43316">
        <ele>354.2</ele>
        <time>2024-02-18T09:13:35.000Z</time>
      </trkpt>
      <trkpt lat="43.56348" lon="6.43328">
        <ele>355.3</ele>
        <time>2024-02-18T09:13:46.000Z</time>
      </trkpt>
      <trkpt lat="43.5635" lon="6.43341">
        <ele>356.4</ele>
        <time>2024-02-18T09:13:57.000Z</time>
      </trkpt>
      <trkpt lat="43.56352" lon="6.43354">
        <ele>357.1</ele>
        <time>2024-02-18T09:14:06.000Z</time>
      </trkpt>
      <trkpt lat="43.56352" lon="6.43367">
        <ele>357.6</ele>
        <time>2024-02-18T09:14:15.000Z</time>
      </trkpt>
      <trkpt lat="43.56354" lon="6.43379">
        <ele>358.3</ele>
        <time>2024-02-18T09:14:25.000Z</time>
      </trkpt>
      <trkpt lat="43.56354" lon="6.43392">
        <ele>359.3</ele>
        <time>2024-02-18T09:14:37.000Z</time>
      </trkpt>
      <trkpt lat="43.56352" lon="6.43403">
        <ele>361</ele>
        <time>2024-02-18T09:14:52.000Z</time>
      </trkpt>
      <trkpt lat="43.56352" lon="6.43403">
        <ele>361</ele>
        <time>2024-02-18T09:14:53.000Z</time>
      </trkpt>
      <trkpt lat="43.56352" lon="6.43403">
        <ele>361</ele>
        <time>2024-02-18T09:14:54.000Z</time>
      </trkpt>
      <trkpt lat="43.56352" lon="6.43404">
        <ele>361</ele>
        <time>2024-02-18T09:14:55.000Z</time>
      </trkpt>
      <trkpt lat="43.56365" lon="6.43407">
        <ele>361.6</ele>
        <time>2024-02-18T09:20:43.000Z</time>
      </trkpt>
      <trkpt lat="43.56374" lon="6.43405">
        <ele>362.4</ele>
        <time>2024-02-18T09:20:53.000Z</time>
      </trkpt>
      <trkpt lat="43.56383" lon="6.43409">
        <ele>364.1</ele>
        <time>2024-02-18T09:21:10.000Z</time>
      </trkpt>
      <trkpt lat="43.56387" lon="6.43421">
        <ele>364.4</ele>
        <time>2024-02-18T09:21:21.000Z</time>
      </trkpt>
      <trkpt lat="43.56389" lon="6.43433">
        <ele>364.3</ele>
        <time>2024-02-18T09:21:30.000Z</time>
      </trkpt>
      <trkpt lat="43.56391" lon="6.43445">
        <ele>364.2</ele>
        <time>2024-02-18T09:21:39.000Z</time>
      </trkpt>
      <trkpt lat="43.56393" lon="6.43457">
        <ele>363.9</ele>
        <time>2024-02-18T09:21:48.000Z</time>
      </trkpt>
      <trkpt lat="43.56395" lon="6.4347">
        <ele>363.7</ele>
        <time>2024-02-18T09:21:58.000Z</time>
      </trkpt>
      <trkpt lat="43.56398" lon="6.43482">
        <ele>363.6</ele>
        <time>2024-02-18T09:22:07.000Z</time>
      </trkpt>
      <trkpt lat="43.564" lon="6.43495">
        <ele>363.5</ele>
        <time>2024-02-18T09:22:18.000Z</time>
      </trkpt>
      <trkpt lat="43.56403" lon="6.43508">
        <ele>363.5</ele>
        <time>2024-02-18T09:22:27.000Z</time>
      </trkpt>
      <trkpt lat="43.56404" lon="6.4352">
        <ele>363.7</ele>
        <time>2024-02-18T09:22:44.000Z</time>
      </trkpt>
      <trkpt lat="43.56404" lon="6.4352">
        <ele>363.7</ele>
        <time>2024-02-18T09:22:45.000Z</time>
      </trkpt>
      <trkpt lat="43.56404" lon="6.43522">
        <ele>363.7</ele>
        <time>2024-02-18T09:22:46.000Z</time>
      </trkpt>
      <trkpt lat="43.56403" lon="6.43523">
        <ele>363.7</ele>
        <time>2024-02-18T09:22:47.000Z</time>
      </trkpt>
      <trkpt lat="43.56403" lon="6.43524">
        <ele>363.7</ele>
        <time>2024-02-18T09:22:48.000Z</time>
      </trkpt>
      <trkpt lat="43.56403" lon="6.43525">
        <ele>363.8</ele>
        <time>2024-02-18T09:22:49.000Z</time>
      </trkpt>
      <trkpt lat="43.56402" lon="6.43538">
        <ele>363.9</ele>
        <time>2024-02-18T09:22:59.000Z</time>
      </trkpt>
      <trkpt lat="43.56398" lon="6.43549">
        <ele>364</ele>
        <time>2024-02-18T09:23:09.000Z</time>
      </trkpt>
      <trkpt lat="43.56395" lon="6.43563">
        <ele>364</ele>
        <time>2024-02-18T09:23:18.000Z</time>
      </trkpt>
      <trkpt lat="43.56398" lon="6.43575">
        <ele>364</ele>
        <time>2024-02-18T09:23:26.000Z</time>
      </trkpt>
      <trkpt lat="43.56407" lon="6.43577">
        <ele>364</ele>
        <time>2024-02-18T09:23:37.000Z</time>
      </trkpt>
      <trkpt lat="43.56416" lon="6.4358">
        <ele>364</ele>
        <time>2024-02-18T09:23:46.000Z</time>
      </trkpt>
      <trkpt lat="43.56425" lon="6.43583">
        <ele>364.1</ele>
        <time>2024-02-18T09:23:56.000Z</time>
      </trkpt>
      <trkpt lat="43.56429" lon="6.43595">
        <ele>364.2</ele>
        <time>2024-02-18T09:24:07.000Z</time>
      </trkpt>
      <trkpt lat="43.56429" lon="6.43608">
        <ele>364.1</ele>
        <time>2024-02-18T09:24:15.000Z</time>
      </trkpt>
      <trkpt lat="43.56427" lon="6.43622">
        <ele>363.9</ele>
        <time>2024-02-18T09:24:25.000Z</time>
      </trkpt>
      <trkpt lat="43.56424" lon="6.43634">
        <ele>363.6</ele>
        <time>2024-02-18T09:24:34.000Z</time>
      </trkpt>
      <trkpt lat="43.56421" lon="6.43647">
        <ele>363.2</ele>
        <time>2024-02-18T09:24:43.000Z</time>
      </trkpt>
      <trkpt lat="43.56417" lon="6.43658">
        <ele>363</ele>
        <time>2024-02-18T09:24:53.000Z</time>
      </trkpt>
      <trkpt lat="43.56413" lon="6.43671">
        <ele>363.1</ele>
        <time>2024-02-18T09:25:03.000Z</time>
      </trkpt>
      <trkpt lat="43.56411" lon="6.43684">
        <ele>363.2</ele>
        <time>2024-02-18T09:25:12.000Z</time>
      </trkpt>
      <trkpt lat="43.56405" lon="6.43695">
        <ele>363.4</ele>
        <time>2024-02-18T09:25:21.000Z</time>
      </trkpt>
      <trkpt lat="43.56399" lon="6.43705">
        <ele>363.5</ele>
        <time>2024-02-18T09:25:29.000Z</time>
      </trkpt>
      <trkpt lat="43.56392" lon="6.43714">
        <ele>363.5</ele>
        <time>2024-02-18T09:25:37.000Z</time>
      </trkpt>
      <trkpt lat="43.56385" lon="6.43722">
        <ele>363.5</ele>
        <time>2024-02-18T09:25:46.000Z</time>
      </trkpt>
      <trkpt lat="43.56379" lon="6.43732">
        <ele>363.4</ele>
        <time>2024-02-18T09:25:55.000Z</time>
      </trkpt>
      <trkpt lat="43.56373" lon="6.43743">
        <ele>363.1</ele>
        <time>2024-02-18T09:26:08.000Z</time>
      </trkpt>
      <trkpt lat="43.56365" lon="6.43751">
        <ele>362.9</ele>
        <time>2024-02-18T09:26:17.000Z</time>
      </trkpt>
      <trkpt lat="43.56359" lon="6.4376">
        <ele>362.3</ele>
        <time>2024-02-18T09:26:26.000Z</time>
      </trkpt>
      <trkpt lat="43.56362" lon="6.43771">
        <ele>363</ele>
        <time>2024-02-18T09:26:49.000Z</time>
      </trkpt>
      <trkpt lat="43.56371" lon="6.43776">
        <ele>365</ele>
        <time>2024-02-18T09:27:00.000Z</time>
      </trkpt>
      <trkpt lat="43.56381" lon="6.43778">
        <ele>366.2</ele>
        <time>2024-02-18T09:27:10.000Z</time>
      </trkpt>
      <trkpt lat="43.56383" lon="6.43774">
        <ele>366.6</ele>
        <time>2024-02-18T09:27:15.000Z</time>
      </trkpt>
      <trkpt lat="43.56383" lon="6.43773">
        <ele>366.7</ele>
        <time>2024-02-18T09:27:16.000Z</time>
      </trkpt>
      <trkpt lat="43.56382" lon="6.43772">
        <ele>366.8</ele>
        <time>2024-02-18T09:27:24.000Z</time>
      </trkpt>
      <trkpt lat="43.56383" lon="6.43771">
        <ele>366.9</ele>
        <time>2024-02-18T09:27:25.000Z</time>
      </trkpt>
      <trkpt lat="43.56392" lon="6.43773">
        <ele>368.6</ele>
        <time>2024-02-18T09:27:39.000Z</time>
      </trkpt>
      <trkpt lat="43.56401" lon="6.43778">
        <ele>370.2</ele>
        <time>2024-02-18T09:27:49.000Z</time>
      </trkpt>
      <trkpt lat="43.5641" lon="6.43782">
        <ele>373.9</ele>
        <time>2024-02-18T09:28:10.000Z</time>
      </trkpt>
      <trkpt lat="43.56416" lon="6.43791">
        <ele>376</ele>
        <time>2024-02-18T09:28:22.000Z</time>
      </trkpt>
      <trkpt lat="43.56425" lon="6.43796">
        <ele>378.7</ele>
        <time>2024-02-18T09:28:40.000Z</time>
      </trkpt>
      <trkpt lat="43.56433" lon="6.43801">
        <ele>380.2</ele>
        <time>2024-02-18T09:28:56.000Z</time>
      </trkpt>
      <trkpt lat="43.56443" lon="6.43805">
        <ele>383</ele>
        <time>2024-02-18T09:29:14.000Z</time>
      </trkpt>
      <trkpt lat="43.56452" lon="6.43803">
        <ele>383.4</ele>
        <time>2024-02-18T09:29:23.000Z</time>
      </trkpt>
      <trkpt lat="43.56456" lon="6.43801">
        <ele>383.9</ele>
        <time>2024-02-18T09:29:32.000Z</time>
      </trkpt>
      <trkpt lat="43.56456" lon="6.43801">
        <ele>384</ele>
        <time>2024-02-18T09:29:33.000Z</time>
      </trkpt>
      <trkpt lat="43.56457" lon="6.43801">
        <ele>384</ele>
        <time>2024-02-18T09:29:34.000Z</time>
      </trkpt>
      <trkpt lat="43.56458" lon="6.43801">
        <ele>384.1</ele>
        <time>2024-02-18T09:29:35.000Z</time>
      </trkpt>
      <trkpt lat="43.56458" lon="6.43801">
        <ele>384.1</ele>
        <time>2024-02-18T09:29:36.000Z</time>
      </trkpt>
      <trkpt lat="43.56457" lon="6.43801">
        <ele>384.4</ele>
        <time>2024-02-18T09:29:40.000Z</time>
      </trkpt>
      <trkpt lat="43.56457" lon="6.43801">
        <ele>384.4</ele>
        <time>2024-02-18T09:29:41.000Z</time>
      </trkpt>
      <trkpt lat="43.56457" lon="6.438">
        <ele>384.4</ele>
        <time>2024-02-18T09:29:42.000Z</time>
      </trkpt>
      <trkpt lat="43.56457" lon="6.438">
        <ele>384.4</ele>
        <time>2024-02-18T09:29:43.000Z</time>
      </trkpt>
      <trkpt lat="43.56458" lon="6.43799">
        <ele>384.6</ele>
        <time>2024-02-18T09:29:47.000Z</time>
      </trkpt>
      <trkpt lat="43.56458" lon="6.43799">
        <ele>384.6</ele>
        <time>2024-02-18T09:29:48.000Z</time>
      </trkpt>
      <trkpt lat="43.56458" lon="6.43798">
        <ele>384.6</ele>
        <time>2024-02-18T09:29:49.000Z</time>
      </trkpt>
      <trkpt lat="43.56458" lon="6.43798">
        <ele>384.7</ele>
        <time>2024-02-18T09:29:50.000Z</time>
      </trkpt>
      <trkpt lat="43.56459" lon="6.43797">
        <ele>384.8</ele>
        <time>2024-02-18T09:29:54.000Z</time>
      </trkpt>
      <trkpt lat="43.56459" lon="6.43796">
        <ele>384.8</ele>
        <time>2024-02-18T09:29:55.000Z</time>
      </trkpt>
      <trkpt lat="43.5646" lon="6.43796">
        <ele>384.8</ele>
        <time>2024-02-18T09:29:56.000Z</time>
      </trkpt>
      <trkpt lat="43.5646" lon="6.43796">
        <ele>384.8</ele>
        <time>2024-02-18T09:29:57.000Z</time>
      </trkpt>
      <trkpt lat="43.5646" lon="6.43796">
        <ele>384.8</ele>
        <time>2024-02-18T09:29:58.000Z</time>
      </trkpt>
      <trkpt lat="43.5646" lon="6.43796">
        <ele>384.8</ele>
        <time>2024-02-18T09:29:59.000Z</time>
      </trkpt>
      <trkpt lat="43.56458" lon="6.43798">
        <ele>385</ele>
        <time>2024-02-18T09:30:14.000Z</time>
      </trkpt>
      <trkpt lat="43.56458" lon="6.43798">
        <ele>385</ele>
        <time>2024-02-18T09:30:15.000Z</time>
      </trkpt>
      <trkpt lat="43.56458" lon="6.43798">
        <ele>385</ele>
        <time>2024-02-18T09:30:25.000Z</time>
      </trkpt>
      <trkpt lat="43.56458" lon="6.43798">
        <ele>385</ele>
        <time>2024-02-18T09:30:26.000Z</time>
      </trkpt>
      <trkpt lat="43.56457" lon="6.43797">
        <ele>385.1</ele>
        <time>2024-02-18T09:30:29.000Z</time>
      </trkpt>
      <trkpt lat="43.56457" lon="6.43797">
        <ele>385.1</ele>
        <time>2024-02-18T09:30:30.000Z</time>
      </trkpt>
      <trkpt lat="43.56457" lon="6.43797">
        <ele>383.4</ele>
        <time>2024-02-18T09:30:36.000Z</time>
      </trkpt>
      <trkpt lat="43.56457" lon="6.43797">
        <ele>382.2</ele>
        <time>2024-02-18T09:30:37.000Z</time>
      </trkpt>
      <trkpt lat="43.56457" lon="6.43797">
        <ele>383.4</ele>
        <time>2024-02-18T09:30:38.000Z</time>
      </trkpt>
      <trkpt lat="43.56457" lon="6.43797">
        <ele>384.3</ele>
        <time>2024-02-18T09:30:39.000Z</time>
      </trkpt>
      <trkpt lat="43.56457" lon="6.43797">
        <ele>380.6</ele>
        <time>2024-02-18T09:30:40.000Z</time>
      </trkpt>
      <trkpt lat="43.56457" lon="6.43797">
        <ele>380.9</ele>
        <time>2024-02-18T09:30:46.000Z</time>
      </trkpt>
      <trkpt lat="43.56457" lon="6.43797">
        <ele>381.3</ele>
        <time>2024-02-18T09:30:47.000Z</time>
      </trkpt>
      <trkpt lat="43.56457" lon="6.43797">
        <ele>383.4</ele>
        <time>2024-02-18T09:30:48.000Z</time>
      </trkpt>
      <trkpt lat="43.56457" lon="6.43797">
        <ele>388.2</ele>
        <time>2024-02-18T09:30:49.000Z</time>
      </trkpt>
      <trkpt lat="43.56457" lon="6.43797">
        <ele>391.5</ele>
        <time>2024-02-18T09:30:50.000Z</time>
      </trkpt>
      <trkpt lat="43.56457" lon="6.43797">
        <ele>382.7</ele>
        <time>2024-02-18T09:30:54.000Z</time>
      </trkpt>
      <trkpt lat="43.56457" lon="6.43797">
        <ele>385.3</ele>
        <time>2024-02-18T09:30:55.000Z</time>
      </trkpt>
      <trkpt lat="43.56458" lon="6.43799">
        <ele>385.4</ele>
        <time>2024-02-18T09:31:04.000Z</time>
      </trkpt>
      <trkpt lat="43.56459" lon="6.438">
        <ele>385.3</ele>
        <time>2024-02-18T09:31:05.000Z</time>
      </trkpt>
      <trkpt lat="43.56459" lon="6.438">
        <ele>385.2</ele>
        <time>2024-02-18T09:31:09.000Z</time>
      </trkpt>
      <trkpt lat="43.56459" lon="6.43801">
        <ele>385.3</ele>
        <time>2024-02-18T09:31:10.000Z</time>
      </trkpt>
      <trkpt lat="43.5646" lon="6.43801">
        <ele>385.3</ele>
        <time>2024-02-18T09:31:11.000Z</time>
      </trkpt>
      <trkpt lat="43.56453" lon="6.43811">
        <ele>386.3</ele>
        <time>2024-02-18T09:31:45.000Z</time>
      </trkpt>
      <trkpt lat="43.5645" lon="6.43822">
        <ele>387.5</ele>
        <time>2024-02-18T09:31:54.000Z</time>
      </trkpt>
      <trkpt lat="43.56446" lon="6.43834">
        <ele>388.7</ele>
        <time>2024-02-18T09:32:08.000Z</time>
      </trkpt>
      <trkpt lat="43.56437" lon="6.4384">
        <ele>389.2</ele>
        <time>2024-02-18T09:32:18.000Z</time>
      </trkpt>
      <trkpt lat="43.5643" lon="6.43848">
        <ele>389.5</ele>
        <time>2024-02-18T09:32:25.000Z</time>
      </trkpt>
      <trkpt lat="43.56422" lon="6.43852">
        <ele>389.6</ele>
        <time>2024-02-18T09:32:33.000Z</time>
      </trkpt>
      <trkpt lat="43.56412" lon="6.43855">
        <ele>389.8</ele>
        <time>2024-02-18T09:32:44.000Z</time>
      </trkpt>
      <trkpt lat="43.56403" lon="6.43858">
        <ele>390.4</ele>
        <time>2024-02-18T09:32:57.000Z</time>
      </trkpt>
      <trkpt lat="43.56394" lon="6.43863">
        <ele>390.7</ele>
        <time>2024-02-18T09:33:08.000Z</time>
      </trkpt>
      <trkpt lat="43.5639" lon="6.4387">
        <ele>390.7</ele>
        <time>2024-02-18T09:33:12.000Z</time>
      </trkpt>
      <trkpt lat="43.56389" lon="6.4387">
        <ele>390.7</ele>
        <time>2024-02-18T09:33:13.000Z</time>
      </trkpt>
      <trkpt lat="43.56389" lon="6.4387">
        <ele>390.7</ele>
        <time>2024-02-18T09:33:14.000Z</time>
      </trkpt>
      <trkpt lat="43.56389" lon="6.4387">
        <ele>390.7</ele>
        <time>2024-02-18T09:33:15.000Z</time>
      </trkpt>
      <trkpt lat="43.56388" lon="6.43871">
        <ele>390.8</ele>
        <time>2024-02-18T09:33:16.000Z</time>
      </trkpt>
      <trkpt lat="43.56378" lon="6.43873">
        <ele>390.9</ele>
        <time>2024-02-18T09:33:28.000Z</time>
      </trkpt>
      <trkpt lat="43.5637" lon="6.4388">
        <ele>390.9</ele>
        <time>2024-02-18T09:33:42.000Z</time>
      </trkpt>
      <trkpt lat="43.56361" lon="6.43886">
        <ele>391</ele>
        <time>2024-02-18T09:33:50.000Z</time>
      </trkpt>
      <trkpt lat="43.56351" lon="6.43887">
        <ele>391.1</ele>
        <time>2024-02-18T09:33:57.000Z</time>
      </trkpt>
      <trkpt lat="43.56341" lon="6.43889">
        <ele>391.1</ele>
        <time>2024-02-18T09:34:02.000Z</time>
      </trkpt>
      <trkpt lat="43.56332" lon="6.43889">
        <ele>391</ele>
        <time>2024-02-18T09:34:09.000Z</time>
      </trkpt>
      <trkpt lat="43.56325" lon="6.43898">
        <ele>390.9</ele>
        <time>2024-02-18T09:34:21.000Z</time>
      </trkpt>
      <trkpt lat="43.56316" lon="6.43902">
        <ele>390.4</ele>
        <time>2024-02-18T09:34:31.000Z</time>
      </trkpt>
      <trkpt lat="43.56308" lon="6.43909">
        <ele>390</ele>
        <time>2024-02-18T09:34:41.000Z</time>
      </trkpt>
      <trkpt lat="43.56299" lon="6.43914">
        <ele>389.4</ele>
        <time>2024-02-18T09:34:47.000Z</time>
      </trkpt>
      <trkpt lat="43.5629" lon="6.43915">
        <ele>388.8</ele>
        <time>2024-02-18T09:34:54.000Z</time>
      </trkpt>
      <trkpt lat="43.56281" lon="6.43918">
        <ele>388.6</ele>
        <time>2024-02-18T09:35:00.000Z</time>
      </trkpt>
      <trkpt lat="43.56279" lon="6.43921">
        <ele>387.9</ele>
        <time>2024-02-18T09:35:12.000Z</time>
      </trkpt>
      <trkpt lat="43.5628" lon="6.43922">
        <ele>387.8</ele>
        <time>2024-02-18T09:35:13.000Z</time>
      </trkpt>
      <trkpt lat="43.5628" lon="6.43923">
        <ele>387.8</ele>
        <time>2024-02-18T09:35:14.000Z</time>
      </trkpt>
      <trkpt lat="43.5628" lon="6.43923">
        <ele>387.8</ele>
        <time>2024-02-18T09:35:15.000Z</time>
      </trkpt>
      <trkpt lat="43.56281" lon="6.43924">
        <ele>387.8</ele>
        <time>2024-02-18T09:35:16.000Z</time>
      </trkpt>
      <trkpt lat="43.56282" lon="6.43924">
        <ele>387.7</ele>
        <time>2024-02-18T09:35:20.000Z</time>
      </trkpt>
      <trkpt lat="43.56282" lon="6.43925">
        <ele>387.6</ele>
        <time>2024-02-18T09:35:21.000Z</time>
      </trkpt>
      <trkpt lat="43.5628" lon="6.43926">
        <ele>387.4</ele>
        <time>2024-02-18T09:35:30.000Z</time>
      </trkpt>
      <trkpt lat="43.56279" lon="6.43927">
        <ele>387.4</ele>
        <time>2024-02-18T09:35:31.000Z</time>
      </trkpt>
      <trkpt lat="43.5627" lon="6.43932">
        <ele>387.4</ele>
        <time>2024-02-18T09:35:54.000Z</time>
      </trkpt>
      <trkpt lat="43.56267" lon="6.43944">
        <ele>387.2</ele>
        <time>2024-02-18T09:36:04.000Z</time>
      </trkpt>
      <trkpt lat="43.56259" lon="6.43951">
        <ele>386.8</ele>
        <time>2024-02-18T09:36:19.000Z</time>
      </trkpt>
      <trkpt lat="43.56256" lon="6.43964">
        <ele>385.9</ele>
        <time>2024-02-18T09:36:30.000Z</time>
      </trkpt>
      <trkpt lat="43.56259" lon="6.43976">
        <ele>385.1</ele>
        <time>2024-02-18T09:36:37.000Z</time>
      </trkpt>
      <trkpt lat="43.5626" lon="6.43989">
        <ele>384.2</ele>
        <time>2024-02-18T09:36:48.000Z</time>
      </trkpt>
      <trkpt lat="43.56254" lon="6.43998">
        <ele>383.5</ele>
        <time>2024-02-18T09:36:59.000Z</time>
      </trkpt>
      <trkpt lat="43.56247" lon="6.44007">
        <ele>383.3</ele>
        <time>2024-02-18T09:37:10.000Z</time>
      </trkpt>
      <trkpt lat="43.56239" lon="6.44014">
        <ele>383.4</ele>
        <time>2024-02-18T09:37:20.000Z</time>
      </trkpt>
      <trkpt lat="43.56233" lon="6.44025">
        <ele>384</ele>
        <time>2024-02-18T09:37:29.000Z</time>
      </trkpt>
      <trkpt lat="43.56225" lon="6.44034">
        <ele>386</ele>
        <time>2024-02-18T09:37:42.000Z</time>
      </trkpt>
      <trkpt lat="43.5622" lon="6.44044">
        <ele>387.1</ele>
        <time>2024-02-18T09:37:52.000Z</time>
      </trkpt>
      <trkpt lat="43.56214" lon="6.44054">
        <ele>388.2</ele>
        <time>2024-02-18T09:38:02.000Z</time>
      </trkpt>
      <trkpt lat="43.56208" lon="6.44063">
        <ele>389.6</ele>
        <time>2024-02-18T09:38:16.000Z</time>
      </trkpt>
      <trkpt lat="43.56203" lon="6.44074">
        <ele>390</ele>
        <time>2024-02-18T09:38:23.000Z</time>
      </trkpt>
      <trkpt lat="43.562" lon="6.44086">
        <ele>390.4</ele>
        <time>2024-02-18T09:38:35.000Z</time>
      </trkpt>
      <trkpt lat="43.56194" lon="6.44098">
        <ele>390.7</ele>
        <time>2024-02-18T09:38:43.000Z</time>
      </trkpt>
      <trkpt lat="43.56188" lon="6.44107">
        <ele>391</ele>
        <time>2024-02-18T09:38:49.000Z</time>
      </trkpt>
      <trkpt lat="43.56183" lon="6.44119">
        <ele>391.3</ele>
        <time>2024-02-18T09:38:58.000Z</time>
      </trkpt>
      <trkpt lat="43.56178" lon="6.44129">
        <ele>391.6</ele>
        <time>2024-02-18T09:39:06.000Z</time>
      </trkpt>
      <trkpt lat="43.56175" lon="6.44141">
        <ele>392.1</ele>
        <time>2024-02-18T09:39:15.000Z</time>
      </trkpt>
      <trkpt lat="43.56173" lon="6.44155">
        <ele>392.6</ele>
        <time>2024-02-18T09:39:24.000Z</time>
      </trkpt>
      <trkpt lat="43.56175" lon="6.44167">
        <ele>392.7</ele>
        <time>2024-02-18T09:39:33.000Z</time>
      </trkpt>
      <trkpt lat="43.56175" lon="6.4418">
        <ele>392.8</ele>
        <time>2024-02-18T09:39:46.000Z</time>
      </trkpt>
      <trkpt lat="43.56177" lon="6.44193">
        <ele>393.3</ele>
        <time>2024-02-18T09:39:55.000Z</time>
      </trkpt>
      <trkpt lat="43.56177" lon="6.44206">
        <ele>394.4</ele>
        <time>2024-02-18T09:40:06.000Z</time>
      </trkpt>
      <trkpt lat="43.56181" lon="6.44218">
        <ele>395.2</ele>
        <time>2024-02-18T09:40:15.000Z</time>
      </trkpt>
      <trkpt lat="43.56178" lon="6.44228">
        <ele>396.5</ele>
        <time>2024-02-18T09:40:31.000Z</time>
      </trkpt>
      <trkpt lat="43.56178" lon="6.44229">
        <ele>396.5</ele>
        <time>2024-02-18T09:40:32.000Z</time>
      </trkpt>
      <trkpt lat="43.56178" lon="6.44229">
        <ele>396.6</ele>
        <time>2024-02-18T09:40:33.000Z</time>
      </trkpt>
      <trkpt lat="43.5618" lon="6.44231">
        <ele>396.9</ele>
        <time>2024-02-18T09:40:44.000Z</time>
      </trkpt>
      <trkpt lat="43.5618" lon="6.44232">
        <ele>396.9</ele>
        <time>2024-02-18T09:40:45.000Z</time>
      </trkpt>
      <trkpt lat="43.5618" lon="6.44232">
        <ele>396.9</ele>
        <time>2024-02-18T09:40:49.000Z</time>
      </trkpt>
      <trkpt lat="43.5618" lon="6.44232">
        <ele>396.9</ele>
        <time>2024-02-18T09:40:50.000Z</time>
      </trkpt>
      <trkpt lat="43.5618" lon="6.44232">
        <ele>397</ele>
        <time>2024-02-18T09:40:51.000Z</time>
      </trkpt>
      <trkpt lat="43.56181" lon="6.44232">
        <ele>397</ele>
        <time>2024-02-18T09:41:01.000Z</time>
      </trkpt>
      <trkpt lat="43.56181" lon="6.44231">
        <ele>397</ele>
        <time>2024-02-18T09:41:02.000Z</time>
      </trkpt>
      <trkpt lat="43.5618" lon="6.44231">
        <ele>397</ele>
        <time>2024-02-18T09:41:03.000Z</time>
      </trkpt>
      <trkpt lat="43.5617" lon="6.4423">
        <ele>397.1</ele>
        <time>2024-02-18T09:41:10.000Z</time>
      </trkpt>
      <trkpt lat="43.5616" lon="6.44232">
        <ele>397.3</ele>
        <time>2024-02-18T09:41:17.000Z</time>
      </trkpt>
      <trkpt lat="43.56159" lon="6.4423">
        <ele>397.6</ele>
        <time>2024-02-18T09:41:21.000Z</time>
      </trkpt>
      <trkpt lat="43.5616" lon="6.44231">
        <ele>397.7</ele>
        <time>2024-02-18T09:41:22.000Z</time>
      </trkpt>
      <trkpt lat="43.56159" lon="6.4423">
        <ele>397.7</ele>
        <time>2024-02-18T09:41:23.000Z</time>
      </trkpt>
      <trkpt lat="43.56159" lon="6.44231">
        <ele>397.8</ele>
        <time>2024-02-18T09:41:24.000Z</time>
      </trkpt>
      <trkpt lat="43.56158" lon="6.44232">
        <ele>397.8</ele>
        <time>2024-02-18T09:41:25.000Z</time>
      </trkpt>
      <trkpt lat="43.56154" lon="6.4423">
        <ele>398.1</ele>
        <time>2024-02-18T09:41:32.000Z</time>
      </trkpt>
      <trkpt lat="43.56154" lon="6.4423">
        <ele>398.1</ele>
        <time>2024-02-18T09:41:33.000Z</time>
      </trkpt>
      <trkpt lat="43.56153" lon="6.44232">
        <ele>398.3</ele>
        <time>2024-02-18T09:41:52.000Z</time>
      </trkpt>
      <trkpt lat="43.56153" lon="6.44233">
        <ele>398.3</ele>
        <time>2024-02-18T09:41:53.000Z</time>
      </trkpt>
      <trkpt lat="43.56152" lon="6.44246">
        <ele>400.1</ele>
        <time>2024-02-18T09:42:16.000Z</time>
      </trkpt>
      <trkpt lat="43.56156" lon="6.44257">
        <ele>403.4</ele>
        <time>2024-02-18T09:42:34.000Z</time>
      </trkpt>
      <trkpt lat="43.5616" lon="6.44269">
        <ele>408.2</ele>
        <time>2024-02-18T09:43:05.000Z</time>
      </trkpt>
      <trkpt lat="43.56153" lon="6.44278">
        <ele>410.6</ele>
        <time>2024-02-18T09:43:20.000Z</time>
      </trkpt>
      <trkpt lat="43.56156" lon="6.4429">
        <ele>413.7</ele>
        <time>2024-02-18T09:43:40.000Z</time>
      </trkpt>
      <trkpt lat="43.56159" lon="6.44302">
        <ele>415.1</ele>
        <time>2024-02-18T09:43:53.000Z</time>
      </trkpt>
      <trkpt lat="43.56164" lon="6.44314">
        <ele>417</ele>
        <time>2024-02-18T09:44:12.000Z</time>
      </trkpt>
      <trkpt lat="43.5617" lon="6.44323">
        <ele>418.1</ele>
        <time>2024-02-18T09:44:32.000Z</time>
      </trkpt>
      <trkpt lat="43.56174" lon="6.44335">
        <ele>421.7</ele>
        <time>2024-02-18T09:44:53.000Z</time>
      </trkpt>
      <trkpt lat="43.56179" lon="6.44345">
        <ele>423.2</ele>
        <time>2024-02-18T09:45:06.000Z</time>
      </trkpt>
      <trkpt lat="43.56183" lon="6.44357">
        <ele>425.6</ele>
        <time>2024-02-18T09:45:24.000Z</time>
      </trkpt>
      <trkpt lat="43.56189" lon="6.44367">
        <ele>427.7</ele>
        <time>2024-02-18T09:45:41.000Z</time>
      </trkpt>
      <trkpt lat="43.56196" lon="6.44375">
        <ele>429.2</ele>
        <time>2024-02-18T09:45:53.000Z</time>
      </trkpt>
      <trkpt lat="43.56197" lon="6.44375">
        <ele>430.4</ele>
        <time>2024-02-18T09:46:09.000Z</time>
      </trkpt>
      <trkpt lat="43.56197" lon="6.44375">
        <ele>430.4</ele>
        <time>2024-02-18T09:46:10.000Z</time>
      </trkpt>
      <trkpt lat="43.56198" lon="6.44376">
        <ele>430.6</ele>
        <time>2024-02-18T09:46:27.000Z</time>
      </trkpt>
      <trkpt lat="43.56198" lon="6.44377">
        <ele>430.6</ele>
        <time>2024-02-18T09:46:28.000Z</time>
      </trkpt>
      <trkpt lat="43.56198" lon="6.44378">
        <ele>430.6</ele>
        <time>2024-02-18T09:46:29.000Z</time>
      </trkpt>
      <trkpt lat="43.562" lon="6.4439">
        <ele>431.3</ele>
        <time>2024-02-18T09:46:42.000Z</time>
      </trkpt>
      <trkpt lat="43.56199" lon="6.44403">
        <ele>433.9</ele>
        <time>2024-02-18T09:46:58.000Z</time>
      </trkpt>
      <trkpt lat="43.56191" lon="6.44412">
        <ele>435.9</ele>
        <time>2024-02-18T09:47:11.000Z</time>
      </trkpt>
      <trkpt lat="43.56184" lon="6.44421">
        <ele>436.8</ele>
        <time>2024-02-18T09:47:24.000Z</time>
      </trkpt>
      <trkpt lat="43.56179" lon="6.44432">
        <ele>437.2</ele>
        <time>2024-02-18T09:47:35.000Z</time>
      </trkpt>
      <trkpt lat="43.56181" lon="6.44444">
        <ele>438.2</ele>
        <time>2024-02-18T09:47:45.000Z</time>
      </trkpt>
      <trkpt lat="43.56183" lon="6.44455">
        <ele>440.6</ele>
        <time>2024-02-18T09:48:07.000Z</time>
      </trkpt>
      <trkpt lat="43.56183" lon="6.44455">
        <ele>440.7</ele>
        <time>2024-02-18T09:48:08.000Z</time>
      </trkpt>
      <trkpt lat="43.56182" lon="6.44458">
        <ele>440.9</ele>
        <time>2024-02-18T09:48:17.000Z</time>
      </trkpt>
      <trkpt lat="43.56181" lon="6.4446">
        <ele>440.9</ele>
        <time>2024-02-18T09:48:18.000Z</time>
      </trkpt>
      <trkpt lat="43.5618" lon="6.44473">
        <ele>441.5</ele>
        <time>2024-02-18T09:48:31.000Z</time>
      </trkpt>
      <trkpt lat="43.56184" lon="6.44486">
        <ele>442.2</ele>
        <time>2024-02-18T09:48:41.000Z</time>
      </trkpt>
      <trkpt lat="43.56182" lon="6.44499">
        <ele>443.7</ele>
        <time>2024-02-18T09:48:54.000Z</time>
      </trkpt>
      <trkpt lat="43.56188" lon="6.4451">
        <ele>445</ele>
        <time>2024-02-18T09:49:03.000Z</time>
      </trkpt>
      <trkpt lat="43.56185" lon="6.44523">
        <ele>446.6</ele>
        <time>2024-02-18T09:49:16.000Z</time>
      </trkpt>
      <trkpt lat="43.56186" lon="6.44537">
        <ele>447.8</ele>
        <time>2024-02-18T09:49:33.000Z</time>
      </trkpt>
      <trkpt lat="43.56188" lon="6.44549">
        <ele>448.8</ele>
        <time>2024-02-18T09:49:46.000Z</time>
      </trkpt>
      <trkpt lat="43.56188" lon="6.44562">
        <ele>449.7</ele>
        <time>2024-02-18T09:50:01.000Z</time>
      </trkpt>
      <trkpt lat="43.56195" lon="6.44572">
        <ele>450.8</ele>
        <time>2024-02-18T09:50:15.000Z</time>
      </trkpt>
      <trkpt lat="43.56198" lon="6.44584">
        <ele>451.5</ele>
        <time>2024-02-18T09:50:26.000Z</time>
      </trkpt>
      <trkpt lat="43.56203" lon="6.44596">
        <ele>451.8</ele>
        <time>2024-02-18T09:50:36.000Z</time>
      </trkpt>
      <trkpt lat="43.5621" lon="6.44604">
        <ele>452.3</ele>
        <time>2024-02-18T09:50:47.000Z</time>
      </trkpt>
      <trkpt lat="43.56215" lon="6.44615">
        <ele>453.2</ele>
        <time>2024-02-18T09:50:59.000Z</time>
      </trkpt>
      <trkpt lat="43.56222" lon="6.44622">
        <ele>454.3</ele>
        <time>2024-02-18T09:51:17.000Z</time>
      </trkpt>
      <trkpt lat="43.56231" lon="6.44627">
        <ele>456.1</ele>
        <time>2024-02-18T09:51:28.000Z</time>
      </trkpt>
      <trkpt lat="43.56237" lon="6.44636">
        <ele>458.1</ele>
        <time>2024-02-18T09:51:42.000Z</time>
      </trkpt>
      <trkpt lat="43.56245" lon="6.44644">
        <ele>459.5</ele>
        <time>2024-02-18T09:51:55.000Z</time>
      </trkpt>
      <trkpt lat="43.56251" lon="6.44653">
        <ele>460</ele>
        <time>2024-02-18T09:52:06.000Z</time>
      </trkpt>
      <trkpt lat="43.56255" lon="6.44665">
        <ele>460.7</ele>
        <time>2024-02-18T09:52:16.000Z</time>
      </trkpt>
      <trkpt lat="43.5626" lon="6.44676">
        <ele>461.1</ele>
        <time>2024-02-18T09:52:27.000Z</time>
      </trkpt>
      <trkpt lat="43.56265" lon="6.44687">
        <ele>461.5</ele>
        <time>2024-02-18T09:52:37.000Z</time>
      </trkpt>
      <trkpt lat="43.56271" lon="6.44697">
        <ele>463.2</ele>
        <time>2024-02-18T09:52:52.000Z</time>
      </trkpt>
      <trkpt lat="43.56279" lon="6.44703">
        <ele>465.1</ele>
        <time>2024-02-18T09:53:06.000Z</time>
      </trkpt>
      <trkpt lat="43.56283" lon="6.44715">
        <ele>466.8</ele>
        <time>2024-02-18T09:53:23.000Z</time>
      </trkpt>
      <trkpt lat="43.56284" lon="6.44727">
        <ele>467.4</ele>
        <time>2024-02-18T09:53:41.000Z</time>
      </trkpt>
      <trkpt lat="43.56285" lon="6.44737">
        <ele>467.8</ele>
        <time>2024-02-18T09:53:57.000Z</time>
      </trkpt>
      <trkpt lat="43.56285" lon="6.44738">
        <ele>467.8</ele>
        <time>2024-02-18T09:53:58.000Z</time>
      </trkpt>
      <trkpt lat="43.56285" lon="6.44738">
        <ele>467.9</ele>
        <time>2024-02-18T09:53:59.000Z</time>
      </trkpt>
      <trkpt lat="43.56284" lon="6.44738">
        <ele>467.9</ele>
        <time>2024-02-18T09:54:00.000Z</time>
      </trkpt>
      <trkpt lat="43.56284" lon="6.44738">
        <ele>467.9</ele>
        <time>2024-02-18T09:54:01.000Z</time>
      </trkpt>
      <trkpt lat="43.56283" lon="6.44751">
        <ele>467.8</ele>
        <time>2024-02-18T09:54:16.000Z</time>
      </trkpt>
      <trkpt lat="43.56283" lon="6.44752">
        <ele>467.7</ele>
        <time>2024-02-18T09:54:25.000Z</time>
      </trkpt>
      <trkpt lat="43.56283" lon="6.44751">
        <ele>467.7</ele>
        <time>2024-02-18T09:54:26.000Z</time>
      </trkpt>
      <trkpt lat="43.56283" lon="6.44752">
        <ele>467.5</ele>
        <time>2024-02-18T09:54:32.000Z</time>
      </trkpt>
      <trkpt lat="43.56283" lon="6.44753">
        <ele>467.5</ele>
        <time>2024-02-18T09:54:33.000Z</time>
      </trkpt>
      <trkpt lat="43.56284" lon="6.44753">
        <ele>467.4</ele>
        <time>2024-02-18T09:54:37.000Z</time>
      </trkpt>
      <trkpt lat="43.56284" lon="6.44753">
        <ele>467.4</ele>
        <time>2024-02-18T09:54:38.000Z</time>
      </trkpt>
      <trkpt lat="43.56284" lon="6.44753">
        <ele>467.4</ele>
        <time>2024-02-18T09:54:39.000Z</time>
      </trkpt>
      <trkpt lat="43.56285" lon="6.44753">
        <ele>467.4</ele>
        <time>2024-02-18T09:54:40.000Z</time>
      </trkpt>
      <trkpt lat="43.56285" lon="6.44753">
        <ele>467.4</ele>
        <time>2024-02-18T09:54:41.000Z</time>
      </trkpt>
      <trkpt lat="43.56287" lon="6.44751">
        <ele>467.4</ele>
        <time>2024-02-18T09:54:46.000Z</time>
      </trkpt>
      <trkpt lat="43.56287" lon="6.44751">
        <ele>467.4</ele>
        <time>2024-02-18T09:54:47.000Z</time>
      </trkpt>
      <trkpt lat="43.56286" lon="6.44751">
        <ele>467.4</ele>
        <time>2024-02-18T09:54:48.000Z</time>
      </trkpt>
      <trkpt lat="43.56287" lon="6.44754">
        <ele>467.4</ele>
        <time>2024-02-18T09:54:59.000Z</time>
      </trkpt>
      <trkpt lat="43.56287" lon="6.44754">
        <ele>467.4</ele>
        <time>2024-02-18T09:55:00.000Z</time>
      </trkpt>
      <trkpt lat="43.56287" lon="6.44754">
        <ele>467.4</ele>
        <time>2024-02-18T09:55:01.000Z</time>
      </trkpt>
      <trkpt lat="43.56288" lon="6.44754">
        <ele>467.4</ele>
        <time>2024-02-18T09:55:02.000Z</time>
      </trkpt>
      <trkpt lat="43.56287" lon="6.44755">
        <ele>467.4</ele>
        <time>2024-02-18T09:55:03.000Z</time>
      </trkpt>
      <trkpt lat="43.56286" lon="6.44755">
        <ele>467.4</ele>
        <time>2024-02-18T09:55:06.000Z</time>
      </trkpt>
      <trkpt lat="43.56286" lon="6.44755">
        <ele>467.4</ele>
        <time>2024-02-18T09:55:07.000Z</time>
      </trkpt>
      <trkpt lat="43.56286" lon="6.44755">
        <ele>467.4</ele>
        <time>2024-02-18T09:55:08.000Z</time>
      </trkpt>
      <trkpt lat="43.56286" lon="6.44755">
        <ele>467.4</ele>
        <time>2024-02-18T09:55:12.000Z</time>
      </trkpt>
      <trkpt lat="43.56287" lon="6.44754">
        <ele>467.4</ele>
        <time>2024-02-18T09:55:13.000Z</time>
      </trkpt>
      <trkpt lat="43.56287" lon="6.44754">
        <ele>467.4</ele>
        <time>2024-02-18T09:55:14.000Z</time>
      </trkpt>
      <trkpt lat="43.56286" lon="6.44754">
        <ele>467.2</ele>
        <time>2024-02-18T09:55:24.000Z</time>
      </trkpt>
      <trkpt lat="43.56286" lon="6.44754">
        <ele>467.2</ele>
        <time>2024-02-18T09:55:25.000Z</time>
      </trkpt>
      <trkpt lat="43.56286" lon="6.44754">
        <ele>467.2</ele>
        <time>2024-02-18T09:55:26.000Z</time>
      </trkpt>
      <trkpt lat="43.56286" lon="6.44754">
        <ele>467.1</ele>
        <time>2024-02-18T09:55:27.000Z</time>
      </trkpt>
      <trkpt lat="43.56286" lon="6.44753">
        <ele>467.1</ele>
        <time>2024-02-18T09:55:28.000Z</time>
      </trkpt>
      <trkpt lat="43.56286" lon="6.44753">
        <ele>466.9</ele>
        <time>2024-02-18T09:55:29.000Z</time>
      </trkpt>
      <trkpt lat="43.56288" lon="6.44753">
        <ele>467.1</ele>
        <time>2024-02-18T09:56:19.000Z</time>
      </trkpt>
      <trkpt lat="43.56288" lon="6.44752">
        <ele>466.9</ele>
        <time>2024-02-18T09:56:20.000Z</time>
      </trkpt>
      <trkpt lat="43.56288" lon="6.44753">
        <ele>466.8</ele>
        <time>2024-02-18T09:56:21.000Z</time>
      </trkpt>
      <trkpt lat="43.56288" lon="6.44753">
        <ele>466.8</ele>
        <time>2024-02-18T09:56:22.000Z</time>
      </trkpt>
      <trkpt lat="43.56289" lon="6.44754">
        <ele>466.9</ele>
        <time>2024-02-18T09:56:23.000Z</time>
      </trkpt>
      <trkpt lat="43.56288" lon="6.44753">
        <ele>467.2</ele>
        <time>2024-02-18T09:56:26.000Z</time>
      </trkpt>
      <trkpt lat="43.56288" lon="6.44753">
        <ele>467.2</ele>
        <time>2024-02-18T09:56:27.000Z</time>
      </trkpt>
      <trkpt lat="43.56288" lon="6.44753">
        <ele>467.1</ele>
        <time>2024-02-18T09:56:28.000Z</time>
      </trkpt>
      <trkpt lat="43.56288" lon="6.44752">
        <ele>467</ele>
        <time>2024-02-18T09:56:32.000Z</time>
      </trkpt>
      <trkpt lat="43.56289" lon="6.44753">
        <ele>466.6</ele>
        <time>2024-02-18T09:56:33.000Z</time>
      </trkpt>
      <trkpt lat="43.56289" lon="6.44753">
        <ele>466.1</ele>
        <time>2024-02-18T09:56:34.000Z</time>
      </trkpt>
      <trkpt lat="43.56289" lon="6.44753">
        <ele>466.5</ele>
        <time>2024-02-18T09:56:35.000Z</time>
      </trkpt>
      <trkpt lat="43.56289" lon="6.44753">
        <ele>467.2</ele>
        <time>2024-02-18T09:56:36.000Z</time>
      </trkpt>
      <trkpt lat="43.56288" lon="6.44753">
        <ele>467.2</ele>
        <time>2024-02-18T09:56:41.000Z</time>
      </trkpt>
      <trkpt lat="43.56288" lon="6.44753">
        <ele>467.2</ele>
        <time>2024-02-18T09:56:42.000Z</time>
      </trkpt>
      <trkpt lat="43.56288" lon="6.44753">
        <ele>467.2</ele>
        <time>2024-02-18T09:56:43.000Z</time>
      </trkpt>
      <trkpt lat="43.56286" lon="6.44752">
        <ele>466.9</ele>
        <time>2024-02-18T09:57:16.000Z</time>
      </trkpt>
      <trkpt lat="43.56286" lon="6.44752">
        <ele>466.9</ele>
        <time>2024-02-18T09:57:17.000Z</time>
      </trkpt>
      <trkpt lat="43.56286" lon="6.44752">
        <ele>466.9</ele>
        <time>2024-02-18T09:57:18.000Z</time>
      </trkpt>
      <trkpt lat="43.56286" lon="6.44752">
        <ele>466.9</ele>
        <time>2024-02-18T09:57:19.000Z</time>
      </trkpt>
      <trkpt lat="43.56286" lon="6.44752">
        <ele>466.9</ele>
        <time>2024-02-18T09:57:20.000Z</time>
      </trkpt>
      <trkpt lat="43.56286" lon="6.44752">
        <ele>466.9</ele>
        <time>2024-02-18T09:57:29.000Z</time>
      </trkpt>
      <trkpt lat="43.56286" lon="6.44752">
        <ele>466.9</ele>
        <time>2024-02-18T09:57:30.000Z</time>
      </trkpt>
      <trkpt lat="43.56286" lon="6.44752">
        <ele>466.9</ele>
        <time>2024-02-18T09:57:34.000Z</time>
      </trkpt>
      <trkpt lat="43.56286" lon="6.44753">
        <ele>466.9</ele>
        <time>2024-02-18T09:57:35.000Z</time>
      </trkpt>
      <trkpt lat="43.56286" lon="6.44753">
        <ele>466.9</ele>
        <time>2024-02-18T09:57:36.000Z</time>
      </trkpt>
      <trkpt lat="43.56286" lon="6.44752">
        <ele>466.8</ele>
        <time>2024-02-18T09:58:46.000Z</time>
      </trkpt>
      <trkpt lat="43.56286" lon="6.44752">
        <ele>466.8</ele>
        <time>2024-02-18T09:58:47.000Z</time>
      </trkpt>
      <trkpt lat="43.56286" lon="6.44752">
        <ele>466.8</ele>
        <time>2024-02-18T09:58:48.000Z</time>
      </trkpt>
      <trkpt lat="43.56286" lon="6.44753">
        <ele>466.8</ele>
        <time>2024-02-18T09:58:52.000Z</time>
      </trkpt>
      <trkpt lat="43.56286" lon="6.44753">
        <ele>466.8</ele>
        <time>2024-02-18T09:58:53.000Z</time>
      </trkpt>
      <trkpt lat="43.56286" lon="6.44753">
        <ele>466.8</ele>
        <time>2024-02-18T09:58:54.000Z</time>
      </trkpt>
      <trkpt lat="43.56286" lon="6.44754">
        <ele>466.7</ele>
        <time>2024-02-18T09:59:02.000Z</time>
      </trkpt>
      <trkpt lat="43.56286" lon="6.44754">
        <ele>466.7</ele>
        <time>2024-02-18T09:59:03.000Z</time>
      </trkpt>
      <trkpt lat="43.56286" lon="6.44754">
        <ele>466.7</ele>
        <time>2024-02-18T09:59:06.000Z</time>
      </trkpt>
      <trkpt lat="43.56286" lon="6.44754">
        <ele>466.7</ele>
        <time>2024-02-18T09:59:07.000Z</time>
      </trkpt>
      <trkpt lat="43.56286" lon="6.44754">
        <ele>466.7</ele>
        <time>2024-02-18T09:59:08.000Z</time>
      </trkpt>
      <trkpt lat="43.56285" lon="6.44755">
        <ele>466.7</ele>
        <time>2024-02-18T10:00:11.000Z</time>
      </trkpt>
      <trkpt lat="43.56285" lon="6.44754">
        <ele>466.7</ele>
        <time>2024-02-18T10:00:12.000Z</time>
      </trkpt>
      <trkpt lat="43.56285" lon="6.44754">
        <ele>466.7</ele>
        <time>2024-02-18T10:00:13.000Z</time>
      </trkpt>
      <trkpt lat="43.56284" lon="6.44759">
        <ele>466.6</ele>
        <time>2024-02-18T10:00:31.000Z</time>
      </trkpt>
      <trkpt lat="43.56284" lon="6.44759">
        <ele>466.6</ele>
        <time>2024-02-18T10:00:32.000Z</time>
      </trkpt>
      <trkpt lat="43.56284" lon="6.44759">
        <ele>466.6</ele>
        <time>2024-02-18T10:00:33.000Z</time>
      </trkpt>
      <trkpt lat="43.56283" lon="6.44758">
        <ele>466.4</ele>
        <time>2024-02-18T10:01:01.000Z</time>
      </trkpt>
      <trkpt lat="43.56284" lon="6.44758">
        <ele>466.4</ele>
        <time>2024-02-18T10:01:02.000Z</time>
      </trkpt>
      <trkpt lat="43.56284" lon="6.44758">
        <ele>466.4</ele>
        <time>2024-02-18T10:01:03.000Z</time>
      </trkpt>
      <trkpt lat="43.56277" lon="6.44767">
        <ele>465.7</ele>
        <time>2024-02-18T10:01:18.000Z</time>
      </trkpt>
      <trkpt lat="43.56268" lon="6.44764">
        <ele>463</ele>
        <time>2024-02-18T10:01:32.000Z</time>
      </trkpt>
      <trkpt lat="43.56259" lon="6.44767">
        <ele>460.1</ele>
        <time>2024-02-18T10:01:45.000Z</time>
      </trkpt>
      <trkpt lat="43.5625" lon="6.44771">
        <ele>458.3</ele>
        <time>2024-02-18T10:02:19.000Z</time>
      </trkpt>
      <trkpt lat="43.5625" lon="6.44772">
        <ele>458.3</ele>
        <time>2024-02-18T10:02:20.000Z</time>
      </trkpt>
      <trkpt lat="43.5625" lon="6.44772">
        <ele>458.3</ele>
        <time>2024-02-18T10:02:21.000Z</time>
      </trkpt>
      <trkpt lat="43.5625" lon="6.44773">
        <ele>458.3</ele>
        <time>2024-02-18T10:02:26.000Z</time>
      </trkpt>
      <trkpt lat="43.5625" lon="6.44772">
        <ele>458.3</ele>
        <time>2024-02-18T10:02:27.000Z</time>
      </trkpt>
      <trkpt lat="43.5625" lon="6.44772">
        <ele>458.3</ele>
        <time>2024-02-18T10:02:28.000Z</time>
      </trkpt>
      <trkpt lat="43.56248" lon="6.44759">
        <ele>457.5</ele>
        <time>2024-02-18T10:02:39.000Z</time>
      </trkpt>
      <trkpt lat="43.56248" lon="6.44757">
        <ele>457.3</ele>
        <time>2024-02-18T10:02:41.000Z</time>
      </trkpt>
      <trkpt lat="43.56248" lon="6.44757">
        <ele>457.2</ele>
        <time>2024-02-18T10:02:42.000Z</time>
      </trkpt>
      <trkpt lat="43.56248" lon="6.44757">
        <ele>457.1</ele>
        <time>2024-02-18T10:02:43.000Z</time>
      </trkpt>
      <trkpt lat="43.56248" lon="6.44757">
        <ele>456.8</ele>
        <time>2024-02-18T10:02:47.000Z</time>
      </trkpt>
      <trkpt lat="43.56248" lon="6.44757">
        <ele>456.8</ele>
        <time>2024-02-18T10:02:48.000Z</time>
      </trkpt>
      <trkpt lat="43.5625" lon="6.44771">
        <ele>457.2</ele>
        <time>2024-02-18T10:03:11.000Z</time>
      </trkpt>
      <trkpt lat="43.56246" lon="6.44782">
        <ele>459.3</ele>
        <time>2024-02-18T10:03:29.000Z</time>
      </trkpt>
      <trkpt lat="43.56243" lon="6.44795">
        <ele>460.8</ele>
        <time>2024-02-18T10:03:41.000Z</time>
      </trkpt>
      <trkpt lat="43.56239" lon="6.44806">
        <ele>463.2</ele>
        <time>2024-02-18T10:03:55.000Z</time>
      </trkpt>
      <trkpt lat="43.56234" lon="6.44817">
        <ele>465.4</ele>
        <time>2024-02-18T10:04:08.000Z</time>
      </trkpt>
      <trkpt lat="43.56231" lon="6.44829">
        <ele>467.4</ele>
        <time>2024-02-18T10:04:22.000Z</time>
      </trkpt>
      <trkpt lat="43.5623" lon="6.44842">
        <ele>468.5</ele>
        <time>2024-02-18T10:04:33.000Z</time>
      </trkpt>
      <trkpt lat="43.56228" lon="6.44855">
        <ele>470.8</ele>
        <time>2024-02-18T10:04:50.000Z</time>
      </trkpt>
      <trkpt lat="43.56222" lon="6.44864">
        <ele>471.5</ele>
        <time>2024-02-18T10:04:59.000Z</time>
      </trkpt>
      <trkpt lat="43.56218" lon="6.44875">
        <ele>471.9</ele>
        <time>2024-02-18T10:05:08.000Z</time>
      </trkpt>
      <trkpt lat="43.56216" lon="6.44889">
        <ele>472.3</ele>
        <time>2024-02-18T10:05:17.000Z</time>
      </trkpt>
      <trkpt lat="43.5622" lon="6.449">
        <ele>473.2</ele>
        <time>2024-02-18T10:05:30.000Z</time>
      </trkpt>
      <trkpt lat="43.56227" lon="6.4491">
        <ele>474.5</ele>
        <time>2024-02-18T10:05:42.000Z</time>
      </trkpt>
      <trkpt lat="43.56232" lon="6.44921">
        <ele>475.7</ele>
        <time>2024-02-18T10:05:53.000Z</time>
      </trkpt>
      <trkpt lat="43.56234" lon="6.44933">
        <ele>476.9</ele>
        <time>2024-02-18T10:06:05.000Z</time>
      </trkpt>
      <trkpt lat="43.56235" lon="6.44945">
        <ele>477.3</ele>
        <time>2024-02-18T10:06:17.000Z</time>
      </trkpt>
      <trkpt lat="43.56235" lon="6.44945">
        <ele>477.3</ele>
        <time>2024-02-18T10:06:18.000Z</time>
      </trkpt>
      <trkpt lat="43.56235" lon="6.44946">
        <ele>477.4</ele>
        <time>2024-02-18T10:06:19.000Z</time>
      </trkpt>
      <trkpt lat="43.56236" lon="6.44947">
        <ele>477.4</ele>
        <time>2024-02-18T10:06:20.000Z</time>
      </trkpt>
      <trkpt lat="43.56245" lon="6.44945">
        <ele>477.8</ele>
        <time>2024-02-18T10:06:34.000Z</time>
      </trkpt>
      <trkpt lat="43.56245" lon="6.44945">
        <ele>477.9</ele>
        <time>2024-02-18T10:06:35.000Z</time>
      </trkpt>
      <trkpt lat="43.56245" lon="6.44945">
        <ele>477.9</ele>
        <time>2024-02-18T10:06:36.000Z</time>
      </trkpt>
      <trkpt lat="43.56245" lon="6.44941">
        <ele>478.2</ele>
        <time>2024-02-18T10:06:49.000Z</time>
      </trkpt>
      <trkpt lat="43.56245" lon="6.44941">
        <ele>478.2</ele>
        <time>2024-02-18T10:06:50.000Z</time>
      </trkpt>
      <trkpt lat="43.56245" lon="6.44941">
        <ele>478.2</ele>
        <time>2024-02-18T10:06:51.000Z</time>
      </trkpt>
      <trkpt lat="43.56245" lon="6.44941">
        <ele>478.3</ele>
        <time>2024-02-18T10:06:52.000Z</time>
      </trkpt>
      <trkpt lat="43.56245" lon="6.44941">
        <ele>478.3</ele>
        <time>2024-02-18T10:06:53.000Z</time>
      </trkpt>
      <trkpt lat="43.56245" lon="6.4494">
        <ele>478.4</ele>
        <time>2024-02-18T10:07:04.000Z</time>
      </trkpt>
      <trkpt lat="43.56245" lon="6.4494">
        <ele>478.4</ele>
        <time>2024-02-18T10:07:05.000Z</time>
      </trkpt>
      <trkpt lat="43.56245" lon="6.4494">
        <ele>478.4</ele>
        <time>2024-02-18T10:07:06.000Z</time>
      </trkpt>
      <trkpt lat="43.56245" lon="6.4494">
        <ele>478.5</ele>
        <time>2024-02-18T10:07:07.000Z</time>
      </trkpt>
      <trkpt lat="43.56245" lon="6.4494">
        <ele>478.5</ele>
        <time>2024-02-18T10:07:08.000Z</time>
      </trkpt>
      <trkpt lat="43.56245" lon="6.44939">
        <ele>478.5</ele>
        <time>2024-02-18T10:07:19.000Z</time>
      </trkpt>
      <trkpt lat="43.56244" lon="6.44939">
        <ele>478.5</ele>
        <time>2024-02-18T10:07:20.000Z</time>
      </trkpt>
      <trkpt lat="43.56244" lon="6.44939">
        <ele>478.5</ele>
        <time>2024-02-18T10:07:21.000Z</time>
      </trkpt>
      <trkpt lat="43.56244" lon="6.44939">
        <ele>478.5</ele>
        <time>2024-02-18T10:07:25.000Z</time>
      </trkpt>
      <trkpt lat="43.56245" lon="6.44939">
        <ele>478.5</ele>
        <time>2024-02-18T10:07:26.000Z</time>
      </trkpt>
      <trkpt lat="43.56245" lon="6.44941">
        <ele>478.5</ele>
        <time>2024-02-18T10:07:44.000Z</time>
      </trkpt>
      <trkpt lat="43.56245" lon="6.44942">
        <ele>478.5</ele>
        <time>2024-02-18T10:07:45.000Z</time>
      </trkpt>
      <trkpt lat="43.56246" lon="6.44956">
        <ele>478.6</ele>
        <time>2024-02-18T10:07:56.000Z</time>
      </trkpt>
      <trkpt lat="43.5625" lon="6.44968">
        <ele>478.7</ele>
        <time>2024-02-18T10:08:03.000Z</time>
      </trkpt>
      <trkpt lat="43.56251" lon="6.44981">
        <ele>478.7</ele>
        <time>2024-02-18T10:08:13.000Z</time>
      </trkpt>
      <trkpt lat="43.56247" lon="6.44994">
        <ele>478.8</ele>
        <time>2024-02-18T10:08:23.000Z</time>
      </trkpt>
      <trkpt lat="43.5624" lon="6.45002">
        <ele>478.7</ele>
        <time>2024-02-18T10:08:33.000Z</time>
      </trkpt>
      <trkpt lat="43.56238" lon="6.45015">
        <ele>478.4</ele>
        <time>2024-02-18T10:08:41.000Z</time>
      </trkpt>
      <trkpt lat="43.56233" lon="6.45025">
        <ele>477.1</ele>
        <time>2024-02-18T10:08:51.000Z</time>
      </trkpt>
      <trkpt lat="43.56228" lon="6.45036">
        <ele>474.1</ele>
        <time>2024-02-18T10:09:04.000Z</time>
      </trkpt>
      <trkpt lat="43.56225" lon="6.45048">
        <ele>472.1</ele>
        <time>2024-02-18T10:09:14.000Z</time>
      </trkpt>
      <trkpt lat="43.56227" lon="6.45055">
        <ele>471.1</ele>
        <time>2024-02-18T10:09:24.000Z</time>
      </trkpt>
      <trkpt lat="43.56227" lon="6.45056">
        <ele>471</ele>
        <time>2024-02-18T10:09:25.000Z</time>
      </trkpt>
      <trkpt lat="43.56227" lon="6.45057">
        <ele>471</ele>
        <time>2024-02-18T10:09:26.000Z</time>
      </trkpt>
      <trkpt lat="43.56228" lon="6.45058">
        <ele>471</ele>
        <time>2024-02-18T10:09:27.000Z</time>
      </trkpt>
      <trkpt lat="43.56229" lon="6.45059">
        <ele>471</ele>
        <time>2024-02-18T10:09:28.000Z</time>
      </trkpt>
      <trkpt lat="43.56238" lon="6.45055">
        <ele>471.5</ele>
        <time>2024-02-18T10:09:40.000Z</time>
      </trkpt>
      <trkpt lat="43.56246" lon="6.45058">
        <ele>472.2</ele>
        <time>2024-02-18T10:09:50.000Z</time>
      </trkpt>
      <trkpt lat="43.56255" lon="6.45064">
        <ele>473.1</ele>
        <time>2024-02-18T10:10:03.000Z</time>
      </trkpt>
      <trkpt lat="43.56264" lon="6.45066">
        <ele>474</ele>
        <time>2024-02-18T10:10:14.000Z</time>
      </trkpt>
      <trkpt lat="43.56274" lon="6.45065">
        <ele>475.1</ele>
        <time>2024-02-18T10:10:26.000Z</time>
      </trkpt>
      <trkpt lat="43.56283" lon="6.45067">
        <ele>476</ele>
        <time>2024-02-18T10:10:37.000Z</time>
      </trkpt>
      <trkpt lat="43.56292" lon="6.45069">
        <ele>477.2</ele>
        <time>2024-02-18T10:10:48.000Z</time>
      </trkpt>
      <trkpt lat="43.56301" lon="6.45074">
        <ele>479.1</ele>
        <time>2024-02-18T10:11:04.000Z</time>
      </trkpt>
      <trkpt lat="43.56303" lon="6.45072">
        <ele>479.4</ele>
        <time>2024-02-18T10:11:07.000Z</time>
      </trkpt>
      <trkpt lat="43.56303" lon="6.45071">
        <ele>479.4</ele>
        <time>2024-02-18T10:11:08.000Z</time>
      </trkpt>
      <trkpt lat="43.56304" lon="6.45071">
        <ele>479.5</ele>
        <time>2024-02-18T10:11:09.000Z</time>
      </trkpt>
      <trkpt lat="43.56304" lon="6.45071">
        <ele>479.5</ele>
        <time>2024-02-18T10:11:10.000Z</time>
      </trkpt>
      <trkpt lat="43.56305" lon="6.45072">
        <ele>479.6</ele>
        <time>2024-02-18T10:11:11.000Z</time>
      </trkpt>
      <trkpt lat="43.56305" lon="6.45072">
        <ele>479.6</ele>
        <time>2024-02-18T10:11:12.000Z</time>
      </trkpt>
      <trkpt lat="43.56306" lon="6.45072">
        <ele>479.6</ele>
        <time>2024-02-18T10:11:13.000Z</time>
      </trkpt>
      <trkpt lat="43.56307" lon="6.45066">
        <ele>480</ele>
        <time>2024-02-18T10:12:24.000Z</time>
      </trkpt>
      <trkpt lat="43.56307" lon="6.45067">
        <ele>480</ele>
        <time>2024-02-18T10:12:25.000Z</time>
      </trkpt>
      <trkpt lat="43.56306" lon="6.4508">
        <ele>480.6</ele>
        <time>2024-02-18T10:12:40.000Z</time>
      </trkpt>
      <trkpt lat="43.56309" lon="6.45091">
        <ele>482.7</ele>
        <time>2024-02-18T10:12:52.000Z</time>
      </trkpt>
      <trkpt lat="43.56303" lon="6.451">
        <ele>484.7</ele>
        <time>2024-02-18T10:13:06.000Z</time>
      </trkpt>
      <trkpt lat="43.563" lon="6.45112">
        <ele>486.4</ele>
        <time>2024-02-18T10:13:18.000Z</time>
      </trkpt>
      <trkpt lat="43.56299" lon="6.45125">
        <ele>487.5</ele>
        <time>2024-02-18T10:13:31.000Z</time>
      </trkpt>
      <trkpt lat="43.56295" lon="6.45137">
        <ele>488.7</ele>
        <time>2024-02-18T10:13:45.000Z</time>
      </trkpt>
      <trkpt lat="43.56295" lon="6.45146">
        <ele>489.7</ele>
        <time>2024-02-18T10:13:59.000Z</time>
      </trkpt>
      <trkpt lat="43.56295" lon="6.45146">
        <ele>489.8</ele>
        <time>2024-02-18T10:14:00.000Z</time>
      </trkpt>
      <trkpt lat="43.56295" lon="6.45147">
        <ele>489.9</ele>
        <time>2024-02-18T10:14:01.000Z</time>
      </trkpt>
      <trkpt lat="43.56295" lon="6.45147">
        <ele>490.1</ele>
        <time>2024-02-18T10:14:07.000Z</time>
      </trkpt>
      <trkpt lat="43.56295" lon="6.45147">
        <ele>490.1</ele>
        <time>2024-02-18T10:14:08.000Z</time>
      </trkpt>
      <trkpt lat="43.56293" lon="6.4516">
        <ele>490.5</ele>
        <time>2024-02-18T10:14:18.000Z</time>
      </trkpt>
      <trkpt lat="43.56286" lon="6.45169">
        <ele>490.8</ele>
        <time>2024-02-18T10:14:29.000Z</time>
      </trkpt>
      <trkpt lat="43.56289" lon="6.45182">
        <ele>491.1</ele>
        <time>2024-02-18T10:14:41.000Z</time>
      </trkpt>
      <trkpt lat="43.56294" lon="6.45193">
        <ele>492.1</ele>
        <time>2024-02-18T10:14:53.000Z</time>
      </trkpt>
      <trkpt lat="43.56302" lon="6.452">
        <ele>493.6</ele>
        <time>2024-02-18T10:15:04.000Z</time>
      </trkpt>
      <trkpt lat="43.56307" lon="6.45212">
        <ele>495</ele>
        <time>2024-02-18T10:15:16.000Z</time>
      </trkpt>
      <trkpt lat="43.56303" lon="6.45223">
        <ele>496</ele>
        <time>2024-02-18T10:15:27.000Z</time>
      </trkpt>
      <trkpt lat="43.56304" lon="6.45236">
        <ele>496.8</ele>
        <time>2024-02-18T10:15:39.000Z</time>
      </trkpt>
      <trkpt lat="43.56306" lon="6.45249">
        <ele>497.7</ele>
        <time>2024-02-18T10:15:49.000Z</time>
      </trkpt>
      <trkpt lat="43.563" lon="6.45259">
        <ele>498.5</ele>
        <time>2024-02-18T10:16:02.000Z</time>
      </trkpt>
      <trkpt lat="43.56301" lon="6.45272">
        <ele>498.8</ele>
        <time>2024-02-18T10:16:10.000Z</time>
      </trkpt>
      <trkpt lat="43.56302" lon="6.45284">
        <ele>499.1</ele>
        <time>2024-02-18T10:16:18.000Z</time>
      </trkpt>
      <trkpt lat="43.56303" lon="6.45297">
        <ele>502.1</ele>
        <time>2024-02-18T10:16:37.000Z</time>
      </trkpt>
      <trkpt lat="43.56308" lon="6.45308">
        <ele>502.2</ele>
        <time>2024-02-18T10:16:46.000Z</time>
      </trkpt>
      <trkpt lat="43.56317" lon="6.45315">
        <ele>503.5</ele>
        <time>2024-02-18T10:17:00.000Z</time>
      </trkpt>
      <trkpt lat="43.56318" lon="6.45328">
        <ele>505.8</ele>
        <time>2024-02-18T10:17:19.000Z</time>
      </trkpt>
      <trkpt lat="43.56317" lon="6.45341">
        <ele>506</ele>
        <time>2024-02-18T10:17:31.000Z</time>
      </trkpt>
      <trkpt lat="43.56317" lon="6.45352">
        <ele>506.1</ele>
        <time>2024-02-18T10:17:54.000Z</time>
      </trkpt>
      <trkpt lat="43.56318" lon="6.45352">
        <ele>506.1</ele>
        <time>2024-02-18T10:17:55.000Z</time>
      </trkpt>
      <trkpt lat="43.56316" lon="6.45352">
        <ele>506.2</ele>
        <time>2024-02-18T10:18:01.000Z</time>
      </trkpt>
      <trkpt lat="43.56316" lon="6.45352">
        <ele>506.2</ele>
        <time>2024-02-18T10:18:02.000Z</time>
      </trkpt>
      <trkpt lat="43.56316" lon="6.45352">
        <ele>506.2</ele>
        <time>2024-02-18T10:18:03.000Z</time>
      </trkpt>
      <trkpt lat="43.56316" lon="6.45352">
        <ele>506.2</ele>
        <time>2024-02-18T10:18:04.000Z</time>
      </trkpt>
      <trkpt lat="43.56316" lon="6.45352">
        <ele>506.2</ele>
        <time>2024-02-18T10:18:05.000Z</time>
      </trkpt>
      <trkpt lat="43.56318" lon="6.45352">
        <ele>506.5</ele>
        <time>2024-02-18T10:18:41.000Z</time>
      </trkpt>
      <trkpt lat="43.56318" lon="6.45352">
        <ele>506.5</ele>
        <time>2024-02-18T10:18:42.000Z</time>
      </trkpt>
      <trkpt lat="43.56318" lon="6.45353">
        <ele>506.5</ele>
        <time>2024-02-18T10:18:43.000Z</time>
      </trkpt>
      <trkpt lat="43.56318" lon="6.45355">
        <ele>506.5</ele>
        <time>2024-02-18T10:18:46.000Z</time>
      </trkpt>
      <trkpt lat="43.56318" lon="6.45356">
        <ele>506.5</ele>
        <time>2024-02-18T10:18:47.000Z</time>
      </trkpt>
      <trkpt lat="43.56318" lon="6.45356">
        <ele>506.5</ele>
        <time>2024-02-18T10:18:48.000Z</time>
      </trkpt>
      <trkpt lat="43.56316" lon="6.45354">
        <ele>506.6</ele>
        <time>2024-02-18T10:19:07.000Z</time>
      </trkpt>
      <trkpt lat="43.56316" lon="6.45355">
        <ele>506.6</ele>
        <time>2024-02-18T10:19:08.000Z</time>
      </trkpt>
      <trkpt lat="43.56318" lon="6.45367">
        <ele>507.2</ele>
        <time>2024-02-18T10:19:28.000Z</time>
      </trkpt>
      <trkpt lat="43.56321" lon="6.4538">
        <ele>507.7</ele>
        <time>2024-02-18T10:19:38.000Z</time>
      </trkpt>
      <trkpt lat="43.56328" lon="6.45389">
        <ele>508.5</ele>
        <time>2024-02-18T10:19:46.000Z</time>
      </trkpt>
      <trkpt lat="43.56332" lon="6.454">
        <ele>509.9</ele>
        <time>2024-02-18T10:19:57.000Z</time>
      </trkpt>
      <trkpt lat="43.56338" lon="6.45409">
        <ele>511</ele>
        <time>2024-02-18T10:20:11.000Z</time>
      </trkpt>
      <trkpt lat="43.56345" lon="6.45418">
        <ele>513.3</ele>
        <time>2024-02-18T10:20:32.000Z</time>
      </trkpt>
      <trkpt lat="43.56341" lon="6.4543">
        <ele>513.2</ele>
        <time>2024-02-18T10:20:45.000Z</time>
      </trkpt>
      <trkpt lat="43.56335" lon="6.4544">
        <ele>512.6</ele>
        <time>2024-02-18T10:20:57.000Z</time>
      </trkpt>
      <trkpt lat="43.56336" lon="6.45453">
        <ele>511.8</ele>
        <time>2024-02-18T10:21:08.000Z</time>
      </trkpt>
      <trkpt lat="43.56336" lon="6.45465">
        <ele>511.7</ele>
        <time>2024-02-18T10:21:19.000Z</time>
      </trkpt>
      <trkpt lat="43.56334" lon="6.45477">
        <ele>510.4</ele>
        <time>2024-02-18T10:21:34.000Z</time>
      </trkpt>
      <trkpt lat="43.5633" lon="6.45489">
        <ele>508.1</ele>
        <time>2024-02-18T10:21:48.000Z</time>
      </trkpt>
      <trkpt lat="43.56329" lon="6.45502">
        <ele>507.3</ele>
        <time>2024-02-18T10:22:02.000Z</time>
      </trkpt>
      <trkpt lat="43.56327" lon="6.45515">
        <ele>506.6</ele>
        <time>2024-02-18T10:22:15.000Z</time>
      </trkpt>
      <trkpt lat="43.5633" lon="6.45527">
        <ele>506.4</ele>
        <time>2024-02-18T10:22:22.000Z</time>
      </trkpt>
      <trkpt lat="43.56332" lon="6.45541">
        <ele>506</ele>
        <time>2024-02-18T10:22:31.000Z</time>
      </trkpt>
      <trkpt lat="43.56336" lon="6.45553">
        <ele>505.3</ele>
        <time>2024-02-18T10:22:40.000Z</time>
      </trkpt>
      <trkpt lat="43.56342" lon="6.45563">
        <ele>504.9</ele>
        <time>2024-02-18T10:22:47.000Z</time>
      </trkpt>
      <trkpt lat="43.5635" lon="6.45569">
        <ele>505.1</ele>
        <time>2024-02-18T10:22:56.000Z</time>
      </trkpt>
      <trkpt lat="43.56355" lon="6.45568">
        <ele>505.4</ele>
        <time>2024-02-18T10:23:06.000Z</time>
      </trkpt>
      <trkpt lat="43.56355" lon="6.45568">
        <ele>505.4</ele>
        <time>2024-02-18T10:23:07.000Z</time>
      </trkpt>
      <trkpt lat="43.56355" lon="6.45568">
        <ele>505.5</ele>
        <time>2024-02-18T10:23:08.000Z</time>
      </trkpt>
      <trkpt lat="43.56355" lon="6.45568">
        <ele>505.5</ele>
        <time>2024-02-18T10:23:14.000Z</time>
      </trkpt>
      <trkpt lat="43.56355" lon="6.45568">
        <ele>505.5</ele>
        <time>2024-02-18T10:23:15.000Z</time>
      </trkpt>
      <trkpt lat="43.56354" lon="6.45568">
        <ele>505.5</ele>
        <time>2024-02-18T10:23:16.000Z</time>
      </trkpt>
      <trkpt lat="43.56351" lon="6.45581">
        <ele>504.9</ele>
        <time>2024-02-18T10:23:33.000Z</time>
      </trkpt>
      <trkpt lat="43.56347" lon="6.45593">
        <ele>503.6</ele>
        <time>2024-02-18T10:23:43.000Z</time>
      </trkpt>
      <trkpt lat="43.5634" lon="6.45603">
        <ele>501.5</ele>
        <time>2024-02-18T10:23:56.000Z</time>
      </trkpt>
      <trkpt lat="43.56333" lon="6.45614">
        <ele>500.1</ele>
        <time>2024-02-18T10:24:06.000Z</time>
      </trkpt>
      <trkpt lat="43.56325" lon="6.45622">
        <ele>499.7</ele>
        <time>2024-02-18T10:24:14.000Z</time>
      </trkpt>
      <trkpt lat="43.56325" lon="6.45631">
        <ele>499.6</ele>
        <time>2024-02-18T10:24:24.000Z</time>
      </trkpt>
      <trkpt lat="43.56326" lon="6.45633">
        <ele>499.6</ele>
        <time>2024-02-18T10:24:25.000Z</time>
      </trkpt>
      <trkpt lat="43.56327" lon="6.45637">
        <ele>499.5</ele>
        <time>2024-02-18T10:24:55.000Z</time>
      </trkpt>
      <trkpt lat="43.56326" lon="6.45638">
        <ele>499.5</ele>
        <time>2024-02-18T10:24:56.000Z</time>
      </trkpt>
      <trkpt lat="43.56324" lon="6.45639">
        <ele>499.5</ele>
        <time>2024-02-18T10:25:00.000Z</time>
      </trkpt>
      <trkpt lat="43.56324" lon="6.45639">
        <ele>499.5</ele>
        <time>2024-02-18T10:25:01.000Z</time>
      </trkpt>
      <trkpt lat="43.56324" lon="6.4564">
        <ele>499.4</ele>
        <time>2024-02-18T10:25:12.000Z</time>
      </trkpt>
      <trkpt lat="43.56324" lon="6.45639">
        <ele>499.4</ele>
        <time>2024-02-18T10:25:13.000Z</time>
      </trkpt>
      <trkpt lat="43.56324" lon="6.45639">
        <ele>499.4</ele>
        <time>2024-02-18T10:25:16.000Z</time>
      </trkpt>
      <trkpt lat="43.56325" lon="6.45639">
        <ele>499.4</ele>
        <time>2024-02-18T10:25:17.000Z</time>
      </trkpt>
      <trkpt lat="43.56325" lon="6.4564">
        <ele>499.4</ele>
        <time>2024-02-18T10:25:18.000Z</time>
      </trkpt>
      <trkpt lat="43.56327" lon="6.4564">
        <ele>499.4</ele>
        <time>2024-02-18T10:25:44.000Z</time>
      </trkpt>
      <trkpt lat="43.56327" lon="6.4564">
        <ele>499.4</ele>
        <time>2024-02-18T10:25:45.000Z</time>
      </trkpt>
      <trkpt lat="43.56327" lon="6.4564">
        <ele>499.4</ele>
        <time>2024-02-18T10:25:46.000Z</time>
      </trkpt>
      <trkpt lat="43.56327" lon="6.4564">
        <ele>499.4</ele>
        <time>2024-02-18T10:25:47.000Z</time>
      </trkpt>
      <trkpt lat="43.56327" lon="6.4564">
        <ele>499.4</ele>
        <time>2024-02-18T10:25:48.000Z</time>
      </trkpt>
      <trkpt lat="43.56327" lon="6.45641">
        <ele>499.4</ele>
        <time>2024-02-18T10:25:54.000Z</time>
      </trkpt>
      <trkpt lat="43.56327" lon="6.45641">
        <ele>499.4</ele>
        <time>2024-02-18T10:25:55.000Z</time>
      </trkpt>
      <trkpt lat="43.56326" lon="6.45641">
        <ele>499.4</ele>
        <time>2024-02-18T10:25:59.000Z</time>
      </trkpt>
      <trkpt lat="43.56326" lon="6.45641">
        <ele>499.4</ele>
        <time>2024-02-18T10:26:00.000Z</time>
      </trkpt>
      <trkpt lat="43.56326" lon="6.4564">
        <ele>499.4</ele>
        <time>2024-02-18T10:26:04.000Z</time>
      </trkpt>
      <trkpt lat="43.56326" lon="6.4564">
        <ele>499.4</ele>
        <time>2024-02-18T10:26:05.000Z</time>
      </trkpt>
      <trkpt lat="43.56326" lon="6.4564">
        <ele>499.4</ele>
        <time>2024-02-18T10:26:06.000Z</time>
      </trkpt>
      <trkpt lat="43.56327" lon="6.45639">
        <ele>499.4</ele>
        <time>2024-02-18T10:26:09.000Z</time>
      </trkpt>
      <trkpt lat="43.56327" lon="6.45638">
        <ele>499.4</ele>
        <time>2024-02-18T10:26:10.000Z</time>
      </trkpt>
      <trkpt lat="43.56327" lon="6.45638">
        <ele>499.4</ele>
        <time>2024-02-18T10:26:11.000Z</time>
      </trkpt>
      <trkpt lat="43.56327" lon="6.45638">
        <ele>499.4</ele>
        <time>2024-02-18T10:26:12.000Z</time>
      </trkpt>
      <trkpt lat="43.56327" lon="6.45638">
        <ele>499.4</ele>
        <time>2024-02-18T10:26:13.000Z</time>
      </trkpt>
      <trkpt lat="43.56327" lon="6.45638">
        <ele>499.4</ele>
        <time>2024-02-18T10:26:14.000Z</time>
      </trkpt>
      <trkpt lat="43.56327" lon="6.45638">
        <ele>499.4</ele>
        <time>2024-02-18T10:26:15.000Z</time>
      </trkpt>
      <trkpt lat="43.56328" lon="6.45638">
        <ele>499.4</ele>
        <time>2024-02-18T10:26:22.000Z</time>
      </trkpt>
      <trkpt lat="43.56328" lon="6.45638">
        <ele>499.4</ele>
        <time>2024-02-18T10:26:23.000Z</time>
      </trkpt>
      <trkpt lat="43.56328" lon="6.45638">
        <ele>499.4</ele>
        <time>2024-02-18T10:26:24.000Z</time>
      </trkpt>
      <trkpt lat="43.56328" lon="6.45638">
        <ele>499.4</ele>
        <time>2024-02-18T10:26:25.000Z</time>
      </trkpt>
      <trkpt lat="43.56328" lon="6.45638">
        <ele>499.4</ele>
        <time>2024-02-18T10:26:26.000Z</time>
      </trkpt>
      <trkpt lat="43.56328" lon="6.45637">
        <ele>499.4</ele>
        <time>2024-02-18T10:26:44.000Z</time>
      </trkpt>
      <trkpt lat="43.56328" lon="6.45637">
        <ele>499.4</ele>
        <time>2024-02-18T10:26:45.000Z</time>
      </trkpt>
      <trkpt lat="43.56328" lon="6.45637">
        <ele>499.4</ele>
        <time>2024-02-18T10:26:46.000Z</time>
      </trkpt>
      <trkpt lat="43.56328" lon="6.45636">
        <ele>499.4</ele>
        <time>2024-02-18T10:26:47.000Z</time>
      </trkpt>
      <trkpt lat="43.56328" lon="6.45636">
        <ele>499.4</ele>
        <time>2024-02-18T10:26:48.000Z</time>
      </trkpt>
      <trkpt lat="43.56328" lon="6.45635">
        <ele>499.4</ele>
        <time>2024-02-18T10:26:49.000Z</time>
      </trkpt>
      <trkpt lat="43.56328" lon="6.45634">
        <ele>499.4</ele>
        <time>2024-02-18T10:26:50.000Z</time>
      </trkpt>
      <trkpt lat="43.56328" lon="6.45633">
        <ele>499.4</ele>
        <time>2024-02-18T10:26:51.000Z</time>
      </trkpt>
      <trkpt lat="43.56329" lon="6.45619">
        <ele>499.4</ele>
        <time>2024-02-18T10:27:00.000Z</time>
      </trkpt>
      <trkpt lat="43.56323" lon="6.45608">
        <ele>499.3</ele>
        <time>2024-02-18T10:27:07.000Z</time>
      </trkpt>
      <trkpt lat="43.5632" lon="6.45596">
        <ele>499.2</ele>
        <time>2024-02-18T10:27:15.000Z</time>
      </trkpt>
      <trkpt lat="43.56314" lon="6.45587">
        <ele>499</ele>
        <time>2024-02-18T10:27:23.000Z</time>
      </trkpt>
      <trkpt lat="43.56306" lon="6.45582">
        <ele>498.6</ele>
        <time>2024-02-18T10:27:30.000Z</time>
      </trkpt>
      <trkpt lat="43.56297" lon="6.45575">
        <ele>498.4</ele>
        <time>2024-02-18T10:27:40.000Z</time>
      </trkpt>
      <trkpt lat="43.56287" lon="6.45571">
        <ele>498.7</ele>
        <time>2024-02-18T10:27:50.000Z</time>
      </trkpt>
      <trkpt lat="43.56279" lon="6.45563">
        <ele>499.4</ele>
        <time>2024-02-18T10:27:59.000Z</time>
      </trkpt>
      <trkpt lat="43.5627" lon="6.45558">
        <ele>500.5</ele>
        <time>2024-02-18T10:28:08.000Z</time>
      </trkpt>
      <trkpt lat="43.56263" lon="6.45549">
        <ele>501.7</ele>
        <time>2024-02-18T10:28:18.000Z</time>
      </trkpt>
      <trkpt lat="43.56254" lon="6.45543">
        <ele>502.3</ele>
        <time>2024-02-18T10:28:27.000Z</time>
      </trkpt>
      <trkpt lat="43.56247" lon="6.45535">
        <ele>503</ele>
        <time>2024-02-18T10:28:36.000Z</time>
      </trkpt>
      <trkpt lat="43.56241" lon="6.45524">
        <ele>503.8</ele>
        <time>2024-02-18T10:28:45.000Z</time>
      </trkpt>
      <trkpt lat="43.56233" lon="6.45518">
        <ele>504.6</ele>
        <time>2024-02-18T10:28:53.000Z</time>
      </trkpt>
      <trkpt lat="43.56224" lon="6.45512">
        <ele>505.4</ele>
        <time>2024-02-18T10:29:03.000Z</time>
      </trkpt>
      <trkpt lat="43.56216" lon="6.45505">
        <ele>506</ele>
        <time>2024-02-18T10:29:12.000Z</time>
      </trkpt>
      <trkpt lat="43.56206" lon="6.45502">
        <ele>506.4</ele>
        <time>2024-02-18T10:29:20.000Z</time>
      </trkpt>
      <trkpt lat="43.56197" lon="6.45501">
        <ele>506.9</ele>
        <time>2024-02-18T10:29:28.000Z</time>
      </trkpt>
      <trkpt lat="43.56187" lon="6.455">
        <ele>507.1</ele>
        <time>2024-02-18T10:29:35.000Z</time>
      </trkpt>
      <trkpt lat="43.56178" lon="6.45497">
        <ele>507.3</ele>
        <time>2024-02-18T10:29:47.000Z</time>
      </trkpt>
      <trkpt lat="43.56169" lon="6.45499">
        <ele>507.7</ele>
        <time>2024-02-18T10:29:55.000Z</time>
      </trkpt>
      <trkpt lat="43.5616" lon="6.45503">
        <ele>509.3</ele>
        <time>2024-02-18T10:30:08.000Z</time>
      </trkpt>
      <trkpt lat="43.56153" lon="6.45511">
        <ele>510.7</ele>
        <time>2024-02-18T10:30:19.000Z</time>
      </trkpt>
      <trkpt lat="43.56144" lon="6.45516">
        <ele>511.8</ele>
        <time>2024-02-18T10:30:27.000Z</time>
      </trkpt>
      <trkpt lat="43.56136" lon="6.45524">
        <ele>512.9</ele>
        <time>2024-02-18T10:30:37.000Z</time>
      </trkpt>
      <trkpt lat="43.56131" lon="6.45534">
        <ele>514</ele>
        <time>2024-02-18T10:30:48.000Z</time>
      </trkpt>
      <trkpt lat="43.56123" lon="6.45542">
        <ele>515</ele>
        <time>2024-02-18T10:30:58.000Z</time>
      </trkpt>
      <trkpt lat="43.56117" lon="6.45552">
        <ele>516.6</ele>
        <time>2024-02-18T10:31:10.000Z</time>
      </trkpt>
      <trkpt lat="43.56109" lon="6.45559">
        <ele>517.7</ele>
        <time>2024-02-18T10:31:19.000Z</time>
      </trkpt>
      <trkpt lat="43.56102" lon="6.45569">
        <ele>518.3</ele>
        <time>2024-02-18T10:31:28.000Z</time>
      </trkpt>
      <trkpt lat="43.56093" lon="6.45574">
        <ele>519.1</ele>
        <time>2024-02-18T10:31:38.000Z</time>
      </trkpt>
      <trkpt lat="43.56084" lon="6.4558">
        <ele>519.8</ele>
        <time>2024-02-18T10:31:47.000Z</time>
      </trkpt>
      <trkpt lat="43.56075" lon="6.45586">
        <ele>520.3</ele>
        <time>2024-02-18T10:31:57.000Z</time>
      </trkpt>
      <trkpt lat="43.56067" lon="6.45592">
        <ele>520.8</ele>
        <time>2024-02-18T10:32:05.000Z</time>
      </trkpt>
      <trkpt lat="43.56061" lon="6.45602">
        <ele>521.7</ele>
        <time>2024-02-18T10:32:15.000Z</time>
      </trkpt>
      <trkpt lat="43.56054" lon="6.4561">
        <ele>522.6</ele>
        <time>2024-02-18T10:32:24.000Z</time>
      </trkpt>
      <trkpt lat="43.56046" lon="6.45616">
        <ele>523.4</ele>
        <time>2024-02-18T10:32:33.000Z</time>
      </trkpt>
      <trkpt lat="43.56037" lon="6.45623">
        <ele>524.1</ele>
        <time>2024-02-18T10:32:42.000Z</time>
      </trkpt>
      <trkpt lat="43.56028" lon="6.45628">
        <ele>524.8</ele>
        <time>2024-02-18T10:32:50.000Z</time>
      </trkpt>
      <trkpt lat="43.5602" lon="6.45635">
        <ele>525.4</ele>
        <time>2024-02-18T10:33:00.000Z</time>
      </trkpt>
      <trkpt lat="43.56011" lon="6.45641">
        <ele>525.7</ele>
        <time>2024-02-18T10:33:08.000Z</time>
      </trkpt>
      <trkpt lat="43.56003" lon="6.45647">
        <ele>526.1</ele>
        <time>2024-02-18T10:33:17.000Z</time>
      </trkpt>
      <trkpt lat="43.55995" lon="6.45653">
        <ele>526.7</ele>
        <time>2024-02-18T10:33:26.000Z</time>
      </trkpt>
      <trkpt lat="43.55988" lon="6.45662">
        <ele>527.1</ele>
        <time>2024-02-18T10:33:35.000Z</time>
      </trkpt>
      <trkpt lat="43.55979" lon="6.4567">
        <ele>527.9</ele>
        <time>2024-02-18T10:33:46.000Z</time>
      </trkpt>
      <trkpt lat="43.5597" lon="6.45676">
        <ele>528.5</ele>
        <time>2024-02-18T10:33:55.000Z</time>
      </trkpt>
      <trkpt lat="43.55962" lon="6.4568">
        <ele>528.9</ele>
        <time>2024-02-18T10:34:01.000Z</time>
      </trkpt>
      <trkpt lat="43.55955" lon="6.45689">
        <ele>529.8</ele>
        <time>2024-02-18T10:34:11.000Z</time>
      </trkpt>
      <trkpt lat="43.55947" lon="6.45696">
        <ele>530.4</ele>
        <time>2024-02-18T10:34:18.000Z</time>
      </trkpt>
      <trkpt lat="43.5594" lon="6.45704">
        <ele>530.9</ele>
        <time>2024-02-18T10:34:26.000Z</time>
      </trkpt>
      <trkpt lat="43.55932" lon="6.45711">
        <ele>531.3</ele>
        <time>2024-02-18T10:34:35.000Z</time>
      </trkpt>
      <trkpt lat="43.55923" lon="6.45716">
        <ele>531.5</ele>
        <time>2024-02-18T10:34:42.000Z</time>
      </trkpt>
      <trkpt lat="43.55917" lon="6.45726">
        <ele>531.7</ele>
        <time>2024-02-18T10:34:51.000Z</time>
      </trkpt>
      <trkpt lat="43.5591" lon="6.45735">
        <ele>531.7</ele>
        <time>2024-02-18T10:34:58.000Z</time>
      </trkpt>
      <trkpt lat="43.55902" lon="6.45743">
        <ele>531.8</ele>
        <time>2024-02-18T10:35:04.000Z</time>
      </trkpt>
      <trkpt lat="43.55895" lon="6.4575">
        <ele>532</ele>
        <time>2024-02-18T10:35:12.000Z</time>
      </trkpt>
      <trkpt lat="43.55889" lon="6.4576">
        <ele>532.2</ele>
        <time>2024-02-18T10:35:20.000Z</time>
      </trkpt>
      <trkpt lat="43.55881" lon="6.45767">
        <ele>532.2</ele>
        <time>2024-02-18T10:35:28.000Z</time>
      </trkpt>
      <trkpt lat="43.55875" lon="6.45778">
        <ele>532.1</ele>
        <time>2024-02-18T10:35:36.000Z</time>
      </trkpt>
      <trkpt lat="43.55868" lon="6.45786">
        <ele>532</ele>
        <time>2024-02-18T10:35:44.000Z</time>
      </trkpt>
      <trkpt lat="43.55861" lon="6.45797">
        <ele>531.8</ele>
        <time>2024-02-18T10:35:53.000Z</time>
      </trkpt>
      <trkpt lat="43.55856" lon="6.45808">
        <ele>531.7</ele>
        <time>2024-02-18T10:36:01.000Z</time>
      </trkpt>
      <trkpt lat="43.55851" lon="6.45811">
        <ele>531.5</ele>
        <time>2024-02-18T10:36:12.000Z</time>
      </trkpt>
      <trkpt lat="43.55851" lon="6.45811">
        <ele>531.5</ele>
        <time>2024-02-18T10:36:13.000Z</time>
      </trkpt>
      <trkpt lat="43.5585" lon="6.45811">
        <ele>531.5</ele>
        <time>2024-02-18T10:36:14.000Z</time>
      </trkpt>
      <trkpt lat="43.5585" lon="6.45811">
        <ele>531.5</ele>
        <time>2024-02-18T10:36:15.000Z</time>
      </trkpt>
      <trkpt lat="43.5585" lon="6.45811">
        <ele>531.5</ele>
        <time>2024-02-18T10:36:16.000Z</time>
      </trkpt>
      <trkpt lat="43.5585" lon="6.45811">
        <ele>531.5</ele>
        <time>2024-02-18T10:36:17.000Z</time>
      </trkpt>
      <trkpt lat="43.5585" lon="6.45811">
        <ele>531.5</ele>
        <time>2024-02-18T10:36:18.000Z</time>
      </trkpt>
      <trkpt lat="43.55849" lon="6.45813">
        <ele>531.4</ele>
        <time>2024-02-18T10:36:22.000Z</time>
      </trkpt>
      <trkpt lat="43.55849" lon="6.45814">
        <ele>531.4</ele>
        <time>2024-02-18T10:36:23.000Z</time>
      </trkpt>
      <trkpt lat="43.55849" lon="6.45816">
        <ele>531.4</ele>
        <time>2024-02-18T10:36:27.000Z</time>
      </trkpt>
      <trkpt lat="43.55849" lon="6.45817">
        <ele>531.4</ele>
        <time>2024-02-18T10:36:28.000Z</time>
      </trkpt>
      <trkpt lat="43.55849" lon="6.45817">
        <ele>531.4</ele>
        <time>2024-02-18T10:36:29.000Z</time>
      </trkpt>
      <trkpt lat="43.55847" lon="6.4582">
        <ele>531.4</ele>
        <time>2024-02-18T10:36:37.000Z</time>
      </trkpt>
      <trkpt lat="43.55846" lon="6.45821">
        <ele>531.4</ele>
        <time>2024-02-18T10:36:38.000Z</time>
      </trkpt>
      <trkpt lat="43.55846" lon="6.45822">
        <ele>531.4</ele>
        <time>2024-02-18T10:36:39.000Z</time>
      </trkpt>
      <trkpt lat="43.55841" lon="6.45833">
        <ele>531.4</ele>
        <time>2024-02-18T10:36:48.000Z</time>
      </trkpt>
      <trkpt lat="43.55835" lon="6.45843">
        <ele>531.4</ele>
        <time>2024-02-18T10:36:57.000Z</time>
      </trkpt>
      <trkpt lat="43.5583" lon="6.45854">
        <ele>531.6</ele>
        <time>2024-02-18T10:37:06.000Z</time>
      </trkpt>
      <trkpt lat="43.55825" lon="6.45864">
        <ele>531.8</ele>
        <time>2024-02-18T10:37:14.000Z</time>
      </trkpt>
      <trkpt lat="43.55825" lon="6.45865">
        <ele>532</ele>
        <time>2024-02-18T10:37:22.000Z</time>
      </trkpt>
      <trkpt lat="43.55825" lon="6.45865">
        <ele>532.1</ele>
        <time>2024-02-18T10:37:23.000Z</time>
      </trkpt>
      <trkpt lat="43.55825" lon="6.45865">
        <ele>532.1</ele>
        <time>2024-02-18T10:37:24.000Z</time>
      </trkpt>
      <trkpt lat="43.55825" lon="6.45865">
        <ele>532.2</ele>
        <time>2024-02-18T10:37:27.000Z</time>
      </trkpt>
      <trkpt lat="43.55825" lon="6.45866">
        <ele>532.2</ele>
        <time>2024-02-18T10:37:28.000Z</time>
      </trkpt>
      <trkpt lat="43.55824" lon="6.45867">
        <ele>532.2</ele>
        <time>2024-02-18T10:37:29.000Z</time>
      </trkpt>
      <trkpt lat="43.55818" lon="6.45878">
        <ele>532.2</ele>
        <time>2024-02-18T10:37:39.000Z</time>
      </trkpt>
      <trkpt lat="43.55814" lon="6.4589">
        <ele>532.3</ele>
        <time>2024-02-18T10:37:47.000Z</time>
      </trkpt>
      <trkpt lat="43.55808" lon="6.45901">
        <ele>532.3</ele>
        <time>2024-02-18T10:37:55.000Z</time>
      </trkpt>
      <trkpt lat="43.55802" lon="6.45912">
        <ele>532.4</ele>
        <time>2024-02-18T10:38:04.000Z</time>
      </trkpt>
      <trkpt lat="43.55796" lon="6.45922">
        <ele>532.4</ele>
        <time>2024-02-18T10:38:13.000Z</time>
      </trkpt>
      <trkpt lat="43.5579" lon="6.45933">
        <ele>532.5</ele>
        <time>2024-02-18T10:38:22.000Z</time>
      </trkpt>
      <trkpt lat="43.55784" lon="6.45944">
        <ele>532.5</ele>
        <time>2024-02-18T10:38:30.000Z</time>
      </trkpt>
      <trkpt lat="43.55776" lon="6.45952">
        <ele>532.7</ele>
        <time>2024-02-18T10:38:38.000Z</time>
      </trkpt>
      <trkpt lat="43.55771" lon="6.45964">
        <ele>532.8</ele>
        <time>2024-02-18T10:38:46.000Z</time>
      </trkpt>
      <trkpt lat="43.55765" lon="6.45974">
        <ele>532.9</ele>
        <time>2024-02-18T10:38:55.000Z</time>
      </trkpt>
      <trkpt lat="43.55758" lon="6.45982">
        <ele>533.3</ele>
        <time>2024-02-18T10:39:04.000Z</time>
      </trkpt>
      <trkpt lat="43.5575" lon="6.45991">
        <ele>533.6</ele>
        <time>2024-02-18T10:39:13.000Z</time>
      </trkpt>
      <trkpt lat="43.55744" lon="6.46002">
        <ele>534</ele>
        <time>2024-02-18T10:39:22.000Z</time>
      </trkpt>
      <trkpt lat="43.55738" lon="6.46011">
        <ele>534.4</ele>
        <time>2024-02-18T10:39:32.000Z</time>
      </trkpt>
      <trkpt lat="43.55737" lon="6.46019">
        <ele>535.1</ele>
        <time>2024-02-18T10:39:42.000Z</time>
      </trkpt>
      <trkpt lat="43.55736" lon="6.46019">
        <ele>535.1</ele>
        <time>2024-02-18T10:39:43.000Z</time>
      </trkpt>
      <trkpt lat="43.55736" lon="6.46019">
        <ele>535.3</ele>
        <time>2024-02-18T10:39:46.000Z</time>
      </trkpt>
      <trkpt lat="43.55736" lon="6.46019">
        <ele>535.3</ele>
        <time>2024-02-18T10:39:47.000Z</time>
      </trkpt>
      <trkpt lat="43.55736" lon="6.46019">
        <ele>535.3</ele>
        <time>2024-02-18T10:39:48.000Z</time>
      </trkpt>
      <trkpt lat="43.55736" lon="6.46019">
        <ele>535.5</ele>
        <time>2024-02-18T10:39:51.000Z</time>
      </trkpt>
      <trkpt lat="43.55736" lon="6.46019">
        <ele>535.5</ele>
        <time>2024-02-18T10:39:52.000Z</time>
      </trkpt>
      <trkpt lat="43.55736" lon="6.46019">
        <ele>535.5</ele>
        <time>2024-02-18T10:39:53.000Z</time>
      </trkpt>
      <trkpt lat="43.55737" lon="6.46021">
        <ele>535.6</ele>
        <time>2024-02-18T10:39:56.000Z</time>
      </trkpt>
      <trkpt lat="43.55736" lon="6.46021">
        <ele>535.7</ele>
        <time>2024-02-18T10:39:57.000Z</time>
      </trkpt>
      <trkpt lat="43.55736" lon="6.4602">
        <ele>535.7</ele>
        <time>2024-02-18T10:39:58.000Z</time>
      </trkpt>
      <trkpt lat="43.55736" lon="6.46019">
        <ele>535.7</ele>
        <time>2024-02-18T10:40:01.000Z</time>
      </trkpt>
      <trkpt lat="43.55736" lon="6.46019">
        <ele>535.7</ele>
        <time>2024-02-18T10:40:02.000Z</time>
      </trkpt>
      <trkpt lat="43.55736" lon="6.46019">
        <ele>535.7</ele>
        <time>2024-02-18T10:40:03.000Z</time>
      </trkpt>
      <trkpt lat="43.55736" lon="6.46019">
        <ele>535.6</ele>
        <time>2024-02-18T10:40:15.000Z</time>
      </trkpt>
      <trkpt lat="43.55736" lon="6.46019">
        <ele>535.5</ele>
        <time>2024-02-18T10:40:16.000Z</time>
      </trkpt>
      <trkpt lat="43.55737" lon="6.4602">
        <ele>535.9</ele>
        <time>2024-02-18T10:40:22.000Z</time>
      </trkpt>
      <trkpt lat="43.55737" lon="6.4602">
        <ele>535.9</ele>
        <time>2024-02-18T10:40:23.000Z</time>
      </trkpt>
      <trkpt lat="43.55737" lon="6.4602">
        <ele>536</ele>
        <time>2024-02-18T10:40:24.000Z</time>
      </trkpt>
      <trkpt lat="43.55737" lon="6.46019">
        <ele>536</ele>
        <time>2024-02-18T10:40:30.000Z</time>
      </trkpt>
      <trkpt lat="43.55737" lon="6.4602">
        <ele>536</ele>
        <time>2024-02-18T10:40:31.000Z</time>
      </trkpt>
      <trkpt lat="43.55737" lon="6.46019">
        <ele>536</ele>
        <time>2024-02-18T10:40:34.000Z</time>
      </trkpt>
      <trkpt lat="43.55737" lon="6.46018">
        <ele>536</ele>
        <time>2024-02-18T10:40:35.000Z</time>
      </trkpt>
      <trkpt lat="43.55738" lon="6.46018">
        <ele>535.9</ele>
        <time>2024-02-18T10:40:51.000Z</time>
      </trkpt>
      <trkpt lat="43.55737" lon="6.46018">
        <ele>535.9</ele>
        <time>2024-02-18T10:40:52.000Z</time>
      </trkpt>
      <trkpt lat="43.55736" lon="6.46017">
        <ele>535.9</ele>
        <time>2024-02-18T10:40:53.000Z</time>
      </trkpt>
      <trkpt lat="43.55736" lon="6.46017">
        <ele>535.9</ele>
        <time>2024-02-18T10:40:54.000Z</time>
      </trkpt>
      <trkpt lat="43.55736" lon="6.46017">
        <ele>535.9</ele>
        <time>2024-02-18T10:40:55.000Z</time>
      </trkpt>
      <trkpt lat="43.55736" lon="6.46017">
        <ele>535.9</ele>
        <time>2024-02-18T10:40:56.000Z</time>
      </trkpt>
      <trkpt lat="43.55738" lon="6.46019">
        <ele>535.9</ele>
        <time>2024-02-18T10:41:00.000Z</time>
      </trkpt>
      <trkpt lat="43.55738" lon="6.46019">
        <ele>535.9</ele>
        <time>2024-02-18T10:41:01.000Z</time>
      </trkpt>
      <trkpt lat="43.55738" lon="6.46019">
        <ele>535.9</ele>
        <time>2024-02-18T10:41:02.000Z</time>
      </trkpt>
      <trkpt lat="43.55738" lon="6.4602">
        <ele>535.9</ele>
        <time>2024-02-18T10:41:03.000Z</time>
      </trkpt>
      <trkpt lat="43.55739" lon="6.4602">
        <ele>535.9</ele>
        <time>2024-02-18T10:41:04.000Z</time>
      </trkpt>
      <trkpt lat="43.5574" lon="6.4602">
        <ele>535.9</ele>
        <time>2024-02-18T10:41:05.000Z</time>
      </trkpt>
      <trkpt lat="43.5574" lon="6.4602">
        <ele>535.9</ele>
        <time>2024-02-18T10:41:06.000Z</time>
      </trkpt>
      <trkpt lat="43.55742" lon="6.46019">
        <ele>536</ele>
        <time>2024-02-18T10:41:15.000Z</time>
      </trkpt>
      <trkpt lat="43.55742" lon="6.4602">
        <ele>536</ele>
        <time>2024-02-18T10:41:16.000Z</time>
      </trkpt>
      <trkpt lat="43.55742" lon="6.4602">
        <ele>536.1</ele>
        <time>2024-02-18T10:41:17.000Z</time>
      </trkpt>
      <trkpt lat="43.55742" lon="6.46019">
        <ele>536.1</ele>
        <time>2024-02-18T10:41:18.000Z</time>
      </trkpt>
      <trkpt lat="43.55742" lon="6.46019">
        <ele>536.1</ele>
        <time>2024-02-18T10:41:19.000Z</time>
      </trkpt>
      <trkpt lat="43.55742" lon="6.46019">
        <ele>536.1</ele>
        <time>2024-02-18T10:41:20.000Z</time>
      </trkpt>
      <trkpt lat="43.55742" lon="6.4602">
        <ele>536.1</ele>
        <time>2024-02-18T10:41:21.000Z</time>
      </trkpt>
      <trkpt lat="43.55742" lon="6.4602">
        <ele>536.2</ele>
        <time>2024-02-18T10:41:24.000Z</time>
      </trkpt>
      <trkpt lat="43.55742" lon="6.4602">
        <ele>536.2</ele>
        <time>2024-02-18T10:41:25.000Z</time>
      </trkpt>
      <trkpt lat="43.55742" lon="6.4602">
        <ele>536.2</ele>
        <time>2024-02-18T10:41:29.000Z</time>
      </trkpt>
      <trkpt lat="43.55742" lon="6.46019">
        <ele>536.2</ele>
        <time>2024-02-18T10:41:30.000Z</time>
      </trkpt>
      <trkpt lat="43.55743" lon="6.46018">
        <ele>536.2</ele>
        <time>2024-02-18T10:41:31.000Z</time>
      </trkpt>
      <trkpt lat="43.55743" lon="6.46017">
        <ele>536.2</ele>
        <time>2024-02-18T10:41:32.000Z</time>
      </trkpt>
      <trkpt lat="43.55744" lon="6.46016">
        <ele>536.2</ele>
        <time>2024-02-18T10:41:33.000Z</time>
      </trkpt>
      <trkpt lat="43.55753" lon="6.46013">
        <ele>536.2</ele>
        <time>2024-02-18T10:41:41.000Z</time>
      </trkpt>
      <trkpt lat="43.55762" lon="6.4601">
        <ele>536.4</ele>
        <time>2024-02-18T10:41:52.000Z</time>
      </trkpt>
      <trkpt lat="43.55772" lon="6.46009">
        <ele>536.9</ele>
        <time>2024-02-18T10:42:04.000Z</time>
      </trkpt>
      <trkpt lat="43.55772" lon="6.46011">
        <ele>537.8</ele>
        <time>2024-02-18T10:42:15.000Z</time>
      </trkpt>
      <trkpt lat="43.55772" lon="6.46011">
        <ele>537.9</ele>
        <time>2024-02-18T10:42:16.000Z</time>
      </trkpt>
      <trkpt lat="43.55772" lon="6.4601">
        <ele>538</ele>
        <time>2024-02-18T10:42:17.000Z</time>
      </trkpt>
      <trkpt lat="43.55772" lon="6.4601">
        <ele>538</ele>
        <time>2024-02-18T10:42:18.000Z</time>
      </trkpt>
      <trkpt lat="43.55772" lon="6.4601">
        <ele>538.1</ele>
        <time>2024-02-18T10:42:19.000Z</time>
      </trkpt>
      <trkpt lat="43.55772" lon="6.4601">
        <ele>538.1</ele>
        <time>2024-02-18T10:42:20.000Z</time>
      </trkpt>
      <trkpt lat="43.55772" lon="6.4601">
        <ele>538.2</ele>
        <time>2024-02-18T10:42:21.000Z</time>
      </trkpt>
      <trkpt lat="43.55772" lon="6.4601">
        <ele>538.3</ele>
        <time>2024-02-18T10:42:22.000Z</time>
      </trkpt>
      <trkpt lat="43.55772" lon="6.46011">
        <ele>538.3</ele>
        <time>2024-02-18T10:42:23.000Z</time>
      </trkpt>
      <trkpt lat="43.55777" lon="6.46">
        <ele>538.4</ele>
        <time>2024-02-18T10:42:34.000Z</time>
      </trkpt>
      <trkpt lat="43.55779" lon="6.45999">
        <ele>538.4</ele>
        <time>2024-02-18T10:42:41.000Z</time>
      </trkpt>
      <trkpt lat="43.55779" lon="6.45999">
        <ele>538.4</ele>
        <time>2024-02-18T10:42:42.000Z</time>
      </trkpt>
      <trkpt lat="43.55779" lon="6.45999">
        <ele>538.4</ele>
        <time>2024-02-18T10:42:43.000Z</time>
      </trkpt>
      <trkpt lat="43.55779" lon="6.45998">
        <ele>538.4</ele>
        <time>2024-02-18T10:42:49.000Z</time>
      </trkpt>
      <trkpt lat="43.55779" lon="6.45998">
        <ele>538.4</ele>
        <time>2024-02-18T10:42:50.000Z</time>
      </trkpt>
      <trkpt lat="43.55779" lon="6.45997">
        <ele>538.4</ele>
        <time>2024-02-18T10:42:51.000Z</time>
      </trkpt>
      <trkpt lat="43.55779" lon="6.45996">
        <ele>538.5</ele>
        <time>2024-02-18T10:42:52.000Z</time>
      </trkpt>
      <trkpt lat="43.55779" lon="6.45996">
        <ele>538.5</ele>
        <time>2024-02-18T10:42:53.000Z</time>
      </trkpt>
      <trkpt lat="43.55779" lon="6.45995">
        <ele>538.5</ele>
        <time>2024-02-18T10:42:54.000Z</time>
      </trkpt>
      <trkpt lat="43.55779" lon="6.45995">
        <ele>538.5</ele>
        <time>2024-02-18T10:42:55.000Z</time>
      </trkpt>
      <trkpt lat="43.55779" lon="6.45995">
        <ele>538.5</ele>
        <time>2024-02-18T10:42:59.000Z</time>
      </trkpt>
      <trkpt lat="43.55779" lon="6.45995">
        <ele>538.5</ele>
        <time>2024-02-18T10:43:00.000Z</time>
      </trkpt>
      <trkpt lat="43.55781" lon="6.45997">
        <ele>538.5</ele>
        <time>2024-02-18T10:43:10.000Z</time>
      </trkpt>
      <trkpt lat="43.55782" lon="6.45997">
        <ele>538.5</ele>
        <time>2024-02-18T10:43:11.000Z</time>
      </trkpt>
      <trkpt lat="43.55782" lon="6.45997">
        <ele>538.5</ele>
        <time>2024-02-18T10:43:12.000Z</time>
      </trkpt>
      <trkpt lat="43.55782" lon="6.45997">
        <ele>538.5</ele>
        <time>2024-02-18T10:43:13.000Z</time>
      </trkpt>
      <trkpt lat="43.55782" lon="6.45997">
        <ele>538.5</ele>
        <time>2024-02-18T10:43:14.000Z</time>
      </trkpt>
      <trkpt lat="43.55782" lon="6.45997">
        <ele>538.5</ele>
        <time>2024-02-18T10:43:15.000Z</time>
      </trkpt>
      <trkpt lat="43.55782" lon="6.45997">
        <ele>538.5</ele>
        <time>2024-02-18T10:43:16.000Z</time>
      </trkpt>
      <trkpt lat="43.55782" lon="6.45997">
        <ele>538.5</ele>
        <time>2024-02-18T10:43:17.000Z</time>
      </trkpt>
      <trkpt lat="43.55781" lon="6.45996">
        <ele>538.5</ele>
        <time>2024-02-18T10:43:18.000Z</time>
      </trkpt>
      <trkpt lat="43.55781" lon="6.45996">
        <ele>538.4</ele>
        <time>2024-02-18T10:43:19.000Z</time>
      </trkpt>
      <trkpt lat="43.55781" lon="6.45996">
        <ele>538.5</ele>
        <time>2024-02-18T10:43:20.000Z</time>
      </trkpt>
      <trkpt lat="43.55781" lon="6.45997">
        <ele>538.5</ele>
        <time>2024-02-18T10:43:21.000Z</time>
      </trkpt>
      <trkpt lat="43.55782" lon="6.45998">
        <ele>538.6</ele>
        <time>2024-02-18T10:43:25.000Z</time>
      </trkpt>
      <trkpt lat="43.55782" lon="6.45997">
        <ele>538.6</ele>
        <time>2024-02-18T10:43:26.000Z</time>
      </trkpt>
      <trkpt lat="43.55782" lon="6.45997">
        <ele>538.6</ele>
        <time>2024-02-18T10:43:27.000Z</time>
      </trkpt>
      <trkpt lat="43.55782" lon="6.45997">
        <ele>538.6</ele>
        <time>2024-02-18T10:43:28.000Z</time>
      </trkpt>
      <trkpt lat="43.55782" lon="6.45997">
        <ele>538.6</ele>
        <time>2024-02-18T10:43:29.000Z</time>
      </trkpt>
      <trkpt lat="43.55782" lon="6.45997">
        <ele>538.6</ele>
        <time>2024-02-18T10:43:30.000Z</time>
      </trkpt>
      <trkpt lat="43.55782" lon="6.45997">
        <ele>538.6</ele>
        <time>2024-02-18T10:43:31.000Z</time>
      </trkpt>
      <trkpt lat="43.55783" lon="6.45997">
        <ele>538.5</ele>
        <time>2024-02-18T10:43:35.000Z</time>
      </trkpt>
      <trkpt lat="43.55783" lon="6.45997">
        <ele>538.5</ele>
        <time>2024-02-18T10:43:36.000Z</time>
      </trkpt>
      <trkpt lat="43.55791" lon="6.45991">
        <ele>538.6</ele>
        <time>2024-02-18T10:43:47.000Z</time>
      </trkpt>
      <trkpt lat="43.55799" lon="6.45983">
        <ele>539</ele>
        <time>2024-02-18T10:43:58.000Z</time>
      </trkpt>
      <trkpt lat="43.55804" lon="6.4598">
        <ele>539.5</ele>
        <time>2024-02-18T10:44:07.000Z</time>
      </trkpt>
      <trkpt lat="43.55804" lon="6.4598">
        <ele>539.5</ele>
        <time>2024-02-18T10:44:08.000Z</time>
      </trkpt>
      <trkpt lat="43.55804" lon="6.4598">
        <ele>539.5</ele>
        <time>2024-02-18T10:44:22.000Z</time>
      </trkpt>
      <trkpt lat="43.55804" lon="6.4598">
        <ele>539.4</ele>
        <time>2024-02-18T10:44:23.000Z</time>
      </trkpt>
      <trkpt lat="43.55804" lon="6.45981">
        <ele>539.6</ele>
        <time>2024-02-18T10:44:24.000Z</time>
      </trkpt>
      <trkpt lat="43.55804" lon="6.45981">
        <ele>539.8</ele>
        <time>2024-02-18T10:44:25.000Z</time>
      </trkpt>
      <trkpt lat="43.55804" lon="6.4598">
        <ele>540.1</ele>
        <time>2024-02-18T10:44:29.000Z</time>
      </trkpt>
      <trkpt lat="43.55803" lon="6.4598">
        <ele>540.1</ele>
        <time>2024-02-18T10:44:30.000Z</time>
      </trkpt>
      <trkpt lat="43.55812" lon="6.45974">
        <ele>540.2</ele>
        <time>2024-02-18T10:44:43.000Z</time>
      </trkpt>
      <trkpt lat="43.55815" lon="6.45965">
        <ele>540.3</ele>
        <time>2024-02-18T10:44:56.000Z</time>
      </trkpt>
      <trkpt lat="43.55815" lon="6.45965">
        <ele>540.3</ele>
        <time>2024-02-18T10:44:57.000Z</time>
      </trkpt>
      <trkpt lat="43.55815" lon="6.45965">
        <ele>540.3</ele>
        <time>2024-02-18T10:44:58.000Z</time>
      </trkpt>
      <trkpt lat="43.55815" lon="6.45965">
        <ele>540.3</ele>
        <time>2024-02-18T10:45:04.000Z</time>
      </trkpt>
      <trkpt lat="43.55815" lon="6.45965">
        <ele>540.3</ele>
        <time>2024-02-18T10:45:05.000Z</time>
      </trkpt>
      <trkpt lat="43.55815" lon="6.45965">
        <ele>540.3</ele>
        <time>2024-02-18T10:45:06.000Z</time>
      </trkpt>
      <trkpt lat="43.55814" lon="6.45965">
        <ele>540.3</ele>
        <time>2024-02-18T10:45:07.000Z</time>
      </trkpt>
      <trkpt lat="43.55814" lon="6.45965">
        <ele>540.3</ele>
        <time>2024-02-18T10:45:08.000Z</time>
      </trkpt>
      <trkpt lat="43.55815" lon="6.45965">
        <ele>540.4</ele>
        <time>2024-02-18T10:45:15.000Z</time>
      </trkpt>
      <trkpt lat="43.55815" lon="6.45965">
        <ele>540.4</ele>
        <time>2024-02-18T10:45:16.000Z</time>
      </trkpt>
      <trkpt lat="43.55815" lon="6.45965">
        <ele>540.4</ele>
        <time>2024-02-18T10:45:17.000Z</time>
      </trkpt>
      <trkpt lat="43.55815" lon="6.45965">
        <ele>540.4</ele>
        <time>2024-02-18T10:45:18.000Z</time>
      </trkpt>
      <trkpt lat="43.55813" lon="6.45965">
        <ele>540.4</ele>
        <time>2024-02-18T10:45:29.000Z</time>
      </trkpt>
      <trkpt lat="43.55813" lon="6.45963">
        <ele>540.4</ele>
        <time>2024-02-18T10:45:30.000Z</time>
      </trkpt>
      <trkpt lat="43.55822" lon="6.45961">
        <ele>540.5</ele>
        <time>2024-02-18T10:45:39.000Z</time>
      </trkpt>
      <trkpt lat="43.55831" lon="6.45958">
        <ele>541</ele>
        <time>2024-02-18T10:45:48.000Z</time>
      </trkpt>
      <trkpt lat="43.55835" lon="6.45956">
        <ele>541.6</ele>
        <time>2024-02-18T10:45:55.000Z</time>
      </trkpt>
      <trkpt lat="43.55835" lon="6.45956">
        <ele>541.6</ele>
        <time>2024-02-18T10:45:56.000Z</time>
      </trkpt>
      <trkpt lat="43.55835" lon="6.45956">
        <ele>541.7</ele>
        <time>2024-02-18T10:45:57.000Z</time>
      </trkpt>
      <trkpt lat="43.55835" lon="6.45956">
        <ele>541.7</ele>
        <time>2024-02-18T10:45:58.000Z</time>
      </trkpt>
      <trkpt lat="43.55834" lon="6.45955">
        <ele>541.7</ele>
        <time>2024-02-18T10:45:59.000Z</time>
      </trkpt>
      <trkpt lat="43.55834" lon="6.45955">
        <ele>541.8</ele>
        <time>2024-02-18T10:46:00.000Z</time>
      </trkpt>
      <trkpt lat="43.55834" lon="6.45954">
        <ele>541.8</ele>
        <time>2024-02-18T10:46:01.000Z</time>
      </trkpt>
      <trkpt lat="43.55834" lon="6.45954">
        <ele>541.9</ele>
        <time>2024-02-18T10:46:02.000Z</time>
      </trkpt>
      <trkpt lat="43.55834" lon="6.45954">
        <ele>541.9</ele>
        <time>2024-02-18T10:46:03.000Z</time>
      </trkpt>
      <trkpt lat="43.55834" lon="6.45954">
        <ele>542</ele>
        <time>2024-02-18T10:46:07.000Z</time>
      </trkpt>
      <trkpt lat="43.55834" lon="6.45953">
        <ele>542</ele>
        <time>2024-02-18T10:46:08.000Z</time>
      </trkpt>
      <trkpt lat="43.55834" lon="6.45952">
        <ele>542</ele>
        <time>2024-02-18T10:46:09.000Z</time>
      </trkpt>
      <trkpt lat="43.55834" lon="6.45951">
        <ele>542</ele>
        <time>2024-02-18T10:46:10.000Z</time>
      </trkpt>
      <trkpt lat="43.55835" lon="6.4595">
        <ele>542</ele>
        <time>2024-02-18T10:46:11.000Z</time>
      </trkpt>
      <trkpt lat="43.55843" lon="6.45944">
        <ele>542</ele>
        <time>2024-02-18T10:46:20.000Z</time>
      </trkpt>
      <trkpt lat="43.55851" lon="6.45937">
        <ele>542.1</ele>
        <time>2024-02-18T10:46:30.000Z</time>
      </trkpt>
      <trkpt lat="43.55856" lon="6.45927">
        <ele>542.1</ele>
        <time>2024-02-18T10:46:40.000Z</time>
      </trkpt>
      <trkpt lat="43.55866" lon="6.45925">
        <ele>542.1</ele>
        <time>2024-02-18T10:46:46.000Z</time>
      </trkpt>
      <trkpt lat="43.55871" lon="6.45915">
        <ele>542.2</ele>
        <time>2024-02-18T10:47:02.000Z</time>
      </trkpt>
      <trkpt lat="43.55878" lon="6.45907">
        <ele>542.4</ele>
        <time>2024-02-18T10:47:13.000Z</time>
      </trkpt>
      <trkpt lat="43.55886" lon="6.45898">
        <ele>542.7</ele>
        <time>2024-02-18T10:47:24.000Z</time>
      </trkpt>
      <trkpt lat="43.55892" lon="6.45889">
        <ele>543</ele>
        <time>2024-02-18T10:47:34.000Z</time>
      </trkpt>
      <trkpt lat="43.55893" lon="6.45885">
        <ele>543.2</ele>
        <time>2024-02-18T10:47:41.000Z</time>
      </trkpt>
      <trkpt lat="43.55893" lon="6.45885">
        <ele>543.2</ele>
        <time>2024-02-18T10:47:42.000Z</time>
      </trkpt>
      <trkpt lat="43.55894" lon="6.45885">
        <ele>543.2</ele>
        <time>2024-02-18T10:47:43.000Z</time>
      </trkpt>
      <trkpt lat="43.55894" lon="6.45884">
        <ele>543.3</ele>
        <time>2024-02-18T10:47:44.000Z</time>
      </trkpt>
      <trkpt lat="43.55894" lon="6.45884">
        <ele>543.3</ele>
        <time>2024-02-18T10:47:45.000Z</time>
      </trkpt>
      <trkpt lat="43.55893" lon="6.45884">
        <ele>543.3</ele>
        <time>2024-02-18T10:47:46.000Z</time>
      </trkpt>
      <trkpt lat="43.55893" lon="6.45884">
        <ele>543.4</ele>
        <time>2024-02-18T10:47:50.000Z</time>
      </trkpt>
      <trkpt lat="43.55893" lon="6.45884">
        <ele>543.4</ele>
        <time>2024-02-18T10:47:51.000Z</time>
      </trkpt>
      <trkpt lat="43.55894" lon="6.45884">
        <ele>543.5</ele>
        <time>2024-02-18T10:47:59.000Z</time>
      </trkpt>
      <trkpt lat="43.55895" lon="6.45883">
        <ele>543.5</ele>
        <time>2024-02-18T10:48:00.000Z</time>
      </trkpt>
      <trkpt lat="43.55895" lon="6.45883">
        <ele>543.5</ele>
        <time>2024-02-18T10:48:01.000Z</time>
      </trkpt>
      <trkpt lat="43.55902" lon="6.45873">
        <ele>543.6</ele>
        <time>2024-02-18T10:48:10.000Z</time>
      </trkpt>
      <trkpt lat="43.55907" lon="6.45862">
        <ele>543.6</ele>
        <time>2024-02-18T10:48:18.000Z</time>
      </trkpt>
      <trkpt lat="43.55913" lon="6.45851">
        <ele>543.5</ele>
        <time>2024-02-18T10:48:26.000Z</time>
      </trkpt>
      <trkpt lat="43.55915" lon="6.45838">
        <ele>543.3</ele>
        <time>2024-02-18T10:48:36.000Z</time>
      </trkpt>
      <trkpt lat="43.5592" lon="6.45827">
        <ele>543</ele>
        <time>2024-02-18T10:48:45.000Z</time>
      </trkpt>
      <trkpt lat="43.55925" lon="6.45814">
        <ele>542.5</ele>
        <time>2024-02-18T10:48:54.000Z</time>
      </trkpt>
      <trkpt lat="43.55933" lon="6.45805">
        <ele>541.7</ele>
        <time>2024-02-18T10:49:06.000Z</time>
      </trkpt>
      <trkpt lat="43.55941" lon="6.45797">
        <ele>541.4</ele>
        <time>2024-02-18T10:49:14.000Z</time>
      </trkpt>
      <trkpt lat="43.55948" lon="6.4579">
        <ele>540.8</ele>
        <time>2024-02-18T10:49:26.000Z</time>
      </trkpt>
      <trkpt lat="43.55957" lon="6.45785">
        <ele>540.3</ele>
        <time>2024-02-18T10:49:43.000Z</time>
      </trkpt>
      <trkpt lat="43.55964" lon="6.45787">
        <ele>540.3</ele>
        <time>2024-02-18T10:49:57.000Z</time>
      </trkpt>
      <trkpt lat="43.55964" lon="6.45787">
        <ele>540.3</ele>
        <time>2024-02-18T10:49:58.000Z</time>
      </trkpt>
      <trkpt lat="43.55965" lon="6.45787">
        <ele>540.3</ele>
        <time>2024-02-18T10:50:04.000Z</time>
      </trkpt>
      <trkpt lat="43.55966" lon="6.45788">
        <ele>540.3</ele>
        <time>2024-02-18T10:50:05.000Z</time>
      </trkpt>
      <trkpt lat="43.55967" lon="6.45786">
        <ele>540.3</ele>
        <time>2024-02-18T10:50:09.000Z</time>
      </trkpt>
      <trkpt lat="43.55967" lon="6.45786">
        <ele>540.3</ele>
        <time>2024-02-18T10:50:10.000Z</time>
      </trkpt>
      <trkpt lat="43.55967" lon="6.45786">
        <ele>540.3</ele>
        <time>2024-02-18T10:50:11.000Z</time>
      </trkpt>
      <trkpt lat="43.55968" lon="6.45786">
        <ele>540.3</ele>
        <time>2024-02-18T10:50:12.000Z</time>
      </trkpt>
      <trkpt lat="43.55968" lon="6.45786">
        <ele>540.2</ele>
        <time>2024-02-18T10:50:13.000Z</time>
      </trkpt>
      <trkpt lat="43.55968" lon="6.45785">
        <ele>540.3</ele>
        <time>2024-02-18T10:50:16.000Z</time>
      </trkpt>
      <trkpt lat="43.55968" lon="6.45785">
        <ele>540.3</ele>
        <time>2024-02-18T10:50:17.000Z</time>
      </trkpt>
      <trkpt lat="43.55968" lon="6.45785">
        <ele>540.2</ele>
        <time>2024-02-18T10:50:18.000Z</time>
      </trkpt>
      <trkpt lat="43.55969" lon="6.45785">
        <ele>540.3</ele>
        <time>2024-02-18T10:50:19.000Z</time>
      </trkpt>
      <trkpt lat="43.55969" lon="6.45786">
        <ele>540.3</ele>
        <time>2024-02-18T10:50:20.000Z</time>
      </trkpt>
      <trkpt lat="43.55975" lon="6.45796">
        <ele>540.4</ele>
        <time>2024-02-18T10:50:34.000Z</time>
      </trkpt>
      <trkpt lat="43.55983" lon="6.45802">
        <ele>541</ele>
        <time>2024-02-18T10:50:46.000Z</time>
      </trkpt>
      <trkpt lat="43.55988" lon="6.45802">
        <ele>541.6</ele>
        <time>2024-02-18T10:50:59.000Z</time>
      </trkpt>
      <trkpt lat="43.55988" lon="6.45802">
        <ele>541.7</ele>
        <time>2024-02-18T10:51:00.000Z</time>
      </trkpt>
      <trkpt lat="43.55988" lon="6.45802">
        <ele>541.7</ele>
        <time>2024-02-18T10:51:01.000Z</time>
      </trkpt>
      <trkpt lat="43.55988" lon="6.45802">
        <ele>541.8</ele>
        <time>2024-02-18T10:51:10.000Z</time>
      </trkpt>
      <trkpt lat="43.55988" lon="6.45802">
        <ele>541.8</ele>
        <time>2024-02-18T10:51:11.000Z</time>
      </trkpt>
      <trkpt lat="43.55988" lon="6.458">
        <ele>542</ele>
        <time>2024-02-18T10:51:27.000Z</time>
      </trkpt>
      <trkpt lat="43.55988" lon="6.458">
        <ele>542</ele>
        <time>2024-02-18T10:51:28.000Z</time>
      </trkpt>
      <trkpt lat="43.55989" lon="6.45801">
        <ele>542</ele>
        <time>2024-02-18T10:51:29.000Z</time>
      </trkpt>
      <trkpt lat="43.5599" lon="6.45802">
        <ele>542.1</ele>
        <time>2024-02-18T10:51:30.000Z</time>
      </trkpt>
      <trkpt lat="43.55997" lon="6.45811">
        <ele>542.6</ele>
        <time>2024-02-18T10:51:44.000Z</time>
      </trkpt>
      <trkpt lat="43.55994" lon="6.45824">
        <ele>543.7</ele>
        <time>2024-02-18T10:51:56.000Z</time>
      </trkpt>
      <trkpt lat="43.55988" lon="6.45834">
        <ele>545</ele>
        <time>2024-02-18T10:52:08.000Z</time>
      </trkpt>
      <trkpt lat="43.55985" lon="6.45845">
        <ele>546</ele>
        <time>2024-02-18T10:52:19.000Z</time>
      </trkpt>
      <trkpt lat="43.55984" lon="6.45858">
        <ele>547.3</ele>
        <time>2024-02-18T10:52:32.000Z</time>
      </trkpt>
      <trkpt lat="43.55985" lon="6.4587">
        <ele>549.1</ele>
        <time>2024-02-18T10:52:49.000Z</time>
      </trkpt>
      <trkpt lat="43.55986" lon="6.45877">
        <ele>550.9</ele>
        <time>2024-02-18T10:53:04.000Z</time>
      </trkpt>
      <trkpt lat="43.55986" lon="6.45877">
        <ele>551</ele>
        <time>2024-02-18T10:53:05.000Z</time>
      </trkpt>
      <trkpt lat="43.55986" lon="6.45877">
        <ele>551</ele>
        <time>2024-02-18T10:53:06.000Z</time>
      </trkpt>
      <trkpt lat="43.55986" lon="6.45879">
        <ele>551.3</ele>
        <time>2024-02-18T10:53:27.000Z</time>
      </trkpt>
      <trkpt lat="43.55986" lon="6.45879">
        <ele>551.3</ele>
        <time>2024-02-18T10:53:28.000Z</time>
      </trkpt>
      <trkpt lat="43.55986" lon="6.45879">
        <ele>551.3</ele>
        <time>2024-02-18T10:53:29.000Z</time>
      </trkpt>
      <trkpt lat="43.55986" lon="6.45879">
        <ele>551.3</ele>
        <time>2024-02-18T10:53:30.000Z</time>
      </trkpt>
      <trkpt lat="43.55986" lon="6.45879">
        <ele>551.3</ele>
        <time>2024-02-18T10:53:31.000Z</time>
      </trkpt>
      <trkpt lat="43.55985" lon="6.45878">
        <ele>551.4</ele>
        <time>2024-02-18T10:53:41.000Z</time>
      </trkpt>
      <trkpt lat="43.55986" lon="6.45879">
        <ele>551.5</ele>
        <time>2024-02-18T10:53:42.000Z</time>
      </trkpt>
      <trkpt lat="43.55986" lon="6.45879">
        <ele>551.5</ele>
        <time>2024-02-18T10:53:43.000Z</time>
      </trkpt>
      <trkpt lat="43.55986" lon="6.45879">
        <ele>551.5</ele>
        <time>2024-02-18T10:53:44.000Z</time>
      </trkpt>
      <trkpt lat="43.55986" lon="6.45879">
        <ele>551.5</ele>
        <time>2024-02-18T10:53:45.000Z</time>
      </trkpt>
      <trkpt lat="43.55986" lon="6.4588">
        <ele>551.6</ele>
        <time>2024-02-18T10:53:55.000Z</time>
      </trkpt>
      <trkpt lat="43.55986" lon="6.4588">
        <ele>551.6</ele>
        <time>2024-02-18T10:53:56.000Z</time>
      </trkpt>
      <trkpt lat="43.55986" lon="6.4588">
        <ele>551.6</ele>
        <time>2024-02-18T10:53:57.000Z</time>
      </trkpt>
      <trkpt lat="43.55986" lon="6.4588">
        <ele>551.6</ele>
        <time>2024-02-18T10:53:58.000Z</time>
      </trkpt>
      <trkpt lat="43.55986" lon="6.4588">
        <ele>551.6</ele>
        <time>2024-02-18T10:54:16.000Z</time>
      </trkpt>
      <trkpt lat="43.55986" lon="6.45881">
        <ele>551.6</ele>
        <time>2024-02-18T10:54:17.000Z</time>
      </trkpt>
      <trkpt lat="43.55986" lon="6.45881">
        <ele>551.6</ele>
        <time>2024-02-18T10:54:18.000Z</time>
      </trkpt>
      <trkpt lat="43.55987" lon="6.4588">
        <ele>551.6</ele>
        <time>2024-02-18T10:54:22.000Z</time>
      </trkpt>
      <trkpt lat="43.55987" lon="6.4588">
        <ele>551.6</ele>
        <time>2024-02-18T10:54:23.000Z</time>
      </trkpt>
      <trkpt lat="43.55986" lon="6.45881">
        <ele>551.6</ele>
        <time>2024-02-18T10:54:24.000Z</time>
      </trkpt>
      <trkpt lat="43.55985" lon="6.45881">
        <ele>551.6</ele>
        <time>2024-02-18T10:54:25.000Z</time>
      </trkpt>
      <trkpt lat="43.55982" lon="6.45893">
        <ele>551.7</ele>
        <time>2024-02-18T10:54:36.000Z</time>
      </trkpt>
      <trkpt lat="43.5598" lon="6.45906">
        <ele>552.1</ele>
        <time>2024-02-18T10:54:47.000Z</time>
      </trkpt>
      <trkpt lat="43.55973" lon="6.45915">
        <ele>553</ele>
        <time>2024-02-18T10:55:07.000Z</time>
      </trkpt>
      <trkpt lat="43.55973" lon="6.45915">
        <ele>553.2</ele>
        <time>2024-02-18T10:55:11.000Z</time>
      </trkpt>
      <trkpt lat="43.55973" lon="6.45915">
        <ele>553.2</ele>
        <time>2024-02-18T10:55:12.000Z</time>
      </trkpt>
      <trkpt lat="43.55973" lon="6.45915">
        <ele>553.2</ele>
        <time>2024-02-18T10:55:13.000Z</time>
      </trkpt>
      <trkpt lat="43.55974" lon="6.45915">
        <ele>553.2</ele>
        <time>2024-02-18T10:55:19.000Z</time>
      </trkpt>
      <trkpt lat="43.55974" lon="6.45914">
        <ele>553.3</ele>
        <time>2024-02-18T10:55:20.000Z</time>
      </trkpt>
      <trkpt lat="43.55974" lon="6.45913">
        <ele>553.3</ele>
        <time>2024-02-18T10:55:21.000Z</time>
      </trkpt>
      <trkpt lat="43.55975" lon="6.45913">
        <ele>553.3</ele>
        <time>2024-02-18T10:55:26.000Z</time>
      </trkpt>
      <trkpt lat="43.55975" lon="6.45913">
        <ele>553.3</ele>
        <time>2024-02-18T10:55:27.000Z</time>
      </trkpt>
      <trkpt lat="43.55975" lon="6.45913">
        <ele>553.3</ele>
        <time>2024-02-18T10:55:28.000Z</time>
      </trkpt>
      <trkpt lat="43.55975" lon="6.45913">
        <ele>553.3</ele>
        <time>2024-02-18T10:55:31.000Z</time>
      </trkpt>
      <trkpt lat="43.55975" lon="6.45913">
        <ele>553.3</ele>
        <time>2024-02-18T10:55:32.000Z</time>
      </trkpt>
      <trkpt lat="43.55975" lon="6.45913">
        <ele>553.3</ele>
        <time>2024-02-18T10:55:33.000Z</time>
      </trkpt>
      <trkpt lat="43.55976" lon="6.45914">
        <ele>552.3</ele>
        <time>2024-02-18T10:55:39.000Z</time>
      </trkpt>
      <trkpt lat="43.55976" lon="6.45914">
        <ele>552.2</ele>
        <time>2024-02-18T10:55:40.000Z</time>
      </trkpt>
      <trkpt lat="43.55976" lon="6.45914">
        <ele>552.1</ele>
        <time>2024-02-18T10:55:41.000Z</time>
      </trkpt>
      <trkpt lat="43.55976" lon="6.45914">
        <ele>553</ele>
        <time>2024-02-18T10:55:47.000Z</time>
      </trkpt>
      <trkpt lat="43.55976" lon="6.45914">
        <ele>553</ele>
        <time>2024-02-18T10:55:48.000Z</time>
      </trkpt>
      <trkpt lat="43.55976" lon="6.45914">
        <ele>553.1</ele>
        <time>2024-02-18T10:55:49.000Z</time>
      </trkpt>
      <trkpt lat="43.55976" lon="6.45914">
        <ele>553.1</ele>
        <time>2024-02-18T10:55:50.000Z</time>
      </trkpt>
      <trkpt lat="43.55975" lon="6.45914">
        <ele>555.4</ele>
        <time>2024-02-18T10:56:12.000Z</time>
      </trkpt>
      <trkpt lat="43.55975" lon="6.45914">
        <ele>555.2</ele>
        <time>2024-02-18T10:56:13.000Z</time>
      </trkpt>
      <trkpt lat="43.55974" lon="6.45915">
        <ele>554.9</ele>
        <time>2024-02-18T10:56:14.000Z</time>
      </trkpt>
      <trkpt lat="43.55969" lon="6.45916">
        <ele>549</ele>
        <time>2024-02-18T10:56:24.000Z</time>
      </trkpt>
      <trkpt lat="43.55969" lon="6.45916">
        <ele>549</ele>
        <time>2024-02-18T10:56:25.000Z</time>
      </trkpt>
      <trkpt lat="43.5597" lon="6.45916">
        <ele>557.1</ele>
        <time>2024-02-18T10:56:37.000Z</time>
      </trkpt>
      <trkpt lat="43.5597" lon="6.45916">
        <ele>557.1</ele>
        <time>2024-02-18T10:56:38.000Z</time>
      </trkpt>
      <trkpt lat="43.55969" lon="6.45917">
        <ele>556.6</ele>
        <time>2024-02-18T10:56:39.000Z</time>
      </trkpt>
      <trkpt lat="43.55965" lon="6.45928">
        <ele>554.6</ele>
        <time>2024-02-18T10:56:49.000Z</time>
      </trkpt>
      <trkpt lat="43.55958" lon="6.45937">
        <ele>554.7</ele>
        <time>2024-02-18T10:56:59.000Z</time>
      </trkpt>
      <trkpt lat="43.55956" lon="6.45938">
        <ele>554.8</ele>
        <time>2024-02-18T10:57:04.000Z</time>
      </trkpt>
      <trkpt lat="43.55956" lon="6.45938">
        <ele>554.8</ele>
        <time>2024-02-18T10:57:05.000Z</time>
      </trkpt>
      <trkpt lat="43.55956" lon="6.4594">
        <ele>554.9</ele>
        <time>2024-02-18T10:57:09.000Z</time>
      </trkpt>
      <trkpt lat="43.55956" lon="6.45942">
        <ele>554.9</ele>
        <time>2024-02-18T10:57:10.000Z</time>
      </trkpt>
      <trkpt lat="43.55955" lon="6.45944">
        <ele>555.1</ele>
        <time>2024-02-18T10:57:22.000Z</time>
      </trkpt>
      <trkpt lat="43.55955" lon="6.45944">
        <ele>555.1</ele>
        <time>2024-02-18T10:57:23.000Z</time>
      </trkpt>
      <trkpt lat="43.55955" lon="6.45944">
        <ele>555.1</ele>
        <time>2024-02-18T10:57:24.000Z</time>
      </trkpt>
      <trkpt lat="43.55955" lon="6.45945">
        <ele>555.3</ele>
        <time>2024-02-18T10:57:30.000Z</time>
      </trkpt>
      <trkpt lat="43.55955" lon="6.45946">
        <ele>555.3</ele>
        <time>2024-02-18T10:57:31.000Z</time>
      </trkpt>
      <trkpt lat="43.55948" lon="6.45956">
        <ele>555.5</ele>
        <time>2024-02-18T10:57:41.000Z</time>
      </trkpt>
      <trkpt lat="43.5594" lon="6.45965">
        <ele>555.9</ele>
        <time>2024-02-18T10:57:49.000Z</time>
      </trkpt>
      <trkpt lat="43.55934" lon="6.45976">
        <ele>556.5</ele>
        <time>2024-02-18T10:58:00.000Z</time>
      </trkpt>
      <trkpt lat="43.55929" lon="6.45986">
        <ele>557</ele>
        <time>2024-02-18T10:58:09.000Z</time>
      </trkpt>
      <trkpt lat="43.55926" lon="6.45999">
        <ele>557.3</ele>
        <time>2024-02-18T10:58:18.000Z</time>
      </trkpt>
      <trkpt lat="43.55925" lon="6.46012">
        <ele>557.4</ele>
        <time>2024-02-18T10:58:29.000Z</time>
      </trkpt>
      <trkpt lat="43.55923" lon="6.46025">
        <ele>557.3</ele>
        <time>2024-02-18T10:58:37.000Z</time>
      </trkpt>
      <trkpt lat="43.55918" lon="6.46036">
        <ele>557.2</ele>
        <time>2024-02-18T10:58:46.000Z</time>
      </trkpt>
      <trkpt lat="43.55913" lon="6.46044">
        <ele>557</ele>
        <time>2024-02-18T10:58:57.000Z</time>
      </trkpt>
      <trkpt lat="43.55913" lon="6.46045">
        <ele>556.9</ele>
        <time>2024-02-18T10:58:58.000Z</time>
      </trkpt>
      <trkpt lat="43.55913" lon="6.46046">
        <ele>556.9</ele>
        <time>2024-02-18T10:58:59.000Z</time>
      </trkpt>
      <trkpt lat="43.55913" lon="6.46048">
        <ele>556.9</ele>
        <time>2024-02-18T10:59:00.000Z</time>
      </trkpt>
      <trkpt lat="43.55906" lon="6.46056">
        <ele>556.7</ele>
        <time>2024-02-18T10:59:11.000Z</time>
      </trkpt>
      <trkpt lat="43.55906" lon="6.46056">
        <ele>556.7</ele>
        <time>2024-02-18T10:59:12.000Z</time>
      </trkpt>
      <trkpt lat="43.55906" lon="6.46056">
        <ele>556.7</ele>
        <time>2024-02-18T10:59:13.000Z</time>
      </trkpt>
      <trkpt lat="43.55905" lon="6.46057">
        <ele>556.6</ele>
        <time>2024-02-18T10:59:19.000Z</time>
      </trkpt>
      <trkpt lat="43.55905" lon="6.46059">
        <ele>556.6</ele>
        <time>2024-02-18T10:59:20.000Z</time>
      </trkpt>
      <trkpt lat="43.559" lon="6.46069">
        <ele>556.4</ele>
        <time>2024-02-18T10:59:27.000Z</time>
      </trkpt>
      <trkpt lat="43.55894" lon="6.4608">
        <ele>556.2</ele>
        <time>2024-02-18T10:59:37.000Z</time>
      </trkpt>
      <trkpt lat="43.55888" lon="6.4609">
        <ele>556</ele>
        <time>2024-02-18T10:59:45.000Z</time>
      </trkpt>
      <trkpt lat="43.55889" lon="6.46103">
        <ele>555.6</ele>
        <time>2024-02-18T10:59:56.000Z</time>
      </trkpt>
      <trkpt lat="43.55891" lon="6.46116">
        <ele>555.1</ele>
        <time>2024-02-18T11:00:03.000Z</time>
      </trkpt>
      <trkpt lat="43.55895" lon="6.46128">
        <ele>553.7</ele>
        <time>2024-02-18T11:00:18.000Z</time>
      </trkpt>
      <trkpt lat="43.55898" lon="6.4614">
        <ele>552.1</ele>
        <time>2024-02-18T11:00:31.000Z</time>
      </trkpt>
      <trkpt lat="43.55898" lon="6.46153">
        <ele>550.7</ele>
        <time>2024-02-18T11:00:41.000Z</time>
      </trkpt>
      <trkpt lat="43.55892" lon="6.46164">
        <ele>550</ele>
        <time>2024-02-18T11:00:49.000Z</time>
      </trkpt>
      <trkpt lat="43.5589" lon="6.46177">
        <ele>549.2</ele>
        <time>2024-02-18T11:01:01.000Z</time>
      </trkpt>
      <trkpt lat="43.55885" lon="6.46189">
        <ele>548.6</ele>
        <time>2024-02-18T11:01:11.000Z</time>
      </trkpt>
      <trkpt lat="43.5588" lon="6.46201">
        <ele>548.2</ele>
        <time>2024-02-18T11:01:20.000Z</time>
      </trkpt>
      <trkpt lat="43.55873" lon="6.46211">
        <ele>547.9</ele>
        <time>2024-02-18T11:01:30.000Z</time>
      </trkpt>
      <trkpt lat="43.55871" lon="6.46215">
        <ele>547.7</ele>
        <time>2024-02-18T11:01:41.000Z</time>
      </trkpt>
      <trkpt lat="43.55872" lon="6.46215">
        <ele>547.7</ele>
        <time>2024-02-18T11:01:42.000Z</time>
      </trkpt>
      <trkpt lat="43.55872" lon="6.46215">
        <ele>547.7</ele>
        <time>2024-02-18T11:01:43.000Z</time>
      </trkpt>
      <trkpt lat="43.55872" lon="6.46218">
        <ele>547.6</ele>
        <time>2024-02-18T11:01:47.000Z</time>
      </trkpt>
      <trkpt lat="43.55871" lon="6.46219">
        <ele>547.5</ele>
        <time>2024-02-18T11:01:48.000Z</time>
      </trkpt>
      <trkpt lat="43.55867" lon="6.46231">
        <ele>547.4</ele>
        <time>2024-02-18T11:01:58.000Z</time>
      </trkpt>
      <trkpt lat="43.55859" lon="6.46236">
        <ele>547.2</ele>
        <time>2024-02-18T11:02:08.000Z</time>
      </trkpt>
      <trkpt lat="43.55861" lon="6.46238">
        <ele>547.2</ele>
        <time>2024-02-18T11:02:16.000Z</time>
      </trkpt>
      <trkpt lat="43.55861" lon="6.46238">
        <ele>547.2</ele>
        <time>2024-02-18T11:02:17.000Z</time>
      </trkpt>
      <trkpt lat="43.55861" lon="6.46238">
        <ele>547.2</ele>
        <time>2024-02-18T11:02:18.000Z</time>
      </trkpt>
      <trkpt lat="43.55861" lon="6.46238">
        <ele>547.2</ele>
        <time>2024-02-18T11:02:22.000Z</time>
      </trkpt>
      <trkpt lat="43.55861" lon="6.46238">
        <ele>547.2</ele>
        <time>2024-02-18T11:02:23.000Z</time>
      </trkpt>
      <trkpt lat="43.55861" lon="6.46238">
        <ele>547.2</ele>
        <time>2024-02-18T11:02:24.000Z</time>
      </trkpt>
      <trkpt lat="43.55861" lon="6.46238">
        <ele>547.2</ele>
        <time>2024-02-18T11:02:25.000Z</time>
      </trkpt>
      <trkpt lat="43.55861" lon="6.46238">
        <ele>547.2</ele>
        <time>2024-02-18T11:02:26.000Z</time>
      </trkpt>
      <trkpt lat="43.55861" lon="6.46237">
        <ele>547.2</ele>
        <time>2024-02-18T11:02:27.000Z</time>
      </trkpt>
      <trkpt lat="43.55861" lon="6.46237">
        <ele>547.2</ele>
        <time>2024-02-18T11:02:28.000Z</time>
      </trkpt>
      <trkpt lat="43.55853" lon="6.46245">
        <ele>547.2</ele>
        <time>2024-02-18T11:02:38.000Z</time>
      </trkpt>
      <trkpt lat="43.55848" lon="6.46257">
        <ele>547.2</ele>
        <time>2024-02-18T11:02:45.000Z</time>
      </trkpt>
      <trkpt lat="43.5584" lon="6.46263">
        <ele>547.1</ele>
        <time>2024-02-18T11:02:55.000Z</time>
      </trkpt>
      <trkpt lat="43.55833" lon="6.46258">
        <ele>547.4</ele>
        <time>2024-02-18T11:03:10.000Z</time>
      </trkpt>
      <trkpt lat="43.55833" lon="6.46258">
        <ele>547.4</ele>
        <time>2024-02-18T11:03:11.000Z</time>
      </trkpt>
      <trkpt lat="43.55833" lon="6.46258">
        <ele>547.4</ele>
        <time>2024-02-18T11:03:12.000Z</time>
      </trkpt>
      <trkpt lat="43.55833" lon="6.46257">
        <ele>547.4</ele>
        <time>2024-02-18T11:03:13.000Z</time>
      </trkpt>
      <trkpt lat="43.55825" lon="6.46249">
        <ele>548.2</ele>
        <time>2024-02-18T11:03:25.000Z</time>
      </trkpt>
      <trkpt lat="43.55825" lon="6.46249">
        <ele>548.7</ele>
        <time>2024-02-18T11:03:30.000Z</time>
      </trkpt>
      <trkpt lat="43.55825" lon="6.46248">
        <ele>548.8</ele>
        <time>2024-02-18T11:03:31.000Z</time>
      </trkpt>
      <trkpt lat="43.55825" lon="6.46248">
        <ele>548.9</ele>
        <time>2024-02-18T11:03:32.000Z</time>
      </trkpt>
      <trkpt lat="43.55824" lon="6.46248">
        <ele>549</ele>
        <time>2024-02-18T11:03:33.000Z</time>
      </trkpt>
      <trkpt lat="43.55823" lon="6.46247">
        <ele>549</ele>
        <time>2024-02-18T11:03:34.000Z</time>
      </trkpt>
      <trkpt lat="43.55814" lon="6.46254">
        <ele>549.4</ele>
        <time>2024-02-18T11:03:43.000Z</time>
      </trkpt>
      <trkpt lat="43.55806" lon="6.46262">
        <ele>549.5</ele>
        <time>2024-02-18T11:03:54.000Z</time>
      </trkpt>
      <trkpt lat="43.55797" lon="6.46266">
        <ele>549.4</ele>
        <time>2024-02-18T11:04:04.000Z</time>
      </trkpt>
      <trkpt lat="43.55787" lon="6.46267">
        <ele>549.3</ele>
        <time>2024-02-18T11:04:17.000Z</time>
      </trkpt>
      <trkpt lat="43.55787" lon="6.46267">
        <ele>549.3</ele>
        <time>2024-02-18T11:04:22.000Z</time>
      </trkpt>
      <trkpt lat="43.55787" lon="6.46267">
        <ele>549.3</ele>
        <time>2024-02-18T11:04:23.000Z</time>
      </trkpt>
      <trkpt lat="43.55787" lon="6.46267">
        <ele>549.2</ele>
        <time>2024-02-18T11:04:39.000Z</time>
      </trkpt>
      <trkpt lat="43.55787" lon="6.46268">
        <ele>549.2</ele>
        <time>2024-02-18T11:04:40.000Z</time>
      </trkpt>
      <trkpt lat="43.55787" lon="6.46269">
        <ele>549.2</ele>
        <time>2024-02-18T11:04:46.000Z</time>
      </trkpt>
      <trkpt lat="43.55787" lon="6.46269">
        <ele>549.2</ele>
        <time>2024-02-18T11:04:47.000Z</time>
      </trkpt>
      <trkpt lat="43.55787" lon="6.46269">
        <ele>549.2</ele>
        <time>2024-02-18T11:04:48.000Z</time>
      </trkpt>
      <trkpt lat="43.55786" lon="6.4627">
        <ele>549.1</ele>
        <time>2024-02-18T11:05:35.000Z</time>
      </trkpt>
      <trkpt lat="43.55785" lon="6.4627">
        <ele>549.1</ele>
        <time>2024-02-18T11:05:36.000Z</time>
      </trkpt>
      <trkpt lat="43.55774" lon="6.46271">
        <ele>549.3</ele>
        <time>2024-02-18T11:05:52.000Z</time>
      </trkpt>
      <trkpt lat="43.55765" lon="6.46273">
        <ele>549.3</ele>
        <time>2024-02-18T11:05:57.000Z</time>
      </trkpt>
      <trkpt lat="43.55757" lon="6.46281">
        <ele>549.3</ele>
        <time>2024-02-18T11:06:11.000Z</time>
      </trkpt>
      <trkpt lat="43.55749" lon="6.46275">
        <ele>549.7</ele>
        <time>2024-02-18T11:06:34.000Z</time>
      </trkpt>
      <trkpt lat="43.55741" lon="6.46268">
        <ele>551</ele>
        <time>2024-02-18T11:06:48.000Z</time>
      </trkpt>
      <trkpt lat="43.55733" lon="6.4626">
        <ele>552.2</ele>
        <time>2024-02-18T11:07:09.000Z</time>
      </trkpt>
      <trkpt lat="43.55726" lon="6.46251">
        <ele>553.2</ele>
        <time>2024-02-18T11:07:24.000Z</time>
      </trkpt>
      <trkpt lat="43.55722" lon="6.46251">
        <ele>553.4</ele>
        <time>2024-02-18T11:07:32.000Z</time>
      </trkpt>
      <trkpt lat="43.55722" lon="6.46251">
        <ele>553.4</ele>
        <time>2024-02-18T11:07:33.000Z</time>
      </trkpt>
      <trkpt lat="43.55722" lon="6.46251">
        <ele>553.3</ele>
        <time>2024-02-18T11:07:34.000Z</time>
      </trkpt>
      <trkpt lat="43.55722" lon="6.46251">
        <ele>553.3</ele>
        <time>2024-02-18T11:07:37.000Z</time>
      </trkpt>
      <trkpt lat="43.55722" lon="6.46251">
        <ele>553.3</ele>
        <time>2024-02-18T11:07:38.000Z</time>
      </trkpt>
      <trkpt lat="43.55721" lon="6.46251">
        <ele>553.3</ele>
        <time>2024-02-18T11:07:39.000Z</time>
      </trkpt>
      <trkpt lat="43.55721" lon="6.4625">
        <ele>553.3</ele>
        <time>2024-02-18T11:07:47.000Z</time>
      </trkpt>
      <trkpt lat="43.55721" lon="6.46249">
        <ele>553.3</ele>
        <time>2024-02-18T11:07:48.000Z</time>
      </trkpt>
      <trkpt lat="43.5572" lon="6.46249">
        <ele>553.3</ele>
        <time>2024-02-18T11:08:11.000Z</time>
      </trkpt>
      <trkpt lat="43.5572" lon="6.46248">
        <ele>553.4</ele>
        <time>2024-02-18T11:08:12.000Z</time>
      </trkpt>
      <trkpt lat="43.5572" lon="6.46248">
        <ele>553.4</ele>
        <time>2024-02-18T11:08:13.000Z</time>
      </trkpt>
      <trkpt lat="43.5571" lon="6.46245">
        <ele>553.1</ele>
        <time>2024-02-18T11:08:33.000Z</time>
      </trkpt>
      <trkpt lat="43.55703" lon="6.46247">
        <ele>551.7</ele>
        <time>2024-02-18T11:08:51.000Z</time>
      </trkpt>
      <trkpt lat="43.55703" lon="6.46247">
        <ele>551.7</ele>
        <time>2024-02-18T11:08:52.000Z</time>
      </trkpt>
      <trkpt lat="43.55703" lon="6.46247">
        <ele>551.6</ele>
        <time>2024-02-18T11:08:53.000Z</time>
      </trkpt>
      <trkpt lat="43.55701" lon="6.46244">
        <ele>551.2</ele>
        <time>2024-02-18T11:09:00.000Z</time>
      </trkpt>
      <trkpt lat="43.55701" lon="6.46244">
        <ele>551.2</ele>
        <time>2024-02-18T11:09:01.000Z</time>
      </trkpt>
      <trkpt lat="43.55691" lon="6.46246">
        <ele>550.5</ele>
        <time>2024-02-18T11:09:12.000Z</time>
      </trkpt>
      <trkpt lat="43.55682" lon="6.46249">
        <ele>548.9</ele>
        <time>2024-02-18T11:09:25.000Z</time>
      </trkpt>
      <trkpt lat="43.55673" lon="6.46249">
        <ele>547.2</ele>
        <time>2024-02-18T11:09:38.000Z</time>
      </trkpt>
      <trkpt lat="43.55663" lon="6.4625">
        <ele>545.8</ele>
        <time>2024-02-18T11:09:50.000Z</time>
      </trkpt>
      <trkpt lat="43.55662" lon="6.4625">
        <ele>544.5</ele>
        <time>2024-02-18T11:14:23.000Z</time>
      </trkpt>
      <trkpt lat="43.5567" lon="6.46246">
        <ele>544.6</ele>
        <time>2024-02-18T11:14:36.000Z</time>
      </trkpt>
      <trkpt lat="43.55679" lon="6.46241">
        <ele>545.6</ele>
        <time>2024-02-18T11:14:53.000Z</time>
      </trkpt>
      <trkpt lat="43.55681" lon="6.46241">
        <ele>546.5</ele>
        <time>2024-02-18T11:15:01.000Z</time>
      </trkpt>
      <trkpt lat="43.55684" lon="6.46245">
        <ele>554.7</ele>
        <time>2024-02-18T12:15:40.000Z</time>
      </trkpt>
      <trkpt lat="43.55683" lon="6.46246">
        <ele>554.8</ele>
        <time>2024-02-18T12:15:46.000Z</time>
      </trkpt>
      <trkpt lat="43.55683" lon="6.46247">
        <ele>554.7</ele>
        <time>2024-02-18T12:15:47.000Z</time>
      </trkpt>
      <trkpt lat="43.55683" lon="6.46248">
        <ele>554.8</ele>
        <time>2024-02-18T12:15:48.000Z</time>
      </trkpt>
      <trkpt lat="43.55683" lon="6.46248">
        <ele>554.8</ele>
        <time>2024-02-18T12:15:49.000Z</time>
      </trkpt>
      <trkpt lat="43.55684" lon="6.46249">
        <ele>554.8</ele>
        <time>2024-02-18T12:15:50.000Z</time>
      </trkpt>
      <trkpt lat="43.5569" lon="6.46252">
        <ele>555.6</ele>
        <time>2024-02-18T12:16:07.000Z</time>
      </trkpt>
      <trkpt lat="43.5569" lon="6.46252">
        <ele>555.7</ele>
        <time>2024-02-18T12:16:08.000Z</time>
      </trkpt>
      <trkpt lat="43.5569" lon="6.46252">
        <ele>555.7</ele>
        <time>2024-02-18T12:16:09.000Z</time>
      </trkpt>
      <trkpt lat="43.55691" lon="6.46253">
        <ele>556</ele>
        <time>2024-02-18T12:16:22.000Z</time>
      </trkpt>
      <trkpt lat="43.55692" lon="6.46253">
        <ele>556.1</ele>
        <time>2024-02-18T12:16:23.000Z</time>
      </trkpt>
      <trkpt lat="43.55701" lon="6.46255">
        <ele>556.9</ele>
        <time>2024-02-18T12:16:41.000Z</time>
      </trkpt>
      <trkpt lat="43.5571" lon="6.46257">
        <ele>558.3</ele>
        <time>2024-02-18T12:16:54.000Z</time>
      </trkpt>
      <trkpt lat="43.55719" lon="6.46255">
        <ele>559.8</ele>
        <time>2024-02-18T12:17:11.000Z</time>
      </trkpt>
      <trkpt lat="43.55728" lon="6.46258">
        <ele>561</ele>
        <time>2024-02-18T12:17:30.000Z</time>
      </trkpt>
      <trkpt lat="43.55729" lon="6.46259">
        <ele>561.2</ele>
        <time>2024-02-18T12:17:34.000Z</time>
      </trkpt>
      <trkpt lat="43.55729" lon="6.46259">
        <ele>561.2</ele>
        <time>2024-02-18T12:17:35.000Z</time>
      </trkpt>
      <trkpt lat="43.55729" lon="6.46259">
        <ele>561.2</ele>
        <time>2024-02-18T12:17:36.000Z</time>
      </trkpt>
      <trkpt lat="43.55729" lon="6.46258">
        <ele>561.4</ele>
        <time>2024-02-18T12:17:49.000Z</time>
      </trkpt>
      <trkpt lat="43.55729" lon="6.46258">
        <ele>561.4</ele>
        <time>2024-02-18T12:17:50.000Z</time>
      </trkpt>
      <trkpt lat="43.55729" lon="6.46258">
        <ele>561.4</ele>
        <time>2024-02-18T12:17:51.000Z</time>
      </trkpt>
      <trkpt lat="43.55729" lon="6.46258">
        <ele>561.4</ele>
        <time>2024-02-18T12:17:52.000Z</time>
      </trkpt>
      <trkpt lat="43.55729" lon="6.46258">
        <ele>561.4</ele>
        <time>2024-02-18T12:17:53.000Z</time>
      </trkpt>
      <trkpt lat="43.55729" lon="6.46257">
        <ele>561.4</ele>
        <time>2024-02-18T12:17:59.000Z</time>
      </trkpt>
      <trkpt lat="43.55729" lon="6.46257">
        <ele>561.4</ele>
        <time>2024-02-18T12:18:00.000Z</time>
      </trkpt>
      <trkpt lat="43.55729" lon="6.46257">
        <ele>561.5</ele>
        <time>2024-02-18T12:18:04.000Z</time>
      </trkpt>
      <trkpt lat="43.55729" lon="6.46257">
        <ele>561.5</ele>
        <time>2024-02-18T12:18:05.000Z</time>
      </trkpt>
      <trkpt lat="43.55729" lon="6.46257">
        <ele>561.5</ele>
        <time>2024-02-18T12:18:06.000Z</time>
      </trkpt>
      <trkpt lat="43.55729" lon="6.46257">
        <ele>561.5</ele>
        <time>2024-02-18T12:18:25.000Z</time>
      </trkpt>
      <trkpt lat="43.55729" lon="6.46257">
        <ele>561.5</ele>
        <time>2024-02-18T12:18:26.000Z</time>
      </trkpt>
      <trkpt lat="43.55729" lon="6.46257">
        <ele>561.5</ele>
        <time>2024-02-18T12:18:27.000Z</time>
      </trkpt>
      <trkpt lat="43.55729" lon="6.46257">
        <ele>561.5</ele>
        <time>2024-02-18T12:18:28.000Z</time>
      </trkpt>
      <trkpt lat="43.5573" lon="6.46258">
        <ele>561.5</ele>
        <time>2024-02-18T12:18:34.000Z</time>
      </trkpt>
      <trkpt lat="43.5573" lon="6.46258">
        <ele>561.5</ele>
        <time>2024-02-18T12:18:35.000Z</time>
      </trkpt>
      <trkpt lat="43.55731" lon="6.46258">
        <ele>561.5</ele>
        <time>2024-02-18T12:18:36.000Z</time>
      </trkpt>
      <trkpt lat="43.55737" lon="6.46268">
        <ele>561.4</ele>
        <time>2024-02-18T12:18:52.000Z</time>
      </trkpt>
      <trkpt lat="43.55745" lon="6.46275">
        <ele>560.7</ele>
        <time>2024-02-18T12:19:05.000Z</time>
      </trkpt>
      <trkpt lat="43.55753" lon="6.46279">
        <ele>559.2</ele>
        <time>2024-02-18T12:19:19.000Z</time>
      </trkpt>
      <trkpt lat="43.55753" lon="6.46282">
        <ele>557.9</ele>
        <time>2024-02-18T12:19:35.000Z</time>
      </trkpt>
      <trkpt lat="43.55752" lon="6.46282">
        <ele>557.9</ele>
        <time>2024-02-18T12:19:36.000Z</time>
      </trkpt>
      <trkpt lat="43.55751" lon="6.4628">
        <ele>557.7</ele>
        <time>2024-02-18T12:19:44.000Z</time>
      </trkpt>
      <trkpt lat="43.55751" lon="6.46281">
        <ele>557.7</ele>
        <time>2024-02-18T12:19:45.000Z</time>
      </trkpt>
      <trkpt lat="43.55751" lon="6.46284">
        <ele>557.7</ele>
        <time>2024-02-18T12:19:51.000Z</time>
      </trkpt>
      <trkpt lat="43.55751" lon="6.46285">
        <ele>557.7</ele>
        <time>2024-02-18T12:19:52.000Z</time>
      </trkpt>
      <trkpt lat="43.5575" lon="6.46285">
        <ele>557.7</ele>
        <time>2024-02-18T12:19:53.000Z</time>
      </trkpt>
      <trkpt lat="43.5575" lon="6.46286">
        <ele>557.7</ele>
        <time>2024-02-18T12:19:54.000Z</time>
      </trkpt>
      <trkpt lat="43.55749" lon="6.46287">
        <ele>557.7</ele>
        <time>2024-02-18T12:19:55.000Z</time>
      </trkpt>
      <trkpt lat="43.55748" lon="6.46287">
        <ele>557.6</ele>
        <time>2024-02-18T12:19:56.000Z</time>
      </trkpt>
      <trkpt lat="43.55742" lon="6.46296">
        <ele>557.4</ele>
        <time>2024-02-18T12:20:08.000Z</time>
      </trkpt>
      <trkpt lat="43.55738" lon="6.46308">
        <ele>556.7</ele>
        <time>2024-02-18T12:20:20.000Z</time>
      </trkpt>
      <trkpt lat="43.55736" lon="6.46321">
        <ele>555.1</ele>
        <time>2024-02-18T12:20:34.000Z</time>
      </trkpt>
      <trkpt lat="43.55736" lon="6.46322">
        <ele>554.5</ele>
        <time>2024-02-18T12:20:39.000Z</time>
      </trkpt>
      <trkpt lat="43.55736" lon="6.46322">
        <ele>554.4</ele>
        <time>2024-02-18T12:20:40.000Z</time>
      </trkpt>
      <trkpt lat="43.55736" lon="6.46323">
        <ele>554.3</ele>
        <time>2024-02-18T12:20:41.000Z</time>
      </trkpt>
      <trkpt lat="43.55736" lon="6.46324">
        <ele>554.2</ele>
        <time>2024-02-18T12:20:42.000Z</time>
      </trkpt>
      <trkpt lat="43.55736" lon="6.46325">
        <ele>554.2</ele>
        <time>2024-02-18T12:20:43.000Z</time>
      </trkpt>
      <trkpt lat="43.55734" lon="6.46338">
        <ele>553.1</ele>
        <time>2024-02-18T12:20:55.000Z</time>
      </trkpt>
      <trkpt lat="43.55732" lon="6.46351">
        <ele>551.9</ele>
        <time>2024-02-18T12:21:05.000Z</time>
      </trkpt>
      <trkpt lat="43.55731" lon="6.46364">
        <ele>550.4</ele>
        <time>2024-02-18T12:21:16.000Z</time>
      </trkpt>
      <trkpt lat="43.55731" lon="6.46377">
        <ele>548.9</ele>
        <time>2024-02-18T12:21:28.000Z</time>
      </trkpt>
      <trkpt lat="43.5573" lon="6.4639">
        <ele>547</ele>
        <time>2024-02-18T12:21:42.000Z</time>
      </trkpt>
      <trkpt lat="43.55722" lon="6.46397">
        <ele>545.4</ele>
        <time>2024-02-18T12:22:03.000Z</time>
      </trkpt>
      <trkpt lat="43.5572" lon="6.464">
        <ele>545.2</ele>
        <time>2024-02-18T12:22:09.000Z</time>
      </trkpt>
      <trkpt lat="43.55721" lon="6.464">
        <ele>545.2</ele>
        <time>2024-02-18T12:22:10.000Z</time>
      </trkpt>
      <trkpt lat="43.55722" lon="6.46401">
        <ele>545.2</ele>
        <time>2024-02-18T12:22:11.000Z</time>
      </trkpt>
      <trkpt lat="43.55722" lon="6.46401">
        <ele>545.2</ele>
        <time>2024-02-18T12:22:12.000Z</time>
      </trkpt>
      <trkpt lat="43.55721" lon="6.46401">
        <ele>545.2</ele>
        <time>2024-02-18T12:22:13.000Z</time>
      </trkpt>
      <trkpt lat="43.55721" lon="6.46414">
        <ele>544.1</ele>
        <time>2024-02-18T12:22:29.000Z</time>
      </trkpt>
      <trkpt lat="43.5573" lon="6.46417">
        <ele>542.6</ele>
        <time>2024-02-18T12:22:50.000Z</time>
      </trkpt>
      <trkpt lat="43.5574" lon="6.46417">
        <ele>542.5</ele>
        <time>2024-02-18T12:23:05.000Z</time>
      </trkpt>
      <trkpt lat="43.55748" lon="6.46425">
        <ele>542.4</ele>
        <time>2024-02-18T12:23:12.000Z</time>
      </trkpt>
      <trkpt lat="43.55755" lon="6.46434">
        <ele>541.7</ele>
        <time>2024-02-18T12:23:25.000Z</time>
      </trkpt>
      <trkpt lat="43.55758" lon="6.46445">
        <ele>540.2</ele>
        <time>2024-02-18T12:23:38.000Z</time>
      </trkpt>
      <trkpt lat="43.55766" lon="6.46453">
        <ele>539</ele>
        <time>2024-02-18T12:23:51.000Z</time>
      </trkpt>
      <trkpt lat="43.55762" lon="6.46464">
        <ele>537.9</ele>
        <time>2024-02-18T12:24:04.000Z</time>
      </trkpt>
      <trkpt lat="43.55753" lon="6.46465">
        <ele>536.8</ele>
        <time>2024-02-18T12:24:19.000Z</time>
      </trkpt>
      <trkpt lat="43.55743" lon="6.46464">
        <ele>536.4</ele>
        <time>2024-02-18T12:24:29.000Z</time>
      </trkpt>
      <trkpt lat="43.55734" lon="6.46464">
        <ele>536.1</ele>
        <time>2024-02-18T12:24:42.000Z</time>
      </trkpt>
      <trkpt lat="43.55729" lon="6.46474">
        <ele>534.3</ele>
        <time>2024-02-18T12:24:56.000Z</time>
      </trkpt>
      <trkpt lat="43.5572" lon="6.4648">
        <ele>531.8</ele>
        <time>2024-02-18T12:25:12.000Z</time>
      </trkpt>
      <trkpt lat="43.55714" lon="6.46491">
        <ele>530.3</ele>
        <time>2024-02-18T12:25:21.000Z</time>
      </trkpt>
      <trkpt lat="43.55713" lon="6.46504">
        <ele>529.2</ele>
        <time>2024-02-18T12:25:29.000Z</time>
      </trkpt>
      <trkpt lat="43.55718" lon="6.46516">
        <ele>528.1</ele>
        <time>2024-02-18T12:25:39.000Z</time>
      </trkpt>
      <trkpt lat="43.55717" lon="6.46529">
        <ele>526.3</ele>
        <time>2024-02-18T12:25:53.000Z</time>
      </trkpt>
      <trkpt lat="43.55714" lon="6.46542">
        <ele>524.7</ele>
        <time>2024-02-18T12:26:05.000Z</time>
      </trkpt>
      <trkpt lat="43.55708" lon="6.46551">
        <ele>523.6</ele>
        <time>2024-02-18T12:26:17.000Z</time>
      </trkpt>
      <trkpt lat="43.55701" lon="6.4656">
        <ele>522.9</ele>
        <time>2024-02-18T12:26:26.000Z</time>
      </trkpt>
      <trkpt lat="43.55693" lon="6.46567">
        <ele>522.1</ele>
        <time>2024-02-18T12:26:42.000Z</time>
      </trkpt>
      <trkpt lat="43.55689" lon="6.46568">
        <ele>521.6</ele>
        <time>2024-02-18T12:26:52.000Z</time>
      </trkpt>
      <trkpt lat="43.55689" lon="6.46568">
        <ele>521.5</ele>
        <time>2024-02-18T12:26:53.000Z</time>
      </trkpt>
      <trkpt lat="43.55689" lon="6.46569">
        <ele>521.5</ele>
        <time>2024-02-18T12:26:54.000Z</time>
      </trkpt>
      <trkpt lat="43.55688" lon="6.46569">
        <ele>521.5</ele>
        <time>2024-02-18T12:26:55.000Z</time>
      </trkpt>
      <trkpt lat="43.55687" lon="6.4657">
        <ele>521.5</ele>
        <time>2024-02-18T12:26:56.000Z</time>
      </trkpt>
      <trkpt lat="43.55677" lon="6.46569">
        <ele>521.1</ele>
        <time>2024-02-18T12:27:06.000Z</time>
      </trkpt>
      <trkpt lat="43.55668" lon="6.46571">
        <ele>521</ele>
        <time>2024-02-18T12:27:19.000Z</time>
      </trkpt>
      <trkpt lat="43.55666" lon="6.46571">
        <ele>520.9</ele>
        <time>2024-02-18T12:27:24.000Z</time>
      </trkpt>
      <trkpt lat="43.55666" lon="6.46571">
        <ele>520.9</ele>
        <time>2024-02-18T12:27:25.000Z</time>
      </trkpt>
      <trkpt lat="43.55666" lon="6.46572">
        <ele>520.8</ele>
        <time>2024-02-18T12:27:31.000Z</time>
      </trkpt>
      <trkpt lat="43.55666" lon="6.46572">
        <ele>520.8</ele>
        <time>2024-02-18T12:27:32.000Z</time>
      </trkpt>
      <trkpt lat="43.55666" lon="6.46572">
        <ele>520.8</ele>
        <time>2024-02-18T12:27:33.000Z</time>
      </trkpt>
      <trkpt lat="43.55657" lon="6.46576">
        <ele>520.7</ele>
        <time>2024-02-18T12:27:45.000Z</time>
      </trkpt>
      <trkpt lat="43.55657" lon="6.4658">
        <ele>520.6</ele>
        <time>2024-02-18T12:27:52.000Z</time>
      </trkpt>
      <trkpt lat="43.55657" lon="6.4658">
        <ele>520.6</ele>
        <time>2024-02-18T12:27:53.000Z</time>
      </trkpt>
      <trkpt lat="43.55657" lon="6.4658">
        <ele>520.6</ele>
        <time>2024-02-18T12:27:54.000Z</time>
      </trkpt>
      <trkpt lat="43.55657" lon="6.4658">
        <ele>520.6</ele>
        <time>2024-02-18T12:28:00.000Z</time>
      </trkpt>
      <trkpt lat="43.55657" lon="6.46579">
        <ele>520.5</ele>
        <time>2024-02-18T12:28:01.000Z</time>
      </trkpt>
      <trkpt lat="43.55657" lon="6.4658">
        <ele>520.5</ele>
        <time>2024-02-18T12:28:07.000Z</time>
      </trkpt>
      <trkpt lat="43.55657" lon="6.4658">
        <ele>520.5</ele>
        <time>2024-02-18T12:28:08.000Z</time>
      </trkpt>
      <trkpt lat="43.55657" lon="6.4658">
        <ele>520.5</ele>
        <time>2024-02-18T12:28:09.000Z</time>
      </trkpt>
      <trkpt lat="43.55657" lon="6.46581">
        <ele>520.5</ele>
        <time>2024-02-18T12:28:10.000Z</time>
      </trkpt>
      <trkpt lat="43.55657" lon="6.46581">
        <ele>520.5</ele>
        <time>2024-02-18T12:28:11.000Z</time>
      </trkpt>
      <trkpt lat="43.55657" lon="6.46581">
        <ele>520.5</ele>
        <time>2024-02-18T12:28:12.000Z</time>
      </trkpt>
      <trkpt lat="43.55657" lon="6.46581">
        <ele>520.5</ele>
        <time>2024-02-18T12:28:13.000Z</time>
      </trkpt>
      <trkpt lat="43.55657" lon="6.46581">
        <ele>520.5</ele>
        <time>2024-02-18T12:28:14.000Z</time>
      </trkpt>
      <trkpt lat="43.55657" lon="6.46582">
        <ele>520.5</ele>
        <time>2024-02-18T12:28:17.000Z</time>
      </trkpt>
      <trkpt lat="43.55657" lon="6.46582">
        <ele>520.5</ele>
        <time>2024-02-18T12:28:18.000Z</time>
      </trkpt>
      <trkpt lat="43.5566" lon="6.46595">
        <ele>520.5</ele>
        <time>2024-02-18T12:28:27.000Z</time>
      </trkpt>
      <trkpt lat="43.55668" lon="6.46601">
        <ele>520.6</ele>
        <time>2024-02-18T12:28:36.000Z</time>
      </trkpt>
      <trkpt lat="43.55675" lon="6.4661">
        <ele>520.8</ele>
        <time>2024-02-18T12:28:48.000Z</time>
      </trkpt>
      <trkpt lat="43.55681" lon="6.46618">
        <ele>521.1</ele>
        <time>2024-02-18T12:28:58.000Z</time>
      </trkpt>
      <trkpt lat="43.55687" lon="6.46627">
        <ele>521.4</ele>
        <time>2024-02-18T12:29:08.000Z</time>
      </trkpt>
      <trkpt lat="43.55695" lon="6.46636">
        <ele>521.6</ele>
        <time>2024-02-18T12:29:17.000Z</time>
      </trkpt>
      <trkpt lat="43.55701" lon="6.46645">
        <ele>521.7</ele>
        <time>2024-02-18T12:29:27.000Z</time>
      </trkpt>
      <trkpt lat="43.55707" lon="6.46655">
        <ele>521.7</ele>
        <time>2024-02-18T12:29:36.000Z</time>
      </trkpt>
      <trkpt lat="43.55717" lon="6.4666">
        <ele>521.6</ele>
        <time>2024-02-18T12:29:44.000Z</time>
      </trkpt>
      <trkpt lat="43.55724" lon="6.46668">
        <ele>521.5</ele>
        <time>2024-02-18T12:29:53.000Z</time>
      </trkpt>
      <trkpt lat="43.55732" lon="6.46676">
        <ele>521.2</ele>
        <time>2024-02-18T12:30:03.000Z</time>
      </trkpt>
      <trkpt lat="43.5574" lon="6.46682">
        <ele>520.6</ele>
        <time>2024-02-18T12:30:13.000Z</time>
      </trkpt>
      <trkpt lat="43.5575" lon="6.46685">
        <ele>519.8</ele>
        <time>2024-02-18T12:30:22.000Z</time>
      </trkpt>
      <trkpt lat="43.5576" lon="6.46685">
        <ele>519.1</ele>
        <time>2024-02-18T12:30:29.000Z</time>
      </trkpt>
      <trkpt lat="43.55769" lon="6.46683">
        <ele>518.4</ele>
        <time>2024-02-18T12:30:37.000Z</time>
      </trkpt>
      <trkpt lat="43.55778" lon="6.46681">
        <ele>517.7</ele>
        <time>2024-02-18T12:30:47.000Z</time>
      </trkpt>
      <trkpt lat="43.55788" lon="6.4668">
        <ele>517.3</ele>
        <time>2024-02-18T12:30:55.000Z</time>
      </trkpt>
      <trkpt lat="43.55798" lon="6.46676">
        <ele>517</ele>
        <time>2024-02-18T12:31:04.000Z</time>
      </trkpt>
      <trkpt lat="43.55808" lon="6.46674">
        <ele>516.5</ele>
        <time>2024-02-18T12:31:12.000Z</time>
      </trkpt>
      <trkpt lat="43.55818" lon="6.46672">
        <ele>516.2</ele>
        <time>2024-02-18T12:31:19.000Z</time>
      </trkpt>
      <trkpt lat="43.55827" lon="6.46668">
        <ele>515.8</ele>
        <time>2024-02-18T12:31:27.000Z</time>
      </trkpt>
      <trkpt lat="43.55836" lon="6.46664">
        <ele>515.4</ele>
        <time>2024-02-18T12:31:35.000Z</time>
      </trkpt>
      <trkpt lat="43.55845" lon="6.46662">
        <ele>514.9</ele>
        <time>2024-02-18T12:31:43.000Z</time>
      </trkpt>
      <trkpt lat="43.55855" lon="6.4666">
        <ele>514.4</ele>
        <time>2024-02-18T12:31:52.000Z</time>
      </trkpt>
      <trkpt lat="43.55864" lon="6.46657">
        <ele>514</ele>
        <time>2024-02-18T12:32:01.000Z</time>
      </trkpt>
      <trkpt lat="43.55863" lon="6.46656">
        <ele>513.7</ele>
        <time>2024-02-18T12:32:05.000Z</time>
      </trkpt>
      <trkpt lat="43.55863" lon="6.46655">
        <ele>513.7</ele>
        <time>2024-02-18T12:32:06.000Z</time>
      </trkpt>
      <trkpt lat="43.55864" lon="6.46655">
        <ele>513.6</ele>
        <time>2024-02-18T12:32:07.000Z</time>
      </trkpt>
      <trkpt lat="43.55865" lon="6.46655">
        <ele>513.6</ele>
        <time>2024-02-18T12:32:08.000Z</time>
      </trkpt>
      <trkpt lat="43.55867" lon="6.46655">
        <ele>513.6</ele>
        <time>2024-02-18T12:32:09.000Z</time>
      </trkpt>
      <trkpt lat="43.55876" lon="6.46655">
        <ele>513.4</ele>
        <time>2024-02-18T12:32:16.000Z</time>
      </trkpt>
      <trkpt lat="43.55885" lon="6.46653">
        <ele>513.1</ele>
        <time>2024-02-18T12:32:25.000Z</time>
      </trkpt>
      <trkpt lat="43.55895" lon="6.46651">
        <ele>512.7</ele>
        <time>2024-02-18T12:32:32.000Z</time>
      </trkpt>
      <trkpt lat="43.55904" lon="6.46649">
        <ele>512.2</ele>
        <time>2024-02-18T12:32:45.000Z</time>
      </trkpt>
      <trkpt lat="43.55913" lon="6.46644">
        <ele>511.7</ele>
        <time>2024-02-18T12:32:54.000Z</time>
      </trkpt>
      <trkpt lat="43.55922" lon="6.4664">
        <ele>511.2</ele>
        <time>2024-02-18T12:33:03.000Z</time>
      </trkpt>
      <trkpt lat="43.55932" lon="6.46638">
        <ele>510.9</ele>
        <time>2024-02-18T12:33:07.000Z</time>
      </trkpt>
      <trkpt lat="43.55942" lon="6.46635">
        <ele>510.6</ele>
        <time>2024-02-18T12:33:14.000Z</time>
      </trkpt>
      <trkpt lat="43.55942" lon="6.46634">
        <ele>510.4</ele>
        <time>2024-02-18T12:33:17.000Z</time>
      </trkpt>
      <trkpt lat="43.55942" lon="6.46633">
        <ele>510.4</ele>
        <time>2024-02-18T12:33:18.000Z</time>
      </trkpt>
      <trkpt lat="43.55943" lon="6.46633">
        <ele>510.4</ele>
        <time>2024-02-18T12:33:19.000Z</time>
      </trkpt>
      <trkpt lat="43.55942" lon="6.46632">
        <ele>510.3</ele>
        <time>2024-02-18T12:33:20.000Z</time>
      </trkpt>
      <trkpt lat="43.55952" lon="6.46625">
        <ele>509.8</ele>
        <time>2024-02-18T12:33:36.000Z</time>
      </trkpt>
      <trkpt lat="43.55962" lon="6.46625">
        <ele>509.6</ele>
        <time>2024-02-18T12:33:45.000Z</time>
      </trkpt>
      <trkpt lat="43.55971" lon="6.46624">
        <ele>509.5</ele>
        <time>2024-02-18T12:33:53.000Z</time>
      </trkpt>
      <trkpt lat="43.55981" lon="6.46619">
        <ele>509.2</ele>
        <time>2024-02-18T12:34:05.000Z</time>
      </trkpt>
      <trkpt lat="43.55989" lon="6.46612">
        <ele>509.1</ele>
        <time>2024-02-18T12:34:13.000Z</time>
      </trkpt>
      <trkpt lat="43.55997" lon="6.46602">
        <ele>509</ele>
        <time>2024-02-18T12:34:22.000Z</time>
      </trkpt>
      <trkpt lat="43.56003" lon="6.46593">
        <ele>508.8</ele>
        <time>2024-02-18T12:34:31.000Z</time>
      </trkpt>
      <trkpt lat="43.5601" lon="6.46583">
        <ele>508.7</ele>
        <time>2024-02-18T12:34:39.000Z</time>
      </trkpt>
      <trkpt lat="43.56016" lon="6.46574">
        <ele>508.4</ele>
        <time>2024-02-18T12:34:49.000Z</time>
      </trkpt>
      <trkpt lat="43.56024" lon="6.46566">
        <ele>508.2</ele>
        <time>2024-02-18T12:34:56.000Z</time>
      </trkpt>
      <trkpt lat="43.5603" lon="6.46557">
        <ele>508</ele>
        <time>2024-02-18T12:35:06.000Z</time>
      </trkpt>
      <trkpt lat="43.56038" lon="6.46549">
        <ele>507.8</ele>
        <time>2024-02-18T12:35:14.000Z</time>
      </trkpt>
      <trkpt lat="43.56046" lon="6.46542">
        <ele>507.7</ele>
        <time>2024-02-18T12:35:23.000Z</time>
      </trkpt>
      <trkpt lat="43.56055" lon="6.46537">
        <ele>507.7</ele>
        <time>2024-02-18T12:35:36.000Z</time>
      </trkpt>
      <trkpt lat="43.56064" lon="6.46539">
        <ele>507.8</ele>
        <time>2024-02-18T12:35:49.000Z</time>
      </trkpt>
      <trkpt lat="43.56073" lon="6.46545">
        <ele>508</ele>
        <time>2024-02-18T12:36:00.000Z</time>
      </trkpt>
      <trkpt lat="43.5608" lon="6.46553">
        <ele>508.8</ele>
        <time>2024-02-18T12:36:12.000Z</time>
      </trkpt>
      <trkpt lat="43.56085" lon="6.46564">
        <ele>510.5</ele>
        <time>2024-02-18T12:36:24.000Z</time>
      </trkpt>
      <trkpt lat="43.56093" lon="6.46572">
        <ele>511.6</ele>
        <time>2024-02-18T12:36:35.000Z</time>
      </trkpt>
      <trkpt lat="43.56101" lon="6.46579">
        <ele>512.4</ele>
        <time>2024-02-18T12:36:43.000Z</time>
      </trkpt>
      <trkpt lat="43.56109" lon="6.46587">
        <ele>513.5</ele>
        <time>2024-02-18T12:36:54.000Z</time>
      </trkpt>
      <trkpt lat="43.56116" lon="6.46594">
        <ele>514</ele>
        <time>2024-02-18T12:37:02.000Z</time>
      </trkpt>
      <trkpt lat="43.56125" lon="6.46603">
        <ele>514.6</ele>
        <time>2024-02-18T12:37:12.000Z</time>
      </trkpt>
      <trkpt lat="43.56133" lon="6.46606">
        <ele>514.7</ele>
        <time>2024-02-18T12:37:19.000Z</time>
      </trkpt>
      <trkpt lat="43.56142" lon="6.46612">
        <ele>515.1</ele>
        <time>2024-02-18T12:37:28.000Z</time>
      </trkpt>
      <trkpt lat="43.56145" lon="6.46615">
        <ele>515.4</ele>
        <time>2024-02-18T12:37:34.000Z</time>
      </trkpt>
      <trkpt lat="43.56145" lon="6.46615">
        <ele>515.4</ele>
        <time>2024-02-18T12:37:35.000Z</time>
      </trkpt>
      <trkpt lat="43.56144" lon="6.46615">
        <ele>515.4</ele>
        <time>2024-02-18T12:37:36.000Z</time>
      </trkpt>
      <trkpt lat="43.56144" lon="6.46614">
        <ele>515.4</ele>
        <time>2024-02-18T12:37:37.000Z</time>
      </trkpt>
      <trkpt lat="43.56145" lon="6.46614">
        <ele>515.4</ele>
        <time>2024-02-18T12:37:38.000Z</time>
      </trkpt>
      <trkpt lat="43.56144" lon="6.46614">
        <ele>515.5</ele>
        <time>2024-02-18T12:37:41.000Z</time>
      </trkpt>
      <trkpt lat="43.56144" lon="6.46614">
        <ele>515.5</ele>
        <time>2024-02-18T12:37:42.000Z</time>
      </trkpt>
      <trkpt lat="43.56143" lon="6.46615">
        <ele>515.6</ele>
        <time>2024-02-18T12:37:43.000Z</time>
      </trkpt>
      <trkpt lat="43.56143" lon="6.46615">
        <ele>515.6</ele>
        <time>2024-02-18T12:37:44.000Z</time>
      </trkpt>
      <trkpt lat="43.56143" lon="6.46615">
        <ele>515.6</ele>
        <time>2024-02-18T12:37:45.000Z</time>
      </trkpt>
      <trkpt lat="43.56143" lon="6.46616">
        <ele>515.6</ele>
        <time>2024-02-18T12:37:49.000Z</time>
      </trkpt>
      <trkpt lat="43.56143" lon="6.46616">
        <ele>515.6</ele>
        <time>2024-02-18T12:37:50.000Z</time>
      </trkpt>
      <trkpt lat="43.56142" lon="6.46617">
        <ele>515.6</ele>
        <time>2024-02-18T12:37:54.000Z</time>
      </trkpt>
      <trkpt lat="43.56142" lon="6.46619">
        <ele>515.6</ele>
        <time>2024-02-18T12:37:55.000Z</time>
      </trkpt>
      <trkpt lat="43.56143" lon="6.46627">
        <ele>515.7</ele>
        <time>2024-02-18T12:38:04.000Z</time>
      </trkpt>
      <trkpt lat="43.56143" lon="6.46627">
        <ele>515.7</ele>
        <time>2024-02-18T12:38:05.000Z</time>
      </trkpt>
      <trkpt lat="43.56145" lon="6.46626">
        <ele>515.8</ele>
        <time>2024-02-18T12:38:39.000Z</time>
      </trkpt>
      <trkpt lat="43.56145" lon="6.46625">
        <ele>515.8</ele>
        <time>2024-02-18T12:38:40.000Z</time>
      </trkpt>
      <trkpt lat="43.56145" lon="6.46624">
        <ele>515.8</ele>
        <time>2024-02-18T12:38:41.000Z</time>
      </trkpt>
      <trkpt lat="43.56145" lon="6.46624">
        <ele>515.7</ele>
        <time>2024-02-18T12:38:47.000Z</time>
      </trkpt>
      <trkpt lat="43.56145" lon="6.46624">
        <ele>515.7</ele>
        <time>2024-02-18T12:38:48.000Z</time>
      </trkpt>
      <trkpt lat="43.56146" lon="6.46623">
        <ele>515.3</ele>
        <time>2024-02-18T12:40:12.000Z</time>
      </trkpt>
      <trkpt lat="43.56146" lon="6.46623">
        <ele>515.3</ele>
        <time>2024-02-18T12:40:13.000Z</time>
      </trkpt>
      <trkpt lat="43.56146" lon="6.46623">
        <ele>515.3</ele>
        <time>2024-02-18T12:40:17.000Z</time>
      </trkpt>
      <trkpt lat="43.56146" lon="6.46623">
        <ele>515.3</ele>
        <time>2024-02-18T12:40:18.000Z</time>
      </trkpt>
      <trkpt lat="43.56146" lon="6.46623">
        <ele>515.3</ele>
        <time>2024-02-18T12:40:19.000Z</time>
      </trkpt>
      <trkpt lat="43.56146" lon="6.46623">
        <ele>515.1</ele>
        <time>2024-02-18T12:40:39.000Z</time>
      </trkpt>
      <trkpt lat="43.56145" lon="6.46624">
        <ele>515.1</ele>
        <time>2024-02-18T12:40:40.000Z</time>
      </trkpt>
      <trkpt lat="43.56145" lon="6.46624">
        <ele>515.1</ele>
        <time>2024-02-18T12:40:41.000Z</time>
      </trkpt>
      <trkpt lat="43.56145" lon="6.46624">
        <ele>515</ele>
        <time>2024-02-18T12:40:42.000Z</time>
      </trkpt>
      <trkpt lat="43.56145" lon="6.46624">
        <ele>515</ele>
        <time>2024-02-18T12:40:43.000Z</time>
      </trkpt>
      <trkpt lat="43.56144" lon="6.46624">
        <ele>515</ele>
        <time>2024-02-18T12:40:44.000Z</time>
      </trkpt>
      <trkpt lat="43.56145" lon="6.46624">
        <ele>514.6</ele>
        <time>2024-02-18T12:41:29.000Z</time>
      </trkpt>
      <trkpt lat="43.56146" lon="6.46624">
        <ele>514.6</ele>
        <time>2024-02-18T12:41:30.000Z</time>
      </trkpt>
      <trkpt lat="43.56146" lon="6.46624">
        <ele>514.6</ele>
        <time>2024-02-18T12:41:31.000Z</time>
      </trkpt>
      <trkpt lat="43.56147" lon="6.46621">
        <ele>514.6</ele>
        <time>2024-02-18T12:41:37.000Z</time>
      </trkpt>
      <trkpt lat="43.56147" lon="6.46621">
        <ele>514.6</ele>
        <time>2024-02-18T12:41:38.000Z</time>
      </trkpt>
      <trkpt lat="43.56148" lon="6.4662">
        <ele>514.5</ele>
        <time>2024-02-18T12:41:42.000Z</time>
      </trkpt>
      <trkpt lat="43.56148" lon="6.4662">
        <ele>514.5</ele>
        <time>2024-02-18T12:41:43.000Z</time>
      </trkpt>
      <trkpt lat="43.56147" lon="6.46619">
        <ele>514.5</ele>
        <time>2024-02-18T12:41:44.000Z</time>
      </trkpt>
      <trkpt lat="43.56147" lon="6.46619">
        <ele>514.5</ele>
        <time>2024-02-18T12:41:47.000Z</time>
      </trkpt>
      <trkpt lat="43.56147" lon="6.46619">
        <ele>514.5</ele>
        <time>2024-02-18T12:41:48.000Z</time>
      </trkpt>
      <trkpt lat="43.56146" lon="6.46619">
        <ele>514.3</ele>
        <time>2024-02-18T12:42:05.000Z</time>
      </trkpt>
      <trkpt lat="43.56145" lon="6.46618">
        <ele>514.3</ele>
        <time>2024-02-18T12:42:06.000Z</time>
      </trkpt>
      <trkpt lat="43.56154" lon="6.46611">
        <ele>514.2</ele>
        <time>2024-02-18T12:42:17.000Z</time>
      </trkpt>
      <trkpt lat="43.56163" lon="6.4661">
        <ele>514.4</ele>
        <time>2024-02-18T12:42:30.000Z</time>
      </trkpt>
      <trkpt lat="43.56172" lon="6.46606">
        <ele>514.5</ele>
        <time>2024-02-18T12:42:38.000Z</time>
      </trkpt>
      <trkpt lat="43.56181" lon="6.46601">
        <ele>514.3</ele>
        <time>2024-02-18T12:42:49.000Z</time>
      </trkpt>
      <trkpt lat="43.56181" lon="6.46588">
        <ele>514.1</ele>
        <time>2024-02-18T12:42:56.000Z</time>
      </trkpt>
      <trkpt lat="43.56191" lon="6.46583">
        <ele>513.7</ele>
        <time>2024-02-18T12:43:03.000Z</time>
      </trkpt>
      <trkpt lat="43.56199" lon="6.46575">
        <ele>513.2</ele>
        <time>2024-02-18T12:43:11.000Z</time>
      </trkpt>
      <trkpt lat="43.56207" lon="6.4657">
        <ele>512.8</ele>
        <time>2024-02-18T12:43:19.000Z</time>
      </trkpt>
      <trkpt lat="43.56215" lon="6.46565">
        <ele>512.6</ele>
        <time>2024-02-18T12:43:26.000Z</time>
      </trkpt>
      <trkpt lat="43.56223" lon="6.46556">
        <ele>512.2</ele>
        <time>2024-02-18T12:43:37.000Z</time>
      </trkpt>
      <trkpt lat="43.56231" lon="6.46548">
        <ele>511.9</ele>
        <time>2024-02-18T12:43:44.000Z</time>
      </trkpt>
      <trkpt lat="43.56238" lon="6.46541">
        <ele>511.6</ele>
        <time>2024-02-18T12:43:52.000Z</time>
      </trkpt>
      <trkpt lat="43.56247" lon="6.46536">
        <ele>511.3</ele>
        <time>2024-02-18T12:43:59.000Z</time>
      </trkpt>
      <trkpt lat="43.56255" lon="6.46531">
        <ele>511.1</ele>
        <time>2024-02-18T12:44:05.000Z</time>
      </trkpt>
      <trkpt lat="43.56263" lon="6.46524">
        <ele>510.9</ele>
        <time>2024-02-18T12:44:13.000Z</time>
      </trkpt>
      <trkpt lat="43.56272" lon="6.46518">
        <ele>510.8</ele>
        <time>2024-02-18T12:44:26.000Z</time>
      </trkpt>
      <trkpt lat="43.56282" lon="6.46513">
        <ele>510.9</ele>
        <time>2024-02-18T12:44:35.000Z</time>
      </trkpt>
      <trkpt lat="43.56291" lon="6.46509">
        <ele>511</ele>
        <time>2024-02-18T12:44:44.000Z</time>
      </trkpt>
      <trkpt lat="43.56301" lon="6.46507">
        <ele>511.5</ele>
        <time>2024-02-18T12:44:54.000Z</time>
      </trkpt>
      <trkpt lat="43.56311" lon="6.46507">
        <ele>512.1</ele>
        <time>2024-02-18T12:45:06.000Z</time>
      </trkpt>
      <trkpt lat="43.5632" lon="6.46505">
        <ele>512.9</ele>
        <time>2024-02-18T12:45:15.000Z</time>
      </trkpt>
      <trkpt lat="43.5633" lon="6.46506">
        <ele>514.2</ele>
        <time>2024-02-18T12:45:28.000Z</time>
      </trkpt>
      <trkpt lat="43.56339" lon="6.46509">
        <ele>514.7</ele>
        <time>2024-02-18T12:45:37.000Z</time>
      </trkpt>
      <trkpt lat="43.56348" lon="6.46506">
        <ele>515.3</ele>
        <time>2024-02-18T12:45:47.000Z</time>
      </trkpt>
      <trkpt lat="43.56357" lon="6.46507">
        <ele>515.8</ele>
        <time>2024-02-18T12:45:57.000Z</time>
      </trkpt>
      <trkpt lat="43.56366" lon="6.46504">
        <ele>516.2</ele>
        <time>2024-02-18T12:46:04.000Z</time>
      </trkpt>
      <trkpt lat="43.56375" lon="6.465">
        <ele>516.5</ele>
        <time>2024-02-18T12:46:10.000Z</time>
      </trkpt>
      <trkpt lat="43.56383" lon="6.46489">
        <ele>516.7</ele>
        <time>2024-02-18T12:46:16.000Z</time>
      </trkpt>
      <trkpt lat="43.56386" lon="6.46477">
        <ele>517.1</ele>
        <time>2024-02-18T12:46:26.000Z</time>
      </trkpt>
      <trkpt lat="43.56389" lon="6.46465">
        <ele>517.6</ele>
        <time>2024-02-18T12:46:35.000Z</time>
      </trkpt>
      <trkpt lat="43.56395" lon="6.46454">
        <ele>518.2</ele>
        <time>2024-02-18T12:46:45.000Z</time>
      </trkpt>
      <trkpt lat="43.56397" lon="6.4644">
        <ele>519</ele>
        <time>2024-02-18T12:46:55.000Z</time>
      </trkpt>
      <trkpt lat="43.56405" lon="6.46432">
        <ele>519.8</ele>
        <time>2024-02-18T12:47:06.000Z</time>
      </trkpt>
      <trkpt lat="43.56414" lon="6.46425">
        <ele>520.7</ele>
        <time>2024-02-18T12:47:16.000Z</time>
      </trkpt>
      <trkpt lat="43.56422" lon="6.46421">
        <ele>521.3</ele>
        <time>2024-02-18T12:47:29.000Z</time>
      </trkpt>
      <trkpt lat="43.56431" lon="6.46414">
        <ele>521.5</ele>
        <time>2024-02-18T12:47:39.000Z</time>
      </trkpt>
      <trkpt lat="43.56439" lon="6.46407">
        <ele>521.5</ele>
        <time>2024-02-18T12:47:45.000Z</time>
      </trkpt>
      <trkpt lat="43.56447" lon="6.46401">
        <ele>521.6</ele>
        <time>2024-02-18T12:47:52.000Z</time>
      </trkpt>
      <trkpt lat="43.56454" lon="6.46393">
        <ele>521.6</ele>
        <time>2024-02-18T12:48:00.000Z</time>
      </trkpt>
      <trkpt lat="43.56461" lon="6.46383">
        <ele>521.8</ele>
        <time>2024-02-18T12:48:08.000Z</time>
      </trkpt>
      <trkpt lat="43.56468" lon="6.46375">
        <ele>521.9</ele>
        <time>2024-02-18T12:48:15.000Z</time>
      </trkpt>
      <trkpt lat="43.56469" lon="6.46361">
        <ele>522.3</ele>
        <time>2024-02-18T12:48:24.000Z</time>
      </trkpt>
      <trkpt lat="43.56474" lon="6.4635">
        <ele>522.9</ele>
        <time>2024-02-18T12:48:35.000Z</time>
      </trkpt>
      <trkpt lat="43.56481" lon="6.46341">
        <ele>524.4</ele>
        <time>2024-02-18T12:48:50.000Z</time>
      </trkpt>
      <trkpt lat="43.56489" lon="6.46336">
        <ele>525.6</ele>
        <time>2024-02-18T12:49:02.000Z</time>
      </trkpt>
      <trkpt lat="43.56497" lon="6.46329">
        <ele>527.4</ele>
        <time>2024-02-18T12:49:17.000Z</time>
      </trkpt>
      <trkpt lat="43.56508" lon="6.46327">
        <ele>528.1</ele>
        <time>2024-02-18T12:49:24.000Z</time>
      </trkpt>
      <trkpt lat="43.56516" lon="6.4632">
        <ele>529.2</ele>
        <time>2024-02-18T12:49:33.000Z</time>
      </trkpt>
      <trkpt lat="43.56526" lon="6.46317">
        <ele>530.3</ele>
        <time>2024-02-18T12:49:43.000Z</time>
      </trkpt>
      <trkpt lat="43.56537" lon="6.46316">
        <ele>531.4</ele>
        <time>2024-02-18T12:49:53.000Z</time>
      </trkpt>
      <trkpt lat="43.56545" lon="6.46307">
        <ele>532.6</ele>
        <time>2024-02-18T12:50:05.000Z</time>
      </trkpt>
      <trkpt lat="43.56555" lon="6.46305">
        <ele>533.7</ele>
        <time>2024-02-18T12:50:16.000Z</time>
      </trkpt>
      <trkpt lat="43.56564" lon="6.46303">
        <ele>534.3</ele>
        <time>2024-02-18T12:50:25.000Z</time>
      </trkpt>
      <trkpt lat="43.56573" lon="6.46299">
        <ele>535</ele>
        <time>2024-02-18T12:50:34.000Z</time>
      </trkpt>
      <trkpt lat="43.56583" lon="6.46297">
        <ele>535.6</ele>
        <time>2024-02-18T12:50:45.000Z</time>
      </trkpt>
      <trkpt lat="43.56592" lon="6.46296">
        <ele>535.5</ele>
        <time>2024-02-18T12:50:54.000Z</time>
      </trkpt>
      <trkpt lat="43.56601" lon="6.46296">
        <ele>535.2</ele>
        <time>2024-02-18T12:51:05.000Z</time>
      </trkpt>
      <trkpt lat="43.5661" lon="6.46297">
        <ele>534.7</ele>
        <time>2024-02-18T12:51:15.000Z</time>
      </trkpt>
      <trkpt lat="43.56619" lon="6.46298">
        <ele>534.2</ele>
        <time>2024-02-18T12:51:23.000Z</time>
      </trkpt>
      <trkpt lat="43.56628" lon="6.46305">
        <ele>533.3</ele>
        <time>2024-02-18T12:51:33.000Z</time>
      </trkpt>
      <trkpt lat="43.56637" lon="6.46301">
        <ele>532.4</ele>
        <time>2024-02-18T12:51:42.000Z</time>
      </trkpt>
      <trkpt lat="43.56637" lon="6.46293">
        <ele>530.7</ele>
        <time>2024-02-18T12:51:57.000Z</time>
      </trkpt>
      <trkpt lat="43.56637" lon="6.46293">
        <ele>530.7</ele>
        <time>2024-02-18T12:51:58.000Z</time>
      </trkpt>
      <trkpt lat="43.56638" lon="6.46292">
        <ele>530.4</ele>
        <time>2024-02-18T12:52:14.000Z</time>
      </trkpt>
      <trkpt lat="43.56638" lon="6.46293">
        <ele>530.4</ele>
        <time>2024-02-18T12:52:15.000Z</time>
      </trkpt>
      <trkpt lat="43.56639" lon="6.46293">
        <ele>530.4</ele>
        <time>2024-02-18T12:52:16.000Z</time>
      </trkpt>
      <trkpt lat="43.5664" lon="6.46294">
        <ele>530.3</ele>
        <time>2024-02-18T12:52:19.000Z</time>
      </trkpt>
      <trkpt lat="43.5664" lon="6.46294">
        <ele>530.3</ele>
        <time>2024-02-18T12:52:20.000Z</time>
      </trkpt>
      <trkpt lat="43.5664" lon="6.46294">
        <ele>530.3</ele>
        <time>2024-02-18T12:52:21.000Z</time>
      </trkpt>
      <trkpt lat="43.56641" lon="6.46294">
        <ele>530.3</ele>
        <time>2024-02-18T12:52:29.000Z</time>
      </trkpt>
      <trkpt lat="43.56641" lon="6.46293">
        <ele>530.2</ele>
        <time>2024-02-18T12:52:30.000Z</time>
      </trkpt>
      <trkpt lat="43.56642" lon="6.46292">
        <ele>530.2</ele>
        <time>2024-02-18T12:52:31.000Z</time>
      </trkpt>
      <trkpt lat="43.56647" lon="6.4628">
        <ele>529.9</ele>
        <time>2024-02-18T12:52:40.000Z</time>
      </trkpt>
      <trkpt lat="43.56652" lon="6.46269">
        <ele>528.6</ele>
        <time>2024-02-18T12:52:51.000Z</time>
      </trkpt>
      <trkpt lat="43.56662" lon="6.46266">
        <ele>526.6</ele>
        <time>2024-02-18T12:53:04.000Z</time>
      </trkpt>
      <trkpt lat="43.56671" lon="6.46262">
        <ele>525.4</ele>
        <time>2024-02-18T12:53:14.000Z</time>
      </trkpt>
      <trkpt lat="43.56679" lon="6.46255">
        <ele>523.7</ele>
        <time>2024-02-18T12:53:25.000Z</time>
      </trkpt>
      <trkpt lat="43.56687" lon="6.4625">
        <ele>522.3</ele>
        <time>2024-02-18T12:53:36.000Z</time>
      </trkpt>
      <trkpt lat="43.56696" lon="6.46247">
        <ele>521.4</ele>
        <time>2024-02-18T12:53:44.000Z</time>
      </trkpt>
      <trkpt lat="43.56705" lon="6.46242">
        <ele>520.3</ele>
        <time>2024-02-18T12:53:54.000Z</time>
      </trkpt>
      <trkpt lat="43.56714" lon="6.46237">
        <ele>519.9</ele>
        <time>2024-02-18T12:54:00.000Z</time>
      </trkpt>
      <trkpt lat="43.56723" lon="6.46233">
        <ele>518.8</ele>
        <time>2024-02-18T12:54:10.000Z</time>
      </trkpt>
      <trkpt lat="43.56727" lon="6.46222">
        <ele>517.8</ele>
        <time>2024-02-18T12:54:19.000Z</time>
      </trkpt>
      <trkpt lat="43.56734" lon="6.46212">
        <ele>517</ele>
        <time>2024-02-18T12:54:27.000Z</time>
      </trkpt>
      <trkpt lat="43.56743" lon="6.46206">
        <ele>515.9</ele>
        <time>2024-02-18T12:54:38.000Z</time>
      </trkpt>
      <trkpt lat="43.5675" lon="6.46198">
        <ele>515</ele>
        <time>2024-02-18T12:54:48.000Z</time>
      </trkpt>
      <trkpt lat="43.56757" lon="6.46188">
        <ele>514.3</ele>
        <time>2024-02-18T12:54:57.000Z</time>
      </trkpt>
      <trkpt lat="43.5676" lon="6.46176">
        <ele>513.7</ele>
        <time>2024-02-18T12:55:05.000Z</time>
      </trkpt>
      <trkpt lat="43.56761" lon="6.46163">
        <ele>513.3</ele>
        <time>2024-02-18T12:55:12.000Z</time>
      </trkpt>
      <trkpt lat="43.56758" lon="6.4615">
        <ele>512.8</ele>
        <time>2024-02-18T12:55:20.000Z</time>
      </trkpt>
      <trkpt lat="43.56757" lon="6.46137">
        <ele>512.2</ele>
        <time>2024-02-18T12:55:30.000Z</time>
      </trkpt>
      <trkpt lat="43.56759" lon="6.46124">
        <ele>511.6</ele>
        <time>2024-02-18T12:55:40.000Z</time>
      </trkpt>
      <trkpt lat="43.5676" lon="6.46119">
        <ele>511.2</ele>
        <time>2024-02-18T12:55:46.000Z</time>
      </trkpt>
      <trkpt lat="43.56759" lon="6.46119">
        <ele>511.2</ele>
        <time>2024-02-18T12:55:47.000Z</time>
      </trkpt>
      <trkpt lat="43.56759" lon="6.46119">
        <ele>511.1</ele>
        <time>2024-02-18T12:55:48.000Z</time>
      </trkpt>
      <trkpt lat="43.56759" lon="6.4612">
        <ele>511.1</ele>
        <time>2024-02-18T12:55:49.000Z</time>
      </trkpt>
      <trkpt lat="43.56759" lon="6.4612">
        <ele>511.1</ele>
        <time>2024-02-18T12:55:50.000Z</time>
      </trkpt>
      <trkpt lat="43.56759" lon="6.4612">
        <ele>511</ele>
        <time>2024-02-18T12:55:51.000Z</time>
      </trkpt>
      <trkpt lat="43.56759" lon="6.4612">
        <ele>511</ele>
        <time>2024-02-18T12:55:52.000Z</time>
      </trkpt>
      <trkpt lat="43.56759" lon="6.4612">
        <ele>510.9</ele>
        <time>2024-02-18T12:55:53.000Z</time>
      </trkpt>
      <trkpt lat="43.56759" lon="6.4612">
        <ele>510.9</ele>
        <time>2024-02-18T12:55:54.000Z</time>
      </trkpt>
      <trkpt lat="43.56759" lon="6.4612">
        <ele>510.7</ele>
        <time>2024-02-18T12:56:06.000Z</time>
      </trkpt>
      <trkpt lat="43.56758" lon="6.4612">
        <ele>510.7</ele>
        <time>2024-02-18T12:56:07.000Z</time>
      </trkpt>
      <trkpt lat="43.56758" lon="6.4612">
        <ele>510.6</ele>
        <time>2024-02-18T12:56:08.000Z</time>
      </trkpt>
      <trkpt lat="43.56759" lon="6.46124">
        <ele>510.6</ele>
        <time>2024-02-18T12:56:19.000Z</time>
      </trkpt>
      <trkpt lat="43.5676" lon="6.46124">
        <ele>510.6</ele>
        <time>2024-02-18T12:56:20.000Z</time>
      </trkpt>
      <trkpt lat="43.56759" lon="6.46124">
        <ele>510.5</ele>
        <time>2024-02-18T12:56:21.000Z</time>
      </trkpt>
      <trkpt lat="43.56759" lon="6.46125">
        <ele>510.6</ele>
        <time>2024-02-18T12:56:22.000Z</time>
      </trkpt>
      <trkpt lat="43.56759" lon="6.46126">
        <ele>510.6</ele>
        <time>2024-02-18T12:56:23.000Z</time>
      </trkpt>
      <trkpt lat="43.56758" lon="6.46128">
        <ele>510.5</ele>
        <time>2024-02-18T12:56:26.000Z</time>
      </trkpt>
      <trkpt lat="43.56758" lon="6.46128">
        <ele>510.5</ele>
        <time>2024-02-18T12:56:27.000Z</time>
      </trkpt>
      <trkpt lat="43.56758" lon="6.46128">
        <ele>510.5</ele>
        <time>2024-02-18T12:56:28.000Z</time>
      </trkpt>
      <trkpt lat="43.56758" lon="6.46128">
        <ele>510.5</ele>
        <time>2024-02-18T12:56:29.000Z</time>
      </trkpt>
      <trkpt lat="43.56758" lon="6.46127">
        <ele>510.5</ele>
        <time>2024-02-18T12:56:30.000Z</time>
      </trkpt>
      <trkpt lat="43.56755" lon="6.46114">
        <ele>510.5</ele>
        <time>2024-02-18T12:56:38.000Z</time>
      </trkpt>
      <trkpt lat="43.56757" lon="6.46101">
        <ele>510.3</ele>
        <time>2024-02-18T12:56:47.000Z</time>
      </trkpt>
      <trkpt lat="43.56754" lon="6.46088">
        <ele>510</ele>
        <time>2024-02-18T12:56:53.000Z</time>
      </trkpt>
      <trkpt lat="43.56755" lon="6.46075">
        <ele>509.5</ele>
        <time>2024-02-18T12:57:03.000Z</time>
      </trkpt>
      <trkpt lat="43.56759" lon="6.46062">
        <ele>509</ele>
        <time>2024-02-18T12:57:12.000Z</time>
      </trkpt>
      <trkpt lat="43.56757" lon="6.46049">
        <ele>508.6</ele>
        <time>2024-02-18T12:57:19.000Z</time>
      </trkpt>
      <trkpt lat="43.5676" lon="6.46037">
        <ele>507.9</ele>
        <time>2024-02-18T12:57:27.000Z</time>
      </trkpt>
      <trkpt lat="43.56768" lon="6.46027">
        <ele>507.2</ele>
        <time>2024-02-18T12:57:34.000Z</time>
      </trkpt>
      <trkpt lat="43.5677" lon="6.46015">
        <ele>506</ele>
        <time>2024-02-18T12:57:42.000Z</time>
      </trkpt>
      <trkpt lat="43.56775" lon="6.46003">
        <ele>504.9</ele>
        <time>2024-02-18T12:57:50.000Z</time>
      </trkpt>
      <trkpt lat="43.5678" lon="6.45992">
        <ele>503.6</ele>
        <time>2024-02-18T12:58:00.000Z</time>
      </trkpt>
      <trkpt lat="43.56785" lon="6.45979">
        <ele>502.8</ele>
        <time>2024-02-18T12:58:09.000Z</time>
      </trkpt>
      <trkpt lat="43.56793" lon="6.45973">
        <ele>502.2</ele>
        <time>2024-02-18T12:58:15.000Z</time>
      </trkpt>
      <trkpt lat="43.56799" lon="6.45963">
        <ele>501.2</ele>
        <time>2024-02-18T12:58:23.000Z</time>
      </trkpt>
      <trkpt lat="43.568" lon="6.4595">
        <ele>500.2</ele>
        <time>2024-02-18T12:58:33.000Z</time>
      </trkpt>
      <trkpt lat="43.56805" lon="6.45939">
        <ele>499.5</ele>
        <time>2024-02-18T12:58:41.000Z</time>
      </trkpt>
      <trkpt lat="43.56809" lon="6.45928">
        <ele>498.8</ele>
        <time>2024-02-18T12:58:50.000Z</time>
      </trkpt>
      <trkpt lat="43.56816" lon="6.4592">
        <ele>498.4</ele>
        <time>2024-02-18T12:58:58.000Z</time>
      </trkpt>
      <trkpt lat="43.56823" lon="6.45912">
        <ele>498</ele>
        <time>2024-02-18T12:59:05.000Z</time>
      </trkpt>
      <trkpt lat="43.5683" lon="6.45905">
        <ele>497.7</ele>
        <time>2024-02-18T12:59:12.000Z</time>
      </trkpt>
      <trkpt lat="43.56833" lon="6.45892">
        <ele>497.3</ele>
        <time>2024-02-18T12:59:20.000Z</time>
      </trkpt>
      <trkpt lat="43.56838" lon="6.4588">
        <ele>496.7</ele>
        <time>2024-02-18T12:59:28.000Z</time>
      </trkpt>
      <trkpt lat="43.56843" lon="6.45869">
        <ele>496.1</ele>
        <time>2024-02-18T12:59:36.000Z</time>
      </trkpt>
      <trkpt lat="43.56849" lon="6.45858">
        <ele>495.6</ele>
        <time>2024-02-18T12:59:44.000Z</time>
      </trkpt>
      <trkpt lat="43.56854" lon="6.45847">
        <ele>495.4</ele>
        <time>2024-02-18T12:59:52.000Z</time>
      </trkpt>
      <trkpt lat="43.56861" lon="6.45837">
        <ele>495.3</ele>
        <time>2024-02-18T13:00:01.000Z</time>
      </trkpt>
      <trkpt lat="43.56865" lon="6.45825">
        <ele>495.3</ele>
        <time>2024-02-18T13:00:11.000Z</time>
      </trkpt>
      <trkpt lat="43.56872" lon="6.45815">
        <ele>495.4</ele>
        <time>2024-02-18T13:00:21.000Z</time>
      </trkpt>
      <trkpt lat="43.56875" lon="6.45804">
        <ele>495.5</ele>
        <time>2024-02-18T13:00:30.000Z</time>
      </trkpt>
      <trkpt lat="43.56878" lon="6.45792">
        <ele>495.9</ele>
        <time>2024-02-18T13:00:38.000Z</time>
      </trkpt>
      <trkpt lat="43.56883" lon="6.45781">
        <ele>496.5</ele>
        <time>2024-02-18T13:00:46.000Z</time>
      </trkpt>
      <trkpt lat="43.56883" lon="6.45767">
        <ele>497.2</ele>
        <time>2024-02-18T13:00:55.000Z</time>
      </trkpt>
      <trkpt lat="43.56883" lon="6.45754">
        <ele>498.3</ele>
        <time>2024-02-18T13:01:05.000Z</time>
      </trkpt>
      <trkpt lat="43.56884" lon="6.45741">
        <ele>499</ele>
        <time>2024-02-18T13:01:14.000Z</time>
      </trkpt>
      <trkpt lat="43.56885" lon="6.45728">
        <ele>499.5</ele>
        <time>2024-02-18T13:01:23.000Z</time>
      </trkpt>
      <trkpt lat="43.56889" lon="6.45715">
        <ele>500.3</ele>
        <time>2024-02-18T13:01:34.000Z</time>
      </trkpt>
      <trkpt lat="43.56888" lon="6.45702">
        <ele>500.8</ele>
        <time>2024-02-18T13:01:43.000Z</time>
      </trkpt>
      <trkpt lat="43.56887" lon="6.45689">
        <ele>501.2</ele>
        <time>2024-02-18T13:01:53.000Z</time>
      </trkpt>
      <trkpt lat="43.56889" lon="6.45677">
        <ele>501.7</ele>
        <time>2024-02-18T13:02:05.000Z</time>
      </trkpt>
      <trkpt lat="43.56892" lon="6.45664">
        <ele>502</ele>
        <time>2024-02-18T13:02:14.000Z</time>
      </trkpt>
      <trkpt lat="43.56894" lon="6.45652">
        <ele>502.3</ele>
        <time>2024-02-18T13:02:23.000Z</time>
      </trkpt>
      <trkpt lat="43.56892" lon="6.45639">
        <ele>502.7</ele>
        <time>2024-02-18T13:02:32.000Z</time>
      </trkpt>
      <trkpt lat="43.5689" lon="6.45626">
        <ele>503.5</ele>
        <time>2024-02-18T13:02:42.000Z</time>
      </trkpt>
      <trkpt lat="43.56887" lon="6.45614">
        <ele>504.6</ele>
        <time>2024-02-18T13:02:52.000Z</time>
      </trkpt>
      <trkpt lat="43.56887" lon="6.45601">
        <ele>505.5</ele>
        <time>2024-02-18T13:03:02.000Z</time>
      </trkpt>
      <trkpt lat="43.56887" lon="6.45587">
        <ele>506.5</ele>
        <time>2024-02-18T13:03:15.000Z</time>
      </trkpt>
      <trkpt lat="43.56883" lon="6.45576">
        <ele>507.2</ele>
        <time>2024-02-18T13:03:24.000Z</time>
      </trkpt>
      <trkpt lat="43.56888" lon="6.45565">
        <ele>507.8</ele>
        <time>2024-02-18T13:03:33.000Z</time>
      </trkpt>
      <trkpt lat="43.56891" lon="6.45553">
        <ele>508.4</ele>
        <time>2024-02-18T13:03:42.000Z</time>
      </trkpt>
      <trkpt lat="43.56894" lon="6.4554">
        <ele>508.9</ele>
        <time>2024-02-18T13:03:51.000Z</time>
      </trkpt>
      <trkpt lat="43.56897" lon="6.45529">
        <ele>509.3</ele>
        <time>2024-02-18T13:04:01.000Z</time>
      </trkpt>
      <trkpt lat="43.56898" lon="6.45516">
        <ele>509.6</ele>
        <time>2024-02-18T13:04:12.000Z</time>
      </trkpt>
      <trkpt lat="43.56901" lon="6.45503">
        <ele>509.6</ele>
        <time>2024-02-18T13:04:19.000Z</time>
      </trkpt>
      <trkpt lat="43.569" lon="6.45489">
        <ele>509.5</ele>
        <time>2024-02-18T13:04:28.000Z</time>
      </trkpt>
      <trkpt lat="43.56898" lon="6.45477">
        <ele>509.3</ele>
        <time>2024-02-18T13:04:35.000Z</time>
      </trkpt>
      <trkpt lat="43.56894" lon="6.45464">
        <ele>508.8</ele>
        <time>2024-02-18T13:04:46.000Z</time>
      </trkpt>
      <trkpt lat="43.56893" lon="6.45449">
        <ele>508.1</ele>
        <time>2024-02-18T13:04:54.000Z</time>
      </trkpt>
      <trkpt lat="43.56896" lon="6.45437">
        <ele>507.6</ele>
        <time>2024-02-18T13:05:02.000Z</time>
      </trkpt>
      <trkpt lat="43.5689" lon="6.45428">
        <ele>507.4</ele>
        <time>2024-02-18T13:05:08.000Z</time>
      </trkpt>
      <trkpt lat="43.56888" lon="6.45414">
        <ele>507.2</ele>
        <time>2024-02-18T13:05:16.000Z</time>
      </trkpt>
      <trkpt lat="43.56889" lon="6.45401">
        <ele>507.1</ele>
        <time>2024-02-18T13:05:26.000Z</time>
      </trkpt>
      <trkpt lat="43.56884" lon="6.4539">
        <ele>507.2</ele>
        <time>2024-02-18T13:05:32.000Z</time>
      </trkpt>
      <trkpt lat="43.56885" lon="6.45377">
        <ele>507.5</ele>
        <time>2024-02-18T13:05:43.000Z</time>
      </trkpt>
      <trkpt lat="43.56884" lon="6.45364">
        <ele>508.2</ele>
        <time>2024-02-18T13:05:55.000Z</time>
      </trkpt>
      <trkpt lat="43.56884" lon="6.45351">
        <ele>509</ele>
        <time>2024-02-18T13:06:04.000Z</time>
      </trkpt>
      <trkpt lat="43.56883" lon="6.45337">
        <ele>510</ele>
        <time>2024-02-18T13:06:15.000Z</time>
      </trkpt>
      <trkpt lat="43.56884" lon="6.45323">
        <ele>511.1</ele>
        <time>2024-02-18T13:06:26.000Z</time>
      </trkpt>
      <trkpt lat="43.56884" lon="6.4531">
        <ele>511.5</ele>
        <time>2024-02-18T13:06:34.000Z</time>
      </trkpt>
      <trkpt lat="43.56887" lon="6.45297">
        <ele>512</ele>
        <time>2024-02-18T13:06:43.000Z</time>
      </trkpt>
      <trkpt lat="43.56891" lon="6.45285">
        <ele>512.3</ele>
        <time>2024-02-18T13:06:52.000Z</time>
      </trkpt>
      <trkpt lat="43.56888" lon="6.45272">
        <ele>512.7</ele>
        <time>2024-02-18T13:07:00.000Z</time>
      </trkpt>
      <trkpt lat="43.5689" lon="6.4526">
        <ele>513.1</ele>
        <time>2024-02-18T13:07:08.000Z</time>
      </trkpt>
      <trkpt lat="43.56891" lon="6.45247">
        <ele>514.5</ele>
        <time>2024-02-18T13:07:21.000Z</time>
      </trkpt>
      <trkpt lat="43.56898" lon="6.45235">
        <ele>515.1</ele>
        <time>2024-02-18T13:07:30.000Z</time>
      </trkpt>
      <trkpt lat="43.56901" lon="6.45221">
        <ele>515.1</ele>
        <time>2024-02-18T13:07:39.000Z</time>
      </trkpt>
      <trkpt lat="43.56904" lon="6.45209">
        <ele>514.6</ele>
        <time>2024-02-18T13:07:48.000Z</time>
      </trkpt>
      <trkpt lat="43.56906" lon="6.45196">
        <ele>513.8</ele>
        <time>2024-02-18T13:07:59.000Z</time>
      </trkpt>
      <trkpt lat="43.56908" lon="6.45183">
        <ele>512.9</ele>
        <time>2024-02-18T13:08:08.000Z</time>
      </trkpt>
      <trkpt lat="43.56911" lon="6.4517">
        <ele>512.4</ele>
        <time>2024-02-18T13:08:16.000Z</time>
      </trkpt>
      <trkpt lat="43.56914" lon="6.45157">
        <ele>511.6</ele>
        <time>2024-02-18T13:08:25.000Z</time>
      </trkpt>
      <trkpt lat="43.56914" lon="6.45144">
        <ele>510.7</ele>
        <time>2024-02-18T13:08:36.000Z</time>
      </trkpt>
      <trkpt lat="43.56919" lon="6.45134">
        <ele>509.9</ele>
        <time>2024-02-18T13:08:44.000Z</time>
      </trkpt>
      <trkpt lat="43.56925" lon="6.45124">
        <ele>508.9</ele>
        <time>2024-02-18T13:08:52.000Z</time>
      </trkpt>
      <trkpt lat="43.56927" lon="6.45112">
        <ele>507.7</ele>
        <time>2024-02-18T13:09:02.000Z</time>
      </trkpt>
      <trkpt lat="43.56927" lon="6.45099">
        <ele>506.9</ele>
        <time>2024-02-18T13:09:10.000Z</time>
      </trkpt>
      <trkpt lat="43.5693" lon="6.45092">
        <ele>505.8</ele>
        <time>2024-02-18T13:09:27.000Z</time>
      </trkpt>
      <trkpt lat="43.5693" lon="6.45092">
        <ele>505.7</ele>
        <time>2024-02-18T13:09:28.000Z</time>
      </trkpt>
      <trkpt lat="43.56929" lon="6.45091">
        <ele>505.6</ele>
        <time>2024-02-18T13:10:12.000Z</time>
      </trkpt>
      <trkpt lat="43.56929" lon="6.45091">
        <ele>505.6</ele>
        <time>2024-02-18T13:10:13.000Z</time>
      </trkpt>
      <trkpt lat="43.56929" lon="6.4509">
        <ele>505.6</ele>
        <time>2024-02-18T13:10:14.000Z</time>
      </trkpt>
      <trkpt lat="43.56929" lon="6.4509">
        <ele>505.6</ele>
        <time>2024-02-18T13:10:15.000Z</time>
      </trkpt>
      <trkpt lat="43.56929" lon="6.4509">
        <ele>505.6</ele>
        <time>2024-02-18T13:10:16.000Z</time>
      </trkpt>
      <trkpt lat="43.56931" lon="6.45088">
        <ele>505.7</ele>
        <time>2024-02-18T13:10:47.000Z</time>
      </trkpt>
      <trkpt lat="43.56931" lon="6.45088">
        <ele>505.7</ele>
        <time>2024-02-18T13:10:48.000Z</time>
      </trkpt>
      <trkpt lat="43.56931" lon="6.45088">
        <ele>505.7</ele>
        <time>2024-02-18T13:10:49.000Z</time>
      </trkpt>
      <trkpt lat="43.56931" lon="6.45088">
        <ele>505.7</ele>
        <time>2024-02-18T13:10:50.000Z</time>
      </trkpt>
      <trkpt lat="43.56931" lon="6.45089">
        <ele>505.8</ele>
        <time>2024-02-18T13:11:16.000Z</time>
      </trkpt>
      <trkpt lat="43.56931" lon="6.45089">
        <ele>505.8</ele>
        <time>2024-02-18T13:11:17.000Z</time>
      </trkpt>
      <trkpt lat="43.56931" lon="6.45089">
        <ele>505.8</ele>
        <time>2024-02-18T13:11:18.000Z</time>
      </trkpt>
      <trkpt lat="43.56931" lon="6.45089">
        <ele>505.8</ele>
        <time>2024-02-18T13:11:19.000Z</time>
      </trkpt>
      <trkpt lat="43.56931" lon="6.45089">
        <ele>505.8</ele>
        <time>2024-02-18T13:11:20.000Z</time>
      </trkpt>
      <trkpt lat="43.56932" lon="6.45088">
        <ele>505.8</ele>
        <time>2024-02-18T13:11:26.000Z</time>
      </trkpt>
      <trkpt lat="43.56931" lon="6.45087">
        <ele>505.8</ele>
        <time>2024-02-18T13:11:27.000Z</time>
      </trkpt>
      <trkpt lat="43.56932" lon="6.45086">
        <ele>505.8</ele>
        <time>2024-02-18T13:11:28.000Z</time>
      </trkpt>
      <trkpt lat="43.56936" lon="6.45074">
        <ele>505.7</ele>
        <time>2024-02-18T13:11:39.000Z</time>
      </trkpt>
      <trkpt lat="43.5694" lon="6.45062">
        <ele>505.5</ele>
        <time>2024-02-18T13:11:47.000Z</time>
      </trkpt>
      <trkpt lat="43.56943" lon="6.4505">
        <ele>504.7</ele>
        <time>2024-02-18T13:12:00.000Z</time>
      </trkpt>
      <trkpt lat="43.56946" lon="6.45038">
        <ele>504.1</ele>
        <time>2024-02-18T13:12:08.000Z</time>
      </trkpt>
      <trkpt lat="43.56945" lon="6.45025">
        <ele>503.7</ele>
        <time>2024-02-18T13:12:16.000Z</time>
      </trkpt>
      <trkpt lat="43.56943" lon="6.45013">
        <ele>503.3</ele>
        <time>2024-02-18T13:12:25.000Z</time>
      </trkpt>
      <trkpt lat="43.56941" lon="6.45001">
        <ele>503</ele>
        <time>2024-02-18T13:12:33.000Z</time>
      </trkpt>
      <trkpt lat="43.56938" lon="6.44988">
        <ele>503.1</ele>
        <time>2024-02-18T13:12:42.000Z</time>
      </trkpt>
      <trkpt lat="43.56937" lon="6.44974">
        <ele>503.3</ele>
        <time>2024-02-18T13:12:52.000Z</time>
      </trkpt>
      <trkpt lat="43.56935" lon="6.44962">
        <ele>503.6</ele>
        <time>2024-02-18T13:13:02.000Z</time>
      </trkpt>
      <trkpt lat="43.56937" lon="6.44948">
        <ele>503.6</ele>
        <time>2024-02-18T13:13:12.000Z</time>
      </trkpt>
      <trkpt lat="43.56939" lon="6.44936">
        <ele>503.5</ele>
        <time>2024-02-18T13:13:20.000Z</time>
      </trkpt>
      <trkpt lat="43.56941" lon="6.44924">
        <ele>503.2</ele>
        <time>2024-02-18T13:13:29.000Z</time>
      </trkpt>
      <trkpt lat="43.56942" lon="6.44911">
        <ele>502.6</ele>
        <time>2024-02-18T13:13:38.000Z</time>
      </trkpt>
      <trkpt lat="43.56945" lon="6.44899">
        <ele>501.5</ele>
        <time>2024-02-18T13:13:47.000Z</time>
      </trkpt>
      <trkpt lat="43.56945" lon="6.44885">
        <ele>500.2</ele>
        <time>2024-02-18T13:13:57.000Z</time>
      </trkpt>
      <trkpt lat="43.56948" lon="6.44872">
        <ele>499.1</ele>
        <time>2024-02-18T13:14:07.000Z</time>
      </trkpt>
      <trkpt lat="43.56948" lon="6.44859">
        <ele>498.4</ele>
        <time>2024-02-18T13:14:17.000Z</time>
      </trkpt>
      <trkpt lat="43.56954" lon="6.44848">
        <ele>497.7</ele>
        <time>2024-02-18T13:14:25.000Z</time>
      </trkpt>
      <trkpt lat="43.56959" lon="6.44837">
        <ele>496.8</ele>
        <time>2024-02-18T13:14:34.000Z</time>
      </trkpt>
      <trkpt lat="43.56958" lon="6.44825">
        <ele>495.9</ele>
        <time>2024-02-18T13:14:42.000Z</time>
      </trkpt>
      <trkpt lat="43.56962" lon="6.44814">
        <ele>494.9</ele>
        <time>2024-02-18T13:14:51.000Z</time>
      </trkpt>
      <trkpt lat="43.56968" lon="6.44803">
        <ele>494.1</ele>
        <time>2024-02-18T13:14:59.000Z</time>
      </trkpt>
      <trkpt lat="43.56973" lon="6.44792">
        <ele>493.4</ele>
        <time>2024-02-18T13:15:08.000Z</time>
      </trkpt>
      <trkpt lat="43.56973" lon="6.44778">
        <ele>492.8</ele>
        <time>2024-02-18T13:15:17.000Z</time>
      </trkpt>
      <trkpt lat="43.56976" lon="6.44766">
        <ele>492.3</ele>
        <time>2024-02-18T13:15:26.000Z</time>
      </trkpt>
      <trkpt lat="43.56973" lon="6.44753">
        <ele>492</ele>
        <time>2024-02-18T13:15:34.000Z</time>
      </trkpt>
      <trkpt lat="43.56974" lon="6.4474">
        <ele>491.6</ele>
        <time>2024-02-18T13:15:42.000Z</time>
      </trkpt>
      <trkpt lat="43.56976" lon="6.44727">
        <ele>491.3</ele>
        <time>2024-02-18T13:15:52.000Z</time>
      </trkpt>
      <trkpt lat="43.56979" lon="6.44714">
        <ele>491</ele>
        <time>2024-02-18T13:16:01.000Z</time>
      </trkpt>
      <trkpt lat="43.5698" lon="6.447">
        <ele>490.5</ele>
        <time>2024-02-18T13:16:09.000Z</time>
      </trkpt>
      <trkpt lat="43.56976" lon="6.44688">
        <ele>489.9</ele>
        <time>2024-02-18T13:16:17.000Z</time>
      </trkpt>
      <trkpt lat="43.56977" lon="6.44675">
        <ele>489.3</ele>
        <time>2024-02-18T13:16:27.000Z</time>
      </trkpt>
      <trkpt lat="43.56974" lon="6.44663">
        <ele>488.7</ele>
        <time>2024-02-18T13:16:37.000Z</time>
      </trkpt>
      <trkpt lat="43.56968" lon="6.44653">
        <ele>488.1</ele>
        <time>2024-02-18T13:16:46.000Z</time>
      </trkpt>
      <trkpt lat="43.56965" lon="6.44641">
        <ele>487</ele>
        <time>2024-02-18T13:16:58.000Z</time>
      </trkpt>
      <trkpt lat="43.5696" lon="6.4463">
        <ele>486.1</ele>
        <time>2024-02-18T13:17:07.000Z</time>
      </trkpt>
      <trkpt lat="43.56956" lon="6.44618">
        <ele>485.3</ele>
        <time>2024-02-18T13:17:15.000Z</time>
      </trkpt>
      <trkpt lat="43.5695" lon="6.44607">
        <ele>484.5</ele>
        <time>2024-02-18T13:17:24.000Z</time>
      </trkpt>
      <trkpt lat="43.56945" lon="6.44596">
        <ele>484</ele>
        <time>2024-02-18T13:17:33.000Z</time>
      </trkpt>
      <trkpt lat="43.56939" lon="6.44586">
        <ele>483.7</ele>
        <time>2024-02-18T13:17:41.000Z</time>
      </trkpt>
      <trkpt lat="43.56933" lon="6.44576">
        <ele>483.4</ele>
        <time>2024-02-18T13:17:51.000Z</time>
      </trkpt>
      <trkpt lat="43.56929" lon="6.44566">
        <ele>483.1</ele>
        <time>2024-02-18T13:17:59.000Z</time>
      </trkpt>
      <trkpt lat="43.56925" lon="6.44553">
        <ele>482.9</ele>
        <time>2024-02-18T13:18:07.000Z</time>
      </trkpt>
      <trkpt lat="43.56923" lon="6.44541">
        <ele>482.6</ele>
        <time>2024-02-18T13:18:17.000Z</time>
      </trkpt>
      <trkpt lat="43.56922" lon="6.44528">
        <ele>482.2</ele>
        <time>2024-02-18T13:18:26.000Z</time>
      </trkpt>
      <trkpt lat="43.56919" lon="6.44516">
        <ele>481.8</ele>
        <time>2024-02-18T13:18:41.000Z</time>
      </trkpt>
      <trkpt lat="43.56921" lon="6.44504">
        <ele>481.8</ele>
        <time>2024-02-18T13:18:53.000Z</time>
      </trkpt>
      <trkpt lat="43.56924" lon="6.44491">
        <ele>481.7</ele>
        <time>2024-02-18T13:19:05.000Z</time>
      </trkpt>
      <trkpt lat="43.56929" lon="6.4448">
        <ele>481.7</ele>
        <time>2024-02-18T13:19:15.000Z</time>
      </trkpt>
      <trkpt lat="43.56932" lon="6.44467">
        <ele>481.7</ele>
        <time>2024-02-18T13:19:24.000Z</time>
      </trkpt>
      <trkpt lat="43.56933" lon="6.44455">
        <ele>481.8</ele>
        <time>2024-02-18T13:19:34.000Z</time>
      </trkpt>
      <trkpt lat="43.56938" lon="6.44442">
        <ele>481.9</ele>
        <time>2024-02-18T13:19:42.000Z</time>
      </trkpt>
      <trkpt lat="43.56943" lon="6.44432">
        <ele>482.1</ele>
        <time>2024-02-18T13:19:53.000Z</time>
      </trkpt>
      <trkpt lat="43.5695" lon="6.44421">
        <ele>482.5</ele>
        <time>2024-02-18T13:20:03.000Z</time>
      </trkpt>
      <trkpt lat="43.56954" lon="6.4441">
        <ele>483</ele>
        <time>2024-02-18T13:20:16.000Z</time>
      </trkpt>
      <trkpt lat="43.56953" lon="6.44397">
        <ele>483.2</ele>
        <time>2024-02-18T13:20:26.000Z</time>
      </trkpt>
      <trkpt lat="43.56948" lon="6.44386">
        <ele>483.4</ele>
        <time>2024-02-18T13:20:34.000Z</time>
      </trkpt>
      <trkpt lat="43.56945" lon="6.44374">
        <ele>483.8</ele>
        <time>2024-02-18T13:20:44.000Z</time>
      </trkpt>
      <trkpt lat="43.56945" lon="6.44361">
        <ele>484.3</ele>
        <time>2024-02-18T13:20:53.000Z</time>
      </trkpt>
      <trkpt lat="43.56949" lon="6.44349">
        <ele>485.2</ele>
        <time>2024-02-18T13:21:02.000Z</time>
      </trkpt>
      <trkpt lat="43.56946" lon="6.44336">
        <ele>486.1</ele>
        <time>2024-02-18T13:21:11.000Z</time>
      </trkpt>
      <trkpt lat="43.56941" lon="6.44324">
        <ele>486.6</ele>
        <time>2024-02-18T13:21:19.000Z</time>
      </trkpt>
      <trkpt lat="43.56939" lon="6.44312">
        <ele>487.2</ele>
        <time>2024-02-18T13:21:29.000Z</time>
      </trkpt>
      <trkpt lat="43.56933" lon="6.44303">
        <ele>487.6</ele>
        <time>2024-02-18T13:21:38.000Z</time>
      </trkpt>
      <trkpt lat="43.56928" lon="6.44291">
        <ele>488.3</ele>
        <time>2024-02-18T13:21:48.000Z</time>
      </trkpt>
      <trkpt lat="43.56924" lon="6.44279">
        <ele>489.1</ele>
        <time>2024-02-18T13:21:58.000Z</time>
      </trkpt>
      <trkpt lat="43.56923" lon="6.44267">
        <ele>489.6</ele>
        <time>2024-02-18T13:22:07.000Z</time>
      </trkpt>
      <trkpt lat="43.56923" lon="6.44254">
        <ele>490.1</ele>
        <time>2024-02-18T13:22:16.000Z</time>
      </trkpt>
      <trkpt lat="43.5692" lon="6.44241">
        <ele>490.5</ele>
        <time>2024-02-18T13:22:26.000Z</time>
      </trkpt>
      <trkpt lat="43.56924" lon="6.4423">
        <ele>490.7</ele>
        <time>2024-02-18T13:22:35.000Z</time>
      </trkpt>
      <trkpt lat="43.56926" lon="6.44216">
        <ele>490.9</ele>
        <time>2024-02-18T13:22:45.000Z</time>
      </trkpt>
      <trkpt lat="43.56927" lon="6.44203">
        <ele>491</ele>
        <time>2024-02-18T13:22:53.000Z</time>
      </trkpt>
      <trkpt lat="43.56926" lon="6.4419">
        <ele>491.1</ele>
        <time>2024-02-18T13:23:01.000Z</time>
      </trkpt>
      <trkpt lat="43.56927" lon="6.44176">
        <ele>491.2</ele>
        <time>2024-02-18T13:23:12.000Z</time>
      </trkpt>
      <trkpt lat="43.56926" lon="6.44163">
        <ele>491</ele>
        <time>2024-02-18T13:23:20.000Z</time>
      </trkpt>
      <trkpt lat="43.56925" lon="6.44149">
        <ele>490.5</ele>
        <time>2024-02-18T13:23:30.000Z</time>
      </trkpt>
      <trkpt lat="43.56924" lon="6.44136">
        <ele>489.7</ele>
        <time>2024-02-18T13:23:38.000Z</time>
      </trkpt>
      <trkpt lat="43.56923" lon="6.44122">
        <ele>488.7</ele>
        <time>2024-02-18T13:23:47.000Z</time>
      </trkpt>
      <trkpt lat="43.56925" lon="6.4411">
        <ele>487.7</ele>
        <time>2024-02-18T13:23:56.000Z</time>
      </trkpt>
      <trkpt lat="43.56919" lon="6.44102">
        <ele>485.8</ele>
        <time>2024-02-18T13:24:15.000Z</time>
      </trkpt>
      <trkpt lat="43.56919" lon="6.44102">
        <ele>485.8</ele>
        <time>2024-02-18T13:24:16.000Z</time>
      </trkpt>
      <trkpt lat="43.56919" lon="6.44101">
        <ele>485.7</ele>
        <time>2024-02-18T13:24:17.000Z</time>
      </trkpt>
      <trkpt lat="43.5692" lon="6.44101">
        <ele>485.7</ele>
        <time>2024-02-18T13:24:18.000Z</time>
      </trkpt>
      <trkpt lat="43.5692" lon="6.44101">
        <ele>485.6</ele>
        <time>2024-02-18T13:24:21.000Z</time>
      </trkpt>
      <trkpt lat="43.5692" lon="6.44101">
        <ele>485.6</ele>
        <time>2024-02-18T13:24:22.000Z</time>
      </trkpt>
      <trkpt lat="43.5692" lon="6.44101">
        <ele>485.6</ele>
        <time>2024-02-18T13:24:23.000Z</time>
      </trkpt>
      <trkpt lat="43.5692" lon="6.44101">
        <ele>485.4</ele>
        <time>2024-02-18T13:24:39.000Z</time>
      </trkpt>
      <trkpt lat="43.5692" lon="6.44101">
        <ele>485.4</ele>
        <time>2024-02-18T13:24:40.000Z</time>
      </trkpt>
      <trkpt lat="43.5692" lon="6.44102">
        <ele>485.4</ele>
        <time>2024-02-18T13:24:41.000Z</time>
      </trkpt>
      <trkpt lat="43.56919" lon="6.44102">
        <ele>485.4</ele>
        <time>2024-02-18T13:24:46.000Z</time>
      </trkpt>
      <trkpt lat="43.56919" lon="6.44102">
        <ele>485.4</ele>
        <time>2024-02-18T13:24:47.000Z</time>
      </trkpt>
      <trkpt lat="43.56919" lon="6.44102">
        <ele>485.3</ele>
        <time>2024-02-18T13:24:48.000Z</time>
      </trkpt>
      <trkpt lat="43.56919" lon="6.44102">
        <ele>485.3</ele>
        <time>2024-02-18T13:25:02.000Z</time>
      </trkpt>
      <trkpt lat="43.56919" lon="6.44102">
        <ele>485.3</ele>
        <time>2024-02-18T13:25:03.000Z</time>
      </trkpt>
      <trkpt lat="43.56919" lon="6.44102">
        <ele>485.3</ele>
        <time>2024-02-18T13:25:04.000Z</time>
      </trkpt>
      <trkpt lat="43.56919" lon="6.44102">
        <ele>485.3</ele>
        <time>2024-02-18T13:25:05.000Z</time>
      </trkpt>
      <trkpt lat="43.56918" lon="6.441">
        <ele>485.3</ele>
        <time>2024-02-18T13:25:09.000Z</time>
      </trkpt>
      <trkpt lat="43.56918" lon="6.441">
        <ele>485.3</ele>
        <time>2024-02-18T13:25:10.000Z</time>
      </trkpt>
      <trkpt lat="43.56918" lon="6.44099">
        <ele>485.3</ele>
        <time>2024-02-18T13:25:11.000Z</time>
      </trkpt>
      <trkpt lat="43.56918" lon="6.44099">
        <ele>485.2</ele>
        <time>2024-02-18T13:25:15.000Z</time>
      </trkpt>
      <trkpt lat="43.56918" lon="6.44099">
        <ele>485.2</ele>
        <time>2024-02-18T13:25:16.000Z</time>
      </trkpt>
      <trkpt lat="43.56918" lon="6.44098">
        <ele>485.2</ele>
        <time>2024-02-18T13:25:19.000Z</time>
      </trkpt>
      <trkpt lat="43.56918" lon="6.44098">
        <ele>485.2</ele>
        <time>2024-02-18T13:25:20.000Z</time>
      </trkpt>
      <trkpt lat="43.56918" lon="6.44098">
        <ele>485.2</ele>
        <time>2024-02-18T13:25:21.000Z</time>
      </trkpt>
      <trkpt lat="43.56917" lon="6.4409">
        <ele>484.8</ele>
        <time>2024-02-18T13:25:34.000Z</time>
      </trkpt>
      <trkpt lat="43.56917" lon="6.4409">
        <ele>484.7</ele>
        <time>2024-02-18T13:25:35.000Z</time>
      </trkpt>
      <trkpt lat="43.56917" lon="6.4409">
        <ele>484.7</ele>
        <time>2024-02-18T13:25:36.000Z</time>
      </trkpt>
      <trkpt lat="43.56917" lon="6.44088">
        <ele>484.6</ele>
        <time>2024-02-18T13:25:39.000Z</time>
      </trkpt>
      <trkpt lat="43.56917" lon="6.44088">
        <ele>484.5</ele>
        <time>2024-02-18T13:25:40.000Z</time>
      </trkpt>
      <trkpt lat="43.56917" lon="6.44087">
        <ele>484.5</ele>
        <time>2024-02-18T13:25:41.000Z</time>
      </trkpt>
      <trkpt lat="43.56912" lon="6.44082">
        <ele>483.6</ele>
        <time>2024-02-18T13:25:54.000Z</time>
      </trkpt>
      <trkpt lat="43.56911" lon="6.44082">
        <ele>483.5</ele>
        <time>2024-02-18T13:25:55.000Z</time>
      </trkpt>
      <trkpt lat="43.5691" lon="6.44081">
        <ele>483.1</ele>
        <time>2024-02-18T13:26:04.000Z</time>
      </trkpt>
      <trkpt lat="43.5691" lon="6.4408">
        <ele>483.1</ele>
        <time>2024-02-18T13:26:05.000Z</time>
      </trkpt>
      <trkpt lat="43.56909" lon="6.44077">
        <ele>482.9</ele>
        <time>2024-02-18T13:26:11.000Z</time>
      </trkpt>
      <trkpt lat="43.56909" lon="6.44077">
        <ele>482.9</ele>
        <time>2024-02-18T13:26:12.000Z</time>
      </trkpt>
      <trkpt lat="43.56909" lon="6.44077">
        <ele>482.9</ele>
        <time>2024-02-18T13:26:13.000Z</time>
      </trkpt>
      <trkpt lat="43.5691" lon="6.44077">
        <ele>482.6</ele>
        <time>2024-02-18T13:26:59.000Z</time>
      </trkpt>
      <trkpt lat="43.5691" lon="6.44077">
        <ele>482.6</ele>
        <time>2024-02-18T13:27:00.000Z</time>
      </trkpt>
      <trkpt lat="43.5691" lon="6.44077">
        <ele>482.6</ele>
        <time>2024-02-18T13:27:01.000Z</time>
      </trkpt>
      <trkpt lat="43.5691" lon="6.44077">
        <ele>482.6</ele>
        <time>2024-02-18T13:27:02.000Z</time>
      </trkpt>
      <trkpt lat="43.5691" lon="6.44077">
        <ele>482.6</ele>
        <time>2024-02-18T13:27:03.000Z</time>
      </trkpt>
      <trkpt lat="43.56909" lon="6.44074">
        <ele>482.5</ele>
        <time>2024-02-18T13:27:19.000Z</time>
      </trkpt>
      <trkpt lat="43.56908" lon="6.44074">
        <ele>482.5</ele>
        <time>2024-02-18T13:27:20.000Z</time>
      </trkpt>
      <trkpt lat="43.56902" lon="6.44064">
        <ele>482.3</ele>
        <time>2024-02-18T13:27:34.000Z</time>
      </trkpt>
      <trkpt lat="43.56894" lon="6.44055">
        <ele>481.9</ele>
        <time>2024-02-18T13:27:47.000Z</time>
      </trkpt>
      <trkpt lat="43.5689" lon="6.44044">
        <ele>481.6</ele>
        <time>2024-02-18T13:27:55.000Z</time>
      </trkpt>
      <trkpt lat="43.56884" lon="6.44032">
        <ele>481.4</ele>
        <time>2024-02-18T13:28:04.000Z</time>
      </trkpt>
      <trkpt lat="43.56879" lon="6.4402">
        <ele>481.2</ele>
        <time>2024-02-18T13:28:13.000Z</time>
      </trkpt>
      <trkpt lat="43.56871" lon="6.44012">
        <ele>481</ele>
        <time>2024-02-18T13:28:20.000Z</time>
      </trkpt>
      <trkpt lat="43.56873" lon="6.44">
        <ele>480.9</ele>
        <time>2024-02-18T13:28:30.000Z</time>
      </trkpt>
      <trkpt lat="43.56869" lon="6.43988">
        <ele>480.8</ele>
        <time>2024-02-18T13:28:38.000Z</time>
      </trkpt>
      <trkpt lat="43.56866" lon="6.43976">
        <ele>480.4</ele>
        <time>2024-02-18T13:28:48.000Z</time>
      </trkpt>
      <trkpt lat="43.56861" lon="6.43965">
        <ele>480.1</ele>
        <time>2024-02-18T13:28:56.000Z</time>
      </trkpt>
      <trkpt lat="43.56859" lon="6.43953">
        <ele>479.8</ele>
        <time>2024-02-18T13:29:05.000Z</time>
      </trkpt>
      <trkpt lat="43.56859" lon="6.4394">
        <ele>479.4</ele>
        <time>2024-02-18T13:29:16.000Z</time>
      </trkpt>
      <trkpt lat="43.56859" lon="6.4394">
        <ele>479.3</ele>
        <time>2024-02-18T13:29:19.000Z</time>
      </trkpt>
      <trkpt lat="43.5686" lon="6.43941">
        <ele>479.3</ele>
        <time>2024-02-18T13:29:20.000Z</time>
      </trkpt>
      <trkpt lat="43.5686" lon="6.43941">
        <ele>479.3</ele>
        <time>2024-02-18T13:29:21.000Z</time>
      </trkpt>
      <trkpt lat="43.5686" lon="6.43941">
        <ele>479.3</ele>
        <time>2024-02-18T13:29:22.000Z</time>
      </trkpt>
      <trkpt lat="43.56861" lon="6.4394">
        <ele>479.2</ele>
        <time>2024-02-18T13:29:23.000Z</time>
      </trkpt>
      <trkpt lat="43.56861" lon="6.43927">
        <ele>479.3</ele>
        <time>2024-02-18T13:29:32.000Z</time>
      </trkpt>
      <trkpt lat="43.56857" lon="6.43915">
        <ele>479.5</ele>
        <time>2024-02-18T13:29:42.000Z</time>
      </trkpt>
      <trkpt lat="43.5685" lon="6.43906">
        <ele>480</ele>
        <time>2024-02-18T13:29:51.000Z</time>
      </trkpt>
      <trkpt lat="43.56845" lon="6.43895">
        <ele>480.7</ele>
        <time>2024-02-18T13:30:01.000Z</time>
      </trkpt>
      <trkpt lat="43.5684" lon="6.43884">
        <ele>481.2</ele>
        <time>2024-02-18T13:30:12.000Z</time>
      </trkpt>
      <trkpt lat="43.56837" lon="6.43881">
        <ele>481.4</ele>
        <time>2024-02-18T13:30:24.000Z</time>
      </trkpt>
      <trkpt lat="43.56837" lon="6.43881">
        <ele>481.4</ele>
        <time>2024-02-18T13:30:25.000Z</time>
      </trkpt>
      <trkpt lat="43.56837" lon="6.43881">
        <ele>481.4</ele>
        <time>2024-02-18T13:30:26.000Z</time>
      </trkpt>
      <trkpt lat="43.56836" lon="6.4388">
        <ele>481.4</ele>
        <time>2024-02-18T13:30:27.000Z</time>
      </trkpt>
      <trkpt lat="43.56835" lon="6.43879">
        <ele>481.4</ele>
        <time>2024-02-18T13:30:28.000Z</time>
      </trkpt>
      <trkpt lat="43.56832" lon="6.43867">
        <ele>481.5</ele>
        <time>2024-02-18T13:30:40.000Z</time>
      </trkpt>
      <trkpt lat="43.56827" lon="6.43857">
        <ele>481.7</ele>
        <time>2024-02-18T13:30:47.000Z</time>
      </trkpt>
      <trkpt lat="43.56821" lon="6.43846">
        <ele>481.9</ele>
        <time>2024-02-18T13:30:56.000Z</time>
      </trkpt>
      <trkpt lat="43.5682" lon="6.43833">
        <ele>482.2</ele>
        <time>2024-02-18T13:31:06.000Z</time>
      </trkpt>
      <trkpt lat="43.56817" lon="6.43821">
        <ele>482.2</ele>
        <time>2024-02-18T13:31:14.000Z</time>
      </trkpt>
      <trkpt lat="43.56815" lon="6.43808">
        <ele>482.3</ele>
        <time>2024-02-18T13:31:23.000Z</time>
      </trkpt>
      <trkpt lat="43.56816" lon="6.43808">
        <ele>482.4</ele>
        <time>2024-02-18T13:31:26.000Z</time>
      </trkpt>
      <trkpt lat="43.56816" lon="6.43808">
        <ele>482.4</ele>
        <time>2024-02-18T13:31:27.000Z</time>
      </trkpt>
      <trkpt lat="43.56816" lon="6.43808">
        <ele>482.4</ele>
        <time>2024-02-18T13:31:28.000Z</time>
      </trkpt>
      <trkpt lat="43.56816" lon="6.43807">
        <ele>482.4</ele>
        <time>2024-02-18T13:31:29.000Z</time>
      </trkpt>
      <trkpt lat="43.56816" lon="6.43806">
        <ele>482.4</ele>
        <time>2024-02-18T13:31:30.000Z</time>
      </trkpt>
      <trkpt lat="43.56814" lon="6.43805">
        <ele>482.5</ele>
        <time>2024-02-18T13:31:34.000Z</time>
      </trkpt>
      <trkpt lat="43.56814" lon="6.43805">
        <ele>482.5</ele>
        <time>2024-02-18T13:31:35.000Z</time>
      </trkpt>
      <trkpt lat="43.56814" lon="6.43805">
        <ele>482.6</ele>
        <time>2024-02-18T13:31:36.000Z</time>
      </trkpt>
      <trkpt lat="43.56814" lon="6.43805">
        <ele>482.7</ele>
        <time>2024-02-18T13:31:44.000Z</time>
      </trkpt>
      <trkpt lat="43.56814" lon="6.43805">
        <ele>482.7</ele>
        <time>2024-02-18T13:31:45.000Z</time>
      </trkpt>
      <trkpt lat="43.56814" lon="6.43805">
        <ele>482.7</ele>
        <time>2024-02-18T13:31:46.000Z</time>
      </trkpt>
      <trkpt lat="43.56814" lon="6.43805">
        <ele>482.7</ele>
        <time>2024-02-18T13:31:47.000Z</time>
      </trkpt>
      <trkpt lat="43.56814" lon="6.43804">
        <ele>482.7</ele>
        <time>2024-02-18T13:31:48.000Z</time>
      </trkpt>
      <trkpt lat="43.56814" lon="6.43804">
        <ele>482.8</ele>
        <time>2024-02-18T13:31:55.000Z</time>
      </trkpt>
      <trkpt lat="43.56814" lon="6.43804">
        <ele>482.8</ele>
        <time>2024-02-18T13:31:56.000Z</time>
      </trkpt>
      <trkpt lat="43.56814" lon="6.43804">
        <ele>482.8</ele>
        <time>2024-02-18T13:31:57.000Z</time>
      </trkpt>
      <trkpt lat="43.56814" lon="6.43804">
        <ele>482.8</ele>
        <time>2024-02-18T13:31:58.000Z</time>
      </trkpt>
      <trkpt lat="43.56814" lon="6.43804">
        <ele>482.8</ele>
        <time>2024-02-18T13:31:59.000Z</time>
      </trkpt>
      <trkpt lat="43.56814" lon="6.43804">
        <ele>482.8</ele>
        <time>2024-02-18T13:32:02.000Z</time>
      </trkpt>
      <trkpt lat="43.56814" lon="6.43804">
        <ele>482.8</ele>
        <time>2024-02-18T13:32:03.000Z</time>
      </trkpt>
      <trkpt lat="43.56814" lon="6.43804">
        <ele>482.8</ele>
        <time>2024-02-18T13:32:04.000Z</time>
      </trkpt>
      <trkpt lat="43.56814" lon="6.43805">
        <ele>482.8</ele>
        <time>2024-02-18T13:32:05.000Z</time>
      </trkpt>
      <trkpt lat="43.56814" lon="6.43804">
        <ele>482.8</ele>
        <time>2024-02-18T13:32:06.000Z</time>
      </trkpt>
      <trkpt lat="43.56814" lon="6.43804">
        <ele>482.9</ele>
        <time>2024-02-18T13:32:07.000Z</time>
      </trkpt>
      <trkpt lat="43.56813" lon="6.43804">
        <ele>482.9</ele>
        <time>2024-02-18T13:32:08.000Z</time>
      </trkpt>
      <trkpt lat="43.56813" lon="6.43804">
        <ele>482.9</ele>
        <time>2024-02-18T13:32:09.000Z</time>
      </trkpt>
      <trkpt lat="43.5681" lon="6.43807">
        <ele>482.9</ele>
        <time>2024-02-18T13:32:19.000Z</time>
      </trkpt>
      <trkpt lat="43.5681" lon="6.43807">
        <ele>482.9</ele>
        <time>2024-02-18T13:32:20.000Z</time>
      </trkpt>
      <trkpt lat="43.5681" lon="6.43807">
        <ele>482.9</ele>
        <time>2024-02-18T13:32:21.000Z</time>
      </trkpt>
      <trkpt lat="43.5681" lon="6.43807">
        <ele>482.9</ele>
        <time>2024-02-18T13:32:25.000Z</time>
      </trkpt>
      <trkpt lat="43.56809" lon="6.43806">
        <ele>483</ele>
        <time>2024-02-18T13:32:26.000Z</time>
      </trkpt>
      <trkpt lat="43.56806" lon="6.43807">
        <ele>483</ele>
        <time>2024-02-18T13:32:34.000Z</time>
      </trkpt>
      <trkpt lat="43.56806" lon="6.43808">
        <ele>483</ele>
        <time>2024-02-18T13:32:35.000Z</time>
      </trkpt>
      <trkpt lat="43.56806" lon="6.43807">
        <ele>483</ele>
        <time>2024-02-18T13:32:42.000Z</time>
      </trkpt>
      <trkpt lat="43.56806" lon="6.43807">
        <ele>483</ele>
        <time>2024-02-18T13:32:43.000Z</time>
      </trkpt>
      <trkpt lat="43.56806" lon="6.43807">
        <ele>483</ele>
        <time>2024-02-18T13:32:44.000Z</time>
      </trkpt>
      <trkpt lat="43.56806" lon="6.43807">
        <ele>483</ele>
        <time>2024-02-18T13:32:45.000Z</time>
      </trkpt>
      <trkpt lat="43.56807" lon="6.43805">
        <ele>483</ele>
        <time>2024-02-18T13:32:52.000Z</time>
      </trkpt>
      <trkpt lat="43.56807" lon="6.43804">
        <ele>483</ele>
        <time>2024-02-18T13:32:53.000Z</time>
      </trkpt>
      <trkpt lat="43.56807" lon="6.43804">
        <ele>483</ele>
        <time>2024-02-18T13:32:54.000Z</time>
      </trkpt>
      <trkpt lat="43.56807" lon="6.43804">
        <ele>483.1</ele>
        <time>2024-02-18T13:32:57.000Z</time>
      </trkpt>
      <trkpt lat="43.56807" lon="6.43804">
        <ele>483.1</ele>
        <time>2024-02-18T13:32:58.000Z</time>
      </trkpt>
      <trkpt lat="43.56807" lon="6.43804">
        <ele>483.1</ele>
        <time>2024-02-18T13:32:59.000Z</time>
      </trkpt>
      <trkpt lat="43.56807" lon="6.43805">
        <ele>483.2</ele>
        <time>2024-02-18T13:33:19.000Z</time>
      </trkpt>
      <trkpt lat="43.56807" lon="6.43806">
        <ele>483.2</ele>
        <time>2024-02-18T13:33:20.000Z</time>
      </trkpt>
      <trkpt lat="43.56807" lon="6.43809">
        <ele>483.2</ele>
        <time>2024-02-18T13:33:26.000Z</time>
      </trkpt>
      <trkpt lat="43.56807" lon="6.4381">
        <ele>483.2</ele>
        <time>2024-02-18T13:33:27.000Z</time>
      </trkpt>
      <trkpt lat="43.56807" lon="6.43811">
        <ele>483.2</ele>
        <time>2024-02-18T13:33:28.000Z</time>
      </trkpt>
      <trkpt lat="43.56807" lon="6.43812">
        <ele>483.2</ele>
        <time>2024-02-18T13:33:29.000Z</time>
      </trkpt>
      <trkpt lat="43.56808" lon="6.43814">
        <ele>483.2</ele>
        <time>2024-02-18T13:33:30.000Z</time>
      </trkpt>
      <trkpt lat="43.56808" lon="6.43814">
        <ele>483.2</ele>
        <time>2024-02-18T13:33:31.000Z</time>
      </trkpt>
      <trkpt lat="43.56809" lon="6.43814">
        <ele>483.3</ele>
        <time>2024-02-18T13:33:39.000Z</time>
      </trkpt>
      <trkpt lat="43.56809" lon="6.43814">
        <ele>483.3</ele>
        <time>2024-02-18T13:33:40.000Z</time>
      </trkpt>
      <trkpt lat="43.5681" lon="6.43814">
        <ele>483.3</ele>
        <time>2024-02-18T13:33:41.000Z</time>
      </trkpt>
      <trkpt lat="43.5681" lon="6.43814">
        <ele>483.7</ele>
        <time>2024-02-18T13:33:54.000Z</time>
      </trkpt>
      <trkpt lat="43.56811" lon="6.43812">
        <ele>483.6</ele>
        <time>2024-02-18T13:33:55.000Z</time>
      </trkpt>
      <trkpt lat="43.56812" lon="6.43811">
        <ele>483.6</ele>
        <time>2024-02-18T13:34:01.000Z</time>
      </trkpt>
      <trkpt lat="43.56812" lon="6.43811">
        <ele>483.6</ele>
        <time>2024-02-18T13:34:02.000Z</time>
      </trkpt>
      <trkpt lat="43.56812" lon="6.43811">
        <ele>483.6</ele>
        <time>2024-02-18T13:34:03.000Z</time>
      </trkpt>
      <trkpt lat="43.56812" lon="6.43811">
        <ele>483.6</ele>
        <time>2024-02-18T13:34:09.000Z</time>
      </trkpt>
      <trkpt lat="43.56812" lon="6.43811">
        <ele>483.6</ele>
        <time>2024-02-18T13:34:10.000Z</time>
      </trkpt>
      <trkpt lat="43.56812" lon="6.43811">
        <ele>483.5</ele>
        <time>2024-02-18T13:34:11.000Z</time>
      </trkpt>
      <trkpt lat="43.56812" lon="6.43811">
        <ele>483.5</ele>
        <time>2024-02-18T13:34:12.000Z</time>
      </trkpt>
      <trkpt lat="43.56811" lon="6.43811">
        <ele>483.5</ele>
        <time>2024-02-18T13:34:13.000Z</time>
      </trkpt>
      <trkpt lat="43.56811" lon="6.43811">
        <ele>483.5</ele>
        <time>2024-02-18T13:34:14.000Z</time>
      </trkpt>
      <trkpt lat="43.56811" lon="6.43811">
        <ele>483.5</ele>
        <time>2024-02-18T13:34:17.000Z</time>
      </trkpt>
      <trkpt lat="43.5681" lon="6.43812">
        <ele>483.5</ele>
        <time>2024-02-18T13:34:18.000Z</time>
      </trkpt>
      <trkpt lat="43.56808" lon="6.43811">
        <ele>483.5</ele>
        <time>2024-02-18T13:34:24.000Z</time>
      </trkpt>
      <trkpt lat="43.56808" lon="6.43811">
        <ele>483.5</ele>
        <time>2024-02-18T13:34:25.000Z</time>
      </trkpt>
      <trkpt lat="43.56808" lon="6.43811">
        <ele>483.5</ele>
        <time>2024-02-18T13:34:26.000Z</time>
      </trkpt>
      <trkpt lat="43.56808" lon="6.43811">
        <ele>483.6</ele>
        <time>2024-02-18T13:34:44.000Z</time>
      </trkpt>
      <trkpt lat="43.56807" lon="6.43811">
        <ele>483.6</ele>
        <time>2024-02-18T13:34:45.000Z</time>
      </trkpt>
      <trkpt lat="43.56798" lon="6.43809">
        <ele>484</ele>
        <time>2024-02-18T13:34:57.000Z</time>
      </trkpt>
      <trkpt lat="43.56792" lon="6.43798">
        <ele>484.1</ele>
        <time>2024-02-18T13:35:06.000Z</time>
      </trkpt>
      <trkpt lat="43.56784" lon="6.43791">
        <ele>484</ele>
        <time>2024-02-18T13:35:16.000Z</time>
      </trkpt>
      <trkpt lat="43.5678" lon="6.43779">
        <ele>483.7</ele>
        <time>2024-02-18T13:35:33.000Z</time>
      </trkpt>
      <trkpt lat="43.5678" lon="6.43778">
        <ele>483.6</ele>
        <time>2024-02-18T13:35:36.000Z</time>
      </trkpt>
      <trkpt lat="43.56781" lon="6.43778">
        <ele>483.5</ele>
        <time>2024-02-18T13:35:37.000Z</time>
      </trkpt>
      <trkpt lat="43.5678" lon="6.43778">
        <ele>483.5</ele>
        <time>2024-02-18T13:35:38.000Z</time>
      </trkpt>
      <trkpt lat="43.5678" lon="6.43778">
        <ele>483.4</ele>
        <time>2024-02-18T13:35:39.000Z</time>
      </trkpt>
      <trkpt lat="43.56779" lon="6.43778">
        <ele>483.4</ele>
        <time>2024-02-18T13:35:40.000Z</time>
      </trkpt>
      <trkpt lat="43.5678" lon="6.43778">
        <ele>483.2</ele>
        <time>2024-02-18T13:35:47.000Z</time>
      </trkpt>
      <trkpt lat="43.5678" lon="6.43778">
        <ele>483.1</ele>
        <time>2024-02-18T13:35:48.000Z</time>
      </trkpt>
      <trkpt lat="43.5678" lon="6.43777">
        <ele>483</ele>
        <time>2024-02-18T13:35:56.000Z</time>
      </trkpt>
      <trkpt lat="43.56781" lon="6.43776">
        <ele>483</ele>
        <time>2024-02-18T13:35:57.000Z</time>
      </trkpt>
      <trkpt lat="43.56781" lon="6.43776">
        <ele>483</ele>
        <time>2024-02-18T13:35:58.000Z</time>
      </trkpt>
      <trkpt lat="43.56776" lon="6.43764">
        <ele>482.3</ele>
        <time>2024-02-18T13:36:12.000Z</time>
      </trkpt>
      <trkpt lat="43.56771" lon="6.43752">
        <ele>480.5</ele>
        <time>2024-02-18T13:36:22.000Z</time>
      </trkpt>
      <trkpt lat="43.56762" lon="6.43747">
        <ele>479.1</ele>
        <time>2024-02-18T13:36:29.000Z</time>
      </trkpt>
      <trkpt lat="43.56757" lon="6.43737">
        <ele>477.7</ele>
        <time>2024-02-18T13:36:39.000Z</time>
      </trkpt>
      <trkpt lat="43.5675" lon="6.43728">
        <ele>474.7</ele>
        <time>2024-02-18T13:36:58.000Z</time>
      </trkpt>
      <trkpt lat="43.56744" lon="6.43719">
        <ele>472.3</ele>
        <time>2024-02-18T13:37:12.000Z</time>
      </trkpt>
      <trkpt lat="43.56738" lon="6.43709">
        <ele>469.6</ele>
        <time>2024-02-18T13:37:30.000Z</time>
      </trkpt>
      <trkpt lat="43.56734" lon="6.43697">
        <ele>468.1</ele>
        <time>2024-02-18T13:37:42.000Z</time>
      </trkpt>
      <trkpt lat="43.56726" lon="6.43687">
        <ele>466.2</ele>
        <time>2024-02-18T13:37:55.000Z</time>
      </trkpt>
      <trkpt lat="43.56721" lon="6.43677">
        <ele>463.4</ele>
        <time>2024-02-18T13:38:14.000Z</time>
      </trkpt>
      <trkpt lat="43.56719" lon="6.43675">
        <ele>462.8</ele>
        <time>2024-02-18T13:38:22.000Z</time>
      </trkpt>
      <trkpt lat="43.56718" lon="6.43675">
        <ele>462.7</ele>
        <time>2024-02-18T13:38:23.000Z</time>
      </trkpt>
      <trkpt lat="43.56718" lon="6.43676">
        <ele>462.4</ele>
        <time>2024-02-18T13:38:40.000Z</time>
      </trkpt>
      <trkpt lat="43.56717" lon="6.43676">
        <ele>462.4</ele>
        <time>2024-02-18T13:38:41.000Z</time>
      </trkpt>
      <trkpt lat="43.56717" lon="6.43677">
        <ele>462.4</ele>
        <time>2024-02-18T13:38:47.000Z</time>
      </trkpt>
      <trkpt lat="43.56718" lon="6.43677">
        <ele>462.4</ele>
        <time>2024-02-18T13:38:48.000Z</time>
      </trkpt>
      <trkpt lat="43.56718" lon="6.43677">
        <ele>462.4</ele>
        <time>2024-02-18T13:38:49.000Z</time>
      </trkpt>
      <trkpt lat="43.56718" lon="6.43677">
        <ele>462.4</ele>
        <time>2024-02-18T13:38:50.000Z</time>
      </trkpt>
      <trkpt lat="43.56718" lon="6.43677">
        <ele>462.4</ele>
        <time>2024-02-18T13:38:51.000Z</time>
      </trkpt>
      <trkpt lat="43.56718" lon="6.43677">
        <ele>462.4</ele>
        <time>2024-02-18T13:38:52.000Z</time>
      </trkpt>
      <trkpt lat="43.56718" lon="6.43677">
        <ele>462.4</ele>
        <time>2024-02-18T13:38:53.000Z</time>
      </trkpt>
      <trkpt lat="43.56718" lon="6.43677">
        <ele>462.4</ele>
        <time>2024-02-18T13:38:54.000Z</time>
      </trkpt>
      <trkpt lat="43.56718" lon="6.43677">
        <ele>462.4</ele>
        <time>2024-02-18T13:38:57.000Z</time>
      </trkpt>
      <trkpt lat="43.56718" lon="6.43677">
        <ele>462.4</ele>
        <time>2024-02-18T13:38:58.000Z</time>
      </trkpt>
      <trkpt lat="43.56718" lon="6.43677">
        <ele>462.4</ele>
        <time>2024-02-18T13:38:59.000Z</time>
      </trkpt>
      <trkpt lat="43.56718" lon="6.43677">
        <ele>462.4</ele>
        <time>2024-02-18T13:39:00.000Z</time>
      </trkpt>
      <trkpt lat="43.56718" lon="6.43677">
        <ele>462.4</ele>
        <time>2024-02-18T13:39:11.000Z</time>
      </trkpt>
      <trkpt lat="43.56718" lon="6.43676">
        <ele>462.4</ele>
        <time>2024-02-18T13:39:12.000Z</time>
      </trkpt>
      <trkpt lat="43.56718" lon="6.43675">
        <ele>462.4</ele>
        <time>2024-02-18T13:39:13.000Z</time>
      </trkpt>
      <trkpt lat="43.56719" lon="6.43662">
        <ele>462</ele>
        <time>2024-02-18T13:39:25.000Z</time>
      </trkpt>
      <trkpt lat="43.56721" lon="6.4365">
        <ele>461.2</ele>
        <time>2024-02-18T13:39:35.000Z</time>
      </trkpt>
      <trkpt lat="43.56729" lon="6.43644">
        <ele>460.1</ele>
        <time>2024-02-18T13:39:49.000Z</time>
      </trkpt>
      <trkpt lat="43.56737" lon="6.43638">
        <ele>459.3</ele>
        <time>2024-02-18T13:40:03.000Z</time>
      </trkpt>
      <trkpt lat="43.56745" lon="6.43631">
        <ele>458.6</ele>
        <time>2024-02-18T13:40:14.000Z</time>
      </trkpt>
      <trkpt lat="43.56753" lon="6.43624">
        <ele>457.7</ele>
        <time>2024-02-18T13:40:21.000Z</time>
      </trkpt>
      <trkpt lat="43.5676" lon="6.43616">
        <ele>455.6</ele>
        <time>2024-02-18T13:40:33.000Z</time>
      </trkpt>
      <trkpt lat="43.56768" lon="6.43607">
        <ele>454.1</ele>
        <time>2024-02-18T13:40:43.000Z</time>
      </trkpt>
      <trkpt lat="43.56774" lon="6.43598">
        <ele>452.3</ele>
        <time>2024-02-18T13:40:56.000Z</time>
      </trkpt>
      <trkpt lat="43.56781" lon="6.43589">
        <ele>451.4</ele>
        <time>2024-02-18T13:41:05.000Z</time>
      </trkpt>
      <trkpt lat="43.56784" lon="6.43585">
        <ele>447.6</ele>
        <time>2024-02-18T13:41:22.000Z</time>
      </trkpt>
      <trkpt lat="43.56784" lon="6.43585">
        <ele>448.3</ele>
        <time>2024-02-18T13:41:23.000Z</time>
      </trkpt>
      <trkpt lat="43.56784" lon="6.43585">
        <ele>450.1</ele>
        <time>2024-02-18T13:41:24.000Z</time>
      </trkpt>
      <trkpt lat="43.56784" lon="6.43585">
        <ele>451.9</ele>
        <time>2024-02-18T13:41:27.000Z</time>
      </trkpt>
      <trkpt lat="43.56784" lon="6.43585">
        <ele>451.4</ele>
        <time>2024-02-18T13:41:28.000Z</time>
      </trkpt>
      <trkpt lat="43.56784" lon="6.43585">
        <ele>451.1</ele>
        <time>2024-02-18T13:41:29.000Z</time>
      </trkpt>
      <trkpt lat="43.56784" lon="6.43585">
        <ele>450.7</ele>
        <time>2024-02-18T13:41:32.000Z</time>
      </trkpt>
      <trkpt lat="43.56785" lon="6.43585">
        <ele>450.6</ele>
        <time>2024-02-18T13:41:33.000Z</time>
      </trkpt>
      <trkpt lat="43.56785" lon="6.43584">
        <ele>450.6</ele>
        <time>2024-02-18T13:41:34.000Z</time>
      </trkpt>
      <trkpt lat="43.56786" lon="6.43584">
        <ele>450.5</ele>
        <time>2024-02-18T13:41:35.000Z</time>
      </trkpt>
      <trkpt lat="43.56787" lon="6.43583">
        <ele>450.1</ele>
        <time>2024-02-18T13:41:41.000Z</time>
      </trkpt>
      <trkpt lat="43.56787" lon="6.43583">
        <ele>450.1</ele>
        <time>2024-02-18T13:41:42.000Z</time>
      </trkpt>
      <trkpt lat="43.56787" lon="6.43583">
        <ele>450.1</ele>
        <time>2024-02-18T13:41:43.000Z</time>
      </trkpt>
      <trkpt lat="43.56787" lon="6.43583">
        <ele>450.1</ele>
        <time>2024-02-18T13:41:46.000Z</time>
      </trkpt>
      <trkpt lat="43.56786" lon="6.43583">
        <ele>450.1</ele>
        <time>2024-02-18T13:41:47.000Z</time>
      </trkpt>
      <trkpt lat="43.56786" lon="6.43583">
        <ele>450.1</ele>
        <time>2024-02-18T13:41:48.000Z</time>
      </trkpt>
      <trkpt lat="43.56785" lon="6.43584">
        <ele>450.1</ele>
        <time>2024-02-18T13:41:52.000Z</time>
      </trkpt>
      <trkpt lat="43.56785" lon="6.43584">
        <ele>450.1</ele>
        <time>2024-02-18T13:41:53.000Z</time>
      </trkpt>
      <trkpt lat="43.56785" lon="6.43583">
        <ele>450</ele>
        <time>2024-02-18T13:42:17.000Z</time>
      </trkpt>
      <trkpt lat="43.56785" lon="6.43582">
        <ele>450</ele>
        <time>2024-02-18T13:42:18.000Z</time>
      </trkpt>
      <trkpt lat="43.56784" lon="6.43582">
        <ele>450</ele>
        <time>2024-02-18T13:42:19.000Z</time>
      </trkpt>
      <trkpt lat="43.56784" lon="6.43582">
        <ele>449.8</ele>
        <time>2024-02-18T13:42:22.000Z</time>
      </trkpt>
      <trkpt lat="43.56784" lon="6.43582">
        <ele>449.8</ele>
        <time>2024-02-18T13:42:23.000Z</time>
      </trkpt>
      <trkpt lat="43.56784" lon="6.43582">
        <ele>449.9</ele>
        <time>2024-02-18T13:42:24.000Z</time>
      </trkpt>
      <trkpt lat="43.56784" lon="6.43582">
        <ele>450</ele>
        <time>2024-02-18T13:42:34.000Z</time>
      </trkpt>
      <trkpt lat="43.56784" lon="6.43582">
        <ele>449.9</ele>
        <time>2024-02-18T13:42:35.000Z</time>
      </trkpt>
      <trkpt lat="43.56784" lon="6.43582">
        <ele>449.9</ele>
        <time>2024-02-18T13:42:36.000Z</time>
      </trkpt>
      <trkpt lat="43.56784" lon="6.43582">
        <ele>449.9</ele>
        <time>2024-02-18T13:42:37.000Z</time>
      </trkpt>
      <trkpt lat="43.56784" lon="6.43582">
        <ele>449.9</ele>
        <time>2024-02-18T13:42:38.000Z</time>
      </trkpt>
      <trkpt lat="43.56785" lon="6.43582">
        <ele>449.9</ele>
        <time>2024-02-18T13:43:32.000Z</time>
      </trkpt>
      <trkpt lat="43.56785" lon="6.43582">
        <ele>449.9</ele>
        <time>2024-02-18T13:43:33.000Z</time>
      </trkpt>
      <trkpt lat="43.56786" lon="6.43582">
        <ele>449.9</ele>
        <time>2024-02-18T13:43:39.000Z</time>
      </trkpt>
      <trkpt lat="43.56786" lon="6.43581">
        <ele>449.9</ele>
        <time>2024-02-18T13:43:40.000Z</time>
      </trkpt>
      <trkpt lat="43.56786" lon="6.4358">
        <ele>449.9</ele>
        <time>2024-02-18T13:43:41.000Z</time>
      </trkpt>
      <trkpt lat="43.56786" lon="6.43579">
        <ele>449.9</ele>
        <time>2024-02-18T13:43:42.000Z</time>
      </trkpt>
      <trkpt lat="43.56787" lon="6.43579">
        <ele>449.9</ele>
        <time>2024-02-18T13:43:43.000Z</time>
      </trkpt>
      <trkpt lat="43.56795" lon="6.43572">
        <ele>449.9</ele>
        <time>2024-02-18T13:43:53.000Z</time>
      </trkpt>
      <trkpt lat="43.56802" lon="6.43565">
        <ele>449.6</ele>
        <time>2024-02-18T13:44:01.000Z</time>
      </trkpt>
      <trkpt lat="43.56809" lon="6.43556">
        <ele>449.1</ele>
        <time>2024-02-18T13:44:12.000Z</time>
      </trkpt>
      <trkpt lat="43.56816" lon="6.43548">
        <ele>448.3</ele>
        <time>2024-02-18T13:44:28.000Z</time>
      </trkpt>
      <trkpt lat="43.56818" lon="6.43535">
        <ele>447.4</ele>
        <time>2024-02-18T13:44:44.000Z</time>
      </trkpt>
      <trkpt lat="43.56822" lon="6.43524">
        <ele>446.3</ele>
        <time>2024-02-18T13:45:01.000Z</time>
      </trkpt>
      <trkpt lat="43.56826" lon="6.43513">
        <ele>445.1</ele>
        <time>2024-02-18T13:45:13.000Z</time>
      </trkpt>
      <trkpt lat="43.56834" lon="6.43506">
        <ele>443.7</ele>
        <time>2024-02-18T13:45:25.000Z</time>
      </trkpt>
      <trkpt lat="43.56844" lon="6.43504">
        <ele>442.6</ele>
        <time>2024-02-18T13:45:34.000Z</time>
      </trkpt>
      <trkpt lat="43.56849" lon="6.43493">
        <ele>441.4</ele>
        <time>2024-02-18T13:45:45.000Z</time>
      </trkpt>
      <trkpt lat="43.56854" lon="6.43483">
        <ele>439.9</ele>
        <time>2024-02-18T13:46:01.000Z</time>
      </trkpt>
      <trkpt lat="43.56858" lon="6.43481">
        <ele>439.7</ele>
        <time>2024-02-18T13:46:37.000Z</time>
      </trkpt>
      <trkpt lat="43.56858" lon="6.43481">
        <ele>439.7</ele>
        <time>2024-02-18T13:46:38.000Z</time>
      </trkpt>
      <trkpt lat="43.56858" lon="6.43481">
        <ele>439.8</ele>
        <time>2024-02-18T13:46:39.000Z</time>
      </trkpt>
      <trkpt lat="43.56858" lon="6.43481">
        <ele>439.8</ele>
        <time>2024-02-18T13:46:46.000Z</time>
      </trkpt>
      <trkpt lat="43.56858" lon="6.43481">
        <ele>439.8</ele>
        <time>2024-02-18T13:46:47.000Z</time>
      </trkpt>
      <trkpt lat="43.56858" lon="6.43481">
        <ele>439.8</ele>
        <time>2024-02-18T13:46:48.000Z</time>
      </trkpt>
      <trkpt lat="43.56858" lon="6.43481">
        <ele>439.8</ele>
        <time>2024-02-18T13:46:49.000Z</time>
      </trkpt>
      <trkpt lat="43.56858" lon="6.43481">
        <ele>439.8</ele>
        <time>2024-02-18T13:46:50.000Z</time>
      </trkpt>
      <trkpt lat="43.56858" lon="6.43481">
        <ele>439.8</ele>
        <time>2024-02-18T13:46:51.000Z</time>
      </trkpt>
      <trkpt lat="43.56858" lon="6.43481">
        <ele>439.8</ele>
        <time>2024-02-18T13:47:02.000Z</time>
      </trkpt>
      <trkpt lat="43.56858" lon="6.43482">
        <ele>439.8</ele>
        <time>2024-02-18T13:47:03.000Z</time>
      </trkpt>
      <trkpt lat="43.56851" lon="6.43475">
        <ele>439.2</ele>
        <time>2024-02-18T13:47:22.000Z</time>
      </trkpt>
      <trkpt lat="43.56849" lon="6.43463">
        <ele>437.9</ele>
        <time>2024-02-18T13:47:36.000Z</time>
      </trkpt>
      <trkpt lat="43.56853" lon="6.43457">
        <ele>436.6</ele>
        <time>2024-02-18T13:47:49.000Z</time>
      </trkpt>
      <trkpt lat="43.56853" lon="6.43457">
        <ele>436.6</ele>
        <time>2024-02-18T13:47:50.000Z</time>
      </trkpt>
      <trkpt lat="43.56853" lon="6.43457">
        <ele>436.5</ele>
        <time>2024-02-18T13:47:54.000Z</time>
      </trkpt>
      <trkpt lat="43.56853" lon="6.43457">
        <ele>436.5</ele>
        <time>2024-02-18T13:47:55.000Z</time>
      </trkpt>
      <trkpt lat="43.56849" lon="6.4346">
        <ele>436.1</ele>
        <time>2024-02-18T13:48:05.000Z</time>
      </trkpt>
      <trkpt lat="43.56849" lon="6.4346">
        <ele>436.1</ele>
        <time>2024-02-18T13:48:06.000Z</time>
      </trkpt>
      <trkpt lat="43.56848" lon="6.4346">
        <ele>436</ele>
        <time>2024-02-18T13:48:14.000Z</time>
      </trkpt>
      <trkpt lat="43.56848" lon="6.4346">
        <ele>436</ele>
        <time>2024-02-18T13:48:15.000Z</time>
      </trkpt>
      <trkpt lat="43.5684" lon="6.43451">
        <ele>434.5</ele>
        <time>2024-02-18T13:48:31.000Z</time>
      </trkpt>
      <trkpt lat="43.56835" lon="6.4344">
        <ele>431.7</ele>
        <time>2024-02-18T13:48:45.000Z</time>
      </trkpt>
      <trkpt lat="43.56828" lon="6.43431">
        <ele>429.8</ele>
        <time>2024-02-18T13:48:55.000Z</time>
      </trkpt>
      <trkpt lat="43.5682" lon="6.43425">
        <ele>427.5</ele>
        <time>2024-02-18T13:49:07.000Z</time>
      </trkpt>
      <trkpt lat="43.5681" lon="6.43424">
        <ele>425.6</ele>
        <time>2024-02-18T13:49:17.000Z</time>
      </trkpt>
      <trkpt lat="43.56802" lon="6.43417">
        <ele>423.2</ele>
        <time>2024-02-18T13:49:33.000Z</time>
      </trkpt>
      <trkpt lat="43.56797" lon="6.43406">
        <ele>420</ele>
        <time>2024-02-18T13:49:53.000Z</time>
      </trkpt>
      <trkpt lat="43.56793" lon="6.43393">
        <ele>417.3</ele>
        <time>2024-02-18T13:50:08.000Z</time>
      </trkpt>
      <trkpt lat="43.56789" lon="6.43397">
        <ele>416.3</ele>
        <time>2024-02-18T13:50:14.000Z</time>
      </trkpt>
      <trkpt lat="43.56789" lon="6.43396">
        <ele>416.2</ele>
        <time>2024-02-18T13:50:15.000Z</time>
      </trkpt>
      <trkpt lat="43.56788" lon="6.43395">
        <ele>416</ele>
        <time>2024-02-18T13:50:16.000Z</time>
      </trkpt>
      <trkpt lat="43.56787" lon="6.43395">
        <ele>415.9</ele>
        <time>2024-02-18T13:50:17.000Z</time>
      </trkpt>
      <trkpt lat="43.56787" lon="6.43394">
        <ele>415.8</ele>
        <time>2024-02-18T13:50:18.000Z</time>
      </trkpt>
      <trkpt lat="43.5678" lon="6.43387">
        <ele>413.9</ele>
        <time>2024-02-18T13:50:30.000Z</time>
      </trkpt>
      <trkpt lat="43.5677" lon="6.43387">
        <ele>411.3</ele>
        <time>2024-02-18T13:50:43.000Z</time>
      </trkpt>
      <trkpt lat="43.56763" lon="6.43378">
        <ele>409</ele>
        <time>2024-02-18T13:50:55.000Z</time>
      </trkpt>
      <trkpt lat="43.56755" lon="6.43372">
        <ele>406.3</ele>
        <time>2024-02-18T13:51:09.000Z</time>
      </trkpt>
      <trkpt lat="43.56747" lon="6.43365">
        <ele>404.5</ele>
        <time>2024-02-18T13:51:18.000Z</time>
      </trkpt>
      <trkpt lat="43.5674" lon="6.43357">
        <ele>399.9</ele>
        <time>2024-02-18T13:51:44.000Z</time>
      </trkpt>
      <trkpt lat="43.56733" lon="6.43349">
        <ele>398</ele>
        <time>2024-02-18T13:51:56.000Z</time>
      </trkpt>
      <trkpt lat="43.56725" lon="6.43343">
        <ele>396.5</ele>
        <time>2024-02-18T13:52:06.000Z</time>
      </trkpt>
      <trkpt lat="43.56717" lon="6.43334">
        <ele>394.2</ele>
        <time>2024-02-18T13:52:19.000Z</time>
      </trkpt>
      <trkpt lat="43.56715" lon="6.43322">
        <ele>391.6</ele>
        <time>2024-02-18T13:52:35.000Z</time>
      </trkpt>
      <trkpt lat="43.5671" lon="6.4331">
        <ele>390</ele>
        <time>2024-02-18T13:52:45.000Z</time>
      </trkpt>
      <trkpt lat="43.56702" lon="6.43304">
        <ele>388.5</ele>
        <time>2024-02-18T13:52:55.000Z</time>
      </trkpt>
      <trkpt lat="43.56694" lon="6.43298">
        <ele>387.2</ele>
        <time>2024-02-18T13:53:04.000Z</time>
      </trkpt>
      <trkpt lat="43.56693" lon="6.43295">
        <ele>385.8</ele>
        <time>2024-02-18T13:53:19.000Z</time>
      </trkpt>
      <trkpt lat="43.56693" lon="6.43295">
        <ele>385.8</ele>
        <time>2024-02-18T13:53:20.000Z</time>
      </trkpt>
      <trkpt lat="43.56693" lon="6.43295">
        <ele>385.5</ele>
        <time>2024-02-18T13:54:07.000Z</time>
      </trkpt>
      <trkpt lat="43.56693" lon="6.43295">
        <ele>385.5</ele>
        <time>2024-02-18T13:54:08.000Z</time>
      </trkpt>
      <trkpt lat="43.56693" lon="6.43296">
        <ele>385.5</ele>
        <time>2024-02-18T13:54:11.000Z</time>
      </trkpt>
      <trkpt lat="43.56693" lon="6.43296">
        <ele>385.5</ele>
        <time>2024-02-18T13:54:12.000Z</time>
      </trkpt>
      <trkpt lat="43.56693" lon="6.43296">
        <ele>385.5</ele>
        <time>2024-02-18T13:54:13.000Z</time>
      </trkpt>
      <trkpt lat="43.56692" lon="6.43297">
        <ele>385.5</ele>
        <time>2024-02-18T13:54:17.000Z</time>
      </trkpt>
      <trkpt lat="43.56691" lon="6.43297">
        <ele>385.5</ele>
        <time>2024-02-18T13:54:18.000Z</time>
      </trkpt>
      <trkpt lat="43.56691" lon="6.43296">
        <ele>385.5</ele>
        <time>2024-02-18T13:54:19.000Z</time>
      </trkpt>
      <trkpt lat="43.56681" lon="6.43292">
        <ele>385.3</ele>
        <time>2024-02-18T13:54:34.000Z</time>
      </trkpt>
      <trkpt lat="43.56673" lon="6.43288">
        <ele>385.1</ele>
        <time>2024-02-18T13:54:38.000Z</time>
      </trkpt>
      <trkpt lat="43.56663" lon="6.43287">
        <ele>383.9</ele>
        <time>2024-02-18T13:54:49.000Z</time>
      </trkpt>
      <trkpt lat="43.56654" lon="6.43284">
        <ele>382.1</ele>
        <time>2024-02-18T13:55:01.000Z</time>
      </trkpt>
      <trkpt lat="43.56645" lon="6.43283">
        <ele>381.6</ele>
        <time>2024-02-18T13:55:07.000Z</time>
      </trkpt>
      <trkpt lat="43.56636" lon="6.43278">
        <ele>379.8</ele>
        <time>2024-02-18T13:55:20.000Z</time>
      </trkpt>
      <trkpt lat="43.56626" lon="6.43276">
        <ele>378.6</ele>
        <time>2024-02-18T13:55:29.000Z</time>
      </trkpt>
      <trkpt lat="43.56616" lon="6.43279">
        <ele>377</ele>
        <time>2024-02-18T13:55:39.000Z</time>
      </trkpt>
      <trkpt lat="43.56609" lon="6.43287">
        <ele>375.9</ele>
        <time>2024-02-18T13:55:47.000Z</time>
      </trkpt>
      <trkpt lat="43.566" lon="6.43287">
        <ele>375</ele>
        <time>2024-02-18T13:55:55.000Z</time>
      </trkpt>
      <trkpt lat="43.56599" lon="6.43288">
        <ele>374.4</ele>
        <time>2024-02-18T13:56:02.000Z</time>
      </trkpt>
      <trkpt lat="43.56599" lon="6.43288">
        <ele>374.3</ele>
        <time>2024-02-18T13:56:03.000Z</time>
      </trkpt>
      <trkpt lat="43.56599" lon="6.43288">
        <ele>374.3</ele>
        <time>2024-02-18T13:56:04.000Z</time>
      </trkpt>
      <trkpt lat="43.56598" lon="6.43289">
        <ele>374.1</ele>
        <time>2024-02-18T13:56:09.000Z</time>
      </trkpt>
      <trkpt lat="43.56598" lon="6.4329">
        <ele>374.1</ele>
        <time>2024-02-18T13:56:10.000Z</time>
      </trkpt>
      <trkpt lat="43.56596" lon="6.43295">
        <ele>373.8</ele>
        <time>2024-02-18T13:56:25.000Z</time>
      </trkpt>
      <trkpt lat="43.56596" lon="6.43295">
        <ele>373.8</ele>
        <time>2024-02-18T13:56:26.000Z</time>
      </trkpt>
      <trkpt lat="43.56597" lon="6.43295">
        <ele>373.7</ele>
        <time>2024-02-18T13:56:52.000Z</time>
      </trkpt>
      <trkpt lat="43.56597" lon="6.43295">
        <ele>373.7</ele>
        <time>2024-02-18T13:56:53.000Z</time>
      </trkpt>
      <trkpt lat="43.56597" lon="6.43295">
        <ele>373.7</ele>
        <time>2024-02-18T13:56:56.000Z</time>
      </trkpt>
      <trkpt lat="43.56597" lon="6.43295">
        <ele>373.7</ele>
        <time>2024-02-18T13:56:57.000Z</time>
      </trkpt>
      <trkpt lat="43.56597" lon="6.43295">
        <ele>373.7</ele>
        <time>2024-02-18T13:56:58.000Z</time>
      </trkpt>
      <trkpt lat="43.56597" lon="6.43295">
        <ele>373.7</ele>
        <time>2024-02-18T13:57:02.000Z</time>
      </trkpt>
      <trkpt lat="43.56597" lon="6.43295">
        <ele>373.7</ele>
        <time>2024-02-18T13:57:03.000Z</time>
      </trkpt>
      <trkpt lat="43.56597" lon="6.43295">
        <ele>373.7</ele>
        <time>2024-02-18T13:57:04.000Z</time>
      </trkpt>
      <trkpt lat="43.56596" lon="6.43294">
        <ele>373.7</ele>
        <time>2024-02-18T13:57:07.000Z</time>
      </trkpt>
      <trkpt lat="43.56595" lon="6.43294">
        <ele>373.7</ele>
        <time>2024-02-18T13:57:08.000Z</time>
      </trkpt>
      <trkpt lat="43.56595" lon="6.43294">
        <ele>373.7</ele>
        <time>2024-02-18T13:57:09.000Z</time>
      </trkpt>
      <trkpt lat="43.56595" lon="6.43293">
        <ele>373.7</ele>
        <time>2024-02-18T13:57:22.000Z</time>
      </trkpt>
      <trkpt lat="43.56594" lon="6.43293">
        <ele>373.7</ele>
        <time>2024-02-18T13:57:23.000Z</time>
      </trkpt>
      <trkpt lat="43.56594" lon="6.43293">
        <ele>373.7</ele>
        <time>2024-02-18T13:57:24.000Z</time>
      </trkpt>
      <trkpt lat="43.56594" lon="6.43293">
        <ele>373.7</ele>
        <time>2024-02-18T13:57:25.000Z</time>
      </trkpt>
      <trkpt lat="43.56594" lon="6.43294">
        <ele>373.7</ele>
        <time>2024-02-18T13:57:39.000Z</time>
      </trkpt>
      <trkpt lat="43.56594" lon="6.43294">
        <ele>373.7</ele>
        <time>2024-02-18T13:57:40.000Z</time>
      </trkpt>
      <trkpt lat="43.56594" lon="6.43294">
        <ele>373.7</ele>
        <time>2024-02-18T13:57:41.000Z</time>
      </trkpt>
      <trkpt lat="43.56594" lon="6.43294">
        <ele>373.7</ele>
        <time>2024-02-18T13:57:42.000Z</time>
      </trkpt>
      <trkpt lat="43.56594" lon="6.43294">
        <ele>373.7</ele>
        <time>2024-02-18T13:57:43.000Z</time>
      </trkpt>
      <trkpt lat="43.56594" lon="6.43294">
        <ele>373.7</ele>
        <time>2024-02-18T13:57:59.000Z</time>
      </trkpt>
      <trkpt lat="43.56594" lon="6.43294">
        <ele>373.7</ele>
        <time>2024-02-18T13:58:00.000Z</time>
      </trkpt>
      <trkpt lat="43.56594" lon="6.43294">
        <ele>373.7</ele>
        <time>2024-02-18T13:58:01.000Z</time>
      </trkpt>
      <trkpt lat="43.56594" lon="6.43294">
        <ele>373.7</ele>
        <time>2024-02-18T13:58:02.000Z</time>
      </trkpt>
      <trkpt lat="43.56594" lon="6.43294">
        <ele>373.7</ele>
        <time>2024-02-18T13:58:03.000Z</time>
      </trkpt>
      <trkpt lat="43.56594" lon="6.43294">
        <ele>373.7</ele>
        <time>2024-02-18T13:58:04.000Z</time>
      </trkpt>
      <trkpt lat="43.56593" lon="6.43294">
        <ele>373.7</ele>
        <time>2024-02-18T13:58:05.000Z</time>
      </trkpt>
      <trkpt lat="43.56593" lon="6.43294">
        <ele>373.7</ele>
        <time>2024-02-18T13:58:06.000Z</time>
      </trkpt>
      <trkpt lat="43.56583" lon="6.43295">
        <ele>373.7</ele>
        <time>2024-02-18T13:58:17.000Z</time>
      </trkpt>
      <trkpt lat="43.56574" lon="6.43295">
        <ele>373.6</ele>
        <time>2024-02-18T13:58:29.000Z</time>
      </trkpt>
      <trkpt lat="43.56566" lon="6.43301">
        <ele>373.5</ele>
        <time>2024-02-18T13:58:36.000Z</time>
      </trkpt>
      <trkpt lat="43.56558" lon="6.43307">
        <ele>373.3</ele>
        <time>2024-02-18T13:58:45.000Z</time>
      </trkpt>
      <trkpt lat="43.56549" lon="6.4331">
        <ele>371.9</ele>
        <time>2024-02-18T13:58:59.000Z</time>
      </trkpt>
      <trkpt lat="43.56549" lon="6.4331">
        <ele>371.7</ele>
        <time>2024-02-18T13:59:00.000Z</time>
      </trkpt>
      <trkpt lat="43.56549" lon="6.43309">
        <ele>371.6</ele>
        <time>2024-02-18T13:59:01.000Z</time>
      </trkpt>
      <trkpt lat="43.56548" lon="6.43309">
        <ele>371.5</ele>
        <time>2024-02-18T13:59:02.000Z</time>
      </trkpt>
      <trkpt lat="43.56548" lon="6.43308">
        <ele>371.4</ele>
        <time>2024-02-18T13:59:03.000Z</time>
      </trkpt>
      <trkpt lat="43.5654" lon="6.43299">
        <ele>370.4</ele>
        <time>2024-02-18T13:59:12.000Z</time>
      </trkpt>
      <trkpt lat="43.56532" lon="6.43293">
        <ele>369.8</ele>
        <time>2024-02-18T13:59:22.000Z</time>
      </trkpt>
      <trkpt lat="43.56521" lon="6.43294">
        <ele>369.3</ele>
        <time>2024-02-18T13:59:33.000Z</time>
      </trkpt>
      <trkpt lat="43.56512" lon="6.43294">
        <ele>369.1</ele>
        <time>2024-02-18T13:59:40.000Z</time>
      </trkpt>
      <trkpt lat="43.56503" lon="6.43294">
        <ele>368.8</ele>
        <time>2024-02-18T13:59:49.000Z</time>
      </trkpt>
      <trkpt lat="43.56494" lon="6.43295">
        <ele>368.6</ele>
        <time>2024-02-18T13:59:58.000Z</time>
      </trkpt>
      <trkpt lat="43.56484" lon="6.43295">
        <ele>368.5</ele>
        <time>2024-02-18T14:00:07.000Z</time>
      </trkpt>
      <trkpt lat="43.56479" lon="6.43297">
        <ele>368.5</ele>
        <time>2024-02-18T14:00:17.000Z</time>
      </trkpt>
      <trkpt lat="43.56479" lon="6.43297">
        <ele>368.4</ele>
        <time>2024-02-18T14:00:18.000Z</time>
      </trkpt>
      <trkpt lat="43.56479" lon="6.43297">
        <ele>368.4</ele>
        <time>2024-02-18T14:00:19.000Z</time>
      </trkpt>
      <trkpt lat="43.56479" lon="6.43297">
        <ele>368.4</ele>
        <time>2024-02-18T14:00:20.000Z</time>
      </trkpt>
      <trkpt lat="43.56479" lon="6.43297">
        <ele>368.4</ele>
        <time>2024-02-18T14:00:21.000Z</time>
      </trkpt>
      <trkpt lat="43.56479" lon="6.43297">
        <ele>368.4</ele>
        <time>2024-02-18T14:00:22.000Z</time>
      </trkpt>
      <trkpt lat="43.56479" lon="6.43297">
        <ele>368.4</ele>
        <time>2024-02-18T14:00:23.000Z</time>
      </trkpt>
      <trkpt lat="43.56479" lon="6.43297">
        <ele>368.4</ele>
        <time>2024-02-18T14:00:26.000Z</time>
      </trkpt>
      <trkpt lat="43.56479" lon="6.43297">
        <ele>368.4</ele>
        <time>2024-02-18T14:00:27.000Z</time>
      </trkpt>
      <trkpt lat="43.56479" lon="6.43297">
        <ele>368.4</ele>
        <time>2024-02-18T14:00:28.000Z</time>
      </trkpt>
      <trkpt lat="43.56478" lon="6.43283">
        <ele>367.6</ele>
        <time>2024-02-18T14:00:43.000Z</time>
      </trkpt>
      <trkpt lat="43.56478" lon="6.43271">
        <ele>366.9</ele>
        <time>2024-02-18T14:00:52.000Z</time>
      </trkpt>
      <trkpt lat="43.56475" lon="6.43258">
        <ele>366.2</ele>
        <time>2024-02-18T14:01:01.000Z</time>
      </trkpt>
      <trkpt lat="43.56472" lon="6.43246">
        <ele>365.7</ele>
        <time>2024-02-18T14:01:09.000Z</time>
      </trkpt>
      <trkpt lat="43.56474" lon="6.43233">
        <ele>365.4</ele>
        <time>2024-02-18T14:01:17.000Z</time>
      </trkpt>
      <trkpt lat="43.56477" lon="6.43219">
        <ele>365.1</ele>
        <time>2024-02-18T14:01:26.000Z</time>
      </trkpt>
      <trkpt lat="43.56481" lon="6.43208">
        <ele>365</ele>
        <time>2024-02-18T14:01:37.000Z</time>
      </trkpt>
      <trkpt lat="43.56485" lon="6.43196">
        <ele>364.9</ele>
        <time>2024-02-18T14:01:52.000Z</time>
      </trkpt>
      <trkpt lat="43.56485" lon="6.43186">
        <ele>366.2</ele>
        <time>2024-02-18T14:02:09.000Z</time>
      </trkpt>
      <trkpt lat="43.56485" lon="6.43186">
        <ele>366.3</ele>
        <time>2024-02-18T14:02:10.000Z</time>
      </trkpt>
      <trkpt lat="43.56484" lon="6.43187">
        <ele>366.4</ele>
        <time>2024-02-18T14:02:11.000Z</time>
      </trkpt>
      <trkpt lat="43.56482" lon="6.43188">
        <ele>366.5</ele>
        <time>2024-02-18T14:02:12.000Z</time>
      </trkpt>
      <trkpt lat="43.56481" lon="6.43189">
        <ele>366.6</ele>
        <time>2024-02-18T14:02:13.000Z</time>
      </trkpt>
      <trkpt lat="43.56471" lon="6.43192">
        <ele>367.5</ele>
        <time>2024-02-18T14:02:22.000Z</time>
      </trkpt>
      <trkpt lat="43.56462" lon="6.43196">
        <ele>368.8</ele>
        <time>2024-02-18T14:02:32.000Z</time>
      </trkpt>
      <trkpt lat="43.56456" lon="6.43187">
        <ele>370.8</ele>
        <time>2024-02-18T14:02:54.000Z</time>
      </trkpt>
      <trkpt lat="43.56459" lon="6.43175">
        <ele>371.1</ele>
        <time>2024-02-18T14:03:03.000Z</time>
      </trkpt>
      <trkpt lat="43.5646" lon="6.43162">
        <ele>371.3</ele>
        <time>2024-02-18T14:03:13.000Z</time>
      </trkpt>
      <trkpt lat="43.56456" lon="6.43173">
        <ele>371.3</ele>
        <time>2024-02-18T14:03:31.000Z</time>
      </trkpt>
      <trkpt lat="43.56454" lon="6.43186">
        <ele>371.4</ele>
        <time>2024-02-18T14:03:40.000Z</time>
      </trkpt>
      <trkpt lat="43.56456" lon="6.43199">
        <ele>371.3</ele>
        <time>2024-02-18T14:03:49.000Z</time>
      </trkpt>
      <trkpt lat="43.56454" lon="6.43212">
        <ele>371.3</ele>
        <time>2024-02-18T14:03:59.000Z</time>
      </trkpt>
      <trkpt lat="43.56447" lon="6.43221">
        <ele>371.3</ele>
        <time>2024-02-18T14:04:09.000Z</time>
      </trkpt>
      <trkpt lat="43.56445" lon="6.43223">
        <ele>371.3</ele>
        <time>2024-02-18T14:04:20.000Z</time>
      </trkpt>
      <trkpt lat="43.56445" lon="6.43223">
        <ele>371.3</ele>
        <time>2024-02-18T14:04:21.000Z</time>
      </trkpt>
      <trkpt lat="43.56445" lon="6.43221">
        <ele>371.3</ele>
        <time>2024-02-18T14:04:27.000Z</time>
      </trkpt>
      <trkpt lat="43.56446" lon="6.4322">
        <ele>371.3</ele>
        <time>2024-02-18T14:04:28.000Z</time>
      </trkpt>
      <trkpt lat="43.56446" lon="6.43219">
        <ele>371.3</ele>
        <time>2024-02-18T14:04:29.000Z</time>
      </trkpt>
      <trkpt lat="43.56446" lon="6.43206">
        <ele>371.3</ele>
        <time>2024-02-18T14:04:38.000Z</time>
      </trkpt>
      <trkpt lat="43.56444" lon="6.43193">
        <ele>371.4</ele>
        <time>2024-02-18T14:04:47.000Z</time>
      </trkpt>
      <trkpt lat="43.56442" lon="6.43181">
        <ele>371.6</ele>
        <time>2024-02-18T14:04:55.000Z</time>
      </trkpt>
      <trkpt lat="43.56442" lon="6.43168">
        <ele>371.8</ele>
        <time>2024-02-18T14:05:05.000Z</time>
      </trkpt>
      <trkpt lat="43.56439" lon="6.43155">
        <ele>372</ele>
        <time>2024-02-18T14:05:14.000Z</time>
      </trkpt>
      <trkpt lat="43.56432" lon="6.43148">
        <ele>371.9</ele>
        <time>2024-02-18T14:05:27.000Z</time>
      </trkpt>
      <trkpt lat="43.56432" lon="6.43148">
        <ele>371.9</ele>
        <time>2024-02-18T14:05:28.000Z</time>
      </trkpt>
      <trkpt lat="43.56432" lon="6.43148">
        <ele>371.9</ele>
        <time>2024-02-18T14:05:29.000Z</time>
      </trkpt>
      <trkpt lat="43.56431" lon="6.43147">
        <ele>371.9</ele>
        <time>2024-02-18T14:05:32.000Z</time>
      </trkpt>
      <trkpt lat="43.5643" lon="6.43147">
        <ele>371.8</ele>
        <time>2024-02-18T14:05:33.000Z</time>
      </trkpt>
      <trkpt lat="43.56421" lon="6.43142">
        <ele>371.6</ele>
        <time>2024-02-18T14:05:42.000Z</time>
      </trkpt>
      <trkpt lat="43.56413" lon="6.43135">
        <ele>371</ele>
        <time>2024-02-18T14:05:51.000Z</time>
      </trkpt>
      <trkpt lat="43.56407" lon="6.43125">
        <ele>369.2</ele>
        <time>2024-02-18T14:06:05.000Z</time>
      </trkpt>
      <trkpt lat="43.564" lon="6.43117">
        <ele>368.2</ele>
        <time>2024-02-18T14:06:13.000Z</time>
      </trkpt>
      <trkpt lat="43.56391" lon="6.43111">
        <ele>367.4</ele>
        <time>2024-02-18T14:06:21.000Z</time>
      </trkpt>
      <trkpt lat="43.56382" lon="6.43105">
        <ele>365.7</ele>
        <time>2024-02-18T14:06:34.000Z</time>
      </trkpt>
      <trkpt lat="43.56373" lon="6.431">
        <ele>364.7</ele>
        <time>2024-02-18T14:06:42.000Z</time>
      </trkpt>
      <trkpt lat="43.56364" lon="6.43095">
        <ele>363.3</ele>
        <time>2024-02-18T14:06:54.000Z</time>
      </trkpt>
      <trkpt lat="43.56357" lon="6.43093">
        <ele>362.7</ele>
        <time>2024-02-18T14:07:01.000Z</time>
      </trkpt>
      <trkpt lat="43.56357" lon="6.43093">
        <ele>362.6</ele>
        <time>2024-02-18T14:07:02.000Z</time>
      </trkpt>
      <trkpt lat="43.56357" lon="6.43094">
        <ele>362.6</ele>
        <time>2024-02-18T14:07:03.000Z</time>
      </trkpt>
      <trkpt lat="43.56357" lon="6.43093">
        <ele>362.4</ele>
        <time>2024-02-18T14:07:07.000Z</time>
      </trkpt>
      <trkpt lat="43.56357" lon="6.43092">
        <ele>362.4</ele>
        <time>2024-02-18T14:07:08.000Z</time>
      </trkpt>
      <trkpt lat="43.56357" lon="6.43092">
        <ele>362.4</ele>
        <time>2024-02-18T14:07:09.000Z</time>
      </trkpt>
      <trkpt lat="43.56357" lon="6.43091">
        <ele>362.3</ele>
        <time>2024-02-18T14:07:10.000Z</time>
      </trkpt>
      <trkpt lat="43.56357" lon="6.4309">
        <ele>362.2</ele>
        <time>2024-02-18T14:07:27.000Z</time>
      </trkpt>
      <trkpt lat="43.56357" lon="6.43089">
        <ele>362.2</ele>
        <time>2024-02-18T14:07:28.000Z</time>
      </trkpt>
      <trkpt lat="43.56357" lon="6.43089">
        <ele>362.2</ele>
        <time>2024-02-18T14:07:29.000Z</time>
      </trkpt>
      <trkpt lat="43.56357" lon="6.43089">
        <ele>362.1</ele>
        <time>2024-02-18T14:07:30.000Z</time>
      </trkpt>
      <trkpt lat="43.56357" lon="6.4309">
        <ele>362</ele>
        <time>2024-02-18T14:07:42.000Z</time>
      </trkpt>
      <trkpt lat="43.56357" lon="6.43089">
        <ele>362</ele>
        <time>2024-02-18T14:07:43.000Z</time>
      </trkpt>
      <trkpt lat="43.56357" lon="6.43089">
        <ele>362</ele>
        <time>2024-02-18T14:07:44.000Z</time>
      </trkpt>
      <trkpt lat="43.56357" lon="6.43089">
        <ele>362</ele>
        <time>2024-02-18T14:07:45.000Z</time>
      </trkpt>
      <trkpt lat="43.56356" lon="6.43089">
        <ele>361.9</ele>
        <time>2024-02-18T14:08:24.000Z</time>
      </trkpt>
      <trkpt lat="43.56355" lon="6.4309">
        <ele>361.9</ele>
        <time>2024-02-18T14:08:25.000Z</time>
      </trkpt>
      <trkpt lat="43.56355" lon="6.43095">
        <ele>361.9</ele>
        <time>2024-02-18T14:08:32.000Z</time>
      </trkpt>
      <trkpt lat="43.56355" lon="6.43095">
        <ele>361.9</ele>
        <time>2024-02-18T14:08:33.000Z</time>
      </trkpt>
      <trkpt lat="43.56355" lon="6.43095">
        <ele>361.9</ele>
        <time>2024-02-18T14:08:34.000Z</time>
      </trkpt>
      <trkpt lat="43.56355" lon="6.43094">
        <ele>362</ele>
        <time>2024-02-18T14:08:35.000Z</time>
      </trkpt>
      <trkpt lat="43.5635" lon="6.43084">
        <ele>361.9</ele>
        <time>2024-02-18T14:08:49.000Z</time>
      </trkpt>
      <trkpt lat="43.56341" lon="6.43078">
        <ele>360.8</ele>
        <time>2024-02-18T14:09:00.000Z</time>
      </trkpt>
      <trkpt lat="43.56333" lon="6.43071">
        <ele>358.4</ele>
        <time>2024-02-18T14:09:11.000Z</time>
      </trkpt>
      <trkpt lat="43.56337" lon="6.43084">
        <ele>357</ele>
        <time>2024-02-18T14:09:22.000Z</time>
      </trkpt>
      <trkpt lat="43.56344" lon="6.43092">
        <ele>357.4</ele>
        <time>2024-02-18T14:09:32.000Z</time>
      </trkpt>
      <trkpt lat="43.56346" lon="6.43106">
        <ele>358</ele>
        <time>2024-02-18T14:09:43.000Z</time>
      </trkpt>
      <trkpt lat="43.5634" lon="6.43116">
        <ele>358.3</ele>
        <time>2024-02-18T14:09:57.000Z</time>
      </trkpt>
      <trkpt lat="43.56336" lon="6.43127">
        <ele>358.4</ele>
        <time>2024-02-18T14:10:06.000Z</time>
      </trkpt>
      <trkpt lat="43.56331" lon="6.43138">
        <ele>358.5</ele>
        <time>2024-02-18T14:10:13.000Z</time>
      </trkpt>
      <trkpt lat="43.56329" lon="6.43151">
        <ele>358.5</ele>
        <time>2024-02-18T14:10:21.000Z</time>
      </trkpt>
      <trkpt lat="43.56327" lon="6.43163">
        <ele>358.6</ele>
        <time>2024-02-18T14:10:30.000Z</time>
      </trkpt>
      <trkpt lat="43.56321" lon="6.43174">
        <ele>358.6</ele>
        <time>2024-02-18T14:10:39.000Z</time>
      </trkpt>
      <trkpt lat="43.56315" lon="6.43184">
        <ele>358.5</ele>
        <time>2024-02-18T14:10:48.000Z</time>
      </trkpt>
      <trkpt lat="43.56312" lon="6.43195">
        <ele>358.1</ele>
        <time>2024-02-18T14:10:57.000Z</time>
      </trkpt>
      <trkpt lat="43.56307" lon="6.43207">
        <ele>357.2</ele>
        <time>2024-02-18T14:11:06.000Z</time>
      </trkpt>
      <trkpt lat="43.56305" lon="6.4322">
        <ele>356.1</ele>
        <time>2024-02-18T14:11:15.000Z</time>
      </trkpt>
      <trkpt lat="43.56302" lon="6.43233">
        <ele>354.6</ele>
        <time>2024-02-18T14:11:27.000Z</time>
      </trkpt>
      <trkpt lat="43.56301" lon="6.43245">
        <ele>353.2</ele>
        <time>2024-02-18T14:11:37.000Z</time>
      </trkpt>
      <trkpt lat="43.56302" lon="6.43259">
        <ele>351.9</ele>
        <time>2024-02-18T14:11:46.000Z</time>
      </trkpt>
      <trkpt lat="43.56306" lon="6.43272">
        <ele>351.2</ele>
        <time>2024-02-18T14:11:56.000Z</time>
      </trkpt>
      <trkpt lat="43.56307" lon="6.43285">
        <ele>350.5</ele>
        <time>2024-02-18T14:12:08.000Z</time>
      </trkpt>
      <trkpt lat="43.56311" lon="6.43297">
        <ele>350</ele>
        <time>2024-02-18T14:12:16.000Z</time>
      </trkpt>
      <trkpt lat="43.56311" lon="6.4331">
        <ele>349.6</ele>
        <time>2024-02-18T14:12:25.000Z</time>
      </trkpt>
      <trkpt lat="43.56308" lon="6.43322">
        <ele>349.1</ele>
        <time>2024-02-18T14:12:33.000Z</time>
      </trkpt>
      <trkpt lat="43.56306" lon="6.43334">
        <ele>348.3</ele>
        <time>2024-02-18T14:12:46.000Z</time>
      </trkpt>
      <trkpt lat="43.56302" lon="6.43346">
        <ele>348</ele>
        <time>2024-02-18T14:12:55.000Z</time>
      </trkpt>
      <trkpt lat="43.56298" lon="6.43358">
        <ele>347.7</ele>
        <time>2024-02-18T14:13:04.000Z</time>
      </trkpt>
      <trkpt lat="43.56292" lon="6.43368">
        <ele>347.4</ele>
        <time>2024-02-18T14:13:14.000Z</time>
      </trkpt>
      <trkpt lat="43.56288" lon="6.4338">
        <ele>347.2</ele>
        <time>2024-02-18T14:13:23.000Z</time>
      </trkpt>
      <trkpt lat="43.56281" lon="6.4339">
        <ele>346.9</ele>
        <time>2024-02-18T14:13:31.000Z</time>
      </trkpt>
      <trkpt lat="43.56281" lon="6.43393">
        <ele>346.8</ele>
        <time>2024-02-18T14:13:37.000Z</time>
      </trkpt>
      <trkpt lat="43.56281" lon="6.43393">
        <ele>346.7</ele>
        <time>2024-02-18T14:13:38.000Z</time>
      </trkpt>
      <trkpt lat="43.56281" lon="6.43393">
        <ele>346.6</ele>
        <time>2024-02-18T14:13:49.000Z</time>
      </trkpt>
      <trkpt lat="43.56281" lon="6.43392">
        <ele>346.6</ele>
        <time>2024-02-18T14:13:50.000Z</time>
      </trkpt>
      <trkpt lat="43.56281" lon="6.43392">
        <ele>346.5</ele>
        <time>2024-02-18T14:13:54.000Z</time>
      </trkpt>
      <trkpt lat="43.56281" lon="6.43392">
        <ele>346.5</ele>
        <time>2024-02-18T14:13:55.000Z</time>
      </trkpt>
      <trkpt lat="43.56281" lon="6.43392">
        <ele>346.5</ele>
        <time>2024-02-18T14:13:56.000Z</time>
      </trkpt>
      <trkpt lat="43.56281" lon="6.43393">
        <ele>346.5</ele>
        <time>2024-02-18T14:13:57.000Z</time>
      </trkpt>
      <trkpt lat="43.56282" lon="6.43394">
        <ele>346.5</ele>
        <time>2024-02-18T14:13:58.000Z</time>
      </trkpt>
      <trkpt lat="43.56278" lon="6.43406">
        <ele>346.3</ele>
        <time>2024-02-18T14:14:12.000Z</time>
      </trkpt>
      <trkpt lat="43.56273" lon="6.43415">
        <ele>346.2</ele>
        <time>2024-02-18T14:14:19.000Z</time>
      </trkpt>
      <trkpt lat="43.56265" lon="6.43424">
        <ele>345.9</ele>
        <time>2024-02-18T14:14:30.000Z</time>
      </trkpt>
      <trkpt lat="43.56255" lon="6.43428">
        <ele>345.4</ele>
        <time>2024-02-18T14:14:37.000Z</time>
      </trkpt>
      <trkpt lat="43.56246" lon="6.43431">
        <ele>344.6</ele>
        <time>2024-02-18T14:14:47.000Z</time>
      </trkpt>
      <trkpt lat="43.56237" lon="6.43435">
        <ele>343.7</ele>
        <time>2024-02-18T14:14:55.000Z</time>
      </trkpt>
      <trkpt lat="43.56229" lon="6.43443">
        <ele>342.2</ele>
        <time>2024-02-18T14:15:05.000Z</time>
      </trkpt>
      <trkpt lat="43.56221" lon="6.43451">
        <ele>340.8</ele>
        <time>2024-02-18T14:15:14.000Z</time>
      </trkpt>
      <trkpt lat="43.56215" lon="6.4346">
        <ele>339.2</ele>
        <time>2024-02-18T14:15:24.000Z</time>
      </trkpt>
      <trkpt lat="43.56207" lon="6.43468">
        <ele>337.9</ele>
        <time>2024-02-18T14:15:33.000Z</time>
      </trkpt>
      <trkpt lat="43.56199" lon="6.43473">
        <ele>336.7</ele>
        <time>2024-02-18T14:15:42.000Z</time>
      </trkpt>
      <trkpt lat="43.56189" lon="6.43478">
        <ele>335.3</ele>
        <time>2024-02-18T14:15:52.000Z</time>
      </trkpt>
      <trkpt lat="43.56183" lon="6.43487">
        <ele>334.1</ele>
        <time>2024-02-18T14:16:01.000Z</time>
      </trkpt>
      <trkpt lat="43.56174" lon="6.43491">
        <ele>332.9</ele>
        <time>2024-02-18T14:16:10.000Z</time>
      </trkpt>
      <trkpt lat="43.56165" lon="6.43492">
        <ele>331.9</ele>
        <time>2024-02-18T14:16:19.000Z</time>
      </trkpt>
      <trkpt lat="43.56155" lon="6.43491">
        <ele>330.7</ele>
        <time>2024-02-18T14:16:29.000Z</time>
      </trkpt>
      <trkpt lat="43.56146" lon="6.43485">
        <ele>329.9</ele>
        <time>2024-02-18T14:16:37.000Z</time>
      </trkpt>
      <trkpt lat="43.56136" lon="6.43485">
        <ele>329</ele>
        <time>2024-02-18T14:16:46.000Z</time>
      </trkpt>
      <trkpt lat="43.56127" lon="6.43487">
        <ele>328.3</ele>
        <time>2024-02-18T14:16:54.000Z</time>
      </trkpt>
      <trkpt lat="43.56118" lon="6.43492">
        <ele>327.7</ele>
        <time>2024-02-18T14:17:03.000Z</time>
      </trkpt>
      <trkpt lat="43.56108" lon="6.43491">
        <ele>327.3</ele>
        <time>2024-02-18T14:17:12.000Z</time>
      </trkpt>
      <trkpt lat="43.56101" lon="6.43483">
        <ele>326.8</ele>
        <time>2024-02-18T14:17:20.000Z</time>
      </trkpt>
      <trkpt lat="43.56098" lon="6.43471">
        <ele>326.2</ele>
        <time>2024-02-18T14:17:31.000Z</time>
      </trkpt>
      <trkpt lat="43.56093" lon="6.4346">
        <ele>325.8</ele>
        <time>2024-02-18T14:17:39.000Z</time>
      </trkpt>
      <trkpt lat="43.5609" lon="6.43448">
        <ele>325.5</ele>
        <time>2024-02-18T14:17:46.000Z</time>
      </trkpt>
      <trkpt lat="43.56087" lon="6.43436">
        <ele>325</ele>
        <time>2024-02-18T14:17:57.000Z</time>
      </trkpt>
      <trkpt lat="43.56087" lon="6.43423">
        <ele>324.7</ele>
        <time>2024-02-18T14:18:06.000Z</time>
      </trkpt>
      <trkpt lat="43.56088" lon="6.43409">
        <ele>324.5</ele>
        <time>2024-02-18T14:18:14.000Z</time>
      </trkpt>
      <trkpt lat="43.56086" lon="6.43396">
        <ele>324.4</ele>
        <time>2024-02-18T14:18:23.000Z</time>
      </trkpt>
      <trkpt lat="43.56087" lon="6.43383">
        <ele>324.3</ele>
        <time>2024-02-18T14:18:33.000Z</time>
      </trkpt>
      <trkpt lat="43.56086" lon="6.43377">
        <ele>323.8</ele>
        <time>2024-02-18T14:18:44.000Z</time>
      </trkpt>
      <trkpt lat="43.56085" lon="6.43377">
        <ele>323.8</ele>
        <time>2024-02-18T14:18:45.000Z</time>
      </trkpt>
      <trkpt lat="43.56085" lon="6.43378">
        <ele>323.7</ele>
        <time>2024-02-18T14:18:46.000Z</time>
      </trkpt>
      <trkpt lat="43.56085" lon="6.43379">
        <ele>323.6</ele>
        <time>2024-02-18T14:18:47.000Z</time>
      </trkpt>
      <trkpt lat="43.56085" lon="6.43379">
        <ele>323.5</ele>
        <time>2024-02-18T14:18:48.000Z</time>
      </trkpt>
      <trkpt lat="43.56086" lon="6.43381">
        <ele>323.1</ele>
        <time>2024-02-18T14:18:56.000Z</time>
      </trkpt>
      <trkpt lat="43.56086" lon="6.43381">
        <ele>322.8</ele>
        <time>2024-02-18T14:18:57.000Z</time>
      </trkpt>
      <trkpt lat="43.56086" lon="6.4338">
        <ele>322.4</ele>
        <time>2024-02-18T14:18:58.000Z</time>
      </trkpt>
      <trkpt lat="43.56085" lon="6.43381">
        <ele>325.5</ele>
        <time>2024-02-18T14:19:02.000Z</time>
      </trkpt>
      <trkpt lat="43.56086" lon="6.43381">
        <ele>325.2</ele>
        <time>2024-02-18T14:19:03.000Z</time>
      </trkpt>
      <trkpt lat="43.56086" lon="6.43368">
        <ele>323.2</ele>
        <time>2024-02-18T14:19:13.000Z</time>
      </trkpt>
      <trkpt lat="43.56085" lon="6.43354">
        <ele>321.4</ele>
        <time>2024-02-18T14:19:24.000Z</time>
      </trkpt>
      <trkpt lat="43.56081" lon="6.43342">
        <ele>319.9</ele>
        <time>2024-02-18T14:19:34.000Z</time>
      </trkpt>
      <trkpt lat="43.56082" lon="6.43329">
        <ele>319.1</ele>
        <time>2024-02-18T14:19:43.000Z</time>
      </trkpt>
      <trkpt lat="43.56082" lon="6.43316">
        <ele>318.7</ele>
        <time>2024-02-18T14:19:51.000Z</time>
      </trkpt>
      <trkpt lat="43.56081" lon="6.43303">
        <ele>318.4</ele>
        <time>2024-02-18T14:20:00.000Z</time>
      </trkpt>
      <trkpt lat="43.56072" lon="6.43304">
        <ele>318.1</ele>
        <time>2024-02-18T14:20:06.000Z</time>
      </trkpt>
      <trkpt lat="43.56072" lon="6.43317">
        <ele>317.2</ele>
        <time>2024-02-18T14:20:19.000Z</time>
      </trkpt>
      <trkpt lat="43.56068" lon="6.4333">
        <ele>315.8</ele>
        <time>2024-02-18T14:20:30.000Z</time>
      </trkpt>
      <trkpt lat="43.56067" lon="6.43342">
        <ele>314.2</ele>
        <time>2024-02-18T14:20:40.000Z</time>
      </trkpt>
      <trkpt lat="43.56064" lon="6.43355">
        <ele>313.2</ele>
        <time>2024-02-18T14:20:50.000Z</time>
      </trkpt>
      <trkpt lat="43.5606" lon="6.43368">
        <ele>312.5</ele>
        <time>2024-02-18T14:20:58.000Z</time>
      </trkpt>
      <trkpt lat="43.56057" lon="6.43379">
        <ele>312.1</ele>
        <time>2024-02-18T14:21:06.000Z</time>
      </trkpt>
      <trkpt lat="43.56049" lon="6.43387">
        <ele>311.7</ele>
        <time>2024-02-18T14:21:16.000Z</time>
      </trkpt>
      <trkpt lat="43.56039" lon="6.43391">
        <ele>311.5</ele>
        <time>2024-02-18T14:21:25.000Z</time>
      </trkpt>
      <trkpt lat="43.5603" lon="6.43389">
        <ele>311.6</ele>
        <time>2024-02-18T14:21:36.000Z</time>
      </trkpt>
      <trkpt lat="43.5602" lon="6.43387">
        <ele>311.3</ele>
        <time>2024-02-18T14:21:44.000Z</time>
      </trkpt>
      <trkpt lat="43.56011" lon="6.43387">
        <ele>309.8</ele>
        <time>2024-02-18T14:21:55.000Z</time>
      </trkpt>
      <trkpt lat="43.56002" lon="6.4338">
        <ele>308.1</ele>
        <time>2024-02-18T14:22:05.000Z</time>
      </trkpt>
      <trkpt lat="43.55993" lon="6.43376">
        <ele>306.3</ele>
        <time>2024-02-18T14:22:18.000Z</time>
      </trkpt>
      <trkpt lat="43.55985" lon="6.43369">
        <ele>305</ele>
        <time>2024-02-18T14:22:26.000Z</time>
      </trkpt>
      <trkpt lat="43.55975" lon="6.43367">
        <ele>303.3</ele>
        <time>2024-02-18T14:22:35.000Z</time>
      </trkpt>
      <trkpt lat="43.55966" lon="6.43362">
        <ele>301.4</ele>
        <time>2024-02-18T14:22:44.000Z</time>
      </trkpt>
      <trkpt lat="43.55957" lon="6.43361">
        <ele>298.8</ele>
        <time>2024-02-18T14:22:56.000Z</time>
      </trkpt>
      <trkpt lat="43.55947" lon="6.43358">
        <ele>297</ele>
        <time>2024-02-18T14:23:04.000Z</time>
      </trkpt>
      <trkpt lat="43.55947" lon="6.43371">
        <ele>294.7</ele>
        <time>2024-02-18T14:23:18.000Z</time>
      </trkpt>
      <trkpt lat="43.55951" lon="6.43383">
        <ele>294.1</ele>
        <time>2024-02-18T14:23:24.000Z</time>
      </trkpt>
      <trkpt lat="43.55955" lon="6.43394">
        <ele>293</ele>
        <time>2024-02-18T14:23:33.000Z</time>
      </trkpt>
      <trkpt lat="43.55959" lon="6.43406">
        <ele>292.2</ele>
        <time>2024-02-18T14:23:43.000Z</time>
      </trkpt>
      <trkpt lat="43.55966" lon="6.43413">
        <ele>291.5</ele>
        <time>2024-02-18T14:23:50.000Z</time>
      </trkpt>
      <trkpt lat="43.55967" lon="6.43427">
        <ele>290.3</ele>
        <time>2024-02-18T14:23:59.000Z</time>
      </trkpt>
      <trkpt lat="43.55957" lon="6.43431">
        <ele>287.4</ele>
        <time>2024-02-18T14:24:17.000Z</time>
      </trkpt>
      <trkpt lat="43.55952" lon="6.43441">
        <ele>285.8</ele>
        <time>2024-02-18T14:24:27.000Z</time>
      </trkpt>
      <trkpt lat="43.55952" lon="6.43454">
        <ele>284.3</ele>
        <time>2024-02-18T14:24:36.000Z</time>
      </trkpt>
      <trkpt lat="43.5595" lon="6.43468">
        <ele>283.4</ele>
        <time>2024-02-18T14:24:44.000Z</time>
      </trkpt>
      <trkpt lat="43.55947" lon="6.43455">
        <ele>281.8</ele>
        <time>2024-02-18T14:25:04.000Z</time>
      </trkpt>
      <trkpt lat="43.55946" lon="6.43442">
        <ele>281.5</ele>
        <time>2024-02-18T14:25:13.000Z</time>
      </trkpt>
      <trkpt lat="43.55944" lon="6.43429">
        <ele>281.4</ele>
        <time>2024-02-18T14:25:17.000Z</time>
      </trkpt>
      <trkpt lat="43.55936" lon="6.43421">
        <ele>280.3</ele>
        <time>2024-02-18T14:25:29.000Z</time>
      </trkpt>
      <trkpt lat="43.5593" lon="6.43411">
        <ele>278.7</ele>
        <time>2024-02-18T14:25:39.000Z</time>
      </trkpt>
      <trkpt lat="43.55923" lon="6.43403">
        <ele>277.6</ele>
        <time>2024-02-18T14:25:46.000Z</time>
      </trkpt>
      <trkpt lat="43.55915" lon="6.43398">
        <ele>275.1</ele>
        <time>2024-02-18T14:25:59.000Z</time>
      </trkpt>
      <trkpt lat="43.55905" lon="6.434">
        <ele>273.6</ele>
        <time>2024-02-18T14:26:09.000Z</time>
      </trkpt>
      <trkpt lat="43.559" lon="6.43401">
        <ele>272.6</ele>
        <time>2024-02-18T14:26:19.000Z</time>
      </trkpt>
      <trkpt lat="43.559" lon="6.43401">
        <ele>272.6</ele>
        <time>2024-02-18T14:26:20.000Z</time>
      </trkpt>
      <trkpt lat="43.559" lon="6.434">
        <ele>272.5</ele>
        <time>2024-02-18T14:26:21.000Z</time>
      </trkpt>
      <trkpt lat="43.55899" lon="6.434">
        <ele>272.5</ele>
        <time>2024-02-18T14:26:22.000Z</time>
      </trkpt>
      <trkpt lat="43.55899" lon="6.434">
        <ele>272.5</ele>
        <time>2024-02-18T14:26:23.000Z</time>
      </trkpt>
      <trkpt lat="43.5589" lon="6.43394">
        <ele>272</ele>
        <time>2024-02-18T14:26:33.000Z</time>
      </trkpt>
      <trkpt lat="43.55893" lon="6.43381">
        <ele>270.9</ele>
        <time>2024-02-18T14:26:43.000Z</time>
      </trkpt>
      <trkpt lat="43.55893" lon="6.43368">
        <ele>269.3</ele>
        <time>2024-02-18T14:26:55.000Z</time>
      </trkpt>
      <trkpt lat="43.55888" lon="6.43355">
        <ele>267.4</ele>
        <time>2024-02-18T14:27:06.000Z</time>
      </trkpt>
      <trkpt lat="43.55886" lon="6.43342">
        <ele>265.8</ele>
        <time>2024-02-18T14:27:14.000Z</time>
      </trkpt>
      <trkpt lat="43.55882" lon="6.4333">
        <ele>264.6</ele>
        <time>2024-02-18T14:27:20.000Z</time>
      </trkpt>
      <trkpt lat="43.55876" lon="6.43319">
        <ele>263.2</ele>
        <time>2024-02-18T14:27:29.000Z</time>
      </trkpt>
      <trkpt lat="43.55873" lon="6.43306">
        <ele>262.6</ele>
        <time>2024-02-18T14:27:36.000Z</time>
      </trkpt>
      <trkpt lat="43.55872" lon="6.43294">
        <ele>261.5</ele>
        <time>2024-02-18T14:27:46.000Z</time>
      </trkpt>
      <trkpt lat="43.55867" lon="6.43283">
        <ele>260.5</ele>
        <time>2024-02-18T14:27:59.000Z</time>
      </trkpt>
      <trkpt lat="43.55867" lon="6.43283">
        <ele>260.5</ele>
        <time>2024-02-18T14:28:00.000Z</time>
      </trkpt>
      <trkpt lat="43.55868" lon="6.43281">
        <ele>260.3</ele>
        <time>2024-02-18T14:28:04.000Z</time>
      </trkpt>
      <trkpt lat="43.55867" lon="6.43281">
        <ele>260.3</ele>
        <time>2024-02-18T14:28:05.000Z</time>
      </trkpt>
      <trkpt lat="43.55867" lon="6.4328">
        <ele>260.2</ele>
        <time>2024-02-18T14:28:06.000Z</time>
      </trkpt>
      <trkpt lat="43.55863" lon="6.43278">
        <ele>259.8</ele>
        <time>2024-02-18T14:28:15.000Z</time>
      </trkpt>
      <trkpt lat="43.55863" lon="6.43277">
        <ele>259.8</ele>
        <time>2024-02-18T14:28:16.000Z</time>
      </trkpt>
      <trkpt lat="43.55863" lon="6.43278">
        <ele>259.6</ele>
        <time>2024-02-18T14:28:24.000Z</time>
      </trkpt>
      <trkpt lat="43.55863" lon="6.43278">
        <ele>259.6</ele>
        <time>2024-02-18T14:28:25.000Z</time>
      </trkpt>
      <trkpt lat="43.55863" lon="6.43278">
        <ele>259.5</ele>
        <time>2024-02-18T14:28:26.000Z</time>
      </trkpt>
      <trkpt lat="43.55863" lon="6.43279">
        <ele>259.5</ele>
        <time>2024-02-18T14:28:27.000Z</time>
      </trkpt>
      <trkpt lat="43.55863" lon="6.43279">
        <ele>259.5</ele>
        <time>2024-02-18T14:28:28.000Z</time>
      </trkpt>
      <trkpt lat="43.55863" lon="6.4328">
        <ele>259.4</ele>
        <time>2024-02-18T14:28:29.000Z</time>
      </trkpt>
      <trkpt lat="43.55862" lon="6.4328">
        <ele>259.4</ele>
        <time>2024-02-18T14:28:30.000Z</time>
      </trkpt>
      <trkpt lat="43.55863" lon="6.4328">
        <ele>259.3</ele>
        <time>2024-02-18T14:28:36.000Z</time>
      </trkpt>
      <trkpt lat="43.55863" lon="6.4328">
        <ele>259.2</ele>
        <time>2024-02-18T14:28:37.000Z</time>
      </trkpt>
      <trkpt lat="43.55863" lon="6.4328">
        <ele>259.2</ele>
        <time>2024-02-18T14:28:38.000Z</time>
      </trkpt>
      <trkpt lat="43.55861" lon="6.43279">
        <ele>259</ele>
        <time>2024-02-18T14:28:47.000Z</time>
      </trkpt>
      <trkpt lat="43.5586" lon="6.43279">
        <ele>259</ele>
        <time>2024-02-18T14:28:48.000Z</time>
      </trkpt>
      <trkpt lat="43.55858" lon="6.43276">
        <ele>258.2</ele>
        <time>2024-02-18T14:28:59.000Z</time>
      </trkpt>
      <trkpt lat="43.55857" lon="6.43276">
        <ele>258.2</ele>
        <time>2024-02-18T14:29:00.000Z</time>
      </trkpt>
      <trkpt lat="43.55857" lon="6.43276">
        <ele>258.3</ele>
        <time>2024-02-18T14:29:01.000Z</time>
      </trkpt>
      <trkpt lat="43.55856" lon="6.43275">
        <ele>258.2</ele>
        <time>2024-02-18T14:29:02.000Z</time>
      </trkpt>
      <trkpt lat="43.55856" lon="6.43275">
        <ele>258.1</ele>
        <time>2024-02-18T14:29:03.000Z</time>
      </trkpt>
      <trkpt lat="43.55846" lon="6.43276">
        <ele>256.4</ele>
        <time>2024-02-18T14:29:16.000Z</time>
      </trkpt>
      <trkpt lat="43.55837" lon="6.4328">
        <ele>255.1</ele>
        <time>2024-02-18T14:29:24.000Z</time>
      </trkpt>
      <trkpt lat="43.55836" lon="6.43294">
        <ele>253.7</ele>
        <time>2024-02-18T14:29:32.000Z</time>
      </trkpt>
      <trkpt lat="43.55835" lon="6.43306">
        <ele>252.7</ele>
        <time>2024-02-18T14:29:41.000Z</time>
      </trkpt>
      <trkpt lat="43.55825" lon="6.43308">
        <ele>251.2</ele>
        <time>2024-02-18T14:29:54.000Z</time>
      </trkpt>
      <trkpt lat="43.55819" lon="6.43318">
        <ele>250.6</ele>
        <time>2024-02-18T14:30:05.000Z</time>
      </trkpt>
      <trkpt lat="43.55819" lon="6.43319">
        <ele>250.6</ele>
        <time>2024-02-18T14:30:09.000Z</time>
      </trkpt>
      <trkpt lat="43.55819" lon="6.43319">
        <ele>250.6</ele>
        <time>2024-02-18T14:30:10.000Z</time>
      </trkpt>
      <trkpt lat="43.55819" lon="6.43319">
        <ele>250.6</ele>
        <time>2024-02-18T14:30:11.000Z</time>
      </trkpt>
      <trkpt lat="43.5582" lon="6.4332">
        <ele>250.5</ele>
        <time>2024-02-18T14:30:22.000Z</time>
      </trkpt>
      <trkpt lat="43.5582" lon="6.4332">
        <ele>250.5</ele>
        <time>2024-02-18T14:30:23.000Z</time>
      </trkpt>
      <trkpt lat="43.5582" lon="6.4332">
        <ele>250.5</ele>
        <time>2024-02-18T14:30:24.000Z</time>
      </trkpt>
      <trkpt lat="43.5582" lon="6.4332">
        <ele>250.5</ele>
        <time>2024-02-18T14:30:25.000Z</time>
      </trkpt>
      <trkpt lat="43.55821" lon="6.43317">
        <ele>250.4</ele>
        <time>2024-02-18T14:30:34.000Z</time>
      </trkpt>
      <trkpt lat="43.55822" lon="6.43316">
        <ele>250.4</ele>
        <time>2024-02-18T14:30:35.000Z</time>
      </trkpt>
      <trkpt lat="43.55827" lon="6.43304">
        <ele>250.3</ele>
        <time>2024-02-18T14:30:49.000Z</time>
      </trkpt>
      <trkpt lat="43.55823" lon="6.43292">
        <ele>250.1</ele>
        <time>2024-02-18T14:30:57.000Z</time>
      </trkpt>
      <trkpt lat="43.55816" lon="6.43282">
        <ele>249</ele>
        <time>2024-02-18T14:31:08.000Z</time>
      </trkpt>
      <trkpt lat="43.5581" lon="6.43272">
        <ele>247.9</ele>
        <time>2024-02-18T14:31:16.000Z</time>
      </trkpt>
      <trkpt lat="43.55809" lon="6.43269">
        <ele>247.1</ele>
        <time>2024-02-18T14:31:21.000Z</time>
      </trkpt>
      <trkpt lat="43.55809" lon="6.43269">
        <ele>247</ele>
        <time>2024-02-18T14:31:22.000Z</time>
      </trkpt>
      <trkpt lat="43.55808" lon="6.4327">
        <ele>247</ele>
        <time>2024-02-18T14:31:23.000Z</time>
      </trkpt>
      <trkpt lat="43.55807" lon="6.4327">
        <ele>247</ele>
        <time>2024-02-18T14:31:24.000Z</time>
      </trkpt>
      <trkpt lat="43.55807" lon="6.43269">
        <ele>246.9</ele>
        <time>2024-02-18T14:31:25.000Z</time>
      </trkpt>
      <trkpt lat="43.558" lon="6.4326">
        <ele>245.1</ele>
        <time>2024-02-18T14:31:41.000Z</time>
      </trkpt>
      <trkpt lat="43.55798" lon="6.43248">
        <ele>243.7</ele>
        <time>2024-02-18T14:31:55.000Z</time>
      </trkpt>
      <trkpt lat="43.55789" lon="6.43242">
        <ele>242.8</ele>
        <time>2024-02-18T14:32:02.000Z</time>
      </trkpt>
      <trkpt lat="43.55783" lon="6.43251">
        <ele>241.8</ele>
        <time>2024-02-18T14:32:11.000Z</time>
      </trkpt>
      <trkpt lat="43.55782" lon="6.43254">
        <ele>241.5</ele>
        <time>2024-02-18T14:32:19.000Z</time>
      </trkpt>
      <trkpt lat="43.55782" lon="6.43254">
        <ele>241.4</ele>
        <time>2024-02-18T14:32:20.000Z</time>
      </trkpt>
      <trkpt lat="43.55782" lon="6.43253">
        <ele>241.2</ele>
        <time>2024-02-18T14:32:52.000Z</time>
      </trkpt>
      <trkpt lat="43.55782" lon="6.43254">
        <ele>241.2</ele>
        <time>2024-02-18T14:32:53.000Z</time>
      </trkpt>
      <trkpt lat="43.55782" lon="6.43254">
        <ele>241.2</ele>
        <time>2024-02-18T14:32:54.000Z</time>
      </trkpt>
      <trkpt lat="43.55782" lon="6.43253">
        <ele>241.2</ele>
        <time>2024-02-18T14:32:55.000Z</time>
      </trkpt>
      <trkpt lat="43.55782" lon="6.43253">
        <ele>241.2</ele>
        <time>2024-02-18T14:32:56.000Z</time>
      </trkpt>
      <trkpt lat="43.55782" lon="6.43253">
        <ele>241.1</ele>
        <time>2024-02-18T14:33:29.000Z</time>
      </trkpt>
      <trkpt lat="43.55782" lon="6.43253">
        <ele>241.1</ele>
        <time>2024-02-18T14:33:30.000Z</time>
      </trkpt>
      <trkpt lat="43.55782" lon="6.43255">
        <ele>241.2</ele>
        <time>2024-02-18T14:33:34.000Z</time>
      </trkpt>
      <trkpt lat="43.55782" lon="6.43255">
        <ele>241.2</ele>
        <time>2024-02-18T14:33:35.000Z</time>
      </trkpt>
      <trkpt lat="43.55782" lon="6.43255">
        <ele>241.3</ele>
        <time>2024-02-18T14:33:36.000Z</time>
      </trkpt>
      <trkpt lat="43.55782" lon="6.43255">
        <ele>241.3</ele>
        <time>2024-02-18T14:33:37.000Z</time>
      </trkpt>
      <trkpt lat="43.55782" lon="6.43255">
        <ele>241.3</ele>
        <time>2024-02-18T14:33:38.000Z</time>
      </trkpt>
      <trkpt lat="43.55782" lon="6.43255">
        <ele>241.3</ele>
        <time>2024-02-18T14:33:39.000Z</time>
      </trkpt>
      <trkpt lat="43.55782" lon="6.43257">
        <ele>241.3</ele>
        <time>2024-02-18T14:33:47.000Z</time>
      </trkpt>
      <trkpt lat="43.55782" lon="6.43257">
        <ele>241.3</ele>
        <time>2024-02-18T14:33:48.000Z</time>
      </trkpt>
      <trkpt lat="43.55782" lon="6.43257">
        <ele>241.3</ele>
        <time>2024-02-18T14:33:49.000Z</time>
      </trkpt>
      <trkpt lat="43.55782" lon="6.43257">
        <ele>241.3</ele>
        <time>2024-02-18T14:33:49.000Z</time>
      </trkpt>
      <trkpt lat="43.55782" lon="6.43257">
        <ele>241.3</ele>
        <time>2024-02-18T14:33:49.000Z</time>
      </trkpt>
      <trkpt lat="43.55782" lon="6.43257">
        <ele>241.3</ele>
        <time>2024-02-18T14:33:50.000Z</time>
      </trkpt>
      <trkpt lat="43.55782" lon="6.43257">
        <ele>241.3</ele>
        <time>2024-02-18T14:33:50.000Z</time>
      </trkpt>
    </trkseg>
  </trk>
</gpx>